<?xml version="1.0" encoding="UTF-8" standalone="no" ?>
<gpx xmlns="http://www.topografix.com/GPX/1/1" xmlns:xsi="http://www.w3.org/2001/XMLSchema-instance" xsi:schemaLocation="http://www.topografix.com/GPX/1/1 http://www.topografix.com/GPX/1/1/gpx.xsd" version="1.1" creator="VisuGPX - https://www.visugpx.com">
  <metadata>
    <name>Troglodyte 2012</name>
    <desc><![CDATA[Parcours 60 km (sauf la dernière boucle).]]></desc>
  </metadata>
  <trk>
    <name><![CDATA[2012-06 VTT Troglodyte]]></name>
    <desc><![CDATA[24 juin 2012  8:08 am]]></desc>
    <trkseg>
      <trkpt lat="49.32975" lon="1.01843">
        <ele>117.697</ele>
        <time>2012-06-24T06:15:13.711Z</time>
      </trkpt>
      <trkpt lat="49.32975" lon="1.01843">
        <ele>136.543</ele>
        <time>2012-06-24T06:15:16.714Z</time>
      </trkpt>
      <trkpt lat="49.32975" lon="1.01843">
        <ele>136.321</ele>
        <time>2012-06-24T06:29:59.722Z</time>
      </trkpt>
      <trkpt lat="49.3296" lon="1.01849">
        <ele>130.784</ele>
        <time>2012-06-24T06:29:59.722Z</time>
      </trkpt>
      <trkpt lat="49.3295" lon="1.01851">
        <ele>126.55</ele>
        <time>2012-06-24T06:30:07.943Z</time>
      </trkpt>
      <trkpt lat="49.32949" lon="1.01869">
        <ele>124.695</ele>
        <time>2012-06-24T06:30:14.821Z</time>
      </trkpt>
      <trkpt lat="49.32953" lon="1.01883">
        <ele>124.314</ele>
        <time>2012-06-24T06:30:18.678Z</time>
      </trkpt>
      <trkpt lat="49.32957" lon="1.01899">
        <ele>124.506</ele>
        <time>2012-06-24T06:30:21.989Z</time>
      </trkpt>
      <trkpt lat="49.32964" lon="1.01915">
        <ele>124.821</ele>
        <time>2012-06-24T06:30:25.323Z</time>
      </trkpt>
      <trkpt lat="49.32974" lon="1.0193">
        <ele>125.082</ele>
        <time>2012-06-24T06:30:29.006Z</time>
      </trkpt>
      <trkpt lat="49.32985" lon="1.01932">
        <ele>125.229</ele>
        <time>2012-06-24T06:30:32.033Z</time>
      </trkpt>
      <trkpt lat="49.32997" lon="1.0192">
        <ele>125.411</ele>
        <time>2012-06-24T06:30:35.275Z</time>
      </trkpt>
      <trkpt lat="49.33007" lon="1.01908">
        <ele>126.096</ele>
        <time>2012-06-24T06:30:38.239Z</time>
      </trkpt>
      <trkpt lat="49.33019" lon="1.019">
        <ele>127.399</ele>
        <time>2012-06-24T06:30:41.031Z</time>
      </trkpt>
      <trkpt lat="49.33031" lon="1.01897">
        <ele>128.643</ele>
        <time>2012-06-24T06:30:43.678Z</time>
      </trkpt>
      <trkpt lat="49.33044" lon="1.01901">
        <ele>129.282</ele>
        <time>2012-06-24T06:30:46.399Z</time>
      </trkpt>
      <trkpt lat="49.33058" lon="1.01905">
        <ele>129.795</ele>
        <time>2012-06-24T06:30:49.348Z</time>
      </trkpt>
      <trkpt lat="49.33074" lon="1.01909">
        <ele>130.827</ele>
        <time>2012-06-24T06:30:52.363Z</time>
      </trkpt>
      <trkpt lat="49.33089" lon="1.01912">
        <ele>132.122</ele>
        <time>2012-06-24T06:30:55.258Z</time>
      </trkpt>
      <trkpt lat="49.33104" lon="1.01915">
        <ele>132.973</ele>
        <time>2012-06-24T06:30:58.006Z</time>
      </trkpt>
      <trkpt lat="49.33119" lon="1.01915">
        <ele>133.244</ele>
        <time>2012-06-24T06:31:00.763Z</time>
      </trkpt>
      <trkpt lat="49.33133" lon="1.01915">
        <ele>132.911</ele>
        <time>2012-06-24T06:31:03.285Z</time>
      </trkpt>
      <trkpt lat="49.33144" lon="1.01915">
        <ele>131.905</ele>
        <time>2012-06-24T06:31:05.271Z</time>
      </trkpt>
      <trkpt lat="49.33155" lon="1.01919">
        <ele>130.663</ele>
        <time>2012-06-24T06:31:07.262Z</time>
      </trkpt>
      <trkpt lat="49.3317" lon="1.01929">
        <ele>129.618</ele>
        <time>2012-06-24T06:31:10.250Z</time>
      </trkpt>
      <trkpt lat="49.33181" lon="1.01936">
        <ele>128.719</ele>
        <time>2012-06-24T06:31:12.181Z</time>
      </trkpt>
      <trkpt lat="49.33195" lon="1.01947">
        <ele>128.016</ele>
        <time>2012-06-24T06:31:14.894Z</time>
      </trkpt>
      <trkpt lat="49.33211" lon="1.01957">
        <ele>127.529</ele>
        <time>2012-06-24T06:31:17.783Z</time>
      </trkpt>
      <trkpt lat="49.33227" lon="1.01961">
        <ele>127.097</ele>
        <time>2012-06-24T06:31:20.449Z</time>
      </trkpt>
      <trkpt lat="49.33243" lon="1.01961">
        <ele>126.766</ele>
        <time>2012-06-24T06:31:23.159Z</time>
      </trkpt>
      <trkpt lat="49.33253" lon="1.01959">
        <ele>126.719</ele>
        <time>2012-06-24T06:31:24.986Z</time>
      </trkpt>
      <trkpt lat="49.33264" lon="1.01954">
        <ele>126.924</ele>
        <time>2012-06-24T06:31:26.837Z</time>
      </trkpt>
      <trkpt lat="49.3328" lon="1.0195">
        <ele>127.17</ele>
        <time>2012-06-24T06:31:29.652Z</time>
      </trkpt>
      <trkpt lat="49.33291" lon="1.01953">
        <ele>127.297</ele>
        <time>2012-06-24T06:31:31.525Z</time>
      </trkpt>
      <trkpt lat="49.33307" lon="1.01965">
        <ele>127.322</ele>
        <time>2012-06-24T06:31:34.584Z</time>
      </trkpt>
      <trkpt lat="49.33315" lon="1.01977">
        <ele>127.318</ele>
        <time>2012-06-24T06:31:36.519Z</time>
      </trkpt>
      <trkpt lat="49.33328" lon="1.01999">
        <ele>127.268</ele>
        <time>2012-06-24T06:31:39.646Z</time>
      </trkpt>
      <trkpt lat="49.33337" lon="1.02015">
        <ele>127.07</ele>
        <time>2012-06-24T06:31:41.781Z</time>
      </trkpt>
      <trkpt lat="49.33348" lon="1.02037">
        <ele>126.708</ele>
        <time>2012-06-24T06:31:44.563Z</time>
      </trkpt>
      <trkpt lat="49.33355" lon="1.02052">
        <ele>126.329</ele>
        <time>2012-06-24T06:31:46.438Z</time>
      </trkpt>
      <trkpt lat="49.33367" lon="1.02073">
        <ele>126.057</ele>
        <time>2012-06-24T06:31:49.231Z</time>
      </trkpt>
      <trkpt lat="49.33377" lon="1.02095">
        <ele>125.902</ele>
        <time>2012-06-24T06:31:51.995Z</time>
      </trkpt>
      <trkpt lat="49.33389" lon="1.02116">
        <ele>125.831</ele>
        <time>2012-06-24T06:31:54.761Z</time>
      </trkpt>
      <trkpt lat="49.334" lon="1.02137">
        <ele>125.854</ele>
        <time>2012-06-24T06:31:57.560Z</time>
      </trkpt>
      <trkpt lat="49.33407" lon="1.02152">
        <ele>125.95</ele>
        <time>2012-06-24T06:31:59.372Z</time>
      </trkpt>
      <trkpt lat="49.33414" lon="1.02167">
        <ele>126.01</ele>
        <time>2012-06-24T06:32:01.202Z</time>
      </trkpt>
      <trkpt lat="49.33422" lon="1.02181">
        <ele>125.838</ele>
        <time>2012-06-24T06:32:03.043Z</time>
      </trkpt>
      <trkpt lat="49.33433" lon="1.02203">
        <ele>125.591</ele>
        <time>2012-06-24T06:32:05.854Z</time>
      </trkpt>
      <trkpt lat="49.33441" lon="1.02218">
        <ele>125.481</ele>
        <time>2012-06-24T06:32:07.683Z</time>
      </trkpt>
      <trkpt lat="49.33453" lon="1.0224">
        <ele>125.359</ele>
        <time>2012-06-24T06:32:10.474Z</time>
      </trkpt>
      <trkpt lat="49.33464" lon="1.02262">
        <ele>125.135</ele>
        <time>2012-06-24T06:32:13.199Z</time>
      </trkpt>
      <trkpt lat="49.33475" lon="1.02284">
        <ele>124.959</ele>
        <time>2012-06-24T06:32:15.937Z</time>
      </trkpt>
      <trkpt lat="49.33486" lon="1.02307">
        <ele>124.86</ele>
        <time>2012-06-24T06:32:18.690Z</time>
      </trkpt>
      <trkpt lat="49.33493" lon="1.02321">
        <ele>124.8</ele>
        <time>2012-06-24T06:32:20.463Z</time>
      </trkpt>
      <trkpt lat="49.33505" lon="1.02344">
        <ele>124.729</ele>
        <time>2012-06-24T06:32:23.345Z</time>
      </trkpt>
      <trkpt lat="49.33517" lon="1.02366">
        <ele>124.594</ele>
        <time>2012-06-24T06:32:26.062Z</time>
      </trkpt>
      <trkpt lat="49.33524" lon="1.02381">
        <ele>124.361</ele>
        <time>2012-06-24T06:32:27.850Z</time>
      </trkpt>
      <trkpt lat="49.33535" lon="1.02403">
        <ele>124.054</ele>
        <time>2012-06-24T06:32:30.535Z</time>
      </trkpt>
      <trkpt lat="49.33543" lon="1.02417">
        <ele>123.723</ele>
        <time>2012-06-24T06:32:32.297Z</time>
      </trkpt>
      <trkpt lat="49.3355" lon="1.02433">
        <ele>123.425</ele>
        <time>2012-06-24T06:32:34.112Z</time>
      </trkpt>
      <trkpt lat="49.33562" lon="1.02454">
        <ele>123.296</ele>
        <time>2012-06-24T06:32:36.669Z</time>
      </trkpt>
      <trkpt lat="49.33575" lon="1.02477">
        <ele>123.368</ele>
        <time>2012-06-24T06:32:39.517Z</time>
      </trkpt>
      <trkpt lat="49.33586" lon="1.02499">
        <ele>123.458</ele>
        <time>2012-06-24T06:32:42.119Z</time>
      </trkpt>
      <trkpt lat="49.33594" lon="1.02514">
        <ele>123.422</ele>
        <time>2012-06-24T06:32:43.881Z</time>
      </trkpt>
      <trkpt lat="49.33607" lon="1.02539">
        <ele>123.271</ele>
        <time>2012-06-24T06:32:46.808Z</time>
      </trkpt>
      <trkpt lat="49.33614" lon="1.02554">
        <ele>123.069</ele>
        <time>2012-06-24T06:32:48.620Z</time>
      </trkpt>
      <trkpt lat="49.33614" lon="1.02554">
        <ele>122.908</ele>
        <time>2012-06-24T06:32:48.620Z</time>
      </trkpt>
      <trkpt lat="49.33625" lon="1.02578">
        <ele>122.668</ele>
        <time>2012-06-24T06:32:51.355Z</time>
      </trkpt>
      <trkpt lat="49.33632" lon="1.02593">
        <ele>122.176</ele>
        <time>2012-06-24T06:32:53.285Z</time>
      </trkpt>
      <trkpt lat="49.33639" lon="1.02608">
        <ele>121.64</ele>
        <time>2012-06-24T06:32:55.533Z</time>
      </trkpt>
      <trkpt lat="49.33652" lon="1.02635">
        <ele>121.345</ele>
        <time>2012-06-24T06:32:58.738Z</time>
      </trkpt>
      <trkpt lat="49.33662" lon="1.02657">
        <ele>121.276</ele>
        <time>2012-06-24T06:33:01.228Z</time>
      </trkpt>
      <trkpt lat="49.33671" lon="1.02673">
        <ele>121.309</ele>
        <time>2012-06-24T06:33:03.160Z</time>
      </trkpt>
      <trkpt lat="49.3368" lon="1.0269">
        <ele>121.076</ele>
        <time>2012-06-24T06:33:05.029Z</time>
      </trkpt>
      <trkpt lat="49.33693" lon="1.02715">
        <ele>120.381</ele>
        <time>2012-06-24T06:33:07.899Z</time>
      </trkpt>
      <trkpt lat="49.33705" lon="1.02739">
        <ele>119.648</ele>
        <time>2012-06-24T06:33:10.518Z</time>
      </trkpt>
      <trkpt lat="49.33712" lon="1.02755">
        <ele>119.296</ele>
        <time>2012-06-24T06:33:12.299Z</time>
      </trkpt>
      <trkpt lat="49.33725" lon="1.02781">
        <ele>119.239</ele>
        <time>2012-06-24T06:33:15.114Z</time>
      </trkpt>
      <trkpt lat="49.33741" lon="1.0281">
        <ele>119.297</ele>
        <time>2012-06-24T06:33:18.405Z</time>
      </trkpt>
      <trkpt lat="49.33755" lon="1.02834">
        <ele>119.357</ele>
        <time>2012-06-24T06:33:21.138Z</time>
      </trkpt>
      <trkpt lat="49.33769" lon="1.02862">
        <ele>119.355</ele>
        <time>2012-06-24T06:33:24.067Z</time>
      </trkpt>
      <trkpt lat="49.33784" lon="1.02889">
        <ele>119.202</ele>
        <time>2012-06-24T06:33:26.962Z</time>
      </trkpt>
      <trkpt lat="49.33799" lon="1.02913">
        <ele>118.437</ele>
        <time>2012-06-24T06:33:29.542Z</time>
      </trkpt>
      <trkpt lat="49.33813" lon="1.02938">
        <ele>116.946</ele>
        <time>2012-06-24T06:33:32.028Z</time>
      </trkpt>
      <trkpt lat="49.33822" lon="1.02955">
        <ele>115.567</ele>
        <time>2012-06-24T06:33:33.697Z</time>
      </trkpt>
      <trkpt lat="49.33834" lon="1.02978">
        <ele>114.956</ele>
        <time>2012-06-24T06:33:36.153Z</time>
      </trkpt>
      <trkpt lat="49.33844" lon="1.03001">
        <ele>114.888</ele>
        <time>2012-06-24T06:33:38.466Z</time>
      </trkpt>
      <trkpt lat="49.3385" lon="1.03021">
        <ele>114.906</ele>
        <time>2012-06-24T06:33:40.412Z</time>
      </trkpt>
      <trkpt lat="49.33852" lon="1.03038">
        <ele>114.741</ele>
        <time>2012-06-24T06:33:41.962Z</time>
      </trkpt>
      <trkpt lat="49.33854" lon="1.03052">
        <ele>115.033</ele>
        <time>2012-06-24T06:33:43.221Z</time>
      </trkpt>
      <trkpt lat="49.33852" lon="1.03078">
        <ele>116.186</ele>
        <time>2012-06-24T06:33:45.824Z</time>
      </trkpt>
      <trkpt lat="49.33851" lon="1.03098">
        <ele>117.334</ele>
        <time>2012-06-24T06:33:48.252Z</time>
      </trkpt>
      <trkpt lat="49.33847" lon="1.03121">
        <ele>117.781</ele>
        <time>2012-06-24T06:33:52.645Z</time>
      </trkpt>
      <trkpt lat="49.33843" lon="1.03143">
        <ele>117.952</ele>
        <time>2012-06-24T06:33:56.898Z</time>
      </trkpt>
      <trkpt lat="49.33837" lon="1.0316">
        <ele>119.024</ele>
        <time>2012-06-24T06:33:59.630Z</time>
      </trkpt>
      <trkpt lat="49.3383" lon="1.03179">
        <ele>121.447</ele>
        <time>2012-06-24T06:34:02.781Z</time>
      </trkpt>
      <trkpt lat="49.33822" lon="1.03198">
        <ele>124.076</ele>
        <time>2012-06-24T06:34:05.811Z</time>
      </trkpt>
      <trkpt lat="49.33818" lon="1.03224">
        <ele>125.989</ele>
        <time>2012-06-24T06:34:09.261Z</time>
      </trkpt>
      <trkpt lat="49.33816" lon="1.03238">
        <ele>127.831</ele>
        <time>2012-06-24T06:34:11.054Z</time>
      </trkpt>
      <trkpt lat="49.33818" lon="1.03263">
        <ele>130.371</ele>
        <time>2012-06-24T06:34:14.342Z</time>
      </trkpt>
      <trkpt lat="49.33819" lon="1.03284">
        <ele>133.07</ele>
        <time>2012-06-24T06:34:17.073Z</time>
      </trkpt>
      <trkpt lat="49.33821" lon="1.0331">
        <ele>134.755</ele>
        <time>2012-06-24T06:34:20.556Z</time>
      </trkpt>
      <trkpt lat="49.33824" lon="1.03323">
        <ele>135.342</ele>
        <time>2012-06-24T06:34:22.636Z</time>
      </trkpt>
      <trkpt lat="49.33833" lon="1.03335">
        <ele>135.472</ele>
        <time>2012-06-24T06:34:25.254Z</time>
      </trkpt>
      <trkpt lat="49.33844" lon="1.03344">
        <ele>135.474</ele>
        <time>2012-06-24T06:34:28.107Z</time>
      </trkpt>
      <trkpt lat="49.33854" lon="1.03348">
        <ele>135.332</ele>
        <time>2012-06-24T06:34:30.578Z</time>
      </trkpt>
      <trkpt lat="49.33865" lon="1.03352">
        <ele>134.588</ele>
        <time>2012-06-24T06:34:33.395Z</time>
      </trkpt>
      <trkpt lat="49.33878" lon="1.03359">
        <ele>133.044</ele>
        <time>2012-06-24T06:34:36.680Z</time>
      </trkpt>
      <trkpt lat="49.33893" lon="1.03366">
        <ele>131.515</ele>
        <time>2012-06-24T06:34:40.775Z</time>
      </trkpt>
      <trkpt lat="49.33903" lon="1.03371">
        <ele>130.622</ele>
        <time>2012-06-24T06:34:43.281Z</time>
      </trkpt>
      <trkpt lat="49.33916" lon="1.03377">
        <ele>130.057</ele>
        <time>2012-06-24T06:34:46.373Z</time>
      </trkpt>
      <trkpt lat="49.3393" lon="1.03382">
        <ele>129.545</ele>
        <time>2012-06-24T06:34:49.785Z</time>
      </trkpt>
      <trkpt lat="49.33942" lon="1.03387">
        <ele>129.074</ele>
        <time>2012-06-24T06:34:52.497Z</time>
      </trkpt>
      <trkpt lat="49.33951" lon="1.03391">
        <ele>128.656</ele>
        <time>2012-06-24T06:34:54.755Z</time>
      </trkpt>
      <trkpt lat="49.3396" lon="1.03396">
        <ele>128.34</ele>
        <time>2012-06-24T06:34:56.933Z</time>
      </trkpt>
      <trkpt lat="49.33973" lon="1.03401">
        <ele>128.223</ele>
        <time>2012-06-24T06:34:59.998Z</time>
      </trkpt>
      <trkpt lat="49.33984" lon="1.03404">
        <ele>128.342</ele>
        <time>2012-06-24T06:35:02.472Z</time>
      </trkpt>
      <trkpt lat="49.33996" lon="1.03405">
        <ele>128.592</ele>
        <time>2012-06-24T06:35:05.493Z</time>
      </trkpt>
      <trkpt lat="49.34005" lon="1.03409">
        <ele>128.818</ele>
        <time>2012-06-24T06:35:07.953Z</time>
      </trkpt>
      <trkpt lat="49.34014" lon="1.03414">
        <ele>129.258</ele>
        <time>2012-06-24T06:35:10.472Z</time>
      </trkpt>
      <trkpt lat="49.34027" lon="1.03419">
        <ele>130.921</ele>
        <time>2012-06-24T06:35:13.504Z</time>
      </trkpt>
      <trkpt lat="49.3404" lon="1.03424">
        <ele>134.151</ele>
        <time>2012-06-24T06:35:16.486Z</time>
      </trkpt>
      <trkpt lat="49.34052" lon="1.0343">
        <ele>137.457</ele>
        <time>2012-06-24T06:35:19.551Z</time>
      </trkpt>
      <trkpt lat="49.34061" lon="1.03434">
        <ele>139.379</ele>
        <time>2012-06-24T06:35:21.875Z</time>
      </trkpt>
      <trkpt lat="49.34073" lon="1.03437">
        <ele>140.011</ele>
        <time>2012-06-24T06:35:24.852Z</time>
      </trkpt>
      <trkpt lat="49.3409" lon="1.03443">
        <ele>139.938</ele>
        <time>2012-06-24T06:35:29.129Z</time>
      </trkpt>
      <trkpt lat="49.34106" lon="1.03449">
        <ele>139.575</ele>
        <time>2012-06-24T06:35:33.236Z</time>
      </trkpt>
      <trkpt lat="49.34116" lon="1.03454">
        <ele>139.323</ele>
        <time>2012-06-24T06:35:35.763Z</time>
      </trkpt>
      <trkpt lat="49.34129" lon="1.03457">
        <ele>139.519</ele>
        <time>2012-06-24T06:35:38.734Z</time>
      </trkpt>
      <trkpt lat="49.34146" lon="1.03464">
        <ele>140.24</ele>
        <time>2012-06-24T06:35:42.923Z</time>
      </trkpt>
      <trkpt lat="49.34163" lon="1.03473">
        <ele>141.223</ele>
        <time>2012-06-24T06:35:46.662Z</time>
      </trkpt>
      <trkpt lat="49.34177" lon="1.03479">
        <ele>142.031</ele>
        <time>2012-06-24T06:35:49.904Z</time>
      </trkpt>
      <trkpt lat="49.34192" lon="1.03488">
        <ele>142.545</ele>
        <time>2012-06-24T06:35:53.749Z</time>
      </trkpt>
      <trkpt lat="49.34209" lon="1.03497">
        <ele>142.925</ele>
        <time>2012-06-24T06:35:58.316Z</time>
      </trkpt>
      <trkpt lat="49.34219" lon="1.03503">
        <ele>143.184</ele>
        <time>2012-06-24T06:36:01.032Z</time>
      </trkpt>
      <trkpt lat="49.34233" lon="1.0351">
        <ele>143.13</ele>
        <time>2012-06-24T06:36:04.123Z</time>
      </trkpt>
      <trkpt lat="49.34244" lon="1.03514">
        <ele>142.714</ele>
        <time>2012-06-24T06:36:06.356Z</time>
      </trkpt>
      <trkpt lat="49.34261" lon="1.03523">
        <ele>142.085</ele>
        <time>2012-06-24T06:36:09.745Z</time>
      </trkpt>
      <trkpt lat="49.34275" lon="1.03531">
        <ele>141.29</ele>
        <time>2012-06-24T06:36:12.752Z</time>
      </trkpt>
      <trkpt lat="49.34285" lon="1.03535">
        <ele>140.198</ele>
        <time>2012-06-24T06:36:14.727Z</time>
      </trkpt>
      <trkpt lat="49.34298" lon="1.0354">
        <ele>138.161</ele>
        <time>2012-06-24T06:36:17.571Z</time>
      </trkpt>
      <trkpt lat="49.34313" lon="1.03545">
        <ele>135.128</ele>
        <time>2012-06-24T06:36:20.557Z</time>
      </trkpt>
      <trkpt lat="49.34322" lon="1.03547">
        <ele>132.558</ele>
        <time>2012-06-24T06:36:22.202Z</time>
      </trkpt>
      <trkpt lat="49.34343" lon="1.03553">
        <ele>131.489</ele>
        <time>2012-06-24T06:36:25.899Z</time>
      </trkpt>
      <trkpt lat="49.34361" lon="1.03561">
        <ele>131.677</ele>
        <time>2012-06-24T06:36:29.168Z</time>
      </trkpt>
      <trkpt lat="49.34374" lon="1.03567">
        <ele>132.73</ele>
        <time>2012-06-24T06:36:31.474Z</time>
      </trkpt>
      <trkpt lat="49.34395" lon="1.03577">
        <ele>133.962</ele>
        <time>2012-06-24T06:36:34.681Z</time>
      </trkpt>
      <trkpt lat="49.34413" lon="1.03585">
        <ele>134.736</ele>
        <time>2012-06-24T06:36:37.325Z</time>
      </trkpt>
      <trkpt lat="49.34428" lon="1.03594">
        <ele>135.006</ele>
        <time>2012-06-24T06:36:39.706Z</time>
      </trkpt>
      <trkpt lat="49.34448" lon="1.03604">
        <ele>134.97</ele>
        <time>2012-06-24T06:36:42.626Z</time>
      </trkpt>
      <trkpt lat="49.3446" lon="1.03611">
        <ele>134.687</ele>
        <time>2012-06-24T06:36:44.428Z</time>
      </trkpt>
      <trkpt lat="49.34472" lon="1.03616">
        <ele>134.114</ele>
        <time>2012-06-24T06:36:46.116Z</time>
      </trkpt>
      <trkpt lat="49.34491" lon="1.03626">
        <ele>133.27</ele>
        <time>2012-06-24T06:36:48.868Z</time>
      </trkpt>
      <trkpt lat="49.34504" lon="1.03632">
        <ele>132.347</ele>
        <time>2012-06-24T06:36:50.659Z</time>
      </trkpt>
      <trkpt lat="49.34524" lon="1.03642">
        <ele>131.287</ele>
        <time>2012-06-24T06:36:53.573Z</time>
      </trkpt>
      <trkpt lat="49.34543" lon="1.03649">
        <ele>129.924</ele>
        <time>2012-06-24T06:36:56.072Z</time>
      </trkpt>
      <trkpt lat="49.34563" lon="1.03658">
        <ele>128.654</ele>
        <time>2012-06-24T06:36:58.924Z</time>
      </trkpt>
      <trkpt lat="49.34576" lon="1.03665">
        <ele>128.013</ele>
        <time>2012-06-24T06:37:00.765Z</time>
      </trkpt>
      <trkpt lat="49.34598" lon="1.03675">
        <ele>127.87</ele>
        <time>2012-06-24T06:37:03.719Z</time>
      </trkpt>
      <trkpt lat="49.34619" lon="1.03686">
        <ele>127.829</ele>
        <time>2012-06-24T06:37:06.528Z</time>
      </trkpt>
      <trkpt lat="49.3464" lon="1.03694">
        <ele>127.709</ele>
        <time>2012-06-24T06:37:09.246Z</time>
      </trkpt>
      <trkpt lat="49.34655" lon="1.037">
        <ele>126.773</ele>
        <time>2012-06-24T06:37:11.103Z</time>
      </trkpt>
      <trkpt lat="49.34674" lon="1.03709">
        <ele>124.551</ele>
        <time>2012-06-24T06:37:13.719Z</time>
      </trkpt>
      <trkpt lat="49.34694" lon="1.03712">
        <ele>122.096</ele>
        <time>2012-06-24T06:37:16.392Z</time>
      </trkpt>
      <trkpt lat="49.34713" lon="1.03699">
        <ele>120.4</ele>
        <time>2012-06-24T06:37:19.273Z</time>
      </trkpt>
      <trkpt lat="49.34723" lon="1.03688">
        <ele>119.055</ele>
        <time>2012-06-24T06:37:21.070Z</time>
      </trkpt>
      <trkpt lat="49.34733" lon="1.03675">
        <ele>118.069</ele>
        <time>2012-06-24T06:37:22.945Z</time>
      </trkpt>
      <trkpt lat="49.34747" lon="1.03657">
        <ele>117.968</ele>
        <time>2012-06-24T06:37:25.796Z</time>
      </trkpt>
      <trkpt lat="49.34755" lon="1.03645">
        <ele>118.491</ele>
        <time>2012-06-24T06:37:27.614Z</time>
      </trkpt>
      <trkpt lat="49.34764" lon="1.03633">
        <ele>118.926</ele>
        <time>2012-06-24T06:37:29.470Z</time>
      </trkpt>
      <trkpt lat="49.34772" lon="1.0362">
        <ele>119.13</ele>
        <time>2012-06-24T06:37:31.357Z</time>
      </trkpt>
      <trkpt lat="49.34784" lon="1.03601">
        <ele>119.267</ele>
        <time>2012-06-24T06:37:34.232Z</time>
      </trkpt>
      <trkpt lat="49.34793" lon="1.03586">
        <ele>119.683</ele>
        <time>2012-06-24T06:37:36.633Z</time>
      </trkpt>
      <trkpt lat="49.348" lon="1.03575">
        <ele>120.537</ele>
        <time>2012-06-24T06:37:38.379Z</time>
      </trkpt>
      <trkpt lat="49.34809" lon="1.03561">
        <ele>121.529</ele>
        <time>2012-06-24T06:37:40.739Z</time>
      </trkpt>
      <trkpt lat="49.34819" lon="1.03546">
        <ele>122.258</ele>
        <time>2012-06-24T06:37:43.099Z</time>
      </trkpt>
      <trkpt lat="49.3483" lon="1.03526">
        <ele>122.611</ele>
        <time>2012-06-24T06:37:46.312Z</time>
      </trkpt>
      <trkpt lat="49.3483" lon="1.03526">
        <ele>122.694</ele>
        <time>2012-06-24T06:37:45.724Z</time>
      </trkpt>
      <trkpt lat="49.3484" lon="1.03508">
        <ele>122.656</ele>
        <time>2012-06-24T06:37:49.276Z</time>
      </trkpt>
      <trkpt lat="49.34847" lon="1.03493">
        <ele>122.604</ele>
        <time>2012-06-24T06:37:51.201Z</time>
      </trkpt>
      <trkpt lat="49.34856" lon="1.03473">
        <ele>122.644</ele>
        <time>2012-06-24T06:37:53.800Z</time>
      </trkpt>
      <trkpt lat="49.34866" lon="1.03449">
        <ele>122.816</ele>
        <time>2012-06-24T06:37:56.736Z</time>
      </trkpt>
      <trkpt lat="49.34872" lon="1.03429">
        <ele>123.003</ele>
        <time>2012-06-24T06:37:59.353Z</time>
      </trkpt>
      <trkpt lat="49.3488" lon="1.03405">
        <ele>123.088</ele>
        <time>2012-06-24T06:38:02.617Z</time>
      </trkpt>
      <trkpt lat="49.34888" lon="1.0338">
        <ele>123.091</ele>
        <time>2012-06-24T06:38:05.746Z</time>
      </trkpt>
      <trkpt lat="49.34896" lon="1.03354">
        <ele>123.142</ele>
        <time>2012-06-24T06:38:08.780Z</time>
      </trkpt>
      <trkpt lat="49.34903" lon="1.03332">
        <ele>123.242</ele>
        <time>2012-06-24T06:38:11.519Z</time>
      </trkpt>
      <trkpt lat="49.34903" lon="1.03332">
        <ele>123.251</ele>
        <time>2012-06-24T06:38:11.519Z</time>
      </trkpt>
      <trkpt lat="49.34912" lon="1.03307">
        <ele>123.17</ele>
        <time>2012-06-24T06:38:15.637Z</time>
      </trkpt>
      <trkpt lat="49.34919" lon="1.03286">
        <ele>122.86</ele>
        <time>2012-06-24T06:38:18.176Z</time>
      </trkpt>
      <trkpt lat="49.34924" lon="1.0327">
        <ele>121.744</ele>
        <time>2012-06-24T06:38:20.175Z</time>
      </trkpt>
      <trkpt lat="49.34931" lon="1.0325">
        <ele>119.877</ele>
        <time>2012-06-24T06:38:23.048Z</time>
      </trkpt>
      <trkpt lat="49.34936" lon="1.03236">
        <ele>118.038</ele>
        <time>2012-06-24T06:38:26.202Z</time>
      </trkpt>
      <trkpt lat="49.3494" lon="1.03224">
        <ele>116.95</ele>
        <time>2012-06-24T06:38:30.143Z</time>
      </trkpt>
      <trkpt lat="49.34945" lon="1.03211">
        <ele>116.847</ele>
        <time>2012-06-24T06:38:35.716Z</time>
      </trkpt>
      <trkpt lat="49.34945" lon="1.03211">
        <ele>117.159</ele>
        <time>2012-06-24T06:38:36.723Z</time>
      </trkpt>
      <trkpt lat="49.34945" lon="1.03211">
        <ele>117.155</ele>
        <time>2012-06-24T06:38:59.724Z</time>
      </trkpt>
      <trkpt lat="49.34953" lon="1.03194">
        <ele>116.961</ele>
        <time>2012-06-24T06:38:59.724Z</time>
      </trkpt>
      <trkpt lat="49.34957" lon="1.03179">
        <ele>117.662</ele>
        <time>2012-06-24T06:39:02.924Z</time>
      </trkpt>
      <trkpt lat="49.34961" lon="1.03165">
        <ele>119.733</ele>
        <time>2012-06-24T06:39:05.673Z</time>
      </trkpt>
      <trkpt lat="49.34966" lon="1.0315">
        <ele>121.901</ele>
        <time>2012-06-24T06:39:08.529Z</time>
      </trkpt>
      <trkpt lat="49.34971" lon="1.03137">
        <ele>122.967</ele>
        <time>2012-06-24T06:39:11.398Z</time>
      </trkpt>
      <trkpt lat="49.34976" lon="1.03122">
        <ele>123.151</ele>
        <time>2012-06-24T06:39:15.399Z</time>
      </trkpt>
      <trkpt lat="49.34984" lon="1.03116">
        <ele>123.183</ele>
        <time>2012-06-24T06:39:20.175Z</time>
      </trkpt>
      <trkpt lat="49.34983" lon="1.03133">
        <ele>123.473</ele>
        <time>2012-06-24T06:39:24.868Z</time>
      </trkpt>
      <trkpt lat="49.34977" lon="1.03154">
        <ele>123.792</ele>
        <time>2012-06-24T06:39:28.435Z</time>
      </trkpt>
      <trkpt lat="49.34972" lon="1.03168">
        <ele>123.918</ele>
        <time>2012-06-24T06:39:30.485Z</time>
      </trkpt>
      <trkpt lat="49.34967" lon="1.0318">
        <ele>123.95</ele>
        <time>2012-06-24T06:39:32.398Z</time>
      </trkpt>
      <trkpt lat="49.34962" lon="1.03194">
        <ele>123.954</ele>
        <time>2012-06-24T06:39:34.334Z</time>
      </trkpt>
      <trkpt lat="49.34956" lon="1.03214">
        <ele>123.933</ele>
        <time>2012-06-24T06:39:37.153Z</time>
      </trkpt>
      <trkpt lat="49.34953" lon="1.03228">
        <ele>123.815</ele>
        <time>2012-06-24T06:39:38.982Z</time>
      </trkpt>
      <trkpt lat="49.34947" lon="1.03251">
        <ele>123.584</ele>
        <time>2012-06-24T06:39:41.854Z</time>
      </trkpt>
      <trkpt lat="49.34943" lon="1.03272">
        <ele>123.373</ele>
        <time>2012-06-24T06:39:44.558Z</time>
      </trkpt>
      <trkpt lat="49.3494" lon="1.03286">
        <ele>123.28</ele>
        <time>2012-06-24T06:39:46.443Z</time>
      </trkpt>
      <trkpt lat="49.34935" lon="1.03309">
        <ele>123.365</ele>
        <time>2012-06-24T06:39:49.331Z</time>
      </trkpt>
      <trkpt lat="49.34933" lon="1.03325">
        <ele>123.679</ele>
        <time>2012-06-24T06:39:51.231Z</time>
      </trkpt>
      <trkpt lat="49.34929" lon="1.03347">
        <ele>124.091</ele>
        <time>2012-06-24T06:39:54.050Z</time>
      </trkpt>
      <trkpt lat="49.34927" lon="1.03363">
        <ele>124.415</ele>
        <time>2012-06-24T06:39:55.993Z</time>
      </trkpt>
      <trkpt lat="49.34925" lon="1.03387">
        <ele>124.656</ele>
        <time>2012-06-24T06:39:58.799Z</time>
      </trkpt>
      <trkpt lat="49.34924" lon="1.03403">
        <ele>124.914</ele>
        <time>2012-06-24T06:40:00.658Z</time>
      </trkpt>
      <trkpt lat="49.34922" lon="1.03427">
        <ele>125.245</ele>
        <time>2012-06-24T06:40:03.418Z</time>
      </trkpt>
      <trkpt lat="49.34921" lon="1.03452">
        <ele>125.649</ele>
        <time>2012-06-24T06:40:06.227Z</time>
      </trkpt>
      <trkpt lat="49.3492" lon="1.03469">
        <ele>126.106</ele>
        <time>2012-06-24T06:40:08.122Z</time>
      </trkpt>
      <trkpt lat="49.3492" lon="1.03485">
        <ele>126.593</ele>
        <time>2012-06-24T06:40:10.008Z</time>
      </trkpt>
      <trkpt lat="49.34919" lon="1.03502">
        <ele>127.032</ele>
        <time>2012-06-24T06:40:11.858Z</time>
      </trkpt>
      <trkpt lat="49.34918" lon="1.03527">
        <ele>127.346</ele>
        <time>2012-06-24T06:40:14.596Z</time>
      </trkpt>
      <trkpt lat="49.34917" lon="1.03553">
        <ele>127.555</ele>
        <time>2012-06-24T06:40:17.443Z</time>
      </trkpt>
      <trkpt lat="49.34916" lon="1.0358">
        <ele>127.678</ele>
        <time>2012-06-24T06:40:20.380Z</time>
      </trkpt>
      <trkpt lat="49.34914" lon="1.03608">
        <ele>127.656</ele>
        <time>2012-06-24T06:40:23.359Z</time>
      </trkpt>
      <trkpt lat="49.34913" lon="1.03639">
        <ele>127.506</ele>
        <time>2012-06-24T06:40:26.349Z</time>
      </trkpt>
      <trkpt lat="49.34913" lon="1.03639">
        <ele>127.36</ele>
        <time>2012-06-24T06:40:29.727Z</time>
      </trkpt>
      <trkpt lat="49.34911" lon="1.0367">
        <ele>127.283</ele>
        <time>2012-06-24T06:40:29.331Z</time>
      </trkpt>
      <trkpt lat="49.34911" lon="1.03692">
        <ele>127.175</ele>
        <time>2012-06-24T06:40:31.900Z</time>
      </trkpt>
      <trkpt lat="49.3491" lon="1.03714">
        <ele>126.921</ele>
        <time>2012-06-24T06:40:34.031Z</time>
      </trkpt>
      <trkpt lat="49.34908" lon="1.03751">
        <ele>126.46</ele>
        <time>2012-06-24T06:40:37.181Z</time>
      </trkpt>
      <trkpt lat="49.34908" lon="1.03751">
        <ele>125.892</ele>
        <time>2012-06-24T06:40:37.181Z</time>
      </trkpt>
      <trkpt lat="49.34905" lon="1.03783">
        <ele>125.391</ele>
        <time>2012-06-24T06:40:39.911Z</time>
      </trkpt>
      <trkpt lat="49.34902" lon="1.03822">
        <ele>125.007</ele>
        <time>2012-06-24T06:40:44.090Z</time>
      </trkpt>
      <trkpt lat="49.349" lon="1.03858">
        <ele>124.668</ele>
        <time>2012-06-24T06:40:46.905Z</time>
      </trkpt>
      <trkpt lat="49.34896" lon="1.03896">
        <ele>124.378</ele>
        <time>2012-06-24T06:40:49.759Z</time>
      </trkpt>
      <trkpt lat="49.34891" lon="1.03934">
        <ele>124.215</ele>
        <time>2012-06-24T06:40:52.653Z</time>
      </trkpt>
      <trkpt lat="49.34884" lon="1.03973">
        <ele>123.93</ele>
        <time>2012-06-24T06:40:55.504Z</time>
      </trkpt>
      <trkpt lat="49.34878" lon="1.04011">
        <ele>123.176</ele>
        <time>2012-06-24T06:40:58.316Z</time>
      </trkpt>
      <trkpt lat="49.34875" lon="1.04035">
        <ele>122.079</ele>
        <time>2012-06-24T06:41:00.090Z</time>
      </trkpt>
      <trkpt lat="49.34867" lon="1.04074">
        <ele>121.001</ele>
        <time>2012-06-24T06:41:03.148Z</time>
      </trkpt>
      <trkpt lat="49.34863" lon="1.04099">
        <ele>120.029</ele>
        <time>2012-06-24T06:41:05.060Z</time>
      </trkpt>
      <trkpt lat="49.34857" lon="1.04133">
        <ele>119.01</ele>
        <time>2012-06-24T06:41:07.653Z</time>
      </trkpt>
      <trkpt lat="49.34853" lon="1.04154">
        <ele>118.01</ele>
        <time>2012-06-24T06:41:09.302Z</time>
      </trkpt>
      <trkpt lat="49.34847" lon="1.04187">
        <ele>117.293</ele>
        <time>2012-06-24T06:41:12.020Z</time>
      </trkpt>
      <trkpt lat="49.34842" lon="1.04212">
        <ele>116.768</ele>
        <time>2012-06-24T06:41:14.157Z</time>
      </trkpt>
      <trkpt lat="49.34839" lon="1.04233">
        <ele>116.149</ele>
        <time>2012-06-24T06:41:15.973Z</time>
      </trkpt>
      <trkpt lat="49.34836" lon="1.04251">
        <ele>115.413</ele>
        <time>2012-06-24T06:41:17.600Z</time>
      </trkpt>
      <trkpt lat="49.34831" lon="1.04283">
        <ele>114.604</ele>
        <time>2012-06-24T06:41:20.408Z</time>
      </trkpt>
      <trkpt lat="49.34826" lon="1.04304">
        <ele>113.78</ele>
        <time>2012-06-24T06:41:22.348Z</time>
      </trkpt>
      <trkpt lat="49.3482" lon="1.04337">
        <ele>113.182</ele>
        <time>2012-06-24T06:41:25.353Z</time>
      </trkpt>
      <trkpt lat="49.34816" lon="1.04357">
        <ele>112.967</ele>
        <time>2012-06-24T06:41:27.129Z</time>
      </trkpt>
      <trkpt lat="49.34812" lon="1.04378">
        <ele>112.976</ele>
        <time>2012-06-24T06:41:28.925Z</time>
      </trkpt>
      <trkpt lat="49.34809" lon="1.04405">
        <ele>113.044</ele>
        <time>2012-06-24T06:41:31.285Z</time>
      </trkpt>
      <trkpt lat="49.34817" lon="1.04417">
        <ele>113.092</ele>
        <time>2012-06-24T06:41:32.892Z</time>
      </trkpt>
      <trkpt lat="49.3483" lon="1.04426">
        <ele>113.101</ele>
        <time>2012-06-24T06:41:34.941Z</time>
      </trkpt>
      <trkpt lat="49.34849" lon="1.04441">
        <ele>113.018</ele>
        <time>2012-06-24T06:41:38.209Z</time>
      </trkpt>
      <trkpt lat="49.34862" lon="1.04451">
        <ele>112.834</ele>
        <time>2012-06-24T06:41:40.396Z</time>
      </trkpt>
      <trkpt lat="49.34876" lon="1.04462">
        <ele>112.66</ele>
        <time>2012-06-24T06:41:42.627Z</time>
      </trkpt>
      <trkpt lat="49.34897" lon="1.04477">
        <ele>112.581</ele>
        <time>2012-06-24T06:41:45.634Z</time>
      </trkpt>
      <trkpt lat="49.34918" lon="1.04493">
        <ele>112.79</ele>
        <time>2012-06-24T06:41:48.763Z</time>
      </trkpt>
      <trkpt lat="49.34933" lon="1.04503">
        <ele>113.727</ele>
        <time>2012-06-24T06:41:50.983Z</time>
      </trkpt>
      <trkpt lat="49.34956" lon="1.04518">
        <ele>115.286</ele>
        <time>2012-06-24T06:41:54.132Z</time>
      </trkpt>
      <trkpt lat="49.34971" lon="1.04529">
        <ele>116.622</ele>
        <time>2012-06-24T06:41:56.156Z</time>
      </trkpt>
      <trkpt lat="49.34993" lon="1.04544">
        <ele>117.302</ele>
        <time>2012-06-24T06:41:59.154Z</time>
      </trkpt>
      <trkpt lat="49.35005" lon="1.04551">
        <ele>117.672</ele>
        <time>2012-06-24T06:42:00.862Z</time>
      </trkpt>
      <trkpt lat="49.35025" lon="1.04562">
        <ele>118.005</ele>
        <time>2012-06-24T06:42:03.606Z</time>
      </trkpt>
      <trkpt lat="49.35036" lon="1.04568">
        <ele>118.242</ele>
        <time>2012-06-24T06:42:05.101Z</time>
      </trkpt>
      <trkpt lat="49.35046" lon="1.04576">
        <ele>118.369</ele>
        <time>2012-06-24T06:42:06.742Z</time>
      </trkpt>
      <trkpt lat="49.35046" lon="1.04594">
        <ele>118.571</ele>
        <time>2012-06-24T06:42:08.514Z</time>
      </trkpt>
      <trkpt lat="49.3504" lon="1.04618">
        <ele>118.906</ele>
        <time>2012-06-24T06:42:11.893Z</time>
      </trkpt>
      <trkpt lat="49.35033" lon="1.04645">
        <ele>119.194</ele>
        <time>2012-06-24T06:42:18.294Z</time>
      </trkpt>
      <trkpt lat="49.35026" lon="1.04668">
        <ele>119.315</ele>
        <time>2012-06-24T06:42:21.930Z</time>
      </trkpt>
      <trkpt lat="49.35019" lon="1.04692">
        <ele>119.143</ele>
        <time>2012-06-24T06:42:24.923Z</time>
      </trkpt>
      <trkpt lat="49.35014" lon="1.04709">
        <ele>117.82</ele>
        <time>2012-06-24T06:42:26.902Z</time>
      </trkpt>
      <trkpt lat="49.35009" lon="1.04724">
        <ele>115.047</ele>
        <time>2012-06-24T06:42:28.767Z</time>
      </trkpt>
      <trkpt lat="49.35002" lon="1.04748">
        <ele>112.179</ele>
        <time>2012-06-24T06:42:31.539Z</time>
      </trkpt>
      <trkpt lat="49.34998" lon="1.04764">
        <ele>110.39</ele>
        <time>2012-06-24T06:42:33.432Z</time>
      </trkpt>
      <trkpt lat="49.34989" lon="1.04791">
        <ele>109.577</ele>
        <time>2012-06-24T06:42:36.439Z</time>
      </trkpt>
      <trkpt lat="49.34982" lon="1.04818">
        <ele>109.309</ele>
        <time>2012-06-24T06:42:39.411Z</time>
      </trkpt>
      <trkpt lat="49.34972" lon="1.04845">
        <ele>108.925</ele>
        <time>2012-06-24T06:42:42.402Z</time>
      </trkpt>
      <trkpt lat="49.34966" lon="1.04863">
        <ele>108.079</ele>
        <time>2012-06-24T06:42:44.379Z</time>
      </trkpt>
      <trkpt lat="49.34958" lon="1.0489">
        <ele>107.14</ele>
        <time>2012-06-24T06:42:47.115Z</time>
      </trkpt>
      <trkpt lat="49.34951" lon="1.04914">
        <ele>106.529</ele>
        <time>2012-06-24T06:42:49.654Z</time>
      </trkpt>
      <trkpt lat="49.34941" lon="1.04943">
        <ele>106.28</ele>
        <time>2012-06-24T06:42:52.799Z</time>
      </trkpt>
      <trkpt lat="49.34935" lon="1.04963">
        <ele>106.044</ele>
        <time>2012-06-24T06:42:54.853Z</time>
      </trkpt>
      <trkpt lat="49.34929" lon="1.04982">
        <ele>105.525</ele>
        <time>2012-06-24T06:42:56.694Z</time>
      </trkpt>
      <trkpt lat="49.34924" lon="1.05">
        <ele>104.978</ele>
        <time>2012-06-24T06:42:58.439Z</time>
      </trkpt>
      <trkpt lat="49.34915" lon="1.05029">
        <ele>104.598</ele>
        <time>2012-06-24T06:43:01.444Z</time>
      </trkpt>
      <trkpt lat="49.34909" lon="1.0505">
        <ele>104.249</ele>
        <time>2012-06-24T06:43:03.468Z</time>
      </trkpt>
      <trkpt lat="49.34901" lon="1.05074">
        <ele>103.973</ele>
        <time>2012-06-24T06:43:05.856Z</time>
      </trkpt>
      <trkpt lat="49.34891" lon="1.05104">
        <ele>103.849</ele>
        <time>2012-06-24T06:43:08.727Z</time>
      </trkpt>
      <trkpt lat="49.34884" lon="1.05124">
        <ele>103.813</ele>
        <time>2012-06-24T06:43:10.690Z</time>
      </trkpt>
      <trkpt lat="49.34877" lon="1.05145">
        <ele>103.812</ele>
        <time>2012-06-24T06:43:12.681Z</time>
      </trkpt>
      <trkpt lat="49.34871" lon="1.05164">
        <ele>103.765</ele>
        <time>2012-06-24T06:43:14.438Z</time>
      </trkpt>
      <trkpt lat="49.34864" lon="1.0519">
        <ele>103.625</ele>
        <time>2012-06-24T06:43:16.837Z</time>
      </trkpt>
      <trkpt lat="49.34859" lon="1.05204">
        <ele>103.533</ele>
        <time>2012-06-24T06:43:18.191Z</time>
      </trkpt>
      <trkpt lat="49.34848" lon="1.05208">
        <ele>103.552</ele>
        <time>2012-06-24T06:43:19.755Z</time>
      </trkpt>
      <trkpt lat="49.34837" lon="1.05201">
        <ele>103.688</ele>
        <time>2012-06-24T06:43:21.404Z</time>
      </trkpt>
      <trkpt lat="49.34827" lon="1.05208">
        <ele>103.995</ele>
        <time>2012-06-24T06:43:23.130Z</time>
      </trkpt>
      <trkpt lat="49.34822" lon="1.05225">
        <ele>104.331</ele>
        <time>2012-06-24T06:43:25.186Z</time>
      </trkpt>
      <trkpt lat="49.34817" lon="1.05242">
        <ele>104.516</ele>
        <time>2012-06-24T06:43:27.605Z</time>
      </trkpt>
      <trkpt lat="49.34811" lon="1.05261">
        <ele>104.625</ele>
        <time>2012-06-24T06:43:30.767Z</time>
      </trkpt>
      <trkpt lat="49.34805" lon="1.05278">
        <ele>104.697</ele>
        <time>2012-06-24T06:43:34.417Z</time>
      </trkpt>
      <trkpt lat="49.34799" lon="1.05292">
        <ele>104.698</ele>
        <time>2012-06-24T06:43:37.627Z</time>
      </trkpt>
      <trkpt lat="49.34801" lon="1.05309">
        <ele>104.65</ele>
        <time>2012-06-24T06:43:40.433Z</time>
      </trkpt>
      <trkpt lat="49.34814" lon="1.05321">
        <ele>104.642</ele>
        <time>2012-06-24T06:43:43.584Z</time>
      </trkpt>
      <trkpt lat="49.34828" lon="1.05333">
        <ele>104.699</ele>
        <time>2012-06-24T06:43:46.975Z</time>
      </trkpt>
      <trkpt lat="49.34841" lon="1.05343">
        <ele>104.789</ele>
        <time>2012-06-24T06:43:49.973Z</time>
      </trkpt>
      <trkpt lat="49.34861" lon="1.05358">
        <ele>104.872</ele>
        <time>2012-06-24T06:43:54.701Z</time>
      </trkpt>
      <trkpt lat="49.34875" lon="1.0537">
        <ele>104.927</ele>
        <time>2012-06-24T06:43:57.700Z</time>
      </trkpt>
      <trkpt lat="49.34896" lon="1.05388">
        <ele>104.944</ele>
        <time>2012-06-24T06:44:01.428Z</time>
      </trkpt>
      <trkpt lat="49.34909" lon="1.054">
        <ele>104.825</ele>
        <time>2012-06-24T06:44:03.645Z</time>
      </trkpt>
      <trkpt lat="49.3493" lon="1.05418">
        <ele>104.336</ele>
        <time>2012-06-24T06:44:06.833Z</time>
      </trkpt>
      <trkpt lat="49.34951" lon="1.05434">
        <ele>103.277</ele>
        <time>2012-06-24T06:44:09.708Z</time>
      </trkpt>
      <trkpt lat="49.34971" lon="1.05451">
        <ele>101.875</ele>
        <time>2012-06-24T06:44:12.457Z</time>
      </trkpt>
      <trkpt lat="49.34994" lon="1.0547">
        <ele>100.213</ele>
        <time>2012-06-24T06:44:15.400Z</time>
      </trkpt>
      <trkpt lat="49.35009" lon="1.05481">
        <ele>98.167</ele>
        <time>2012-06-24T06:44:17.375Z</time>
      </trkpt>
      <trkpt lat="49.35031" lon="1.05498">
        <ele>96.286</ele>
        <time>2012-06-24T06:44:20.328Z</time>
      </trkpt>
      <trkpt lat="49.35056" lon="1.05519">
        <ele>95.236</ele>
        <time>2012-06-24T06:44:23.889Z</time>
      </trkpt>
      <trkpt lat="49.35081" lon="1.05541">
        <ele>94.561</ele>
        <time>2012-06-24T06:44:27.391Z</time>
      </trkpt>
      <trkpt lat="49.35094" lon="1.05553">
        <ele>93.698</ele>
        <time>2012-06-24T06:44:29.243Z</time>
      </trkpt>
      <trkpt lat="49.35109" lon="1.05572">
        <ele>92.872</ele>
        <time>2012-06-24T06:44:31.504Z</time>
      </trkpt>
      <trkpt lat="49.3511" lon="1.05591">
        <ele>92.427</ele>
        <time>2012-06-24T06:44:32.873Z</time>
      </trkpt>
      <trkpt lat="49.35108" lon="1.05611">
        <ele>92.274</ele>
        <time>2012-06-24T06:44:34.304Z</time>
      </trkpt>
      <trkpt lat="49.35099" lon="1.05618">
        <ele>92.244</ele>
        <time>2012-06-24T06:44:35.453Z</time>
      </trkpt>
      <trkpt lat="49.3509" lon="1.05618">
        <ele>92.243</ele>
        <time>2012-06-24T06:44:36.591Z</time>
      </trkpt>
      <trkpt lat="49.35086" lon="1.05636">
        <ele>92.116</ele>
        <time>2012-06-24T06:44:38.432Z</time>
      </trkpt>
      <trkpt lat="49.35086" lon="1.05653">
        <ele>91.794</ele>
        <time>2012-06-24T06:44:40.190Z</time>
      </trkpt>
      <trkpt lat="49.35086" lon="1.05672">
        <ele>91.412</ele>
        <time>2012-06-24T06:44:42.709Z</time>
      </trkpt>
      <trkpt lat="49.35083" lon="1.05693">
        <ele>91.116</ele>
        <time>2012-06-24T06:44:46.101Z</time>
      </trkpt>
      <trkpt lat="49.35079" lon="1.05712">
        <ele>90.879</ele>
        <time>2012-06-24T06:44:51.391Z</time>
      </trkpt>
      <trkpt lat="49.35074" lon="1.05735">
        <ele>90.656</ele>
        <time>2012-06-24T06:44:58.265Z</time>
      </trkpt>
      <trkpt lat="49.35071" lon="1.05749">
        <ele>90.486</ele>
        <time>2012-06-24T06:45:01.395Z</time>
      </trkpt>
      <trkpt lat="49.35066" lon="1.05774">
        <ele>90.422</ele>
        <time>2012-06-24T06:45:05.443Z</time>
      </trkpt>
      <trkpt lat="49.35061" lon="1.05796">
        <ele>90.51</ele>
        <time>2012-06-24T06:45:08.564Z</time>
      </trkpt>
      <trkpt lat="49.35055" lon="1.05823">
        <ele>90.759</ele>
        <time>2012-06-24T06:45:12.423Z</time>
      </trkpt>
      <trkpt lat="49.35049" lon="1.0585">
        <ele>91.009</ele>
        <time>2012-06-24T06:45:15.908Z</time>
      </trkpt>
      <trkpt lat="49.35046" lon="1.05867">
        <ele>91.134</ele>
        <time>2012-06-24T06:45:17.931Z</time>
      </trkpt>
      <trkpt lat="49.3504" lon="1.05894">
        <ele>91.215</ele>
        <time>2012-06-24T06:45:20.943Z</time>
      </trkpt>
      <trkpt lat="49.35035" lon="1.05921">
        <ele>91.331</ele>
        <time>2012-06-24T06:45:24.059Z</time>
      </trkpt>
      <trkpt lat="49.35032" lon="1.05937">
        <ele>91.367</ele>
        <time>2012-06-24T06:45:25.856Z</time>
      </trkpt>
      <trkpt lat="49.35027" lon="1.05966">
        <ele>90.873</ele>
        <time>2012-06-24T06:45:29.121Z</time>
      </trkpt>
      <trkpt lat="49.35023" lon="1.05995">
        <ele>89.761</ele>
        <time>2012-06-24T06:45:32.105Z</time>
      </trkpt>
      <trkpt lat="49.3502" lon="1.06015">
        <ele>88.558</ele>
        <time>2012-06-24T06:45:34.107Z</time>
      </trkpt>
      <trkpt lat="49.35013" lon="1.06033">
        <ele>87.584</ele>
        <time>2012-06-24T06:45:36.142Z</time>
      </trkpt>
      <trkpt lat="49.35002" lon="1.06043">
        <ele>86.854</ele>
        <time>2012-06-24T06:45:38.044Z</time>
      </trkpt>
      <trkpt lat="49.34991" lon="1.06039">
        <ele>86.583</ele>
        <time>2012-06-24T06:45:39.710Z</time>
      </trkpt>
      <trkpt lat="49.34981" lon="1.06034">
        <ele>86.673</ele>
        <time>2012-06-24T06:45:41.146Z</time>
      </trkpt>
      <trkpt lat="49.34968" lon="1.06032">
        <ele>86.691</ele>
        <time>2012-06-24T06:45:42.992Z</time>
      </trkpt>
      <trkpt lat="49.34958" lon="1.06043">
        <ele>86.5</ele>
        <time>2012-06-24T06:45:44.744Z</time>
      </trkpt>
      <trkpt lat="49.34952" lon="1.06061">
        <ele>86.318</ele>
        <time>2012-06-24T06:45:46.524Z</time>
      </trkpt>
      <trkpt lat="49.34949" lon="1.06076">
        <ele>86.249</ele>
        <time>2012-06-24T06:45:47.965Z</time>
      </trkpt>
      <trkpt lat="49.34945" lon="1.06101">
        <ele>86.258</ele>
        <time>2012-06-24T06:45:50.824Z</time>
      </trkpt>
      <trkpt lat="49.34941" lon="1.06118">
        <ele>86.284</ele>
        <time>2012-06-24T06:45:53.328Z</time>
      </trkpt>
      <trkpt lat="49.34937" lon="1.06138">
        <ele>86.301</ele>
        <time>2012-06-24T06:45:56.440Z</time>
      </trkpt>
      <trkpt lat="49.34932" lon="1.06166">
        <ele>86.326</ele>
        <time>2012-06-24T06:46:00.730Z</time>
      </trkpt>
      <trkpt lat="49.34928" lon="1.06185">
        <ele>86.357</ele>
        <time>2012-06-24T06:46:03.494Z</time>
      </trkpt>
      <trkpt lat="49.34922" lon="1.06209">
        <ele>86.33</ele>
        <time>2012-06-24T06:46:07.093Z</time>
      </trkpt>
      <trkpt lat="49.34915" lon="1.06233">
        <ele>86.205</ele>
        <time>2012-06-24T06:46:10.149Z</time>
      </trkpt>
      <trkpt lat="49.34907" lon="1.06246">
        <ele>85.998</ele>
        <time>2012-06-24T06:46:11.999Z</time>
      </trkpt>
      <trkpt lat="49.34895" lon="1.06247">
        <ele>85.7</ele>
        <time>2012-06-24T06:46:13.743Z</time>
      </trkpt>
      <trkpt lat="49.34881" lon="1.0624">
        <ele>85.284</ele>
        <time>2012-06-24T06:46:15.974Z</time>
      </trkpt>
      <trkpt lat="49.34867" lon="1.06232">
        <ele>84.855</ele>
        <time>2012-06-24T06:46:18.223Z</time>
      </trkpt>
      <trkpt lat="49.34858" lon="1.06227">
        <ele>84.651</ele>
        <time>2012-06-24T06:46:19.582Z</time>
      </trkpt>
      <trkpt lat="49.34844" lon="1.06216">
        <ele>84.744</ele>
        <time>2012-06-24T06:46:21.816Z</time>
      </trkpt>
      <trkpt lat="49.34835" lon="1.06209">
        <ele>85.059</ele>
        <time>2012-06-24T06:46:23.458Z</time>
      </trkpt>
      <trkpt lat="49.34825" lon="1.06202">
        <ele>85.593</ele>
        <time>2012-06-24T06:46:25.158Z</time>
      </trkpt>
      <trkpt lat="49.34811" lon="1.06192">
        <ele>86.311</ele>
        <time>2012-06-24T06:46:27.789Z</time>
      </trkpt>
      <trkpt lat="49.34797" lon="1.06182">
        <ele>86.987</ele>
        <time>2012-06-24T06:46:30.800Z</time>
      </trkpt>
      <trkpt lat="49.34784" lon="1.06173">
        <ele>87.501</ele>
        <time>2012-06-24T06:46:33.671Z</time>
      </trkpt>
      <trkpt lat="49.34775" lon="1.06165">
        <ele>87.894</ele>
        <time>2012-06-24T06:46:35.602Z</time>
      </trkpt>
      <trkpt lat="49.34759" lon="1.06153">
        <ele>88.149</ele>
        <time>2012-06-24T06:46:39.103Z</time>
      </trkpt>
      <trkpt lat="49.34745" lon="1.06143">
        <ele>88.303</ele>
        <time>2012-06-24T06:46:42.106Z</time>
      </trkpt>
      <trkpt lat="49.34732" lon="1.06133">
        <ele>88.373</ele>
        <time>2012-06-24T06:46:44.762Z</time>
      </trkpt>
      <trkpt lat="49.34722" lon="1.06125">
        <ele>88.304</ele>
        <time>2012-06-24T06:46:46.867Z</time>
      </trkpt>
      <trkpt lat="49.34707" lon="1.06114">
        <ele>88.218</ele>
        <time>2012-06-24T06:46:49.892Z</time>
      </trkpt>
      <trkpt lat="49.34698" lon="1.06106">
        <ele>88.226</ele>
        <time>2012-06-24T06:46:51.792Z</time>
      </trkpt>
      <trkpt lat="49.34682" lon="1.06096">
        <ele>88.287</ele>
        <time>2012-06-24T06:46:54.739Z</time>
      </trkpt>
      <trkpt lat="49.34673" lon="1.06088">
        <ele>88.493</ele>
        <time>2012-06-24T06:46:56.532Z</time>
      </trkpt>
      <trkpt lat="49.34659" lon="1.06077">
        <ele>89.022</ele>
        <time>2012-06-24T06:46:59.260Z</time>
      </trkpt>
      <trkpt lat="49.34648" lon="1.06087">
        <ele>90.061</ele>
        <time>2012-06-24T06:47:01.531Z</time>
      </trkpt>
      <trkpt lat="49.34641" lon="1.06104">
        <ele>91.384</ele>
        <time>2012-06-24T06:47:03.897Z</time>
      </trkpt>
      <trkpt lat="49.34635" lon="1.06118">
        <ele>92.365</ele>
        <time>2012-06-24T06:47:05.878Z</time>
      </trkpt>
      <trkpt lat="49.34629" lon="1.06132">
        <ele>92.725</ele>
        <time>2012-06-24T06:47:07.743Z</time>
      </trkpt>
      <trkpt lat="49.3462" lon="1.06156">
        <ele>92.629</ele>
        <time>2012-06-24T06:47:11.022Z</time>
      </trkpt>
      <trkpt lat="49.34614" lon="1.06173">
        <ele>92.293</ele>
        <time>2012-06-24T06:47:13.241Z</time>
      </trkpt>
      <trkpt lat="49.34604" lon="1.06194">
        <ele>91.978</ele>
        <time>2012-06-24T06:47:16.199Z</time>
      </trkpt>
      <trkpt lat="49.34597" lon="1.0621">
        <ele>91.837</ele>
        <time>2012-06-24T06:47:18.577Z</time>
      </trkpt>
      <trkpt lat="49.34587" lon="1.06225">
        <ele>91.821</ele>
        <time>2012-06-24T06:47:21.308Z</time>
      </trkpt>
      <trkpt lat="49.34573" lon="1.0625">
        <ele>91.978</ele>
        <time>2012-06-24T06:47:25.604Z</time>
      </trkpt>
      <trkpt lat="49.34562" lon="1.06272">
        <ele>92.338</ele>
        <time>2012-06-24T06:47:28.934Z</time>
      </trkpt>
      <trkpt lat="49.34548" lon="1.06308">
        <ele>92.69</ele>
        <time>2012-06-24T06:47:33.599Z</time>
      </trkpt>
      <trkpt lat="49.34539" lon="1.06332">
        <ele>92.853</ele>
        <time>2012-06-24T06:47:36.474Z</time>
      </trkpt>
      <trkpt lat="49.34531" lon="1.06354">
        <ele>92.429</ele>
        <time>2012-06-24T06:47:39.249Z</time>
      </trkpt>
      <trkpt lat="49.3452" lon="1.06388">
        <ele>90.151</ele>
        <time>2012-06-24T06:47:43.629Z</time>
      </trkpt>
      <trkpt lat="49.34513" lon="1.06409">
        <ele>86.051</ele>
        <time>2012-06-24T06:47:45.982Z</time>
      </trkpt>
      <trkpt lat="49.34505" lon="1.06442">
        <ele>82.436</ele>
        <time>2012-06-24T06:47:48.941Z</time>
      </trkpt>
      <trkpt lat="49.34496" lon="1.06469">
        <ele>80.792</ele>
        <time>2012-06-24T06:47:51.236Z</time>
      </trkpt>
      <trkpt lat="49.34488" lon="1.06481">
        <ele>80.463</ele>
        <time>2012-06-24T06:47:52.481Z</time>
      </trkpt>
      <trkpt lat="49.34486" lon="1.06496">
        <ele>80.504</ele>
        <time>2012-06-24T06:47:53.623Z</time>
      </trkpt>
      <trkpt lat="49.34473" lon="1.06501">
        <ele>80.538</ele>
        <time>2012-06-24T06:47:55.162Z</time>
      </trkpt>
      <trkpt lat="49.3446" lon="1.06506">
        <ele>80.597</ele>
        <time>2012-06-24T06:47:56.746Z</time>
      </trkpt>
      <trkpt lat="49.34447" lon="1.06513">
        <ele>80.683</ele>
        <time>2012-06-24T06:47:58.455Z</time>
      </trkpt>
      <trkpt lat="49.34434" lon="1.06526">
        <ele>80.599</ele>
        <time>2012-06-24T06:48:00.577Z</time>
      </trkpt>
      <trkpt lat="49.34424" lon="1.06543">
        <ele>80.194</ele>
        <time>2012-06-24T06:48:02.766Z</time>
      </trkpt>
      <trkpt lat="49.34416" lon="1.0656">
        <ele>79.569</ele>
        <time>2012-06-24T06:48:05.256Z</time>
      </trkpt>
      <trkpt lat="49.34412" lon="1.06576">
        <ele>79.006</ele>
        <time>2012-06-24T06:48:08.545Z</time>
      </trkpt>
      <trkpt lat="49.34409" lon="1.06594">
        <ele>78.687</ele>
        <time>2012-06-24T06:48:12.741Z</time>
      </trkpt>
      <trkpt lat="49.34407" lon="1.06614">
        <ele>78.609</ele>
        <time>2012-06-24T06:48:16.112Z</time>
      </trkpt>
      <trkpt lat="49.34406" lon="1.06634">
        <ele>79.399</ele>
        <time>2012-06-24T06:48:19.235Z</time>
      </trkpt>
      <trkpt lat="49.34406" lon="1.0666">
        <ele>81.472</ele>
        <time>2012-06-24T06:48:23.871Z</time>
      </trkpt>
      <trkpt lat="49.34412" lon="1.0668">
        <ele>83.662</ele>
        <time>2012-06-24T06:48:28.169Z</time>
      </trkpt>
      <trkpt lat="49.34412" lon="1.06704">
        <ele>84.836</ele>
        <time>2012-06-24T06:48:32.930Z</time>
      </trkpt>
      <trkpt lat="49.3441" lon="1.06723">
        <ele>85.255</ele>
        <time>2012-06-24T06:48:36.731Z</time>
      </trkpt>
      <trkpt lat="49.34416" lon="1.06734">
        <ele>85.526</ele>
        <time>2012-06-24T06:48:39.399Z</time>
      </trkpt>
      <trkpt lat="49.34427" lon="1.06744">
        <ele>85.937</ele>
        <time>2012-06-24T06:48:42.975Z</time>
      </trkpt>
      <trkpt lat="49.34434" lon="1.06755">
        <ele>86.431</ele>
        <time>2012-06-24T06:48:46.488Z</time>
      </trkpt>
      <trkpt lat="49.34444" lon="1.06778">
        <ele>86.777</ele>
        <time>2012-06-24T06:48:51.718Z</time>
      </trkpt>
      <trkpt lat="49.34449" lon="1.06793">
        <ele>86.805</ele>
        <time>2012-06-24T06:48:54.786Z</time>
      </trkpt>
      <trkpt lat="49.34457" lon="1.06812">
        <ele>86.496</ele>
        <time>2012-06-24T06:48:58.632Z</time>
      </trkpt>
      <trkpt lat="49.3446" lon="1.06831">
        <ele>86.024</ele>
        <time>2012-06-24T06:49:01.643Z</time>
      </trkpt>
      <trkpt lat="49.34465" lon="1.06847">
        <ele>85.559</ele>
        <time>2012-06-24T06:49:04.299Z</time>
      </trkpt>
      <trkpt lat="49.34474" lon="1.06857">
        <ele>85.04</ele>
        <time>2012-06-24T06:49:06.753Z</time>
      </trkpt>
      <trkpt lat="49.34485" lon="1.06866">
        <ele>84.329</ele>
        <time>2012-06-24T06:49:09.663Z</time>
      </trkpt>
      <trkpt lat="49.34494" lon="1.06872">
        <ele>83.546</ele>
        <time>2012-06-24T06:49:12.156Z</time>
      </trkpt>
      <trkpt lat="49.34507" lon="1.06878">
        <ele>82.902</ele>
        <time>2012-06-24T06:49:15.585Z</time>
      </trkpt>
      <trkpt lat="49.34519" lon="1.0688">
        <ele>82.54</ele>
        <time>2012-06-24T06:49:18.097Z</time>
      </trkpt>
      <trkpt lat="49.34534" lon="1.06879">
        <ele>82.415</ele>
        <time>2012-06-24T06:49:21.229Z</time>
      </trkpt>
      <trkpt lat="49.34544" lon="1.0688">
        <ele>82.26</ele>
        <time>2012-06-24T06:49:23.512Z</time>
      </trkpt>
      <trkpt lat="49.34559" lon="1.06892">
        <ele>81.951</ele>
        <time>2012-06-24T06:49:26.917Z</time>
      </trkpt>
      <trkpt lat="49.3457" lon="1.06904">
        <ele>81.534</ele>
        <time>2012-06-24T06:49:29.654Z</time>
      </trkpt>
      <trkpt lat="49.34584" lon="1.06912">
        <ele>81.047</ele>
        <time>2012-06-24T06:49:32.590Z</time>
      </trkpt>
      <trkpt lat="49.34593" lon="1.06917">
        <ele>80.566</ele>
        <time>2012-06-24T06:49:34.514Z</time>
      </trkpt>
      <trkpt lat="49.34605" lon="1.06934">
        <ele>80.138</ele>
        <time>2012-06-24T06:49:38.087Z</time>
      </trkpt>
      <trkpt lat="49.34615" lon="1.06953">
        <ele>79.626</ele>
        <time>2012-06-24T06:49:41.903Z</time>
      </trkpt>
      <trkpt lat="49.34622" lon="1.06964">
        <ele>78.87</ele>
        <time>2012-06-24T06:49:44.265Z</time>
      </trkpt>
      <trkpt lat="49.34629" lon="1.06975">
        <ele>77.603</ele>
        <time>2012-06-24T06:49:46.418Z</time>
      </trkpt>
      <trkpt lat="49.34637" lon="1.06994">
        <ele>75.956</ele>
        <time>2012-06-24T06:49:49.430Z</time>
      </trkpt>
      <trkpt lat="49.34641" lon="1.07007">
        <ele>74.681</ele>
        <time>2012-06-24T06:49:51.320Z</time>
      </trkpt>
      <trkpt lat="49.34645" lon="1.07027">
        <ele>74.192</ele>
        <time>2012-06-24T06:49:54.072Z</time>
      </trkpt>
      <trkpt lat="49.34646" lon="1.07045">
        <ele>74.587</ele>
        <time>2012-06-24T06:49:56.862Z</time>
      </trkpt>
      <trkpt lat="49.34655" lon="1.07068">
        <ele>75.982</ele>
        <time>2012-06-24T06:50:01.006Z</time>
      </trkpt>
      <trkpt lat="49.34666" lon="1.07084">
        <ele>77.723</ele>
        <time>2012-06-24T06:50:04.149Z</time>
      </trkpt>
      <trkpt lat="49.3467" lon="1.07103">
        <ele>78.853</ele>
        <time>2012-06-24T06:50:07.031Z</time>
      </trkpt>
      <trkpt lat="49.34667" lon="1.07118">
        <ele>79.207</ele>
        <time>2012-06-24T06:50:09.702Z</time>
      </trkpt>
      <trkpt lat="49.3466" lon="1.07127">
        <ele>78.663</ele>
        <time>2012-06-24T06:50:12.547Z</time>
      </trkpt>
      <trkpt lat="49.34651" lon="1.07137">
        <ele>77.249</ele>
        <time>2012-06-24T06:50:15.848Z</time>
      </trkpt>
      <trkpt lat="49.34642" lon="1.07146">
        <ele>75.853</ele>
        <time>2012-06-24T06:50:19.309Z</time>
      </trkpt>
      <trkpt lat="49.34633" lon="1.0715">
        <ele>75.206</ele>
        <time>2012-06-24T06:50:22.075Z</time>
      </trkpt>
      <trkpt lat="49.34624" lon="1.07153">
        <ele>75.211</ele>
        <time>2012-06-24T06:50:25.124Z</time>
      </trkpt>
      <trkpt lat="49.34614" lon="1.07159">
        <ele>75.647</ele>
        <time>2012-06-24T06:50:28.964Z</time>
      </trkpt>
      <trkpt lat="49.34604" lon="1.07163">
        <ele>76.233</ele>
        <time>2012-06-24T06:50:32.508Z</time>
      </trkpt>
      <trkpt lat="49.34593" lon="1.07167">
        <ele>77.038</ele>
        <time>2012-06-24T06:50:36.003Z</time>
      </trkpt>
      <trkpt lat="49.34581" lon="1.07167">
        <ele>78.172</ele>
        <time>2012-06-24T06:50:39.974Z</time>
      </trkpt>
      <trkpt lat="49.34572" lon="1.0717">
        <ele>79.153</ele>
        <time>2012-06-24T06:50:43.348Z</time>
      </trkpt>
      <trkpt lat="49.34566" lon="1.07183">
        <ele>79.569</ele>
        <time>2012-06-24T06:50:47.814Z</time>
      </trkpt>
      <trkpt lat="49.34559" lon="1.07198">
        <ele>79.677</ele>
        <time>2012-06-24T06:50:52.353Z</time>
      </trkpt>
      <trkpt lat="49.3455" lon="1.07209">
        <ele>79.824</ele>
        <time>2012-06-24T06:50:55.905Z</time>
      </trkpt>
      <trkpt lat="49.34543" lon="1.0722">
        <ele>80.062</ele>
        <time>2012-06-24T06:50:59.572Z</time>
      </trkpt>
      <trkpt lat="49.34537" lon="1.07236">
        <ele>80.245</ele>
        <time>2012-06-24T06:51:03.556Z</time>
      </trkpt>
      <trkpt lat="49.34532" lon="1.07251">
        <ele>80.377</ele>
        <time>2012-06-24T06:51:06.790Z</time>
      </trkpt>
      <trkpt lat="49.34532" lon="1.07266">
        <ele>80.566</ele>
        <time>2012-06-24T06:51:09.625Z</time>
      </trkpt>
      <trkpt lat="49.34528" lon="1.07284">
        <ele>80.843</ele>
        <time>2012-06-24T06:51:13.172Z</time>
      </trkpt>
      <trkpt lat="49.34521" lon="1.07302">
        <ele>81.275</ele>
        <time>2012-06-24T06:51:16.722Z</time>
      </trkpt>
      <trkpt lat="49.34516" lon="1.07316">
        <ele>81.838</ele>
        <time>2012-06-24T06:51:19.137Z</time>
      </trkpt>
      <trkpt lat="49.34509" lon="1.07332">
        <ele>82.278</ele>
        <time>2012-06-24T06:51:21.997Z</time>
      </trkpt>
      <trkpt lat="49.34501" lon="1.07353">
        <ele>82.309</ele>
        <time>2012-06-24T06:51:25.236Z</time>
      </trkpt>
      <trkpt lat="49.34493" lon="1.07377">
        <ele>81.703</ele>
        <time>2012-06-24T06:51:28.553Z</time>
      </trkpt>
      <trkpt lat="49.34488" lon="1.07391">
        <ele>80.262</ele>
        <time>2012-06-24T06:51:30.428Z</time>
      </trkpt>
      <trkpt lat="49.34481" lon="1.07408">
        <ele>78.387</ele>
        <time>2012-06-24T06:51:32.602Z</time>
      </trkpt>
      <trkpt lat="49.34472" lon="1.07432">
        <ele>76.933</ele>
        <time>2012-06-24T06:51:35.464Z</time>
      </trkpt>
      <trkpt lat="49.34467" lon="1.07451">
        <ele>75.853</ele>
        <time>2012-06-24T06:51:37.816Z</time>
      </trkpt>
      <trkpt lat="49.3447" lon="1.07477">
        <ele>74.603</ele>
        <time>2012-06-24T06:51:41.152Z</time>
      </trkpt>
      <trkpt lat="49.34478" lon="1.07481">
        <ele>73.448</ele>
        <time>2012-06-24T06:51:43.548Z</time>
      </trkpt>
      <trkpt lat="49.34489" lon="1.07482">
        <ele>72.824</ele>
        <time>2012-06-24T06:51:46.775Z</time>
      </trkpt>
      <trkpt lat="49.34502" lon="1.07484">
        <ele>72.375</ele>
        <time>2012-06-24T06:51:50.621Z</time>
      </trkpt>
      <trkpt lat="49.34515" lon="1.07486">
        <ele>71.714</ele>
        <time>2012-06-24T06:51:53.810Z</time>
      </trkpt>
      <trkpt lat="49.34528" lon="1.07488">
        <ele>71.078</ele>
        <time>2012-06-24T06:51:56.878Z</time>
      </trkpt>
      <trkpt lat="49.34541" lon="1.07492">
        <ele>70.89</ele>
        <time>2012-06-24T06:52:00.280Z</time>
      </trkpt>
      <trkpt lat="49.34553" lon="1.07496">
        <ele>71.119</ele>
        <time>2012-06-24T06:52:03.226Z</time>
      </trkpt>
      <trkpt lat="49.34564" lon="1.07504">
        <ele>71.538</ele>
        <time>2012-06-24T06:52:06.158Z</time>
      </trkpt>
      <trkpt lat="49.3458" lon="1.07522">
        <ele>71.955</ele>
        <time>2012-06-24T06:52:10.434Z</time>
      </trkpt>
      <trkpt lat="49.3459" lon="1.07532">
        <ele>72.24</ele>
        <time>2012-06-24T06:52:12.805Z</time>
      </trkpt>
      <trkpt lat="49.34602" lon="1.07546">
        <ele>72.245</ele>
        <time>2012-06-24T06:52:15.733Z</time>
      </trkpt>
      <trkpt lat="49.34608" lon="1.07562">
        <ele>71.938</ele>
        <time>2012-06-24T06:52:18.035Z</time>
      </trkpt>
      <trkpt lat="49.34615" lon="1.07584">
        <ele>71.323</ele>
        <time>2012-06-24T06:52:21.063Z</time>
      </trkpt>
      <trkpt lat="49.34619" lon="1.07597">
        <ele>70.419</ele>
        <time>2012-06-24T06:52:22.854Z</time>
      </trkpt>
      <trkpt lat="49.34622" lon="1.07612">
        <ele>69.253</ele>
        <time>2012-06-24T06:52:24.896Z</time>
      </trkpt>
      <trkpt lat="49.34626" lon="1.0763">
        <ele>67.454</ele>
        <time>2012-06-24T06:52:27.503Z</time>
      </trkpt>
      <trkpt lat="49.3463" lon="1.07645">
        <ele>65.06</ele>
        <time>2012-06-24T06:52:29.713Z</time>
      </trkpt>
      <trkpt lat="49.34638" lon="1.07663">
        <ele>63.153</ele>
        <time>2012-06-24T06:52:32.862Z</time>
      </trkpt>
      <trkpt lat="49.34649" lon="1.07673">
        <ele>62.402</ele>
        <time>2012-06-24T06:52:35.795Z</time>
      </trkpt>
      <trkpt lat="49.34657" lon="1.07679">
        <ele>62.448</ele>
        <time>2012-06-24T06:52:37.882Z</time>
      </trkpt>
      <trkpt lat="49.3467" lon="1.07684">
        <ele>63.129</ele>
        <time>2012-06-24T06:52:40.737Z</time>
      </trkpt>
      <trkpt lat="49.34684" lon="1.07691">
        <ele>64.267</ele>
        <time>2012-06-24T06:52:43.903Z</time>
      </trkpt>
      <trkpt lat="49.34699" lon="1.07698">
        <ele>65.24</ele>
        <time>2012-06-24T06:52:46.949Z</time>
      </trkpt>
      <trkpt lat="49.34714" lon="1.07706">
        <ele>65.648</ele>
        <time>2012-06-24T06:52:50.181Z</time>
      </trkpt>
      <trkpt lat="49.34728" lon="1.07713">
        <ele>65.672</ele>
        <time>2012-06-24T06:52:54.552Z</time>
      </trkpt>
      <trkpt lat="49.34739" lon="1.07717">
        <ele>65.361</ele>
        <time>2012-06-24T06:52:57.906Z</time>
      </trkpt>
      <trkpt lat="49.3474" lon="1.07701">
        <ele>64.526</ele>
        <time>2012-06-24T06:53:02.489Z</time>
      </trkpt>
      <trkpt lat="49.34746" lon="1.07685">
        <ele>63.382</ele>
        <time>2012-06-24T06:53:07.518Z</time>
      </trkpt>
      <trkpt lat="49.34746" lon="1.0767">
        <ele>62.504</ele>
        <time>2012-06-24T06:53:11.504Z</time>
      </trkpt>
      <trkpt lat="49.34738" lon="1.0766">
        <ele>62.116</ele>
        <time>2012-06-24T06:53:14.997Z</time>
      </trkpt>
      <trkpt lat="49.34735" lon="1.07647">
        <ele>62.075</ele>
        <time>2012-06-24T06:53:18.059Z</time>
      </trkpt>
      <trkpt lat="49.34732" lon="1.07632">
        <ele>62.191</ele>
        <time>2012-06-24T06:53:21.054Z</time>
      </trkpt>
      <trkpt lat="49.34728" lon="1.07616">
        <ele>62.757</ele>
        <time>2012-06-24T06:53:24.338Z</time>
      </trkpt>
      <trkpt lat="49.34726" lon="1.07601">
        <ele>64.036</ele>
        <time>2012-06-24T06:53:27.564Z</time>
      </trkpt>
      <trkpt lat="49.34722" lon="1.07585">
        <ele>65.525</ele>
        <time>2012-06-24T06:53:30.976Z</time>
      </trkpt>
      <trkpt lat="49.34718" lon="1.0757">
        <ele>66.61</ele>
        <time>2012-06-24T06:53:34.707Z</time>
      </trkpt>
      <trkpt lat="49.34714" lon="1.07557">
        <ele>67.201</ele>
        <time>2012-06-24T06:53:38.086Z</time>
      </trkpt>
      <trkpt lat="49.34717" lon="1.07541">
        <ele>67.402</ele>
        <time>2012-06-24T06:53:41.933Z</time>
      </trkpt>
      <trkpt lat="49.34717" lon="1.07527">
        <ele>67.407</ele>
        <time>2012-06-24T06:53:45.056Z</time>
      </trkpt>
      <trkpt lat="49.34716" lon="1.07509">
        <ele>67.307</ele>
        <time>2012-06-24T06:53:48.916Z</time>
      </trkpt>
      <trkpt lat="49.34715" lon="1.07492">
        <ele>67.144</ele>
        <time>2012-06-24T06:53:52.675Z</time>
      </trkpt>
      <trkpt lat="49.34712" lon="1.07475">
        <ele>67.049</ele>
        <time>2012-06-24T06:53:56.444Z</time>
      </trkpt>
      <trkpt lat="49.34709" lon="1.07458">
        <ele>67.121</ele>
        <time>2012-06-24T06:54:00.126Z</time>
      </trkpt>
      <trkpt lat="49.34706" lon="1.07443">
        <ele>67.34</ele>
        <time>2012-06-24T06:54:03.767Z</time>
      </trkpt>
      <trkpt lat="49.34701" lon="1.07428">
        <ele>67.652</ele>
        <time>2012-06-24T06:54:07.427Z</time>
      </trkpt>
      <trkpt lat="49.34699" lon="1.07411">
        <ele>67.977</ele>
        <time>2012-06-24T06:54:11.251Z</time>
      </trkpt>
      <trkpt lat="49.34699" lon="1.07394">
        <ele>68.256</ele>
        <time>2012-06-24T06:54:15.112Z</time>
      </trkpt>
      <trkpt lat="49.34698" lon="1.07378">
        <ele>68.604</ele>
        <time>2012-06-24T06:54:19.684Z</time>
      </trkpt>
      <trkpt lat="49.34709" lon="1.07374">
        <ele>69.094</ele>
        <time>2012-06-24T06:54:24.932Z</time>
      </trkpt>
      <trkpt lat="49.34721" lon="1.07381">
        <ele>69.58</ele>
        <time>2012-06-24T06:54:28.906Z</time>
      </trkpt>
      <trkpt lat="49.34735" lon="1.07388">
        <ele>69.894</ele>
        <time>2012-06-24T06:54:32.546Z</time>
      </trkpt>
      <trkpt lat="49.34749" lon="1.07395">
        <ele>70.029</ele>
        <time>2012-06-24T06:54:35.987Z</time>
      </trkpt>
      <trkpt lat="49.34759" lon="1.074">
        <ele>70.042</ele>
        <time>2012-06-24T06:54:38.898Z</time>
      </trkpt>
      <trkpt lat="49.34769" lon="1.07401">
        <ele>70.012</ele>
        <time>2012-06-24T06:54:41.683Z</time>
      </trkpt>
      <trkpt lat="49.34775" lon="1.0739">
        <ele>69.987</ele>
        <time>2012-06-24T06:54:44.945Z</time>
      </trkpt>
      <trkpt lat="49.34782" lon="1.07376">
        <ele>69.976</ele>
        <time>2012-06-24T06:54:48.548Z</time>
      </trkpt>
      <trkpt lat="49.34787" lon="1.07358">
        <ele>69.969</ele>
        <time>2012-06-24T06:54:52.166Z</time>
      </trkpt>
      <trkpt lat="49.34792" lon="1.0734">
        <ele>69.724</ele>
        <time>2012-06-24T06:54:55.944Z</time>
      </trkpt>
      <trkpt lat="49.34792" lon="1.07326">
        <ele>69.076</ele>
        <time>2012-06-24T06:54:59.274Z</time>
      </trkpt>
      <trkpt lat="49.34788" lon="1.07312">
        <ele>68.616</ele>
        <time>2012-06-24T06:55:02.972Z</time>
      </trkpt>
      <trkpt lat="49.34787" lon="1.07298">
        <ele>68.876</ele>
        <time>2012-06-24T06:55:07.711Z</time>
      </trkpt>
      <trkpt lat="49.34787" lon="1.07298">
        <ele>69.306</ele>
        <time>2012-06-24T06:55:15.716Z</time>
      </trkpt>
      <trkpt lat="49.34787" lon="1.07298">
        <ele>69.297</ele>
        <time>2012-06-24T06:55:37.718Z</time>
      </trkpt>
      <trkpt lat="49.34783" lon="1.07261">
        <ele>69.087</ele>
        <time>2012-06-24T06:55:37.718Z</time>
      </trkpt>
      <trkpt lat="49.34778" lon="1.07247">
        <ele>69.122</ele>
        <time>2012-06-24T06:55:42.121Z</time>
      </trkpt>
      <trkpt lat="49.34772" lon="1.07233">
        <ele>69.453</ele>
        <time>2012-06-24T06:55:45.715Z</time>
      </trkpt>
      <trkpt lat="49.34772" lon="1.07233">
        <ele>69.838</ele>
        <time>2012-06-24T06:55:56.711Z</time>
      </trkpt>
      <trkpt lat="49.34772" lon="1.07233">
        <ele>70.027</ele>
        <time>2012-06-24T06:56:12.716Z</time>
      </trkpt>
      <trkpt lat="49.3476" lon="1.07202">
        <ele>70.023</ele>
        <time>2012-06-24T06:56:12.716Z</time>
      </trkpt>
      <trkpt lat="49.34753" lon="1.07193">
        <ele>70.469</ele>
        <time>2012-06-24T06:56:21.510Z</time>
      </trkpt>
      <trkpt lat="49.34746" lon="1.07182">
        <ele>71.712</ele>
        <time>2012-06-24T06:56:28.307Z</time>
      </trkpt>
      <trkpt lat="49.3474" lon="1.07169">
        <ele>72.477</ele>
        <time>2012-06-24T06:56:32.176Z</time>
      </trkpt>
      <trkpt lat="49.34732" lon="1.07155">
        <ele>71.755</ele>
        <time>2012-06-24T06:56:35.939Z</time>
      </trkpt>
      <trkpt lat="49.34726" lon="1.07144">
        <ele>70.589</ele>
        <time>2012-06-24T06:56:38.441Z</time>
      </trkpt>
      <trkpt lat="49.34719" lon="1.07131">
        <ele>70.515</ele>
        <time>2012-06-24T06:56:41.575Z</time>
      </trkpt>
      <trkpt lat="49.34713" lon="1.07114">
        <ele>71.493</ele>
        <time>2012-06-24T06:56:45.139Z</time>
      </trkpt>
      <trkpt lat="49.34709" lon="1.07096">
        <ele>72.123</ele>
        <time>2012-06-24T06:56:48.535Z</time>
      </trkpt>
      <trkpt lat="49.34708" lon="1.07081">
        <ele>71.71</ele>
        <time>2012-06-24T06:56:51.245Z</time>
      </trkpt>
      <trkpt lat="49.34708" lon="1.07064">
        <ele>70.973</ele>
        <time>2012-06-24T06:56:54.417Z</time>
      </trkpt>
      <trkpt lat="49.34704" lon="1.07051">
        <ele>70.537</ele>
        <time>2012-06-24T06:56:57.263Z</time>
      </trkpt>
      <trkpt lat="49.34702" lon="1.07035">
        <ele>70.226</ele>
        <time>2012-06-24T06:57:00.701Z</time>
      </trkpt>
      <trkpt lat="49.347" lon="1.07019">
        <ele>69.128</ele>
        <time>2012-06-24T06:57:04.252Z</time>
      </trkpt>
      <trkpt lat="49.347" lon="1.07">
        <ele>67.034</ele>
        <time>2012-06-24T06:57:08.216Z</time>
      </trkpt>
      <trkpt lat="49.347" lon="1.06983">
        <ele>65.145</ele>
        <time>2012-06-24T06:57:11.663Z</time>
      </trkpt>
      <trkpt lat="49.34695" lon="1.06967">
        <ele>64.32</ele>
        <time>2012-06-24T06:57:15.030Z</time>
      </trkpt>
      <trkpt lat="49.34697" lon="1.0695">
        <ele>64.334</ele>
        <time>2012-06-24T06:57:18.335Z</time>
      </trkpt>
      <trkpt lat="49.34699" lon="1.06935">
        <ele>64.952</ele>
        <time>2012-06-24T06:57:21.295Z</time>
      </trkpt>
      <trkpt lat="49.34694" lon="1.06919">
        <ele>65.886</ele>
        <time>2012-06-24T06:57:25.019Z</time>
      </trkpt>
      <trkpt lat="49.34689" lon="1.06907">
        <ele>66.731</ele>
        <time>2012-06-24T06:57:28.092Z</time>
      </trkpt>
      <trkpt lat="49.34686" lon="1.06895">
        <ele>67.401</ele>
        <time>2012-06-24T06:57:31.239Z</time>
      </trkpt>
      <trkpt lat="49.3468" lon="1.06883">
        <ele>68.01</ele>
        <time>2012-06-24T06:57:34.726Z</time>
      </trkpt>
      <trkpt lat="49.34685" lon="1.06871">
        <ele>68.938</ele>
        <time>2012-06-24T06:57:38.367Z</time>
      </trkpt>
      <trkpt lat="49.34695" lon="1.06875">
        <ele>70.92</ele>
        <time>2012-06-24T06:57:42.881Z</time>
      </trkpt>
      <trkpt lat="49.34704" lon="1.06889">
        <ele>73.631</ele>
        <time>2012-06-24T06:57:50.038Z</time>
      </trkpt>
      <trkpt lat="49.34715" lon="1.06897">
        <ele>75.658</ele>
        <time>2012-06-24T06:57:54.547Z</time>
      </trkpt>
      <trkpt lat="49.34726" lon="1.06896">
        <ele>76.411</ele>
        <time>2012-06-24T06:57:57.338Z</time>
      </trkpt>
      <trkpt lat="49.34737" lon="1.06901">
        <ele>75.621</ele>
        <time>2012-06-24T06:58:00.409Z</time>
      </trkpt>
      <trkpt lat="49.34747" lon="1.06911">
        <ele>73.067</ele>
        <time>2012-06-24T06:58:03.164Z</time>
      </trkpt>
      <trkpt lat="49.34755" lon="1.06917">
        <ele>70.02</ele>
        <time>2012-06-24T06:58:05.349Z</time>
      </trkpt>
      <trkpt lat="49.34766" lon="1.06914">
        <ele>67.684</ele>
        <time>2012-06-24T06:58:08.268Z</time>
      </trkpt>
      <trkpt lat="49.34772" lon="1.06898">
        <ele>64.95</ele>
        <time>2012-06-24T06:58:11.770Z</time>
      </trkpt>
      <trkpt lat="49.34779" lon="1.06881">
        <ele>61.248</ele>
        <time>2012-06-24T06:58:15.587Z</time>
      </trkpt>
      <trkpt lat="49.34788" lon="1.06865">
        <ele>58.238</ele>
        <time>2012-06-24T06:58:18.960Z</time>
      </trkpt>
      <trkpt lat="49.34795" lon="1.06851">
        <ele>57.029</ele>
        <time>2012-06-24T06:58:21.708Z</time>
      </trkpt>
      <trkpt lat="49.34804" lon="1.06832">
        <ele>57.544</ele>
        <time>2012-06-24T06:58:25.207Z</time>
      </trkpt>
      <trkpt lat="49.34811" lon="1.06814">
        <ele>59.581</ele>
        <time>2012-06-24T06:58:28.320Z</time>
      </trkpt>
      <trkpt lat="49.34817" lon="1.06797">
        <ele>62.595</ele>
        <time>2012-06-24T06:58:31.130Z</time>
      </trkpt>
      <trkpt lat="49.34823" lon="1.06781">
        <ele>65.668</ele>
        <time>2012-06-24T06:58:33.699Z</time>
      </trkpt>
      <trkpt lat="49.34832" lon="1.0676">
        <ele>67.984</ele>
        <time>2012-06-24T06:58:37.201Z</time>
      </trkpt>
      <trkpt lat="49.34838" lon="1.06741">
        <ele>69.322</ele>
        <time>2012-06-24T06:58:39.989Z</time>
      </trkpt>
      <trkpt lat="49.34845" lon="1.06719">
        <ele>69.981</ele>
        <time>2012-06-24T06:58:43.243Z</time>
      </trkpt>
      <trkpt lat="49.3485" lon="1.06701">
        <ele>70.505</ele>
        <time>2012-06-24T06:58:45.943Z</time>
      </trkpt>
      <trkpt lat="49.34857" lon="1.06682">
        <ele>71.407</ele>
        <time>2012-06-24T06:58:48.871Z</time>
      </trkpt>
      <trkpt lat="49.34863" lon="1.06661">
        <ele>72.381</ele>
        <time>2012-06-24T06:58:52.080Z</time>
      </trkpt>
      <trkpt lat="49.34868" lon="1.06643">
        <ele>72.92</ele>
        <time>2012-06-24T06:58:54.786Z</time>
      </trkpt>
      <trkpt lat="49.34872" lon="1.06624">
        <ele>73.064</ele>
        <time>2012-06-24T06:58:57.555Z</time>
      </trkpt>
      <trkpt lat="49.34875" lon="1.06607">
        <ele>73.019</ele>
        <time>2012-06-24T06:59:00.142Z</time>
      </trkpt>
      <trkpt lat="49.34878" lon="1.06594">
        <ele>72.787</ele>
        <time>2012-06-24T06:59:02.237Z</time>
      </trkpt>
      <trkpt lat="49.34885" lon="1.06573">
        <ele>72.357</ele>
        <time>2012-06-24T06:59:05.487Z</time>
      </trkpt>
      <trkpt lat="49.34892" lon="1.06557">
        <ele>71.961</ele>
        <time>2012-06-24T06:59:08.245Z</time>
      </trkpt>
      <trkpt lat="49.34898" lon="1.06545">
        <ele>71.905</ele>
        <time>2012-06-24T06:59:10.400Z</time>
      </trkpt>
      <trkpt lat="49.34906" lon="1.06525">
        <ele>72.201</ele>
        <time>2012-06-24T06:59:13.493Z</time>
      </trkpt>
      <trkpt lat="49.34912" lon="1.06507">
        <ele>72.581</ele>
        <time>2012-06-24T06:59:16.338Z</time>
      </trkpt>
      <trkpt lat="49.3492" lon="1.06491">
        <ele>72.823</ele>
        <time>2012-06-24T06:59:19.128Z</time>
      </trkpt>
      <trkpt lat="49.34929" lon="1.06472">
        <ele>72.918</ele>
        <time>2012-06-24T06:59:22.294Z</time>
      </trkpt>
      <trkpt lat="49.34934" lon="1.06454">
        <ele>72.923</ele>
        <time>2012-06-24T06:59:25.023Z</time>
      </trkpt>
      <trkpt lat="49.34939" lon="1.06435">
        <ele>72.902</ele>
        <time>2012-06-24T06:59:27.788Z</time>
      </trkpt>
      <trkpt lat="49.34943" lon="1.06416">
        <ele>72.886</ele>
        <time>2012-06-24T06:59:30.594Z</time>
      </trkpt>
      <trkpt lat="49.34947" lon="1.06396">
        <ele>72.902</ele>
        <time>2012-06-24T06:59:33.601Z</time>
      </trkpt>
      <trkpt lat="49.34953" lon="1.06381">
        <ele>72.956</ele>
        <time>2012-06-24T06:59:36.235Z</time>
      </trkpt>
      <trkpt lat="49.34957" lon="1.06367">
        <ele>73.014</ele>
        <time>2012-06-24T06:59:38.659Z</time>
      </trkpt>
      <trkpt lat="49.34962" lon="1.06348">
        <ele>73.066</ele>
        <time>2012-06-24T06:59:41.794Z</time>
      </trkpt>
      <trkpt lat="49.34968" lon="1.06332">
        <ele>73.19</ele>
        <time>2012-06-24T06:59:44.615Z</time>
      </trkpt>
      <trkpt lat="49.34975" lon="1.06316">
        <ele>73.537</ele>
        <time>2012-06-24T06:59:47.607Z</time>
      </trkpt>
      <trkpt lat="49.34981" lon="1.06305">
        <ele>74.077</ele>
        <time>2012-06-24T06:59:49.878Z</time>
      </trkpt>
      <trkpt lat="49.34988" lon="1.06293">
        <ele>74.525</ele>
        <time>2012-06-24T06:59:52.386Z</time>
      </trkpt>
      <trkpt lat="49.34996" lon="1.06282">
        <ele>74.716</ele>
        <time>2012-06-24T06:59:54.996Z</time>
      </trkpt>
      <trkpt lat="49.35002" lon="1.0627">
        <ele>74.76</ele>
        <time>2012-06-24T06:59:57.588Z</time>
      </trkpt>
      <trkpt lat="49.35009" lon="1.06255">
        <ele>74.959</ele>
        <time>2012-06-24T07:00:01.016Z</time>
      </trkpt>
      <trkpt lat="49.35019" lon="1.06236">
        <ele>75.94</ele>
        <time>2012-06-24T07:00:04.979Z</time>
      </trkpt>
      <trkpt lat="49.35027" lon="1.06219">
        <ele>77.729</ele>
        <time>2012-06-24T07:00:08.341Z</time>
      </trkpt>
      <trkpt lat="49.35037" lon="1.06202">
        <ele>79.346</ele>
        <time>2012-06-24T07:00:11.519Z</time>
      </trkpt>
      <trkpt lat="49.35045" lon="1.06189">
        <ele>80.418</ele>
        <time>2012-06-24T07:00:14.261Z</time>
      </trkpt>
      <trkpt lat="49.35053" lon="1.06173">
        <ele>81.351</ele>
        <time>2012-06-24T07:00:17.062Z</time>
      </trkpt>
      <trkpt lat="49.35061" lon="1.06161">
        <ele>81.88</ele>
        <time>2012-06-24T07:00:19.617Z</time>
      </trkpt>
      <trkpt lat="49.35067" lon="1.06151">
        <ele>81.865</ele>
        <time>2012-06-24T07:00:21.868Z</time>
      </trkpt>
      <trkpt lat="49.35071" lon="1.06138">
        <ele>81.853</ele>
        <time>2012-06-24T07:00:24.807Z</time>
      </trkpt>
      <trkpt lat="49.35081" lon="1.06138">
        <ele>82.008</ele>
        <time>2012-06-24T07:00:28.248Z</time>
      </trkpt>
      <trkpt lat="49.35089" lon="1.06145">
        <ele>81.944</ele>
        <time>2012-06-24T07:00:32.158Z</time>
      </trkpt>
      <trkpt lat="49.35095" lon="1.06155">
        <ele>81.54</ele>
        <time>2012-06-24T07:00:38.540Z</time>
      </trkpt>
      <trkpt lat="49.35101" lon="1.06168">
        <ele>81.255</ele>
        <time>2012-06-24T07:00:46.623Z</time>
      </trkpt>
      <trkpt lat="49.35109" lon="1.06175">
        <ele>81.467</ele>
        <time>2012-06-24T07:00:53.790Z</time>
      </trkpt>
      <trkpt lat="49.35116" lon="1.06183">
        <ele>82.495</ele>
        <time>2012-06-24T07:01:02.517Z</time>
      </trkpt>
      <trkpt lat="49.35123" lon="1.06195">
        <ele>84.394</ele>
        <time>2012-06-24T07:01:12.392Z</time>
      </trkpt>
      <trkpt lat="49.35121" lon="1.06212">
        <ele>86.439</ele>
        <time>2012-06-24T07:01:22.317Z</time>
      </trkpt>
      <trkpt lat="49.35115" lon="1.06226">
        <ele>88.52</ele>
        <time>2012-06-24T07:01:29.451Z</time>
      </trkpt>
      <trkpt lat="49.35109" lon="1.06239">
        <ele>91.091</ele>
        <time>2012-06-24T07:01:35.097Z</time>
      </trkpt>
      <trkpt lat="49.35104" lon="1.06253">
        <ele>93.474</ele>
        <time>2012-06-24T07:01:39.696Z</time>
      </trkpt>
      <trkpt lat="49.35101" lon="1.06266">
        <ele>94.878</ele>
        <time>2012-06-24T07:01:42.777Z</time>
      </trkpt>
      <trkpt lat="49.35097" lon="1.0628">
        <ele>95.359</ele>
        <time>2012-06-24T07:01:45.692Z</time>
      </trkpt>
      <trkpt lat="49.35092" lon="1.06293">
        <ele>95.216</ele>
        <time>2012-06-24T07:01:48.594Z</time>
      </trkpt>
      <trkpt lat="49.35088" lon="1.06308">
        <ele>94.81</ele>
        <time>2012-06-24T07:01:51.654Z</time>
      </trkpt>
      <trkpt lat="49.35082" lon="1.0632">
        <ele>94.275</ele>
        <time>2012-06-24T07:01:54.757Z</time>
      </trkpt>
      <trkpt lat="49.35073" lon="1.06329">
        <ele>93.313</ele>
        <time>2012-06-24T07:01:57.917Z</time>
      </trkpt>
      <trkpt lat="49.35063" lon="1.06332">
        <ele>92.009</ele>
        <time>2012-06-24T07:02:01.185Z</time>
      </trkpt>
      <trkpt lat="49.35054" lon="1.06334">
        <ele>91.022</ele>
        <time>2012-06-24T07:02:04.076Z</time>
      </trkpt>
      <trkpt lat="49.35048" lon="1.06345">
        <ele>90.841</ele>
        <time>2012-06-24T07:02:07.103Z</time>
      </trkpt>
      <trkpt lat="49.35042" lon="1.06359">
        <ele>91.339</ele>
        <time>2012-06-24T07:02:10.975Z</time>
      </trkpt>
      <trkpt lat="49.35039" lon="1.06372">
        <ele>91.764</ele>
        <time>2012-06-24T07:02:14.575Z</time>
      </trkpt>
      <trkpt lat="49.35031" lon="1.06386">
        <ele>91.59</ele>
        <time>2012-06-24T07:02:19.617Z</time>
      </trkpt>
      <trkpt lat="49.35024" lon="1.06396">
        <ele>91.085</ele>
        <time>2012-06-24T07:02:23.495Z</time>
      </trkpt>
      <trkpt lat="49.35018" lon="1.06408">
        <ele>90.636</ele>
        <time>2012-06-24T07:02:27.265Z</time>
      </trkpt>
      <trkpt lat="49.35012" lon="1.06421">
        <ele>90.38</ele>
        <time>2012-06-24T07:02:30.643Z</time>
      </trkpt>
      <trkpt lat="49.35005" lon="1.06434">
        <ele>90.314</ele>
        <time>2012-06-24T07:02:34.254Z</time>
      </trkpt>
      <trkpt lat="49.35003" lon="1.06448">
        <ele>90.448</ele>
        <time>2012-06-24T07:02:37.054Z</time>
      </trkpt>
      <trkpt lat="49.35" lon="1.06462">
        <ele>90.77</ele>
        <time>2012-06-24T07:02:39.853Z</time>
      </trkpt>
      <trkpt lat="49.34992" lon="1.06473">
        <ele>91.083</ele>
        <time>2012-06-24T07:02:43.067Z</time>
      </trkpt>
      <trkpt lat="49.34988" lon="1.06486">
        <ele>91.227</ele>
        <time>2012-06-24T07:02:46.189Z</time>
      </trkpt>
      <trkpt lat="49.34981" lon="1.06496">
        <ele>91.128</ele>
        <time>2012-06-24T07:02:49.542Z</time>
      </trkpt>
      <trkpt lat="49.34974" lon="1.06511">
        <ele>90.564</ele>
        <time>2012-06-24T07:02:53.597Z</time>
      </trkpt>
      <trkpt lat="49.34966" lon="1.06524">
        <ele>89.626</ele>
        <time>2012-06-24T07:02:57.645Z</time>
      </trkpt>
      <trkpt lat="49.34957" lon="1.0653">
        <ele>88.815</ele>
        <time>2012-06-24T07:03:00.981Z</time>
      </trkpt>
      <trkpt lat="49.3495" lon="1.06543">
        <ele>88.259</ele>
        <time>2012-06-24T07:03:04.572Z</time>
      </trkpt>
      <trkpt lat="49.34944" lon="1.06559">
        <ele>87.703</ele>
        <time>2012-06-24T07:03:08.304Z</time>
      </trkpt>
      <trkpt lat="49.34941" lon="1.06574">
        <ele>87.18</ele>
        <time>2012-06-24T07:03:11.491Z</time>
      </trkpt>
      <trkpt lat="49.34935" lon="1.06588">
        <ele>86.683</ele>
        <time>2012-06-24T07:03:14.711Z</time>
      </trkpt>
      <trkpt lat="49.34931" lon="1.06602">
        <ele>86.09</ele>
        <time>2012-06-24T07:03:17.857Z</time>
      </trkpt>
      <trkpt lat="49.34926" lon="1.06613">
        <ele>85.586</ele>
        <time>2012-06-24T07:03:20.734Z</time>
      </trkpt>
      <trkpt lat="49.34919" lon="1.06622">
        <ele>85.128</ele>
        <time>2012-06-24T07:03:23.596Z</time>
      </trkpt>
      <trkpt lat="49.34913" lon="1.0664">
        <ele>84.467</ele>
        <time>2012-06-24T07:03:27.515Z</time>
      </trkpt>
      <trkpt lat="49.34908" lon="1.06656">
        <ele>83.852</ele>
        <time>2012-06-24T07:03:31.121Z</time>
      </trkpt>
      <trkpt lat="49.34905" lon="1.0667">
        <ele>83.63</ele>
        <time>2012-06-24T07:03:33.979Z</time>
      </trkpt>
      <trkpt lat="49.349" lon="1.06682">
        <ele>83.77</ele>
        <time>2012-06-24T07:03:36.885Z</time>
      </trkpt>
      <trkpt lat="49.34894" lon="1.06695">
        <ele>84.056</ele>
        <time>2012-06-24T07:03:40.146Z</time>
      </trkpt>
      <trkpt lat="49.34888" lon="1.0671">
        <ele>84.266</ele>
        <time>2012-06-24T07:03:43.910Z</time>
      </trkpt>
      <trkpt lat="49.34883" lon="1.06727">
        <ele>84.613</ele>
        <time>2012-06-24T07:03:48.374Z</time>
      </trkpt>
      <trkpt lat="49.34879" lon="1.06743">
        <ele>85.316</ele>
        <time>2012-06-24T07:03:53.261Z</time>
      </trkpt>
      <trkpt lat="49.34874" lon="1.06759">
        <ele>86.016</ele>
        <time>2012-06-24T07:03:57.293Z</time>
      </trkpt>
      <trkpt lat="49.34871" lon="1.06778">
        <ele>86.495</ele>
        <time>2012-06-24T07:04:01.129Z</time>
      </trkpt>
      <trkpt lat="49.34871" lon="1.06778">
        <ele>86.939</ele>
        <time>2012-06-24T07:04:01.129Z</time>
      </trkpt>
      <trkpt lat="49.34869" lon="1.06797">
        <ele>87.289</ele>
        <time>2012-06-24T07:04:04.784Z</time>
      </trkpt>
      <trkpt lat="49.34868" lon="1.06812">
        <ele>87.426</ele>
        <time>2012-06-24T07:04:07.578Z</time>
      </trkpt>
      <trkpt lat="49.34865" lon="1.06828">
        <ele>87.295</ele>
        <time>2012-06-24T07:04:10.720Z</time>
      </trkpt>
      <trkpt lat="49.34861" lon="1.06845">
        <ele>86.912</ele>
        <time>2012-06-24T07:04:13.867Z</time>
      </trkpt>
      <trkpt lat="49.34854" lon="1.06859">
        <ele>86.527</ele>
        <time>2012-06-24T07:04:16.623Z</time>
      </trkpt>
      <trkpt lat="49.34847" lon="1.06871">
        <ele>85.971</ele>
        <time>2012-06-24T07:04:19.540Z</time>
      </trkpt>
      <trkpt lat="49.34847" lon="1.06871">
        <ele>84.966</ele>
        <time>2012-06-24T07:04:19.540Z</time>
      </trkpt>
      <trkpt lat="49.34839" lon="1.06891">
        <ele>83.868</ele>
        <time>2012-06-24T07:04:23.732Z</time>
      </trkpt>
      <trkpt lat="49.34835" lon="1.06904">
        <ele>82.702</ele>
        <time>2012-06-24T07:04:26.692Z</time>
      </trkpt>
      <trkpt lat="49.34828" lon="1.0692">
        <ele>81.28</ele>
        <time>2012-06-24T07:04:30.441Z</time>
      </trkpt>
      <trkpt lat="49.34824" lon="1.06935">
        <ele>80.139</ele>
        <time>2012-06-24T07:04:33.046Z</time>
      </trkpt>
      <trkpt lat="49.34819" lon="1.06955">
        <ele>79.674</ele>
        <time>2012-06-24T07:04:36.255Z</time>
      </trkpt>
      <trkpt lat="49.34818" lon="1.06968">
        <ele>79.541</ele>
        <time>2012-06-24T07:04:38.372Z</time>
      </trkpt>
      <trkpt lat="49.34815" lon="1.06986">
        <ele>79.351</ele>
        <time>2012-06-24T07:04:41.105Z</time>
      </trkpt>
      <trkpt lat="49.34814" lon="1.07001">
        <ele>78.979</ele>
        <time>2012-06-24T07:04:43.467Z</time>
      </trkpt>
      <trkpt lat="49.34812" lon="1.07017">
        <ele>78.406</ele>
        <time>2012-06-24T07:04:45.796Z</time>
      </trkpt>
      <trkpt lat="49.34815" lon="1.07034">
        <ele>77.719</ele>
        <time>2012-06-24T07:04:48.510Z</time>
      </trkpt>
      <trkpt lat="49.34825" lon="1.07041">
        <ele>76.956</ele>
        <time>2012-06-24T07:04:51.031Z</time>
      </trkpt>
      <trkpt lat="49.34834" lon="1.07048">
        <ele>75.972</ele>
        <time>2012-06-24T07:04:53.497Z</time>
      </trkpt>
      <trkpt lat="49.34842" lon="1.0706">
        <ele>74.939</ele>
        <time>2012-06-24T07:04:56.849Z</time>
      </trkpt>
      <trkpt lat="49.34849" lon="1.0707">
        <ele>74.289</ele>
        <time>2012-06-24T07:04:59.807Z</time>
      </trkpt>
      <trkpt lat="49.34854" lon="1.07086">
        <ele>74.095</ele>
        <time>2012-06-24T07:05:03.503Z</time>
      </trkpt>
      <trkpt lat="49.3486" lon="1.07097">
        <ele>74.692</ele>
        <time>2012-06-24T07:05:06.256Z</time>
      </trkpt>
      <trkpt lat="49.34869" lon="1.07105">
        <ele>76.328</ele>
        <time>2012-06-24T07:05:09.293Z</time>
      </trkpt>
      <trkpt lat="49.34877" lon="1.07124">
        <ele>78.323</ele>
        <time>2012-06-24T07:05:13.357Z</time>
      </trkpt>
      <trkpt lat="49.34879" lon="1.07138">
        <ele>79.851</ele>
        <time>2012-06-24T07:05:15.769Z</time>
      </trkpt>
      <trkpt lat="49.34882" lon="1.07153">
        <ele>80.691</ele>
        <time>2012-06-24T07:05:18.334Z</time>
      </trkpt>
      <trkpt lat="49.34885" lon="1.0717">
        <ele>80.92</ele>
        <time>2012-06-24T07:05:21.271Z</time>
      </trkpt>
      <trkpt lat="49.34893" lon="1.07185">
        <ele>80.82</ele>
        <time>2012-06-24T07:05:24.641Z</time>
      </trkpt>
      <trkpt lat="49.34897" lon="1.07198">
        <ele>80.992</ele>
        <time>2012-06-24T07:05:27.119Z</time>
      </trkpt>
      <trkpt lat="49.349" lon="1.07212">
        <ele>81.29</ele>
        <time>2012-06-24T07:05:29.782Z</time>
      </trkpt>
      <trkpt lat="49.34905" lon="1.07233">
        <ele>80.838</ele>
        <time>2012-06-24T07:05:33.737Z</time>
      </trkpt>
      <trkpt lat="49.34908" lon="1.0725">
        <ele>79.728</ele>
        <time>2012-06-24T07:05:36.493Z</time>
      </trkpt>
      <trkpt lat="49.3491" lon="1.0727">
        <ele>78.801</ele>
        <time>2012-06-24T07:05:39.600Z</time>
      </trkpt>
      <trkpt lat="49.34912" lon="1.07288">
        <ele>78.23</ele>
        <time>2012-06-24T07:05:42.364Z</time>
      </trkpt>
      <trkpt lat="49.34913" lon="1.07301">
        <ele>77.79</ele>
        <time>2012-06-24T07:05:44.449Z</time>
      </trkpt>
      <trkpt lat="49.34911" lon="1.07323">
        <ele>77.13</ele>
        <time>2012-06-24T07:05:47.872Z</time>
      </trkpt>
      <trkpt lat="49.34913" lon="1.07343">
        <ele>76.273</ele>
        <time>2012-06-24T07:05:50.926Z</time>
      </trkpt>
      <trkpt lat="49.34914" lon="1.0736">
        <ele>75.817</ele>
        <time>2012-06-24T07:05:53.582Z</time>
      </trkpt>
      <trkpt lat="49.34911" lon="1.07381">
        <ele>76.097</ele>
        <time>2012-06-24T07:05:57.162Z</time>
      </trkpt>
      <trkpt lat="49.34908" lon="1.07395">
        <ele>76.437</ele>
        <time>2012-06-24T07:05:59.561Z</time>
      </trkpt>
      <trkpt lat="49.34904" lon="1.07417">
        <ele>76.33</ele>
        <time>2012-06-24T07:06:03.472Z</time>
      </trkpt>
      <trkpt lat="49.34901" lon="1.07439">
        <ele>76.029</ele>
        <time>2012-06-24T07:06:06.963Z</time>
      </trkpt>
      <trkpt lat="49.34898" lon="1.07465">
        <ele>75.454</ele>
        <time>2012-06-24T07:06:10.644Z</time>
      </trkpt>
      <trkpt lat="49.34896" lon="1.07486">
        <ele>74.431</ele>
        <time>2012-06-24T07:06:13.560Z</time>
      </trkpt>
      <trkpt lat="49.34894" lon="1.075">
        <ele>73.315</ele>
        <time>2012-06-24T07:06:15.650Z</time>
      </trkpt>
      <trkpt lat="49.34888" lon="1.07514">
        <ele>72.181</ele>
        <time>2012-06-24T07:06:18.166Z</time>
      </trkpt>
      <trkpt lat="49.34884" lon="1.07526">
        <ele>70.619</ele>
        <time>2012-06-24T07:06:20.525Z</time>
      </trkpt>
      <trkpt lat="49.34879" lon="1.07544">
        <ele>68.651</ele>
        <time>2012-06-24T07:06:23.720Z</time>
      </trkpt>
      <trkpt lat="49.34879" lon="1.07544">
        <ele>67.11</ele>
        <time>2012-06-24T07:06:31.726Z</time>
      </trkpt>
      <trkpt lat="49.34879" lon="1.07544">
        <ele>66.638</ele>
        <time>2012-06-24T07:06:39.716Z</time>
      </trkpt>
      <trkpt lat="49.34875" lon="1.07565">
        <ele>67.042</ele>
        <time>2012-06-24T07:06:39.716Z</time>
      </trkpt>
      <trkpt lat="49.34877" lon="1.07581">
        <ele>67.8</ele>
        <time>2012-06-24T07:06:47.534Z</time>
      </trkpt>
      <trkpt lat="49.34877" lon="1.07599">
        <ele>68.215</ele>
        <time>2012-06-24T07:06:51.704Z</time>
      </trkpt>
      <trkpt lat="49.3488" lon="1.07614">
        <ele>68.129</ele>
        <time>2012-06-24T07:06:55.140Z</time>
      </trkpt>
      <trkpt lat="49.34886" lon="1.07626">
        <ele>68.288</ele>
        <time>2012-06-24T07:06:58.643Z</time>
      </trkpt>
      <trkpt lat="49.34892" lon="1.07644">
        <ele>69.027</ele>
        <time>2012-06-24T07:07:03.114Z</time>
      </trkpt>
      <trkpt lat="49.34899" lon="1.07664">
        <ele>69.854</ele>
        <time>2012-06-24T07:07:07.112Z</time>
      </trkpt>
      <trkpt lat="49.34909" lon="1.07674">
        <ele>70.266</ele>
        <time>2012-06-24T07:07:10.347Z</time>
      </trkpt>
      <trkpt lat="49.34918" lon="1.07677">
        <ele>69.964</ele>
        <time>2012-06-24T07:07:13.017Z</time>
      </trkpt>
      <trkpt lat="49.34928" lon="1.07678">
        <ele>69.13</ele>
        <time>2012-06-24T07:07:16.152Z</time>
      </trkpt>
      <trkpt lat="49.34941" lon="1.07677">
        <ele>68.37</ele>
        <time>2012-06-24T07:07:20.160Z</time>
      </trkpt>
      <trkpt lat="49.34952" lon="1.07674">
        <ele>68.037</ele>
        <time>2012-06-24T07:07:23.065Z</time>
      </trkpt>
      <trkpt lat="49.34961" lon="1.07677">
        <ele>68.002</ele>
        <time>2012-06-24T07:07:25.629Z</time>
      </trkpt>
      <trkpt lat="49.3497" lon="1.07683">
        <ele>68.108</ele>
        <time>2012-06-24T07:07:28.553Z</time>
      </trkpt>
      <trkpt lat="49.34979" lon="1.0769">
        <ele>68.266</ele>
        <time>2012-06-24T07:07:31.716Z</time>
      </trkpt>
      <trkpt lat="49.34979" lon="1.0769">
        <ele>68.392</ele>
        <time>2012-06-24T07:07:43.716Z</time>
      </trkpt>
      <trkpt lat="49.34979" lon="1.0769">
        <ele>68.441</ele>
        <time>2012-06-24T07:07:54.720Z</time>
      </trkpt>
      <trkpt lat="49.34985" lon="1.0768">
        <ele>68.428</ele>
        <time>2012-06-24T07:07:54.720Z</time>
      </trkpt>
      <trkpt lat="49.34992" lon="1.07668">
        <ele>68.377</ele>
        <time>2012-06-24T07:08:03.309Z</time>
      </trkpt>
      <trkpt lat="49.35003" lon="1.0767">
        <ele>68.329</ele>
        <time>2012-06-24T07:08:08.647Z</time>
      </trkpt>
      <trkpt lat="49.35012" lon="1.07677">
        <ele>68.306</ele>
        <time>2012-06-24T07:08:12.887Z</time>
      </trkpt>
      <trkpt lat="49.35021" lon="1.07685">
        <ele>68.304</ele>
        <time>2012-06-24T07:08:17.151Z</time>
      </trkpt>
      <trkpt lat="49.35026" lon="1.07701">
        <ele>68.308</ele>
        <time>2012-06-24T07:08:21.922Z</time>
      </trkpt>
      <trkpt lat="49.35032" lon="1.07712">
        <ele>68.597</ele>
        <time>2012-06-24T07:08:26.462Z</time>
      </trkpt>
      <trkpt lat="49.35036" lon="1.07726">
        <ele>69.446</ele>
        <time>2012-06-24T07:08:31.794Z</time>
      </trkpt>
      <trkpt lat="49.35041" lon="1.07738">
        <ele>70.565</ele>
        <time>2012-06-24T07:08:37.725Z</time>
      </trkpt>
      <trkpt lat="49.35041" lon="1.07738">
        <ele>71.341</ele>
        <time>2012-06-24T07:08:38.716Z</time>
      </trkpt>
      <trkpt lat="49.35041" lon="1.07738">
        <ele>71.534</ele>
        <time>2012-06-24T07:08:42.724Z</time>
      </trkpt>
      <trkpt lat="49.35041" lon="1.07738">
        <ele>71.392</ele>
        <time>2012-06-24T07:08:42.724Z</time>
      </trkpt>
      <trkpt lat="49.35038" lon="1.07751">
        <ele>71.263</ele>
        <time>2012-06-24T07:08:51.829Z</time>
      </trkpt>
      <trkpt lat="49.35048" lon="1.07755">
        <ele>71.224</ele>
        <time>2012-06-24T07:09:00.291Z</time>
      </trkpt>
      <trkpt lat="49.35052" lon="1.0777">
        <ele>71.231</ele>
        <time>2012-06-24T07:09:04.688Z</time>
      </trkpt>
      <trkpt lat="49.35052" lon="1.0777">
        <ele>71.233</ele>
        <time>2012-06-24T07:09:04.688Z</time>
      </trkpt>
      <trkpt lat="49.35049" lon="1.07783">
        <ele>71.204</ele>
        <time>2012-06-24T07:09:09.396Z</time>
      </trkpt>
      <trkpt lat="49.3504" lon="1.07788">
        <ele>71.166</ele>
        <time>2012-06-24T07:09:14.957Z</time>
      </trkpt>
      <trkpt lat="49.3503" lon="1.0779">
        <ele>71.048</ele>
        <time>2012-06-24T07:09:20.576Z</time>
      </trkpt>
      <trkpt lat="49.35022" lon="1.07798">
        <ele>70.885</ele>
        <time>2012-06-24T07:09:26.195Z</time>
      </trkpt>
      <trkpt lat="49.35022" lon="1.07798">
        <ele>70.833</ele>
        <time>2012-06-24T07:09:26.195Z</time>
      </trkpt>
      <trkpt lat="49.35016" lon="1.07812">
        <ele>70.898</ele>
        <time>2012-06-24T07:09:33.947Z</time>
      </trkpt>
      <trkpt lat="49.3501" lon="1.07824">
        <ele>71.112</ele>
        <time>2012-06-24T07:09:41.376Z</time>
      </trkpt>
      <trkpt lat="49.3501" lon="1.07824">
        <ele>71.507</ele>
        <time>2012-06-24T07:09:41.376Z</time>
      </trkpt>
      <trkpt lat="49.35005" lon="1.07838">
        <ele>71.725</ele>
        <time>2012-06-24T07:09:46.193Z</time>
      </trkpt>
      <trkpt lat="49.35005" lon="1.07838">
        <ele>71.628</ele>
        <time>2012-06-24T07:09:46.193Z</time>
      </trkpt>
      <trkpt lat="49.35014" lon="1.07844">
        <ele>71.439</ele>
        <time>2012-06-24T07:09:50.787Z</time>
      </trkpt>
      <trkpt lat="49.35024" lon="1.07851">
        <ele>71.252</ele>
        <time>2012-06-24T07:09:59.134Z</time>
      </trkpt>
      <trkpt lat="49.35035" lon="1.0786">
        <ele>70.718</ele>
        <time>2012-06-24T07:10:06.195Z</time>
      </trkpt>
      <trkpt lat="49.35042" lon="1.07869">
        <ele>69.488</ele>
        <time>2012-06-24T07:10:09.649Z</time>
      </trkpt>
      <trkpt lat="49.35051" lon="1.07878">
        <ele>67.865</ele>
        <time>2012-06-24T07:10:12.864Z</time>
      </trkpt>
      <trkpt lat="49.35062" lon="1.07883">
        <ele>66.39</ele>
        <time>2012-06-24T07:10:16.533Z</time>
      </trkpt>
      <trkpt lat="49.35071" lon="1.0789">
        <ele>65.216</ele>
        <time>2012-06-24T07:10:19.433Z</time>
      </trkpt>
      <trkpt lat="49.35076" lon="1.07903">
        <ele>64.093</ele>
        <time>2012-06-24T07:10:22.275Z</time>
      </trkpt>
      <trkpt lat="49.3508" lon="1.0792">
        <ele>62.704</ele>
        <time>2012-06-24T07:10:25.757Z</time>
      </trkpt>
      <trkpt lat="49.35088" lon="1.07927">
        <ele>61.259</ele>
        <time>2012-06-24T07:10:28.781Z</time>
      </trkpt>
      <trkpt lat="49.351" lon="1.07932">
        <ele>60.106</ele>
        <time>2012-06-24T07:10:32.697Z</time>
      </trkpt>
      <trkpt lat="49.3511" lon="1.07933">
        <ele>59.224</ele>
        <time>2012-06-24T07:10:36.388Z</time>
      </trkpt>
      <trkpt lat="49.35119" lon="1.07928">
        <ele>57.779</ele>
        <time>2012-06-24T07:10:40.332Z</time>
      </trkpt>
      <trkpt lat="49.35128" lon="1.07921">
        <ele>55.266</ele>
        <time>2012-06-24T07:10:44.224Z</time>
      </trkpt>
      <trkpt lat="49.35137" lon="1.07916">
        <ele>52.784</ele>
        <time>2012-06-24T07:10:48.472Z</time>
      </trkpt>
      <trkpt lat="49.35145" lon="1.0791">
        <ele>51.423</ele>
        <time>2012-06-24T07:10:52.382Z</time>
      </trkpt>
      <trkpt lat="49.35153" lon="1.07917">
        <ele>50.994</ele>
        <time>2012-06-24T07:10:56.557Z</time>
      </trkpt>
      <trkpt lat="49.35159" lon="1.07933">
        <ele>51.339</ele>
        <time>2012-06-24T07:11:02.744Z</time>
      </trkpt>
      <trkpt lat="49.35165" lon="1.07948">
        <ele>52.242</ele>
        <time>2012-06-24T07:11:10.216Z</time>
      </trkpt>
      <trkpt lat="49.35172" lon="1.07959">
        <ele>53.104</ele>
        <time>2012-06-24T07:11:16.043Z</time>
      </trkpt>
      <trkpt lat="49.35178" lon="1.07972">
        <ele>53.495</ele>
        <time>2012-06-24T07:11:19.992Z</time>
      </trkpt>
      <trkpt lat="49.35185" lon="1.0799">
        <ele>53.934</ele>
        <time>2012-06-24T07:11:23.733Z</time>
      </trkpt>
      <trkpt lat="49.35185" lon="1.0799">
        <ele>54.879</ele>
        <time>2012-06-24T07:11:23.733Z</time>
      </trkpt>
      <trkpt lat="49.35196" lon="1.07999">
        <ele>55.834</ele>
        <time>2012-06-24T07:11:27.231Z</time>
      </trkpt>
      <trkpt lat="49.35206" lon="1.08007">
        <ele>56.243</ele>
        <time>2012-06-24T07:11:30.265Z</time>
      </trkpt>
      <trkpt lat="49.35215" lon="1.08013">
        <ele>56.279</ele>
        <time>2012-06-24T07:11:32.993Z</time>
      </trkpt>
      <trkpt lat="49.35229" lon="1.08025">
        <ele>56.443</ele>
        <time>2012-06-24T07:11:37.174Z</time>
      </trkpt>
      <trkpt lat="49.35241" lon="1.08032">
        <ele>56.976</ele>
        <time>2012-06-24T07:11:40.282Z</time>
      </trkpt>
      <trkpt lat="49.35256" lon="1.08043">
        <ele>57.561</ele>
        <time>2012-06-24T07:11:43.719Z</time>
      </trkpt>
      <trkpt lat="49.35264" lon="1.08051">
        <ele>58.105</ele>
        <time>2012-06-24T07:11:45.749Z</time>
      </trkpt>
      <trkpt lat="49.3528" lon="1.08063">
        <ele>58.783</ele>
        <time>2012-06-24T07:11:49.425Z</time>
      </trkpt>
      <trkpt lat="49.35292" lon="1.08066">
        <ele>59.24</ele>
        <time>2012-06-24T07:11:52.251Z</time>
      </trkpt>
      <trkpt lat="49.35292" lon="1.08066">
        <ele>59.237</ele>
        <time>2012-06-24T07:11:52.251Z</time>
      </trkpt>
      <trkpt lat="49.35301" lon="1.08065">
        <ele>59.084</ele>
        <time>2012-06-24T07:11:54.640Z</time>
      </trkpt>
      <trkpt lat="49.3531" lon="1.08056">
        <ele>58.975</ele>
        <time>2012-06-24T07:11:57.968Z</time>
      </trkpt>
      <trkpt lat="49.35301" lon="1.08047">
        <ele>58.897</ele>
        <time>2012-06-24T07:12:02.202Z</time>
      </trkpt>
      <trkpt lat="49.35302" lon="1.08032">
        <ele>58.87</ele>
        <time>2012-06-24T07:12:08.034Z</time>
      </trkpt>
      <trkpt lat="49.35301" lon="1.08018">
        <ele>58.911</ele>
        <time>2012-06-24T07:12:12.711Z</time>
      </trkpt>
      <trkpt lat="49.35303" lon="1.08003">
        <ele>59.035</ele>
        <time>2012-06-24T07:12:17.219Z</time>
      </trkpt>
      <trkpt lat="49.35294" lon="1.07995">
        <ele>59.641</ele>
        <time>2012-06-24T07:12:21.774Z</time>
      </trkpt>
      <trkpt lat="49.35284" lon="1.07989">
        <ele>60.957</ele>
        <time>2012-06-24T07:12:26.368Z</time>
      </trkpt>
      <trkpt lat="49.35276" lon="1.0798">
        <ele>62.441</ele>
        <time>2012-06-24T07:12:29.952Z</time>
      </trkpt>
      <trkpt lat="49.35279" lon="1.07966">
        <ele>63.627</ele>
        <time>2012-06-24T07:12:33.982Z</time>
      </trkpt>
      <trkpt lat="49.35279" lon="1.07952">
        <ele>64.504</ele>
        <time>2012-06-24T07:12:38.291Z</time>
      </trkpt>
      <trkpt lat="49.3527" lon="1.07945">
        <ele>65.352</ele>
        <time>2012-06-24T07:12:42.920Z</time>
      </trkpt>
      <trkpt lat="49.3526" lon="1.07942">
        <ele>66.444</ele>
        <time>2012-06-24T07:12:47.412Z</time>
      </trkpt>
      <trkpt lat="49.35251" lon="1.07941">
        <ele>67.143</ele>
        <time>2012-06-24T07:12:51.641Z</time>
      </trkpt>
      <trkpt lat="49.35243" lon="1.07934">
        <ele>67.278</ele>
        <time>2012-06-24T07:12:55.132Z</time>
      </trkpt>
      <trkpt lat="49.35232" lon="1.07924">
        <ele>67.651</ele>
        <time>2012-06-24T07:12:59.381Z</time>
      </trkpt>
      <trkpt lat="49.35224" lon="1.07916">
        <ele>68.133</ele>
        <time>2012-06-24T07:13:02.180Z</time>
      </trkpt>
      <trkpt lat="49.35213" lon="1.07905">
        <ele>67.869</ele>
        <time>2012-06-24T07:13:05.966Z</time>
      </trkpt>
      <trkpt lat="49.35201" lon="1.07897">
        <ele>66.585</ele>
        <time>2012-06-24T07:13:09.676Z</time>
      </trkpt>
      <trkpt lat="49.35189" lon="1.07891">
        <ele>64.803</ele>
        <time>2012-06-24T07:13:13.409Z</time>
      </trkpt>
      <trkpt lat="49.3518" lon="1.07885">
        <ele>63.461</ele>
        <time>2012-06-24T07:13:16.029Z</time>
      </trkpt>
      <trkpt lat="49.35176" lon="1.07871">
        <ele>62.93</ele>
        <time>2012-06-24T07:13:19.374Z</time>
      </trkpt>
      <trkpt lat="49.35179" lon="1.07852">
        <ele>62.858</ele>
        <time>2012-06-24T07:13:23.790Z</time>
      </trkpt>
      <trkpt lat="49.35182" lon="1.07839">
        <ele>62.837</ele>
        <time>2012-06-24T07:13:27.024Z</time>
      </trkpt>
      <trkpt lat="49.35176" lon="1.07825">
        <ele>62.719</ele>
        <time>2012-06-24T07:13:30.999Z</time>
      </trkpt>
      <trkpt lat="49.35168" lon="1.07821">
        <ele>62.581</ele>
        <time>2012-06-24T07:13:34.562Z</time>
      </trkpt>
      <trkpt lat="49.35158" lon="1.07817">
        <ele>62.334</ele>
        <time>2012-06-24T07:13:38.217Z</time>
      </trkpt>
      <trkpt lat="49.35148" lon="1.07812">
        <ele>61.879</ele>
        <time>2012-06-24T07:13:41.487Z</time>
      </trkpt>
      <trkpt lat="49.35139" lon="1.0781">
        <ele>61.259</ele>
        <time>2012-06-24T07:13:44.601Z</time>
      </trkpt>
      <trkpt lat="49.35132" lon="1.07801">
        <ele>60.43</ele>
        <time>2012-06-24T07:13:47.932Z</time>
      </trkpt>
      <trkpt lat="49.3513" lon="1.07784">
        <ele>59.525</ele>
        <time>2012-06-24T07:13:52.253Z</time>
      </trkpt>
      <trkpt lat="49.35125" lon="1.07771">
        <ele>58.933</ele>
        <time>2012-06-24T07:13:56.555Z</time>
      </trkpt>
      <trkpt lat="49.35116" lon="1.07768">
        <ele>58.893</ele>
        <time>2012-06-24T07:14:01.839Z</time>
      </trkpt>
      <trkpt lat="49.35109" lon="1.07777">
        <ele>59.42</ele>
        <time>2012-06-24T07:14:07.789Z</time>
      </trkpt>
      <trkpt lat="49.35105" lon="1.07793">
        <ele>60.218</ele>
        <time>2012-06-24T07:14:14.494Z</time>
      </trkpt>
      <trkpt lat="49.35103" lon="1.07809">
        <ele>60.968</ele>
        <time>2012-06-24T07:14:19.287Z</time>
      </trkpt>
      <trkpt lat="49.35098" lon="1.07824">
        <ele>61.623</ele>
        <time>2012-06-24T07:14:24.111Z</time>
      </trkpt>
      <trkpt lat="49.35092" lon="1.07835">
        <ele>62.112</ele>
        <time>2012-06-24T07:14:28.721Z</time>
      </trkpt>
      <trkpt lat="49.35092" lon="1.07835">
        <ele>62.334</ele>
        <time>2012-06-24T07:14:28.721Z</time>
      </trkpt>
      <trkpt lat="49.35092" lon="1.07835">
        <ele>62.362</ele>
        <time>2012-06-24T07:14:36.722Z</time>
      </trkpt>
      <trkpt lat="49.35084" lon="1.07827">
        <ele>62.32</ele>
        <time>2012-06-24T07:14:36.722Z</time>
      </trkpt>
      <trkpt lat="49.35079" lon="1.07815">
        <ele>62.573</ele>
        <time>2012-06-24T07:14:44.256Z</time>
      </trkpt>
      <trkpt lat="49.35074" lon="1.07802">
        <ele>63.318</ele>
        <time>2012-06-24T07:14:49.168Z</time>
      </trkpt>
      <trkpt lat="49.35069" lon="1.0779">
        <ele>64.234</ele>
        <time>2012-06-24T07:14:53.102Z</time>
      </trkpt>
      <trkpt lat="49.35073" lon="1.07773">
        <ele>65.138</ele>
        <time>2012-06-24T07:14:57.859Z</time>
      </trkpt>
      <trkpt lat="49.35075" lon="1.07757">
        <ele>66.181</ele>
        <time>2012-06-24T07:15:01.721Z</time>
      </trkpt>
      <trkpt lat="49.35073" lon="1.07743">
        <ele>67.184</ele>
        <time>2012-06-24T07:15:04.942Z</time>
      </trkpt>
      <trkpt lat="49.35074" lon="1.07726">
        <ele>67.9</ele>
        <time>2012-06-24T07:15:08.934Z</time>
      </trkpt>
      <trkpt lat="49.35075" lon="1.07711">
        <ele>68.336</ele>
        <time>2012-06-24T07:15:12.583Z</time>
      </trkpt>
      <trkpt lat="49.35075" lon="1.07697">
        <ele>68.559</ele>
        <time>2012-06-24T07:15:16.249Z</time>
      </trkpt>
      <trkpt lat="49.35077" lon="1.07678">
        <ele>68.594</ele>
        <time>2012-06-24T07:15:21.047Z</time>
      </trkpt>
      <trkpt lat="49.35075" lon="1.0766">
        <ele>68.53</ele>
        <time>2012-06-24T07:15:25.463Z</time>
      </trkpt>
      <trkpt lat="49.35075" lon="1.07646">
        <ele>68.441</ele>
        <time>2012-06-24T07:15:28.658Z</time>
      </trkpt>
      <trkpt lat="49.35076" lon="1.07629">
        <ele>68.392</ele>
        <time>2012-06-24T07:15:32.362Z</time>
      </trkpt>
      <trkpt lat="49.35076" lon="1.07629">
        <ele>68.392</ele>
        <time>2012-06-24T07:15:32.362Z</time>
      </trkpt>
      <trkpt lat="49.3507" lon="1.07617">
        <ele>68.407</ele>
        <time>2012-06-24T07:15:35.798Z</time>
      </trkpt>
      <trkpt lat="49.35063" lon="1.07609">
        <ele>68.653</ele>
        <time>2012-06-24T07:15:40.002Z</time>
      </trkpt>
      <trkpt lat="49.35061" lon="1.07593">
        <ele>69.465</ele>
        <time>2012-06-24T07:15:45.087Z</time>
      </trkpt>
      <trkpt lat="49.35063" lon="1.07577">
        <ele>70.652</ele>
        <time>2012-06-24T07:15:50.014Z</time>
      </trkpt>
      <trkpt lat="49.35069" lon="1.07565">
        <ele>71.644</ele>
        <time>2012-06-24T07:15:54.945Z</time>
      </trkpt>
      <trkpt lat="49.35069" lon="1.07565">
        <ele>72.171</ele>
        <time>2012-06-24T07:15:54.945Z</time>
      </trkpt>
      <trkpt lat="49.35074" lon="1.07552">
        <ele>72.399</ele>
        <time>2012-06-24T07:15:59.484Z</time>
      </trkpt>
      <trkpt lat="49.35074" lon="1.07537">
        <ele>72.7</ele>
        <time>2012-06-24T07:16:03.645Z</time>
      </trkpt>
      <trkpt lat="49.35071" lon="1.07521">
        <ele>73.302</ele>
        <time>2012-06-24T07:16:08.355Z</time>
      </trkpt>
      <trkpt lat="49.35074" lon="1.07505">
        <ele>74.141</ele>
        <time>2012-06-24T07:16:12.837Z</time>
      </trkpt>
      <trkpt lat="49.35079" lon="1.07491">
        <ele>74.966</ele>
        <time>2012-06-24T07:16:16.795Z</time>
      </trkpt>
      <trkpt lat="49.35088" lon="1.07484">
        <ele>75.49</ele>
        <time>2012-06-24T07:16:20.630Z</time>
      </trkpt>
      <trkpt lat="49.35097" lon="1.07472">
        <ele>75.649</ele>
        <time>2012-06-24T07:16:24.584Z</time>
      </trkpt>
      <trkpt lat="49.35103" lon="1.07462">
        <ele>75.619</ele>
        <time>2012-06-24T07:16:27.807Z</time>
      </trkpt>
      <trkpt lat="49.35108" lon="1.07449">
        <ele>75.442</ele>
        <time>2012-06-24T07:16:31.287Z</time>
      </trkpt>
      <trkpt lat="49.35114" lon="1.07433">
        <ele>74.81</ele>
        <time>2012-06-24T07:16:36.066Z</time>
      </trkpt>
      <trkpt lat="49.35118" lon="1.07421">
        <ele>73.708</ele>
        <time>2012-06-24T07:16:39.320Z</time>
      </trkpt>
      <trkpt lat="49.35121" lon="1.07407">
        <ele>72.754</ele>
        <time>2012-06-24T07:16:42.360Z</time>
      </trkpt>
      <trkpt lat="49.35126" lon="1.07395">
        <ele>72.581</ele>
        <time>2012-06-24T07:16:45.432Z</time>
      </trkpt>
      <trkpt lat="49.35133" lon="1.07386">
        <ele>73.147</ele>
        <time>2012-06-24T07:16:48.404Z</time>
      </trkpt>
      <trkpt lat="49.35141" lon="1.07372">
        <ele>73.633</ele>
        <time>2012-06-24T07:16:52.412Z</time>
      </trkpt>
      <trkpt lat="49.35141" lon="1.07356">
        <ele>73.651</ele>
        <time>2012-06-24T07:16:56.373Z</time>
      </trkpt>
      <trkpt lat="49.35138" lon="1.07343">
        <ele>73.713</ele>
        <time>2012-06-24T07:17:00.377Z</time>
      </trkpt>
      <trkpt lat="49.35138" lon="1.07327">
        <ele>74.221</ele>
        <time>2012-06-24T07:17:04.965Z</time>
      </trkpt>
      <trkpt lat="49.35144" lon="1.07315">
        <ele>75.12</ele>
        <time>2012-06-24T07:17:09.617Z</time>
      </trkpt>
      <trkpt lat="49.35152" lon="1.07306">
        <ele>76.196</ele>
        <time>2012-06-24T07:17:13.688Z</time>
      </trkpt>
      <trkpt lat="49.3516" lon="1.07298">
        <ele>77.186</ele>
        <time>2012-06-24T07:17:17.428Z</time>
      </trkpt>
      <trkpt lat="49.3517" lon="1.07302">
        <ele>77.919</ele>
        <time>2012-06-24T07:17:21.352Z</time>
      </trkpt>
      <trkpt lat="49.35179" lon="1.07306">
        <ele>78.188</ele>
        <time>2012-06-24T07:17:25.176Z</time>
      </trkpt>
      <trkpt lat="49.35183" lon="1.0732">
        <ele>78.035</ele>
        <time>2012-06-24T07:17:28.964Z</time>
      </trkpt>
      <trkpt lat="49.35194" lon="1.07314">
        <ele>77.737</ele>
        <time>2012-06-24T07:17:34.356Z</time>
      </trkpt>
      <trkpt lat="49.35202" lon="1.07308">
        <ele>77.226</ele>
        <time>2012-06-24T07:17:38.463Z</time>
      </trkpt>
      <trkpt lat="49.35212" lon="1.07301">
        <ele>76.294</ele>
        <time>2012-06-24T07:17:42.598Z</time>
      </trkpt>
      <trkpt lat="49.35219" lon="1.07289">
        <ele>74.375</ele>
        <time>2012-06-24T07:17:46.937Z</time>
      </trkpt>
      <trkpt lat="49.35222" lon="1.07275">
        <ele>71.397</ele>
        <time>2012-06-24T07:17:51.321Z</time>
      </trkpt>
      <trkpt lat="49.35226" lon="1.07261">
        <ele>68.778</ele>
        <time>2012-06-24T07:17:55.169Z</time>
      </trkpt>
      <trkpt lat="49.35229" lon="1.07241">
        <ele>67.658</ele>
        <time>2012-06-24T07:17:59.455Z</time>
      </trkpt>
      <trkpt lat="49.35234" lon="1.07229">
        <ele>67.735</ele>
        <time>2012-06-24T07:18:02.783Z</time>
      </trkpt>
      <trkpt lat="49.35231" lon="1.07215">
        <ele>68.607</ele>
        <time>2012-06-24T07:18:06.288Z</time>
      </trkpt>
      <trkpt lat="49.35228" lon="1.07202">
        <ele>69.898</ele>
        <time>2012-06-24T07:18:10.146Z</time>
      </trkpt>
      <trkpt lat="49.35229" lon="1.07186">
        <ele>71.106</ele>
        <time>2012-06-24T07:18:14.165Z</time>
      </trkpt>
      <trkpt lat="49.3523" lon="1.07171">
        <ele>71.831</ele>
        <time>2012-06-24T07:18:17.585Z</time>
      </trkpt>
      <trkpt lat="49.35231" lon="1.07157">
        <ele>72.334</ele>
        <time>2012-06-24T07:18:21.081Z</time>
      </trkpt>
      <trkpt lat="49.35238" lon="1.07141">
        <ele>73.06</ele>
        <time>2012-06-24T07:18:25.798Z</time>
      </trkpt>
      <trkpt lat="49.35244" lon="1.07124">
        <ele>73.813</ele>
        <time>2012-06-24T07:18:30.547Z</time>
      </trkpt>
      <trkpt lat="49.35248" lon="1.07107">
        <ele>74.385</ele>
        <time>2012-06-24T07:18:34.279Z</time>
      </trkpt>
      <trkpt lat="49.35257" lon="1.07096">
        <ele>74.986</ele>
        <time>2012-06-24T07:18:37.583Z</time>
      </trkpt>
      <trkpt lat="49.35265" lon="1.07085">
        <ele>75.596</ele>
        <time>2012-06-24T07:18:40.723Z</time>
      </trkpt>
      <trkpt lat="49.35265" lon="1.07085">
        <ele>75.982</ele>
        <time>2012-06-24T07:18:53.722Z</time>
      </trkpt>
      <trkpt lat="49.35265" lon="1.07085">
        <ele>76.098</ele>
        <time>2012-06-24T07:19:26.720Z</time>
      </trkpt>
      <trkpt lat="49.35269" lon="1.07054">
        <ele>76.076</ele>
        <time>2012-06-24T07:19:26.720Z</time>
      </trkpt>
      <trkpt lat="49.35276" lon="1.07045">
        <ele>76.075</ele>
        <time>2012-06-24T07:19:33.387Z</time>
      </trkpt>
      <trkpt lat="49.35285" lon="1.07037">
        <ele>76.173</ele>
        <time>2012-06-24T07:19:39.591Z</time>
      </trkpt>
      <trkpt lat="49.3529" lon="1.07025">
        <ele>76.298</ele>
        <time>2012-06-24T07:19:44.581Z</time>
      </trkpt>
      <trkpt lat="49.35285" lon="1.07013">
        <ele>76.37</ele>
        <time>2012-06-24T07:19:49.727Z</time>
      </trkpt>
      <trkpt lat="49.35272" lon="1.07005">
        <ele>76.39</ele>
        <time>2012-06-24T07:19:54.650Z</time>
      </trkpt>
      <trkpt lat="49.35261" lon="1.06999">
        <ele>76.456</ele>
        <time>2012-06-24T07:19:58.734Z</time>
      </trkpt>
      <trkpt lat="49.35254" lon="1.06985">
        <ele>76.631</ele>
        <time>2012-06-24T07:20:02.909Z</time>
      </trkpt>
      <trkpt lat="49.35255" lon="1.06969">
        <ele>76.828</ele>
        <time>2012-06-24T07:20:07.706Z</time>
      </trkpt>
      <trkpt lat="49.35259" lon="1.06956">
        <ele>77.365</ele>
        <time>2012-06-24T07:20:12.078Z</time>
      </trkpt>
      <trkpt lat="49.35262" lon="1.06943">
        <ele>78.536</ele>
        <time>2012-06-24T07:20:16.378Z</time>
      </trkpt>
      <trkpt lat="49.35266" lon="1.06928">
        <ele>80.296</ele>
        <time>2012-06-24T07:20:21.548Z</time>
      </trkpt>
      <trkpt lat="49.35274" lon="1.06919">
        <ele>82.378</ele>
        <time>2012-06-24T07:20:26.556Z</time>
      </trkpt>
      <trkpt lat="49.35286" lon="1.06911">
        <ele>84.067</ele>
        <time>2012-06-24T07:20:31.306Z</time>
      </trkpt>
      <trkpt lat="49.35296" lon="1.06903">
        <ele>84.787</ele>
        <time>2012-06-24T07:20:35.143Z</time>
      </trkpt>
      <trkpt lat="49.35305" lon="1.06898">
        <ele>84.847</ele>
        <time>2012-06-24T07:20:38.544Z</time>
      </trkpt>
      <trkpt lat="49.35313" lon="1.06892">
        <ele>84.687</ele>
        <time>2012-06-24T07:20:42.097Z</time>
      </trkpt>
      <trkpt lat="49.35321" lon="1.06879">
        <ele>84.446</ele>
        <time>2012-06-24T07:20:46.664Z</time>
      </trkpt>
      <trkpt lat="49.35328" lon="1.06866">
        <ele>83.831</ele>
        <time>2012-06-24T07:20:51.294Z</time>
      </trkpt>
      <trkpt lat="49.35333" lon="1.06853">
        <ele>82.802</ele>
        <time>2012-06-24T07:20:55.752Z</time>
      </trkpt>
      <trkpt lat="49.3534" lon="1.06843">
        <ele>81.823</ele>
        <time>2012-06-24T07:20:59.791Z</time>
      </trkpt>
      <trkpt lat="49.35348" lon="1.06836">
        <ele>81.209</ele>
        <time>2012-06-24T07:21:05.065Z</time>
      </trkpt>
      <trkpt lat="49.3535" lon="1.06821">
        <ele>80.878</ele>
        <time>2012-06-24T07:21:11.401Z</time>
      </trkpt>
      <trkpt lat="49.35356" lon="1.06808">
        <ele>80.7</ele>
        <time>2012-06-24T07:21:20.629Z</time>
      </trkpt>
      <trkpt lat="49.3536" lon="1.06792">
        <ele>80.605</ele>
        <time>2012-06-24T07:21:27.676Z</time>
      </trkpt>
      <trkpt lat="49.35361" lon="1.06776">
        <ele>80.509</ele>
        <time>2012-06-24T07:21:31.910Z</time>
      </trkpt>
      <trkpt lat="49.35364" lon="1.06762">
        <ele>79.986</ele>
        <time>2012-06-24T07:21:35.166Z</time>
      </trkpt>
      <trkpt lat="49.35359" lon="1.0675">
        <ele>78.917</ele>
        <time>2012-06-24T07:21:38.424Z</time>
      </trkpt>
      <trkpt lat="49.35355" lon="1.06734">
        <ele>77.923</ele>
        <time>2012-06-24T07:21:42.003Z</time>
      </trkpt>
      <trkpt lat="49.35357" lon="1.06717">
        <ele>77.428</ele>
        <time>2012-06-24T07:21:45.760Z</time>
      </trkpt>
      <trkpt lat="49.35361" lon="1.06698">
        <ele>77.151</ele>
        <time>2012-06-24T07:21:49.856Z</time>
      </trkpt>
      <trkpt lat="49.35363" lon="1.0668">
        <ele>76.862</ele>
        <time>2012-06-24T07:21:53.692Z</time>
      </trkpt>
      <trkpt lat="49.35363" lon="1.06666">
        <ele>76.623</ele>
        <time>2012-06-24T07:21:56.806Z</time>
      </trkpt>
      <trkpt lat="49.35366" lon="1.06652">
        <ele>76.507</ele>
        <time>2012-06-24T07:22:00.866Z</time>
      </trkpt>
      <trkpt lat="49.35377" lon="1.06643">
        <ele>76.478</ele>
        <time>2012-06-24T07:22:06.389Z</time>
      </trkpt>
      <trkpt lat="49.35384" lon="1.06632">
        <ele>76.663</ele>
        <time>2012-06-24T07:22:11.456Z</time>
      </trkpt>
      <trkpt lat="49.35391" lon="1.06619">
        <ele>77.252</ele>
        <time>2012-06-24T07:22:16.272Z</time>
      </trkpt>
      <trkpt lat="49.35398" lon="1.06611">
        <ele>78.139</ele>
        <time>2012-06-24T07:22:20.450Z</time>
      </trkpt>
      <trkpt lat="49.35407" lon="1.06604">
        <ele>79.068</ele>
        <time>2012-06-24T07:22:25.502Z</time>
      </trkpt>
      <trkpt lat="49.35415" lon="1.06595">
        <ele>79.868</ele>
        <time>2012-06-24T07:22:31.190Z</time>
      </trkpt>
      <trkpt lat="49.35425" lon="1.06595">
        <ele>80.472</ele>
        <time>2012-06-24T07:22:37.615Z</time>
      </trkpt>
      <trkpt lat="49.35435" lon="1.06598">
        <ele>81.119</ele>
        <time>2012-06-24T07:22:43.677Z</time>
      </trkpt>
      <trkpt lat="49.35445" lon="1.06598">
        <ele>82.127</ele>
        <time>2012-06-24T07:22:49.027Z</time>
      </trkpt>
      <trkpt lat="49.35454" lon="1.06607">
        <ele>83.435</ele>
        <time>2012-06-24T07:22:55.146Z</time>
      </trkpt>
      <trkpt lat="49.35463" lon="1.06615">
        <ele>84.672</ele>
        <time>2012-06-24T07:22:59.615Z</time>
      </trkpt>
      <trkpt lat="49.35472" lon="1.06624">
        <ele>85.919</ele>
        <time>2012-06-24T07:23:03.739Z</time>
      </trkpt>
      <trkpt lat="49.35482" lon="1.06624">
        <ele>87.344</ele>
        <time>2012-06-24T07:23:07.733Z</time>
      </trkpt>
      <trkpt lat="49.35493" lon="1.06622">
        <ele>88.317</ele>
        <time>2012-06-24T07:23:12.248Z</time>
      </trkpt>
      <trkpt lat="49.35504" lon="1.06616">
        <ele>88.668</ele>
        <time>2012-06-24T07:23:17.113Z</time>
      </trkpt>
      <trkpt lat="49.35513" lon="1.06611">
        <ele>89.291</ele>
        <time>2012-06-24T07:23:20.910Z</time>
      </trkpt>
      <trkpt lat="49.35523" lon="1.06605">
        <ele>90.34</ele>
        <time>2012-06-24T07:23:24.813Z</time>
      </trkpt>
      <trkpt lat="49.35528" lon="1.0659">
        <ele>91.117</ele>
        <time>2012-06-24T07:23:29.083Z</time>
      </trkpt>
      <trkpt lat="49.35528" lon="1.06575">
        <ele>91.402</ele>
        <time>2012-06-24T07:23:33.211Z</time>
      </trkpt>
      <trkpt lat="49.35525" lon="1.06561">
        <ele>91.682</ele>
        <time>2012-06-24T07:23:38.106Z</time>
      </trkpt>
      <trkpt lat="49.35526" lon="1.06547">
        <ele>92.454</ele>
        <time>2012-06-24T07:23:43.071Z</time>
      </trkpt>
      <trkpt lat="49.35527" lon="1.06532">
        <ele>93.622</ele>
        <time>2012-06-24T07:23:47.792Z</time>
      </trkpt>
      <trkpt lat="49.35529" lon="1.06518">
        <ele>94.657</ele>
        <time>2012-06-24T07:23:51.729Z</time>
      </trkpt>
      <trkpt lat="49.35529" lon="1.06504">
        <ele>95.33</ele>
        <time>2012-06-24T07:23:55.555Z</time>
      </trkpt>
      <trkpt lat="49.35532" lon="1.06488">
        <ele>95.96</ele>
        <time>2012-06-24T07:24:00.048Z</time>
      </trkpt>
      <trkpt lat="49.35529" lon="1.06473">
        <ele>96.735</ele>
        <time>2012-06-24T07:24:04.286Z</time>
      </trkpt>
      <trkpt lat="49.35533" lon="1.06459">
        <ele>97.326</ele>
        <time>2012-06-24T07:24:08.269Z</time>
      </trkpt>
      <trkpt lat="49.35538" lon="1.06447">
        <ele>97.471</ele>
        <time>2012-06-24T07:24:11.869Z</time>
      </trkpt>
      <trkpt lat="49.35537" lon="1.06431">
        <ele>97.353</ele>
        <time>2012-06-24T07:24:15.828Z</time>
      </trkpt>
      <trkpt lat="49.3554" lon="1.06416">
        <ele>97.281</ele>
        <time>2012-06-24T07:24:19.740Z</time>
      </trkpt>
      <trkpt lat="49.35543" lon="1.064">
        <ele>97.325</ele>
        <time>2012-06-24T07:24:24.159Z</time>
      </trkpt>
      <trkpt lat="49.35543" lon="1.06384">
        <ele>97.366</ele>
        <time>2012-06-24T07:24:28.451Z</time>
      </trkpt>
      <trkpt lat="49.35549" lon="1.06373">
        <ele>97.369</ele>
        <time>2012-06-24T07:24:32.176Z</time>
      </trkpt>
      <trkpt lat="49.35555" lon="1.0636">
        <ele>97.588</ele>
        <time>2012-06-24T07:24:36.314Z</time>
      </trkpt>
      <trkpt lat="49.35562" lon="1.06348">
        <ele>98.175</ele>
        <time>2012-06-24T07:24:40.294Z</time>
      </trkpt>
      <trkpt lat="49.35565" lon="1.06335">
        <ele>98.551</ele>
        <time>2012-06-24T07:24:43.678Z</time>
      </trkpt>
      <trkpt lat="49.35557" lon="1.06323">
        <ele>98.227</ele>
        <time>2012-06-24T07:24:48.472Z</time>
      </trkpt>
      <trkpt lat="49.35561" lon="1.0631">
        <ele>97.624</ele>
        <time>2012-06-24T07:24:53.805Z</time>
      </trkpt>
      <trkpt lat="49.35561" lon="1.06293">
        <ele>97.241</ele>
        <time>2012-06-24T07:24:59.445Z</time>
      </trkpt>
      <trkpt lat="49.35565" lon="1.06279">
        <ele>96.712</ele>
        <time>2012-06-24T07:25:03.856Z</time>
      </trkpt>
      <trkpt lat="49.35569" lon="1.06265">
        <ele>95.687</ele>
        <time>2012-06-24T07:25:07.580Z</time>
      </trkpt>
      <trkpt lat="49.35567" lon="1.06249">
        <ele>94.676</ele>
        <time>2012-06-24T07:25:11.643Z</time>
      </trkpt>
      <trkpt lat="49.3557" lon="1.06235">
        <ele>94.208</ele>
        <time>2012-06-24T07:25:15.585Z</time>
      </trkpt>
      <trkpt lat="49.35578" lon="1.06225">
        <ele>94.216</ele>
        <time>2012-06-24T07:25:20.006Z</time>
      </trkpt>
      <trkpt lat="49.35583" lon="1.06213">
        <ele>94.616</ele>
        <time>2012-06-24T07:25:23.604Z</time>
      </trkpt>
      <trkpt lat="49.35591" lon="1.06201">
        <ele>95.218</ele>
        <time>2012-06-24T07:25:27.991Z</time>
      </trkpt>
      <trkpt lat="49.35597" lon="1.06185">
        <ele>95.719</ele>
        <time>2012-06-24T07:25:32.212Z</time>
      </trkpt>
      <trkpt lat="49.35602" lon="1.06174">
        <ele>96.056</ele>
        <time>2012-06-24T07:25:35.363Z</time>
      </trkpt>
      <trkpt lat="49.35609" lon="1.06162">
        <ele>96.325</ele>
        <time>2012-06-24T07:25:38.900Z</time>
      </trkpt>
      <trkpt lat="49.35615" lon="1.06147">
        <ele>96.502</ele>
        <time>2012-06-24T07:25:42.550Z</time>
      </trkpt>
      <trkpt lat="49.35621" lon="1.06133">
        <ele>96.731</ele>
        <time>2012-06-24T07:25:46.420Z</time>
      </trkpt>
      <trkpt lat="49.35629" lon="1.06123">
        <ele>97.517</ele>
        <time>2012-06-24T07:25:50.131Z</time>
      </trkpt>
      <trkpt lat="49.35639" lon="1.06111">
        <ele>98.868</ele>
        <time>2012-06-24T07:25:54.430Z</time>
      </trkpt>
      <trkpt lat="49.35648" lon="1.06104">
        <ele>100.092</ele>
        <time>2012-06-24T07:25:57.805Z</time>
      </trkpt>
      <trkpt lat="49.35658" lon="1.06099">
        <ele>100.947</ele>
        <time>2012-06-24T07:26:01.219Z</time>
      </trkpt>
      <trkpt lat="49.35667" lon="1.06091">
        <ele>101.649</ele>
        <time>2012-06-24T07:26:04.543Z</time>
      </trkpt>
      <trkpt lat="49.35676" lon="1.06087">
        <ele>102.142</ele>
        <time>2012-06-24T07:26:07.360Z</time>
      </trkpt>
      <trkpt lat="49.35685" lon="1.06082">
        <ele>102.39</ele>
        <time>2012-06-24T07:26:10.353Z</time>
      </trkpt>
      <trkpt lat="49.35693" lon="1.06076">
        <ele>102.499</ele>
        <time>2012-06-24T07:26:13.620Z</time>
      </trkpt>
      <trkpt lat="49.35702" lon="1.06062">
        <ele>102.567</ele>
        <time>2012-06-24T07:26:18.442Z</time>
      </trkpt>
      <trkpt lat="49.3571" lon="1.06051">
        <ele>103.017</ele>
        <time>2012-06-24T07:26:22.431Z</time>
      </trkpt>
      <trkpt lat="49.35716" lon="1.06039">
        <ele>104.041</ele>
        <time>2012-06-24T07:26:25.945Z</time>
      </trkpt>
      <trkpt lat="49.35724" lon="1.06024">
        <ele>105.043</ele>
        <time>2012-06-24T07:26:29.606Z</time>
      </trkpt>
      <trkpt lat="49.3573" lon="1.06013">
        <ele>105.504</ele>
        <time>2012-06-24T07:26:32.192Z</time>
      </trkpt>
      <trkpt lat="49.35736" lon="1.06002">
        <ele>105.327</ele>
        <time>2012-06-24T07:26:34.730Z</time>
      </trkpt>
      <trkpt lat="49.35736" lon="1.06002">
        <ele>104.619</ele>
        <time>2012-06-24T07:26:43.730Z</time>
      </trkpt>
      <trkpt lat="49.35736" lon="1.06002">
        <ele>103.898</ele>
        <time>2012-06-24T07:26:53.726Z</time>
      </trkpt>
      <trkpt lat="49.35743" lon="1.05983">
        <ele>103.285</ele>
        <time>2012-06-24T07:26:53.726Z</time>
      </trkpt>
      <trkpt lat="49.35749" lon="1.0597">
        <ele>102.302</ele>
        <time>2012-06-24T07:27:01.091Z</time>
      </trkpt>
      <trkpt lat="49.35757" lon="1.05959">
        <ele>100.927</ele>
        <time>2012-06-24T07:27:05.431Z</time>
      </trkpt>
      <trkpt lat="49.35768" lon="1.05953">
        <ele>99.715</ele>
        <time>2012-06-24T07:27:09.047Z</time>
      </trkpt>
      <trkpt lat="49.35779" lon="1.05944">
        <ele>99.119</ele>
        <time>2012-06-24T07:27:12.486Z</time>
      </trkpt>
      <trkpt lat="49.35784" lon="1.05932">
        <ele>99.107</ele>
        <time>2012-06-24T07:27:15.178Z</time>
      </trkpt>
      <trkpt lat="49.35787" lon="1.05914">
        <ele>99.317</ele>
        <time>2012-06-24T07:27:18.779Z</time>
      </trkpt>
      <trkpt lat="49.35792" lon="1.05896">
        <ele>99.512</ele>
        <time>2012-06-24T07:27:22.017Z</time>
      </trkpt>
      <trkpt lat="49.35797" lon="1.05875">
        <ele>99.672</ele>
        <time>2012-06-24T07:27:25.307Z</time>
      </trkpt>
      <trkpt lat="49.35803" lon="1.05862">
        <ele>99.863</ele>
        <time>2012-06-24T07:27:27.528Z</time>
      </trkpt>
      <trkpt lat="49.3581" lon="1.05852">
        <ele>100.108</ele>
        <time>2012-06-24T07:27:29.640Z</time>
      </trkpt>
      <trkpt lat="49.35817" lon="1.05839">
        <ele>100.357</ele>
        <time>2012-06-24T07:27:32.384Z</time>
      </trkpt>
      <trkpt lat="49.3582" lon="1.05821">
        <ele>100.756</ele>
        <time>2012-06-24T07:27:35.475Z</time>
      </trkpt>
      <trkpt lat="49.35826" lon="1.05807">
        <ele>101.199</ele>
        <time>2012-06-24T07:27:38.492Z</time>
      </trkpt>
      <trkpt lat="49.35829" lon="1.05793">
        <ele>101.208</ele>
        <time>2012-06-24T07:27:41.198Z</time>
      </trkpt>
      <trkpt lat="49.35833" lon="1.05775">
        <ele>100.857</ele>
        <time>2012-06-24T07:27:44.925Z</time>
      </trkpt>
      <trkpt lat="49.35836" lon="1.05761">
        <ele>100.585</ele>
        <time>2012-06-24T07:27:48.073Z</time>
      </trkpt>
      <trkpt lat="49.35844" lon="1.05751">
        <ele>100.444</ele>
        <time>2012-06-24T07:27:51.349Z</time>
      </trkpt>
      <trkpt lat="49.35846" lon="1.05736">
        <ele>100.375</ele>
        <time>2012-06-24T07:27:54.422Z</time>
      </trkpt>
      <trkpt lat="49.35847" lon="1.05718">
        <ele>100.363</ele>
        <time>2012-06-24T07:27:58.244Z</time>
      </trkpt>
      <trkpt lat="49.35848" lon="1.05698">
        <ele>100.505</ele>
        <time>2012-06-24T07:28:02.854Z</time>
      </trkpt>
      <trkpt lat="49.35848" lon="1.05681">
        <ele>100.981</ele>
        <time>2012-06-24T07:28:06.651Z</time>
      </trkpt>
      <trkpt lat="49.35852" lon="1.05665">
        <ele>101.656</ele>
        <time>2012-06-24T07:28:09.699Z</time>
      </trkpt>
      <trkpt lat="49.35854" lon="1.05649">
        <ele>102.15</ele>
        <time>2012-06-24T07:28:12.364Z</time>
      </trkpt>
      <trkpt lat="49.35861" lon="1.05633">
        <ele>102.33</ele>
        <time>2012-06-24T07:28:15.230Z</time>
      </trkpt>
      <trkpt lat="49.35869" lon="1.05614">
        <ele>101.743</ele>
        <time>2012-06-24T07:28:18.615Z</time>
      </trkpt>
      <trkpt lat="49.35873" lon="1.05599">
        <ele>100.173</ele>
        <time>2012-06-24T07:28:21.275Z</time>
      </trkpt>
      <trkpt lat="49.35879" lon="1.05583">
        <ele>98.579</ele>
        <time>2012-06-24T07:28:24.174Z</time>
      </trkpt>
      <trkpt lat="49.35885" lon="1.05569">
        <ele>97.827</ele>
        <time>2012-06-24T07:28:26.769Z</time>
      </trkpt>
      <trkpt lat="49.35886" lon="1.05552">
        <ele>97.891</ele>
        <time>2012-06-24T07:28:29.512Z</time>
      </trkpt>
      <trkpt lat="49.35887" lon="1.05536">
        <ele>98.772</ele>
        <time>2012-06-24T07:28:32.140Z</time>
      </trkpt>
      <trkpt lat="49.35892" lon="1.05521">
        <ele>100.246</ele>
        <time>2012-06-24T07:28:34.953Z</time>
      </trkpt>
      <trkpt lat="49.35896" lon="1.05506">
        <ele>101.713</ele>
        <time>2012-06-24T07:28:37.628Z</time>
      </trkpt>
      <trkpt lat="49.35902" lon="1.05491">
        <ele>102.619</ele>
        <time>2012-06-24T07:28:40.658Z</time>
      </trkpt>
      <trkpt lat="49.35903" lon="1.05476">
        <ele>102.82</ele>
        <time>2012-06-24T07:28:43.267Z</time>
      </trkpt>
      <trkpt lat="49.3591" lon="1.0546">
        <ele>102.618</ele>
        <time>2012-06-24T07:28:46.440Z</time>
      </trkpt>
      <trkpt lat="49.35921" lon="1.05454">
        <ele>102.39</ele>
        <time>2012-06-24T07:28:49.292Z</time>
      </trkpt>
      <trkpt lat="49.35925" lon="1.05441">
        <ele>102.259</ele>
        <time>2012-06-24T07:28:51.648Z</time>
      </trkpt>
      <trkpt lat="49.3593" lon="1.05426">
        <ele>102.209</ele>
        <time>2012-06-24T07:28:54.650Z</time>
      </trkpt>
      <trkpt lat="49.35941" lon="1.0542">
        <ele>102.062</ele>
        <time>2012-06-24T07:28:57.943Z</time>
      </trkpt>
      <trkpt lat="49.35951" lon="1.05436">
        <ele>101.726</ele>
        <time>2012-06-24T07:29:02.433Z</time>
      </trkpt>
      <trkpt lat="49.35962" lon="1.05454">
        <ele>101.253</ele>
        <time>2012-06-24T07:29:08.176Z</time>
      </trkpt>
      <trkpt lat="49.35973" lon="1.0546">
        <ele>100.66</ele>
        <time>2012-06-24T07:29:11.724Z</time>
      </trkpt>
      <trkpt lat="49.35982" lon="1.05461">
        <ele>100.085</ele>
        <time>2012-06-24T07:29:14.138Z</time>
      </trkpt>
      <trkpt lat="49.35999" lon="1.05465">
        <ele>99.749</ele>
        <time>2012-06-24T07:29:18.005Z</time>
      </trkpt>
      <trkpt lat="49.36012" lon="1.05464">
        <ele>99.606</ele>
        <time>2012-06-24T07:29:20.781Z</time>
      </trkpt>
      <trkpt lat="49.36023" lon="1.05447">
        <ele>99.486</ele>
        <time>2012-06-24T07:29:23.883Z</time>
      </trkpt>
      <trkpt lat="49.36031" lon="1.05426">
        <ele>99.248</ele>
        <time>2012-06-24T07:29:26.991Z</time>
      </trkpt>
      <trkpt lat="49.36036" lon="1.05411">
        <ele>98.621</ele>
        <time>2012-06-24T07:29:28.977Z</time>
      </trkpt>
      <trkpt lat="49.3604" lon="1.05396">
        <ele>97.297</ele>
        <time>2012-06-24T07:29:30.912Z</time>
      </trkpt>
      <trkpt lat="49.36047" lon="1.05373">
        <ele>95.434</ele>
        <time>2012-06-24T07:29:33.688Z</time>
      </trkpt>
      <trkpt lat="49.36052" lon="1.05358">
        <ele>93.744</ele>
        <time>2012-06-24T07:29:35.506Z</time>
      </trkpt>
      <trkpt lat="49.36058" lon="1.05338">
        <ele>92.821</ele>
        <time>2012-06-24T07:29:37.814Z</time>
      </trkpt>
      <trkpt lat="49.36063" lon="1.05322">
        <ele>92.609</ele>
        <time>2012-06-24T07:29:39.666Z</time>
      </trkpt>
      <trkpt lat="49.36065" lon="1.05307">
        <ele>92.713</ele>
        <time>2012-06-24T07:29:41.203Z</time>
      </trkpt>
      <trkpt lat="49.36066" lon="1.0529">
        <ele>92.874</ele>
        <time>2012-06-24T07:29:43.031Z</time>
      </trkpt>
      <trkpt lat="49.3607" lon="1.05275">
        <ele>93.046</ele>
        <time>2012-06-24T07:29:44.937Z</time>
      </trkpt>
      <trkpt lat="49.36066" lon="1.05259">
        <ele>93.237</ele>
        <time>2012-06-24T07:29:47.136Z</time>
      </trkpt>
      <trkpt lat="49.36056" lon="1.0525">
        <ele>93.687</ele>
        <time>2012-06-24T07:29:49.623Z</time>
      </trkpt>
      <trkpt lat="49.36045" lon="1.05235">
        <ele>94.957</ele>
        <time>2012-06-24T07:29:52.924Z</time>
      </trkpt>
      <trkpt lat="49.36046" lon="1.05214">
        <ele>97.61</ele>
        <time>2012-06-24T07:29:56.552Z</time>
      </trkpt>
      <trkpt lat="49.36049" lon="1.05198">
        <ele>101.408</ele>
        <time>2012-06-24T07:29:59.611Z</time>
      </trkpt>
      <trkpt lat="49.36054" lon="1.05178">
        <ele>104.965</ele>
        <time>2012-06-24T07:30:03.304Z</time>
      </trkpt>
      <trkpt lat="49.3606" lon="1.05148">
        <ele>107.058</ele>
        <time>2012-06-24T07:30:08.328Z</time>
      </trkpt>
      <trkpt lat="49.36066" lon="1.05125">
        <ele>107.835</ele>
        <time>2012-06-24T07:30:11.356Z</time>
      </trkpt>
      <trkpt lat="49.36072" lon="1.05096">
        <ele>108.004</ele>
        <time>2012-06-24T07:30:14.565Z</time>
      </trkpt>
      <trkpt lat="49.36079" lon="1.05066">
        <ele>107.973</ele>
        <time>2012-06-24T07:30:17.589Z</time>
      </trkpt>
      <trkpt lat="49.36084" lon="1.05047">
        <ele>108.089</ele>
        <time>2012-06-24T07:30:19.537Z</time>
      </trkpt>
      <trkpt lat="49.36084" lon="1.05047">
        <ele>108.53</ele>
        <time>2012-06-24T07:30:20.731Z</time>
      </trkpt>
      <trkpt lat="49.36092" lon="1.05021">
        <ele>109.221</ele>
        <time>2012-06-24T07:30:22.959Z</time>
      </trkpt>
      <trkpt lat="49.36099" lon="1.04999">
        <ele>109.891</ele>
        <time>2012-06-24T07:30:26.122Z</time>
      </trkpt>
      <trkpt lat="49.36106" lon="1.04974">
        <ele>110.207</ele>
        <time>2012-06-24T07:30:29.764Z</time>
      </trkpt>
      <trkpt lat="49.36106" lon="1.04974">
        <ele>110.17</ele>
        <time>2012-06-24T07:30:29.764Z</time>
      </trkpt>
      <trkpt lat="49.36113" lon="1.04948">
        <ele>110.333</ele>
        <time>2012-06-24T07:30:34.461Z</time>
      </trkpt>
      <trkpt lat="49.36118" lon="1.04928">
        <ele>111.047</ele>
        <time>2012-06-24T07:30:37.259Z</time>
      </trkpt>
      <trkpt lat="49.36125" lon="1.049">
        <ele>111.987</ele>
        <time>2012-06-24T07:30:41.069Z</time>
      </trkpt>
      <trkpt lat="49.36132" lon="1.0488">
        <ele>112.603</ele>
        <time>2012-06-24T07:30:43.846Z</time>
      </trkpt>
      <trkpt lat="49.36136" lon="1.04862">
        <ele>112.796</ele>
        <time>2012-06-24T07:30:46.265Z</time>
      </trkpt>
      <trkpt lat="49.36143" lon="1.04838">
        <ele>112.753</ele>
        <time>2012-06-24T07:30:49.545Z</time>
      </trkpt>
      <trkpt lat="49.36146" lon="1.04822">
        <ele>112.644</ele>
        <time>2012-06-24T07:30:51.815Z</time>
      </trkpt>
      <trkpt lat="49.36151" lon="1.04798">
        <ele>112.564</ele>
        <time>2012-06-24T07:30:55.135Z</time>
      </trkpt>
      <trkpt lat="49.36156" lon="1.04782">
        <ele>112.534</ele>
        <time>2012-06-24T07:30:57.517Z</time>
      </trkpt>
      <trkpt lat="49.3616" lon="1.04766">
        <ele>112.535</ele>
        <time>2012-06-24T07:30:59.877Z</time>
      </trkpt>
      <trkpt lat="49.36169" lon="1.04739">
        <ele>112.571</ele>
        <time>2012-06-24T07:31:03.889Z</time>
      </trkpt>
      <trkpt lat="49.36175" lon="1.04715">
        <ele>112.648</ele>
        <time>2012-06-24T07:31:07.431Z</time>
      </trkpt>
      <trkpt lat="49.3618" lon="1.04698">
        <ele>112.724</ele>
        <time>2012-06-24T07:31:09.724Z</time>
      </trkpt>
      <trkpt lat="49.36186" lon="1.04676">
        <ele>112.758</ele>
        <time>2012-06-24T07:31:12.554Z</time>
      </trkpt>
      <trkpt lat="49.36194" lon="1.04641">
        <ele>112.383</ele>
        <time>2012-06-24T07:31:16.756Z</time>
      </trkpt>
      <trkpt lat="49.36203" lon="1.04611">
        <ele>111.357</ele>
        <time>2012-06-24T07:31:20.810Z</time>
      </trkpt>
      <trkpt lat="49.36208" lon="1.04597">
        <ele>110.159</ele>
        <time>2012-06-24T07:31:23.160Z</time>
      </trkpt>
      <trkpt lat="49.36221" lon="1.04584">
        <ele>108.652</ele>
        <time>2012-06-24T07:31:25.827Z</time>
      </trkpt>
      <trkpt lat="49.3623" lon="1.04579">
        <ele>105.876</ele>
        <time>2012-06-24T07:31:27.535Z</time>
      </trkpt>
      <trkpt lat="49.3624" lon="1.04571">
        <ele>102.392</ele>
        <time>2012-06-24T07:31:29.658Z</time>
      </trkpt>
      <trkpt lat="49.3624" lon="1.04571">
        <ele>99.945</ele>
        <time>2012-06-24T07:31:19.735Z</time>
      </trkpt>
      <trkpt lat="49.36255" lon="1.04561">
        <ele>99.091</ele>
        <time>2012-06-24T07:31:32.580Z</time>
      </trkpt>
      <trkpt lat="49.36264" lon="1.04551">
        <ele>99.147</ele>
        <time>2012-06-24T07:31:34.450Z</time>
      </trkpt>
      <trkpt lat="49.36273" lon="1.04534">
        <ele>99.794</ele>
        <time>2012-06-24T07:31:37.177Z</time>
      </trkpt>
      <trkpt lat="49.3628" lon="1.04522">
        <ele>100.938</ele>
        <time>2012-06-24T07:31:39.778Z</time>
      </trkpt>
      <trkpt lat="49.36292" lon="1.045">
        <ele>102.017</ele>
        <time>2012-06-24T07:31:43.396Z</time>
      </trkpt>
      <trkpt lat="49.36303" lon="1.04485">
        <ele>102.762</ele>
        <time>2012-06-24T07:31:46.745Z</time>
      </trkpt>
      <trkpt lat="49.36309" lon="1.04471">
        <ele>103.393</ele>
        <time>2012-06-24T07:31:49.334Z</time>
      </trkpt>
      <trkpt lat="49.36309" lon="1.04471">
        <ele>103.752</ele>
        <time>2012-06-24T07:31:49.334Z</time>
      </trkpt>
      <trkpt lat="49.36314" lon="1.04459">
        <ele>103.685</ele>
        <time>2012-06-24T07:31:51.778Z</time>
      </trkpt>
      <trkpt lat="49.36319" lon="1.04441">
        <ele>103.438</ele>
        <time>2012-06-24T07:31:55.293Z</time>
      </trkpt>
      <trkpt lat="49.36323" lon="1.04426">
        <ele>103.263</ele>
        <time>2012-06-24T07:31:58.162Z</time>
      </trkpt>
      <trkpt lat="49.3633" lon="1.04415">
        <ele>103.21</ele>
        <time>2012-06-24T07:32:01.005Z</time>
      </trkpt>
      <trkpt lat="49.36334" lon="1.04401">
        <ele>103.229</ele>
        <time>2012-06-24T07:32:03.750Z</time>
      </trkpt>
      <trkpt lat="49.36339" lon="1.04383">
        <ele>103.348</ele>
        <time>2012-06-24T07:32:07.157Z</time>
      </trkpt>
      <trkpt lat="49.36345" lon="1.04365">
        <ele>103.732</ele>
        <time>2012-06-24T07:32:10.776Z</time>
      </trkpt>
      <trkpt lat="49.36353" lon="1.04344">
        <ele>104.326</ele>
        <time>2012-06-24T07:32:14.893Z</time>
      </trkpt>
      <trkpt lat="49.36356" lon="1.04327">
        <ele>104.923</ele>
        <time>2012-06-24T07:32:17.862Z</time>
      </trkpt>
      <trkpt lat="49.36352" lon="1.04309">
        <ele>105.437</ele>
        <time>2012-06-24T07:32:21.234Z</time>
      </trkpt>
      <trkpt lat="49.36345" lon="1.04291">
        <ele>105.653</ele>
        <time>2012-06-24T07:32:24.558Z</time>
      </trkpt>
      <trkpt lat="49.3634" lon="1.04275">
        <ele>105.419</ele>
        <time>2012-06-24T07:32:27.607Z</time>
      </trkpt>
      <trkpt lat="49.36334" lon="1.04255">
        <ele>105.021</ele>
        <time>2012-06-24T07:32:31.341Z</time>
      </trkpt>
      <trkpt lat="49.36328" lon="1.04235">
        <ele>104.719</ele>
        <time>2012-06-24T07:32:35.914Z</time>
      </trkpt>
      <trkpt lat="49.36322" lon="1.04218">
        <ele>104.521</ele>
        <time>2012-06-24T07:32:39.986Z</time>
      </trkpt>
      <trkpt lat="49.36317" lon="1.04206">
        <ele>104.415</ele>
        <time>2012-06-24T07:32:42.842Z</time>
      </trkpt>
      <trkpt lat="49.36312" lon="1.04186">
        <ele>104.392</ele>
        <time>2012-06-24T07:32:46.262Z</time>
      </trkpt>
      <trkpt lat="49.36308" lon="1.04173">
        <ele>104.555</ele>
        <time>2012-06-24T07:32:48.233Z</time>
      </trkpt>
      <trkpt lat="49.36304" lon="1.04157">
        <ele>104.962</ele>
        <time>2012-06-24T07:32:50.909Z</time>
      </trkpt>
      <trkpt lat="49.36301" lon="1.04142">
        <ele>105.373</ele>
        <time>2012-06-24T07:32:53.074Z</time>
      </trkpt>
      <trkpt lat="49.36296" lon="1.04123">
        <ele>105.565</ele>
        <time>2012-06-24T07:32:55.891Z</time>
      </trkpt>
      <trkpt lat="49.36288" lon="1.04103">
        <ele>105.121</ele>
        <time>2012-06-24T07:32:59.552Z</time>
      </trkpt>
      <trkpt lat="49.36281" lon="1.04083">
        <ele>102.676</ele>
        <time>2012-06-24T07:33:03.882Z</time>
      </trkpt>
      <trkpt lat="49.36277" lon="1.04069">
        <ele>98.196</ele>
        <time>2012-06-24T07:33:07.014Z</time>
      </trkpt>
      <trkpt lat="49.36277" lon="1.04069">
        <ele>94.139</ele>
        <time>2012-06-24T07:32:48.749Z</time>
      </trkpt>
      <trkpt lat="49.36272" lon="1.04054">
        <ele>91.8</ele>
        <time>2012-06-24T07:33:11.096Z</time>
      </trkpt>
      <trkpt lat="49.36267" lon="1.04039">
        <ele>90.292</ele>
        <time>2012-06-24T07:33:14.790Z</time>
      </trkpt>
      <trkpt lat="49.36263" lon="1.04027">
        <ele>89.255</ele>
        <time>2012-06-24T07:33:17.732Z</time>
      </trkpt>
      <trkpt lat="49.36258" lon="1.04014">
        <ele>88.843</ele>
        <time>2012-06-24T07:33:20.952Z</time>
      </trkpt>
      <trkpt lat="49.36253" lon="1.04">
        <ele>89.22</ele>
        <time>2012-06-24T07:33:24.262Z</time>
      </trkpt>
      <trkpt lat="49.36253" lon="1.04">
        <ele>90.347</ele>
        <time>2012-06-24T07:33:24.262Z</time>
      </trkpt>
      <trkpt lat="49.36248" lon="1.03985">
        <ele>91.478</ele>
        <time>2012-06-24T07:33:27.659Z</time>
      </trkpt>
      <trkpt lat="49.36243" lon="1.03971">
        <ele>92.042</ele>
        <time>2012-06-24T07:33:30.781Z</time>
      </trkpt>
      <trkpt lat="49.36238" lon="1.03956">
        <ele>92.314</ele>
        <time>2012-06-24T07:33:33.938Z</time>
      </trkpt>
      <trkpt lat="49.36233" lon="1.0394">
        <ele>92.611</ele>
        <time>2012-06-24T07:33:37.302Z</time>
      </trkpt>
      <trkpt lat="49.36227" lon="1.03925">
        <ele>92.95</ele>
        <time>2012-06-24T07:33:40.789Z</time>
      </trkpt>
      <trkpt lat="49.36227" lon="1.03925">
        <ele>93.231</ele>
        <time>2012-06-24T07:33:40.789Z</time>
      </trkpt>
      <trkpt lat="49.36221" lon="1.03909">
        <ele>93.551</ele>
        <time>2012-06-24T07:33:44.598Z</time>
      </trkpt>
      <trkpt lat="49.36214" lon="1.03896">
        <ele>94.12</ele>
        <time>2012-06-24T07:33:48.757Z</time>
      </trkpt>
      <trkpt lat="49.36205" lon="1.03887">
        <ele>94.86</ele>
        <time>2012-06-24T07:33:51.977Z</time>
      </trkpt>
      <trkpt lat="49.36195" lon="1.03878">
        <ele>95.433</ele>
        <time>2012-06-24T07:33:55.644Z</time>
      </trkpt>
      <trkpt lat="49.36195" lon="1.03878">
        <ele>95.686</ele>
        <time>2012-06-24T07:33:55.644Z</time>
      </trkpt>
      <trkpt lat="49.36186" lon="1.03869">
        <ele>95.793</ele>
        <time>2012-06-24T07:33:58.906Z</time>
      </trkpt>
      <trkpt lat="49.36177" lon="1.03861">
        <ele>96.026</ele>
        <time>2012-06-24T07:34:02.172Z</time>
      </trkpt>
      <trkpt lat="49.36167" lon="1.03851">
        <ele>96.465</ele>
        <time>2012-06-24T07:34:06.095Z</time>
      </trkpt>
      <trkpt lat="49.36158" lon="1.0384">
        <ele>97.049</ele>
        <time>2012-06-24T07:34:09.991Z</time>
      </trkpt>
      <trkpt lat="49.36152" lon="1.03828">
        <ele>97.817</ele>
        <time>2012-06-24T07:34:13.066Z</time>
      </trkpt>
      <trkpt lat="49.36156" lon="1.03811">
        <ele>98.849</ele>
        <time>2012-06-24T07:34:16.044Z</time>
      </trkpt>
      <trkpt lat="49.36162" lon="1.03793">
        <ele>100.17</ele>
        <time>2012-06-24T07:34:19.134Z</time>
      </trkpt>
      <trkpt lat="49.36166" lon="1.0378">
        <ele>101.537</ele>
        <time>2012-06-24T07:34:21.328Z</time>
      </trkpt>
      <trkpt lat="49.36172" lon="1.03763">
        <ele>102.481</ele>
        <time>2012-06-24T07:34:24.852Z</time>
      </trkpt>
      <trkpt lat="49.36177" lon="1.0375">
        <ele>103.101</ele>
        <time>2012-06-24T07:34:28.166Z</time>
      </trkpt>
      <trkpt lat="49.36179" lon="1.03736">
        <ele>103.932</ele>
        <time>2012-06-24T07:34:31.371Z</time>
      </trkpt>
      <trkpt lat="49.36172" lon="1.03724">
        <ele>104.883</ele>
        <time>2012-06-24T07:34:34.965Z</time>
      </trkpt>
      <trkpt lat="49.36162" lon="1.03716">
        <ele>105.485</ele>
        <time>2012-06-24T07:34:38.863Z</time>
      </trkpt>
      <trkpt lat="49.36152" lon="1.0371">
        <ele>105.74</ele>
        <time>2012-06-24T07:34:42.618Z</time>
      </trkpt>
      <trkpt lat="49.36142" lon="1.03705">
        <ele>105.989</ele>
        <time>2012-06-24T07:34:46.776Z</time>
      </trkpt>
      <trkpt lat="49.36131" lon="1.037">
        <ele>106.38</ele>
        <time>2012-06-24T07:34:50.355Z</time>
      </trkpt>
      <trkpt lat="49.36122" lon="1.03697">
        <ele>106.756</ele>
        <time>2012-06-24T07:34:53.338Z</time>
      </trkpt>
      <trkpt lat="49.36111" lon="1.03693">
        <ele>106.958</ele>
        <time>2012-06-24T07:34:56.609Z</time>
      </trkpt>
      <trkpt lat="49.36101" lon="1.03689">
        <ele>107.2</ele>
        <time>2012-06-24T07:34:59.478Z</time>
      </trkpt>
      <trkpt lat="49.36091" lon="1.03686">
        <ele>108.161</ele>
        <time>2012-06-24T07:35:02.281Z</time>
      </trkpt>
      <trkpt lat="49.36078" lon="1.03685">
        <ele>110.227</ele>
        <time>2012-06-24T07:35:05.712Z</time>
      </trkpt>
      <trkpt lat="49.36067" lon="1.0368">
        <ele>112.637</ele>
        <time>2012-06-24T07:35:08.691Z</time>
      </trkpt>
      <trkpt lat="49.36057" lon="1.03675">
        <ele>114.605</ele>
        <time>2012-06-24T07:35:11.509Z</time>
      </trkpt>
      <trkpt lat="49.36048" lon="1.03672">
        <ele>116.078</ele>
        <time>2012-06-24T07:35:14.480Z</time>
      </trkpt>
      <trkpt lat="49.36037" lon="1.03669">
        <ele>116.975</ele>
        <time>2012-06-24T07:35:17.947Z</time>
      </trkpt>
      <trkpt lat="49.36028" lon="1.03667">
        <ele>117.23</ele>
        <time>2012-06-24T07:35:20.688Z</time>
      </trkpt>
      <trkpt lat="49.36013" lon="1.03662">
        <ele>117.167</ele>
        <time>2012-06-24T07:35:24.401Z</time>
      </trkpt>
      <trkpt lat="49.36004" lon="1.03656">
        <ele>117.269</ele>
        <time>2012-06-24T07:35:26.625Z</time>
      </trkpt>
      <trkpt lat="49.35993" lon="1.03651">
        <ele>117.779</ele>
        <time>2012-06-24T07:35:29.036Z</time>
      </trkpt>
      <trkpt lat="49.3598" lon="1.03646">
        <ele>118.357</ele>
        <time>2012-06-24T07:35:31.999Z</time>
      </trkpt>
      <trkpt lat="49.35964" lon="1.03641">
        <ele>118.827</ele>
        <time>2012-06-24T07:35:35.739Z</time>
      </trkpt>
      <trkpt lat="49.35964" lon="1.03641">
        <ele>119.353</ele>
        <time>2012-06-24T07:35:36.741Z</time>
      </trkpt>
      <trkpt lat="49.35964" lon="1.03641">
        <ele>119.795</ele>
        <time>2012-06-24T07:35:40.727Z</time>
      </trkpt>
      <trkpt lat="49.35942" lon="1.03632">
        <ele>119.978</ele>
        <time>2012-06-24T07:35:40.727Z</time>
      </trkpt>
      <trkpt lat="49.35932" lon="1.03631">
        <ele>119.998</ele>
        <time>2012-06-24T07:35:43.629Z</time>
      </trkpt>
      <trkpt lat="49.35919" lon="1.03627">
        <ele>119.873</ele>
        <time>2012-06-24T07:35:47.384Z</time>
      </trkpt>
      <trkpt lat="49.3591" lon="1.03623">
        <ele>119.518</ele>
        <time>2012-06-24T07:35:49.685Z</time>
      </trkpt>
      <trkpt lat="49.35899" lon="1.03618">
        <ele>118.929</ele>
        <time>2012-06-24T07:35:52.564Z</time>
      </trkpt>
      <trkpt lat="49.35889" lon="1.03619">
        <ele>118.111</ele>
        <time>2012-06-24T07:35:55.050Z</time>
      </trkpt>
      <trkpt lat="49.35877" lon="1.03618">
        <ele>117.208</ele>
        <time>2012-06-24T07:35:57.779Z</time>
      </trkpt>
      <trkpt lat="49.35868" lon="1.03613">
        <ele>116.58</ele>
        <time>2012-06-24T07:36:00.378Z</time>
      </trkpt>
      <trkpt lat="49.35859" lon="1.03608">
        <ele>116.366</ele>
        <time>2012-06-24T07:36:02.822Z</time>
      </trkpt>
      <trkpt lat="49.35846" lon="1.03604">
        <ele>116.433</ele>
        <time>2012-06-24T07:36:06.346Z</time>
      </trkpt>
      <trkpt lat="49.35834" lon="1.03599">
        <ele>116.751</ele>
        <time>2012-06-24T07:36:10.046Z</time>
      </trkpt>
      <trkpt lat="49.35824" lon="1.03592">
        <ele>117.428</ele>
        <time>2012-06-24T07:36:13.286Z</time>
      </trkpt>
      <trkpt lat="49.35812" lon="1.03586">
        <ele>118.884</ele>
        <time>2012-06-24T07:36:16.581Z</time>
      </trkpt>
      <trkpt lat="49.35802" lon="1.03579">
        <ele>121.044</ele>
        <time>2012-06-24T07:36:19.666Z</time>
      </trkpt>
      <trkpt lat="49.35791" lon="1.03574">
        <ele>123.009</ele>
        <time>2012-06-24T07:36:22.792Z</time>
      </trkpt>
      <trkpt lat="49.35779" lon="1.03567">
        <ele>124.17</ele>
        <time>2012-06-24T07:36:26.181Z</time>
      </trkpt>
      <trkpt lat="49.35771" lon="1.03561">
        <ele>124.628</ele>
        <time>2012-06-24T07:36:28.543Z</time>
      </trkpt>
      <trkpt lat="49.35761" lon="1.03552">
        <ele>124.642</ele>
        <time>2012-06-24T07:36:31.509Z</time>
      </trkpt>
      <trkpt lat="49.3575" lon="1.03543">
        <ele>124.498</ele>
        <time>2012-06-24T07:36:34.527Z</time>
      </trkpt>
      <trkpt lat="49.3574" lon="1.03537">
        <ele>124.132</ele>
        <time>2012-06-24T07:36:37.029Z</time>
      </trkpt>
      <trkpt lat="49.3573" lon="1.03527">
        <ele>123.306</ele>
        <time>2012-06-24T07:36:40.181Z</time>
      </trkpt>
      <trkpt lat="49.35719" lon="1.03516">
        <ele>122.018</ele>
        <time>2012-06-24T07:36:43.499Z</time>
      </trkpt>
      <trkpt lat="49.35712" lon="1.03508">
        <ele>120.539</ele>
        <time>2012-06-24T07:36:45.787Z</time>
      </trkpt>
      <trkpt lat="49.35689" lon="1.03485">
        <ele>119.296</ele>
        <time>2012-06-24T07:36:51.584Z</time>
      </trkpt>
      <trkpt lat="49.3568" lon="1.03472">
        <ele>118.636</ele>
        <time>2012-06-24T07:36:53.977Z</time>
      </trkpt>
      <trkpt lat="49.35669" lon="1.03459">
        <ele>118.494</ele>
        <time>2012-06-24T07:36:56.804Z</time>
      </trkpt>
      <trkpt lat="49.35661" lon="1.03453">
        <ele>118.737</ele>
        <time>2012-06-24T07:36:58.848Z</time>
      </trkpt>
      <trkpt lat="49.3565" lon="1.03444">
        <ele>119.567</ele>
        <time>2012-06-24T07:37:01.542Z</time>
      </trkpt>
      <trkpt lat="49.35641" lon="1.03433">
        <ele>120.954</ele>
        <time>2012-06-24T07:37:04.273Z</time>
      </trkpt>
      <trkpt lat="49.35632" lon="1.03427">
        <ele>122.294</ele>
        <time>2012-06-24T07:37:06.436Z</time>
      </trkpt>
      <trkpt lat="49.35621" lon="1.03421">
        <ele>123.075</ele>
        <time>2012-06-24T07:37:09.051Z</time>
      </trkpt>
      <trkpt lat="49.35607" lon="1.03411">
        <ele>123.177</ele>
        <time>2012-06-24T07:37:12.457Z</time>
      </trkpt>
      <trkpt lat="49.35597" lon="1.03402">
        <ele>122.468</ele>
        <time>2012-06-24T07:37:15.148Z</time>
      </trkpt>
      <trkpt lat="49.35588" lon="1.03395">
        <ele>121.531</ele>
        <time>2012-06-24T07:37:17.521Z</time>
      </trkpt>
      <trkpt lat="49.35574" lon="1.03393">
        <ele>121.334</ele>
        <time>2012-06-24T07:37:20.866Z</time>
      </trkpt>
      <trkpt lat="49.35562" lon="1.03397">
        <ele>121.784</ele>
        <time>2012-06-24T07:37:24.257Z</time>
      </trkpt>
      <trkpt lat="49.35552" lon="1.03398">
        <ele>122.178</ele>
        <time>2012-06-24T07:37:27.075Z</time>
      </trkpt>
      <trkpt lat="49.35541" lon="1.03394">
        <ele>122.458</ele>
        <time>2012-06-24T07:37:30.412Z</time>
      </trkpt>
      <trkpt lat="49.35529" lon="1.03394">
        <ele>122.901</ele>
        <time>2012-06-24T07:37:34.000Z</time>
      </trkpt>
      <trkpt lat="49.35518" lon="1.03395">
        <ele>123.521</ele>
        <time>2012-06-24T07:37:37.694Z</time>
      </trkpt>
      <trkpt lat="49.35508" lon="1.03393">
        <ele>124.04</ele>
        <time>2012-06-24T07:37:41.189Z</time>
      </trkpt>
      <trkpt lat="49.35508" lon="1.03393">
        <ele>124.331</ele>
        <time>2012-06-24T07:37:41.189Z</time>
      </trkpt>
      <trkpt lat="49.35498" lon="1.03392">
        <ele>124.401</ele>
        <time>2012-06-24T07:37:44.917Z</time>
      </trkpt>
      <trkpt lat="49.35488" lon="1.03386">
        <ele>124.269</ele>
        <time>2012-06-24T07:37:48.746Z</time>
      </trkpt>
      <trkpt lat="49.35478" lon="1.03384">
        <ele>123.96</ele>
        <time>2012-06-24T07:37:52.659Z</time>
      </trkpt>
      <trkpt lat="49.35467" lon="1.0338">
        <ele>123.53</ele>
        <time>2012-06-24T07:37:57.712Z</time>
      </trkpt>
      <trkpt lat="49.35457" lon="1.03384">
        <ele>123.115</ele>
        <time>2012-06-24T07:38:02.628Z</time>
      </trkpt>
      <trkpt lat="49.35448" lon="1.03388">
        <ele>122.833</ele>
        <time>2012-06-24T07:38:06.466Z</time>
      </trkpt>
      <trkpt lat="49.35436" lon="1.03387">
        <ele>122.703</ele>
        <time>2012-06-24T07:38:10.968Z</time>
      </trkpt>
      <trkpt lat="49.35422" lon="1.03388">
        <ele>122.722</ele>
        <time>2012-06-24T07:38:14.886Z</time>
      </trkpt>
      <trkpt lat="49.35412" lon="1.03391">
        <ele>123.099</ele>
        <time>2012-06-24T07:38:18.062Z</time>
      </trkpt>
      <trkpt lat="49.35412" lon="1.03391">
        <ele>123.891</ele>
        <time>2012-06-24T07:38:15.744Z</time>
      </trkpt>
      <trkpt lat="49.35402" lon="1.03392">
        <ele>124.638</ele>
        <time>2012-06-24T07:38:21.419Z</time>
      </trkpt>
      <trkpt lat="49.35392" lon="1.03391">
        <ele>125.16</ele>
        <time>2012-06-24T07:38:24.083Z</time>
      </trkpt>
      <trkpt lat="49.35381" lon="1.03388">
        <ele>125.686</ele>
        <time>2012-06-24T07:38:27.309Z</time>
      </trkpt>
      <trkpt lat="49.35369" lon="1.03393">
        <ele>126.014</ele>
        <time>2012-06-24T07:38:30.404Z</time>
      </trkpt>
      <trkpt lat="49.35359" lon="1.03398">
        <ele>125.92</ele>
        <time>2012-06-24T07:38:33.310Z</time>
      </trkpt>
      <trkpt lat="49.35348" lon="1.03405">
        <ele>125.651</ele>
        <time>2012-06-24T07:38:36.663Z</time>
      </trkpt>
      <trkpt lat="49.35334" lon="1.03409">
        <ele>125.758</ele>
        <time>2012-06-24T07:38:40.531Z</time>
      </trkpt>
      <trkpt lat="49.35325" lon="1.03412">
        <ele>126.436</ele>
        <time>2012-06-24T07:38:43.037Z</time>
      </trkpt>
      <trkpt lat="49.3531" lon="1.03421">
        <ele>126.916</ele>
        <time>2012-06-24T07:38:47.061Z</time>
      </trkpt>
      <trkpt lat="49.35299" lon="1.03419">
        <ele>126.866</ele>
        <time>2012-06-24T07:38:50.293Z</time>
      </trkpt>
      <trkpt lat="49.3529" lon="1.03417">
        <ele>127.02</ele>
        <time>2012-06-24T07:38:52.984Z</time>
      </trkpt>
      <trkpt lat="49.3528" lon="1.03405">
        <ele>127.536</ele>
        <time>2012-06-24T07:38:56.753Z</time>
      </trkpt>
      <trkpt lat="49.35269" lon="1.03404">
        <ele>127.818</ele>
        <time>2012-06-24T07:39:00.039Z</time>
      </trkpt>
      <trkpt lat="49.35257" lon="1.03404">
        <ele>127.573</ele>
        <time>2012-06-24T07:39:03.613Z</time>
      </trkpt>
      <trkpt lat="49.35245" lon="1.03412">
        <ele>126.993</ele>
        <time>2012-06-24T07:39:07.337Z</time>
      </trkpt>
      <trkpt lat="49.35235" lon="1.03423">
        <ele>126.513</ele>
        <time>2012-06-24T07:39:10.876Z</time>
      </trkpt>
      <trkpt lat="49.35227" lon="1.03434">
        <ele>125.729</ele>
        <time>2012-06-24T07:39:14.164Z</time>
      </trkpt>
      <trkpt lat="49.35216" lon="1.03432">
        <ele>124.065</ele>
        <time>2012-06-24T07:39:17.999Z</time>
      </trkpt>
      <trkpt lat="49.35205" lon="1.03428">
        <ele>122.221</ele>
        <time>2012-06-24T07:39:21.822Z</time>
      </trkpt>
      <trkpt lat="49.35195" lon="1.03432">
        <ele>121.184</ele>
        <time>2012-06-24T07:39:25.341Z</time>
      </trkpt>
      <trkpt lat="49.35184" lon="1.03438">
        <ele>121.054</ele>
        <time>2012-06-24T07:39:29.097Z</time>
      </trkpt>
      <trkpt lat="49.35175" lon="1.03447">
        <ele>121.679</ele>
        <time>2012-06-24T07:39:32.464Z</time>
      </trkpt>
      <trkpt lat="49.3517" lon="1.03459">
        <ele>123.03</ele>
        <time>2012-06-24T07:39:35.453Z</time>
      </trkpt>
      <trkpt lat="49.3517" lon="1.03476">
        <ele>124.718</ele>
        <time>2012-06-24T07:39:39.109Z</time>
      </trkpt>
      <trkpt lat="49.35174" lon="1.03491">
        <ele>126.302</ele>
        <time>2012-06-24T07:39:42.343Z</time>
      </trkpt>
      <trkpt lat="49.35174" lon="1.03505">
        <ele>127.657</ele>
        <time>2012-06-24T07:39:45.430Z</time>
      </trkpt>
      <trkpt lat="49.35181" lon="1.03514">
        <ele>128.582</ele>
        <time>2012-06-24T07:39:48.605Z</time>
      </trkpt>
      <trkpt lat="49.35189" lon="1.03532">
        <ele>128.899</ele>
        <time>2012-06-24T07:39:52.849Z</time>
      </trkpt>
      <trkpt lat="49.35196" lon="1.03545">
        <ele>128.866</ele>
        <time>2012-06-24T07:39:56.010Z</time>
      </trkpt>
      <trkpt lat="49.35203" lon="1.03563">
        <ele>128.742</ele>
        <time>2012-06-24T07:40:00.301Z</time>
      </trkpt>
      <trkpt lat="49.352" lon="1.03576">
        <ele>128.719</ele>
        <time>2012-06-24T07:40:03.665Z</time>
      </trkpt>
      <trkpt lat="49.35195" lon="1.03589">
        <ele>128.851</ele>
        <time>2012-06-24T07:40:07.132Z</time>
      </trkpt>
      <trkpt lat="49.35192" lon="1.03604">
        <ele>129.018</ele>
        <time>2012-06-24T07:40:10.567Z</time>
      </trkpt>
      <trkpt lat="49.3519" lon="1.0362">
        <ele>129.085</ele>
        <time>2012-06-24T07:40:13.869Z</time>
      </trkpt>
      <trkpt lat="49.35195" lon="1.03634">
        <ele>129.05</ele>
        <time>2012-06-24T07:40:16.841Z</time>
      </trkpt>
      <trkpt lat="49.35195" lon="1.03648">
        <ele>128.983</ele>
        <time>2012-06-24T07:40:19.687Z</time>
      </trkpt>
      <trkpt lat="49.35193" lon="1.03665">
        <ele>128.918</ele>
        <time>2012-06-24T07:40:23.184Z</time>
      </trkpt>
      <trkpt lat="49.35187" lon="1.03681">
        <ele>128.599</ele>
        <time>2012-06-24T07:40:26.842Z</time>
      </trkpt>
      <trkpt lat="49.35182" lon="1.03696">
        <ele>127.893</ele>
        <time>2012-06-24T07:40:30.052Z</time>
      </trkpt>
      <trkpt lat="49.35175" lon="1.03706">
        <ele>126.653</ele>
        <time>2012-06-24T07:40:32.915Z</time>
      </trkpt>
      <trkpt lat="49.35172" lon="1.0372">
        <ele>124.905</ele>
        <time>2012-06-24T07:40:35.828Z</time>
      </trkpt>
      <trkpt lat="49.35169" lon="1.03735">
        <ele>123.391</ele>
        <time>2012-06-24T07:40:38.877Z</time>
      </trkpt>
      <trkpt lat="49.35164" lon="1.03748">
        <ele>122.745</ele>
        <time>2012-06-24T07:40:41.830Z</time>
      </trkpt>
      <trkpt lat="49.35159" lon="1.0376">
        <ele>122.69</ele>
        <time>2012-06-24T07:40:44.515Z</time>
      </trkpt>
      <trkpt lat="49.35154" lon="1.03774">
        <ele>122.83</ele>
        <time>2012-06-24T07:40:47.821Z</time>
      </trkpt>
      <trkpt lat="49.3515" lon="1.03789">
        <ele>122.955</ele>
        <time>2012-06-24T07:40:51.088Z</time>
      </trkpt>
      <trkpt lat="49.35148" lon="1.03806">
        <ele>123.017</ele>
        <time>2012-06-24T07:40:54.567Z</time>
      </trkpt>
      <trkpt lat="49.35138" lon="1.03821">
        <ele>123.218</ele>
        <time>2012-06-24T07:40:58.433Z</time>
      </trkpt>
      <trkpt lat="49.35132" lon="1.03833">
        <ele>123.752</ele>
        <time>2012-06-24T07:41:01.199Z</time>
      </trkpt>
      <trkpt lat="49.35126" lon="1.03845">
        <ele>124.38</ele>
        <time>2012-06-24T07:41:04.023Z</time>
      </trkpt>
      <trkpt lat="49.35116" lon="1.03854">
        <ele>124.864</ele>
        <time>2012-06-24T07:41:07.349Z</time>
      </trkpt>
      <trkpt lat="49.35108" lon="1.03866">
        <ele>125.377</ele>
        <time>2012-06-24T07:41:10.721Z</time>
      </trkpt>
      <trkpt lat="49.35098" lon="1.03876">
        <ele>126.136</ele>
        <time>2012-06-24T07:41:13.933Z</time>
      </trkpt>
      <trkpt lat="49.35088" lon="1.03887">
        <ele>127.165</ele>
        <time>2012-06-24T07:41:17.064Z</time>
      </trkpt>
      <trkpt lat="49.35078" lon="1.03896">
        <ele>128.329</ele>
        <time>2012-06-24T07:41:19.842Z</time>
      </trkpt>
      <trkpt lat="49.35069" lon="1.03897">
        <ele>129.323</ele>
        <time>2012-06-24T07:41:22.119Z</time>
      </trkpt>
      <trkpt lat="49.35057" lon="1.039">
        <ele>129.738</ele>
        <time>2012-06-24T07:41:25.137Z</time>
      </trkpt>
      <trkpt lat="49.35047" lon="1.03905">
        <ele>129.517</ele>
        <time>2012-06-24T07:41:28.239Z</time>
      </trkpt>
      <trkpt lat="49.35037" lon="1.03911">
        <ele>129.09</ele>
        <time>2012-06-24T07:41:31.229Z</time>
      </trkpt>
      <trkpt lat="49.35028" lon="1.03921">
        <ele>128.778</ele>
        <time>2012-06-24T07:41:34.213Z</time>
      </trkpt>
      <trkpt lat="49.35017" lon="1.03925">
        <ele>128.587</ele>
        <time>2012-06-24T07:41:37.333Z</time>
      </trkpt>
      <trkpt lat="49.35008" lon="1.03932">
        <ele>128.495</ele>
        <time>2012-06-24T07:41:40.163Z</time>
      </trkpt>
      <trkpt lat="49.34996" lon="1.03942">
        <ele>128.518</ele>
        <time>2012-06-24T07:41:44.098Z</time>
      </trkpt>
      <trkpt lat="49.34984" lon="1.03945">
        <ele>128.885</ele>
        <time>2012-06-24T07:41:47.072Z</time>
      </trkpt>
      <trkpt lat="49.34975" lon="1.03953">
        <ele>129.861</ele>
        <time>2012-06-24T07:41:49.606Z</time>
      </trkpt>
      <trkpt lat="49.34964" lon="1.03961">
        <ele>131.248</ele>
        <time>2012-06-24T07:41:52.789Z</time>
      </trkpt>
      <trkpt lat="49.34955" lon="1.03969">
        <ele>132.465</ele>
        <time>2012-06-24T07:41:55.345Z</time>
      </trkpt>
      <trkpt lat="49.34942" lon="1.03968">
        <ele>133.124</ele>
        <time>2012-06-24T07:41:58.782Z</time>
      </trkpt>
      <trkpt lat="49.34932" lon="1.03981">
        <ele>133.27</ele>
        <time>2012-06-24T07:42:02.318Z</time>
      </trkpt>
      <trkpt lat="49.34928" lon="1.03996">
        <ele>133.189</ele>
        <time>2012-06-24T07:42:05.035Z</time>
      </trkpt>
      <trkpt lat="49.34921" lon="1.04008">
        <ele>132.631</ele>
        <time>2012-06-24T07:42:08.043Z</time>
      </trkpt>
      <trkpt lat="49.34904" lon="1.04017">
        <ele>131.33</ele>
        <time>2012-06-24T07:42:12.609Z</time>
      </trkpt>
      <trkpt lat="49.34893" lon="1.04017">
        <ele>129.543</ele>
        <time>2012-06-24T07:42:15.210Z</time>
      </trkpt>
      <trkpt lat="49.34893" lon="1.04002">
        <ele>127.394</ele>
        <time>2012-06-24T07:42:17.696Z</time>
      </trkpt>
      <trkpt lat="49.34895" lon="1.03982">
        <ele>125.196</ele>
        <time>2012-06-24T07:42:21.971Z</time>
      </trkpt>
      <trkpt lat="49.34895" lon="1.03964">
        <ele>123.862</ele>
        <time>2012-06-24T07:42:26.247Z</time>
      </trkpt>
      <trkpt lat="49.34895" lon="1.03945">
        <ele>123.631</ele>
        <time>2012-06-24T07:42:29.727Z</time>
      </trkpt>
      <trkpt lat="49.34897" lon="1.03926">
        <ele>123.914</ele>
        <time>2012-06-24T07:42:32.712Z</time>
      </trkpt>
      <trkpt lat="49.34898" lon="1.03908">
        <ele>124.294</ele>
        <time>2012-06-24T07:42:35.576Z</time>
      </trkpt>
      <trkpt lat="49.349" lon="1.03891">
        <ele>124.779</ele>
        <time>2012-06-24T07:42:38.216Z</time>
      </trkpt>
      <trkpt lat="49.34902" lon="1.03874">
        <ele>125.356</ele>
        <time>2012-06-24T07:42:40.951Z</time>
      </trkpt>
      <trkpt lat="49.34904" lon="1.03856">
        <ele>125.895</ele>
        <time>2012-06-24T07:42:43.769Z</time>
      </trkpt>
      <trkpt lat="49.34907" lon="1.03837">
        <ele>126.32</ele>
        <time>2012-06-24T07:42:46.693Z</time>
      </trkpt>
      <trkpt lat="49.34908" lon="1.03817">
        <ele>126.643</ele>
        <time>2012-06-24T07:42:49.742Z</time>
      </trkpt>
      <trkpt lat="49.34908" lon="1.03817">
        <ele>126.893</ele>
        <time>2012-06-24T07:42:50.749Z</time>
      </trkpt>
      <trkpt lat="49.34908" lon="1.03817">
        <ele>127.049</ele>
        <time>2012-06-24T07:42:54.741Z</time>
      </trkpt>
      <trkpt lat="49.34911" lon="1.03786">
        <ele>127.121</ele>
        <time>2012-06-24T07:42:54.741Z</time>
      </trkpt>
      <trkpt lat="49.34911" lon="1.03766">
        <ele>127.151</ele>
        <time>2012-06-24T07:42:57.838Z</time>
      </trkpt>
      <trkpt lat="49.34912" lon="1.03748">
        <ele>127.127</ele>
        <time>2012-06-24T07:43:00.703Z</time>
      </trkpt>
      <trkpt lat="49.34914" lon="1.03729">
        <ele>127.029</ele>
        <time>2012-06-24T07:43:03.647Z</time>
      </trkpt>
      <trkpt lat="49.34917" lon="1.0371">
        <ele>126.888</ele>
        <time>2012-06-24T07:43:06.598Z</time>
      </trkpt>
      <trkpt lat="49.34919" lon="1.0369">
        <ele>126.801</ele>
        <time>2012-06-24T07:43:09.468Z</time>
      </trkpt>
      <trkpt lat="49.3492" lon="1.03671">
        <ele>126.836</ele>
        <time>2012-06-24T07:43:12.321Z</time>
      </trkpt>
      <trkpt lat="49.34921" lon="1.03653">
        <ele>126.933</ele>
        <time>2012-06-24T07:43:15.119Z</time>
      </trkpt>
      <trkpt lat="49.34922" lon="1.03633">
        <ele>127.056</ele>
        <time>2012-06-24T07:43:18.039Z</time>
      </trkpt>
      <trkpt lat="49.34922" lon="1.03616">
        <ele>127.254</ele>
        <time>2012-06-24T07:43:20.734Z</time>
      </trkpt>
      <trkpt lat="49.34922" lon="1.03597">
        <ele>127.593</ele>
        <time>2012-06-24T07:43:23.541Z</time>
      </trkpt>
      <trkpt lat="49.34923" lon="1.03578">
        <ele>128.16</ele>
        <time>2012-06-24T07:43:26.398Z</time>
      </trkpt>
      <trkpt lat="49.34923" lon="1.03559">
        <ele>129.015</ele>
        <time>2012-06-24T07:43:29.213Z</time>
      </trkpt>
      <trkpt lat="49.34923" lon="1.03544">
        <ele>130.076</ele>
        <time>2012-06-24T07:43:31.314Z</time>
      </trkpt>
      <trkpt lat="49.34924" lon="1.0353">
        <ele>131.082</ele>
        <time>2012-06-24T07:43:33.402Z</time>
      </trkpt>
      <trkpt lat="49.34925" lon="1.03509">
        <ele>131.769</ele>
        <time>2012-06-24T07:43:36.433Z</time>
      </trkpt>
      <trkpt lat="49.34925" lon="1.03494">
        <ele>132.089</ele>
        <time>2012-06-24T07:43:38.469Z</time>
      </trkpt>
      <trkpt lat="49.34926" lon="1.03472">
        <ele>132.167</ele>
        <time>2012-06-24T07:43:41.499Z</time>
      </trkpt>
      <trkpt lat="49.34927" lon="1.03456">
        <ele>132.134</ele>
        <time>2012-06-24T07:43:43.666Z</time>
      </trkpt>
      <trkpt lat="49.34929" lon="1.0343">
        <ele>132.06</ele>
        <time>2012-06-24T07:43:47.006Z</time>
      </trkpt>
      <trkpt lat="49.3493" lon="1.03413">
        <ele>131.96</ele>
        <time>2012-06-24T07:43:49.177Z</time>
      </trkpt>
      <trkpt lat="49.34932" lon="1.03395">
        <ele>131.81</ele>
        <time>2012-06-24T07:43:51.326Z</time>
      </trkpt>
      <trkpt lat="49.34934" lon="1.03376">
        <ele>131.518</ele>
        <time>2012-06-24T07:43:53.535Z</time>
      </trkpt>
      <trkpt lat="49.34937" lon="1.03348">
        <ele>131.066</ele>
        <time>2012-06-24T07:43:56.631Z</time>
      </trkpt>
      <trkpt lat="49.34941" lon="1.03318">
        <ele>130.555</ele>
        <time>2012-06-24T07:43:59.556Z</time>
      </trkpt>
      <trkpt lat="49.34945" lon="1.03298">
        <ele>130.053</ele>
        <time>2012-06-24T07:44:01.520Z</time>
      </trkpt>
      <trkpt lat="49.34948" lon="1.03279">
        <ele>129.543</ele>
        <time>2012-06-24T07:44:03.381Z</time>
      </trkpt>
      <trkpt lat="49.34955" lon="1.03247">
        <ele>129.063</ele>
        <time>2012-06-24T07:44:06.416Z</time>
      </trkpt>
      <trkpt lat="49.34962" lon="1.0322">
        <ele>128.662</ele>
        <time>2012-06-24T07:44:08.989Z</time>
      </trkpt>
      <trkpt lat="49.34968" lon="1.03199">
        <ele>128.306</ele>
        <time>2012-06-24T07:44:11.013Z</time>
      </trkpt>
      <trkpt lat="49.34979" lon="1.03169">
        <ele>127.987</ele>
        <time>2012-06-24T07:44:14.008Z</time>
      </trkpt>
      <trkpt lat="49.34989" lon="1.0314">
        <ele>127.666</ele>
        <time>2012-06-24T07:44:16.962Z</time>
      </trkpt>
      <trkpt lat="49.34999" lon="1.03115">
        <ele>127.042</ele>
        <time>2012-06-24T07:44:19.718Z</time>
      </trkpt>
      <trkpt lat="49.35007" lon="1.03099">
        <ele>125.687</ele>
        <time>2012-06-24T07:44:21.540Z</time>
      </trkpt>
      <trkpt lat="49.35015" lon="1.03082">
        <ele>123.845</ele>
        <time>2012-06-24T07:44:23.519Z</time>
      </trkpt>
      <trkpt lat="49.35026" lon="1.03057">
        <ele>122.446</ele>
        <time>2012-06-24T07:44:26.327Z</time>
      </trkpt>
      <trkpt lat="49.35037" lon="1.03034">
        <ele>121.92</ele>
        <time>2012-06-24T07:44:29.127Z</time>
      </trkpt>
      <trkpt lat="49.35049" lon="1.03012">
        <ele>122.202</ele>
        <time>2012-06-24T07:44:31.944Z</time>
      </trkpt>
      <trkpt lat="49.35062" lon="1.0299">
        <ele>123.152</ele>
        <time>2012-06-24T07:44:34.839Z</time>
      </trkpt>
      <trkpt lat="49.35071" lon="1.02976">
        <ele>124.219</ele>
        <time>2012-06-24T07:44:36.753Z</time>
      </trkpt>
      <trkpt lat="49.35084" lon="1.02957">
        <ele>124.862</ele>
        <time>2012-06-24T07:44:39.597Z</time>
      </trkpt>
      <trkpt lat="49.35093" lon="1.02945">
        <ele>125.065</ele>
        <time>2012-06-24T07:44:41.400Z</time>
      </trkpt>
      <trkpt lat="49.35106" lon="1.02927">
        <ele>125.012</ele>
        <time>2012-06-24T07:44:44.212Z</time>
      </trkpt>
      <trkpt lat="49.35119" lon="1.02909">
        <ele>124.871</ele>
        <time>2012-06-24T07:44:47.068Z</time>
      </trkpt>
      <trkpt lat="49.35132" lon="1.02891">
        <ele>124.758</ele>
        <time>2012-06-24T07:44:49.949Z</time>
      </trkpt>
      <trkpt lat="49.3514" lon="1.0288">
        <ele>124.736</ele>
        <time>2012-06-24T07:44:51.765Z</time>
      </trkpt>
      <trkpt lat="49.35153" lon="1.02872">
        <ele>124.832</ele>
        <time>2012-06-24T07:44:54.173Z</time>
      </trkpt>
      <trkpt lat="49.3517" lon="1.02857">
        <ele>125.082</ele>
        <time>2012-06-24T07:44:57.412Z</time>
      </trkpt>
      <trkpt lat="49.35177" lon="1.02841">
        <ele>125.428</ele>
        <time>2012-06-24T07:44:59.465Z</time>
      </trkpt>
      <trkpt lat="49.35187" lon="1.02824">
        <ele>125.828</ele>
        <time>2012-06-24T07:45:01.947Z</time>
      </trkpt>
      <trkpt lat="49.35196" lon="1.02813">
        <ele>126.273</ele>
        <time>2012-06-24T07:45:03.885Z</time>
      </trkpt>
      <trkpt lat="49.35204" lon="1.02802">
        <ele>126.655</ele>
        <time>2012-06-24T07:45:05.767Z</time>
      </trkpt>
      <trkpt lat="49.35213" lon="1.02791">
        <ele>127.062</ele>
        <time>2012-06-24T07:45:07.685Z</time>
      </trkpt>
      <trkpt lat="49.35226" lon="1.02775">
        <ele>127.513</ele>
        <time>2012-06-24T07:45:10.382Z</time>
      </trkpt>
      <trkpt lat="49.35235" lon="1.02765">
        <ele>127.682</ele>
        <time>2012-06-24T07:45:12.226Z</time>
      </trkpt>
      <trkpt lat="49.35248" lon="1.02748">
        <ele>127.546</ele>
        <time>2012-06-24T07:45:15.108Z</time>
      </trkpt>
      <trkpt lat="49.35261" lon="1.02732">
        <ele>127.395</ele>
        <time>2012-06-24T07:45:17.767Z</time>
      </trkpt>
      <trkpt lat="49.35275" lon="1.02712">
        <ele>127.32</ele>
        <time>2012-06-24T07:45:20.900Z</time>
      </trkpt>
      <trkpt lat="49.35289" lon="1.02697">
        <ele>127.21</ele>
        <time>2012-06-24T07:45:23.657Z</time>
      </trkpt>
      <trkpt lat="49.35303" lon="1.02688">
        <ele>126.969</ele>
        <time>2012-06-24T07:45:26.117Z</time>
      </trkpt>
      <trkpt lat="49.3532" lon="1.02688">
        <ele>126.722</ele>
        <time>2012-06-24T07:45:29.011Z</time>
      </trkpt>
      <trkpt lat="49.35338" lon="1.0268">
        <ele>126.642</ele>
        <time>2012-06-24T07:45:32.208Z</time>
      </trkpt>
      <trkpt lat="49.35344" lon="1.02664">
        <ele>126.883</ele>
        <time>2012-06-24T07:45:34.319Z</time>
      </trkpt>
      <trkpt lat="49.35343" lon="1.02638">
        <ele>127.457</ele>
        <time>2012-06-24T07:45:36.929Z</time>
      </trkpt>
      <trkpt lat="49.35333" lon="1.02628">
        <ele>128.082</ele>
        <time>2012-06-24T07:45:38.765Z</time>
      </trkpt>
      <trkpt lat="49.35315" lon="1.02624">
        <ele>128.498</ele>
        <time>2012-06-24T07:45:41.411Z</time>
      </trkpt>
      <trkpt lat="49.35298" lon="1.02626">
        <ele>128.655</ele>
        <time>2012-06-24T07:45:43.984Z</time>
      </trkpt>
      <trkpt lat="49.3528" lon="1.02619">
        <ele>128.62</ele>
        <time>2012-06-24T07:45:46.979Z</time>
      </trkpt>
      <trkpt lat="49.35269" lon="1.02613">
        <ele>128.55</ele>
        <time>2012-06-24T07:45:48.978Z</time>
      </trkpt>
      <trkpt lat="49.35252" lon="1.02603">
        <ele>128.546</ele>
        <time>2012-06-24T07:45:51.907Z</time>
      </trkpt>
      <trkpt lat="49.3524" lon="1.02603">
        <ele>128.591</ele>
        <time>2012-06-24T07:45:53.746Z</time>
      </trkpt>
      <trkpt lat="49.35221" lon="1.02603">
        <ele>128.747</ele>
        <time>2012-06-24T07:45:56.747Z</time>
      </trkpt>
      <trkpt lat="49.35199" lon="1.02595">
        <ele>129.315</ele>
        <time>2012-06-24T07:46:00.261Z</time>
      </trkpt>
      <trkpt lat="49.35183" lon="1.02576">
        <ele>130.274</ele>
        <time>2012-06-24T07:46:03.345Z</time>
      </trkpt>
      <trkpt lat="49.35168" lon="1.02558">
        <ele>131.082</ele>
        <time>2012-06-24T07:46:06.294Z</time>
      </trkpt>
      <trkpt lat="49.35157" lon="1.02542">
        <ele>131.417</ele>
        <time>2012-06-24T07:46:08.545Z</time>
      </trkpt>
      <trkpt lat="49.35149" lon="1.02527">
        <ele>131.162</ele>
        <time>2012-06-24T07:46:10.696Z</time>
      </trkpt>
      <trkpt lat="49.35145" lon="1.02499">
        <ele>130.275</ele>
        <time>2012-06-24T07:46:13.582Z</time>
      </trkpt>
      <trkpt lat="49.35147" lon="1.0248">
        <ele>129.014</ele>
        <time>2012-06-24T07:46:15.476Z</time>
      </trkpt>
      <trkpt lat="49.35151" lon="1.02446">
        <ele>127.801</ele>
        <time>2012-06-24T07:46:18.802Z</time>
      </trkpt>
      <trkpt lat="49.35156" lon="1.02415">
        <ele>126.56</ele>
        <time>2012-06-24T07:46:22.018Z</time>
      </trkpt>
      <trkpt lat="49.35158" lon="1.02397">
        <ele>125.136</ele>
        <time>2012-06-24T07:46:23.797Z</time>
      </trkpt>
      <trkpt lat="49.35159" lon="1.0238">
        <ele>123.972</ele>
        <time>2012-06-24T07:46:25.458Z</time>
      </trkpt>
      <trkpt lat="49.3516" lon="1.02356">
        <ele>123.503</ele>
        <time>2012-06-24T07:46:27.930Z</time>
      </trkpt>
      <trkpt lat="49.35159" lon="1.02329">
        <ele>123.664</ele>
        <time>2012-06-24T07:46:30.801Z</time>
      </trkpt>
      <trkpt lat="49.35161" lon="1.02295">
        <ele>124.481</ele>
        <time>2012-06-24T07:46:34.816Z</time>
      </trkpt>
      <trkpt lat="49.35162" lon="1.02278">
        <ele>125.649</ele>
        <time>2012-06-24T07:46:37.084Z</time>
      </trkpt>
      <trkpt lat="49.35166" lon="1.02254">
        <ele>126.585</ele>
        <time>2012-06-24T07:46:39.997Z</time>
      </trkpt>
      <trkpt lat="49.35171" lon="1.02228">
        <ele>127.349</ele>
        <time>2012-06-24T07:46:42.962Z</time>
      </trkpt>
      <trkpt lat="49.35173" lon="1.02208">
        <ele>128.37</ele>
        <time>2012-06-24T07:46:45.212Z</time>
      </trkpt>
      <trkpt lat="49.35173" lon="1.02193">
        <ele>129.511</ele>
        <time>2012-06-24T07:46:47.195Z</time>
      </trkpt>
      <trkpt lat="49.35175" lon="1.02174">
        <ele>130.32</ele>
        <time>2012-06-24T07:46:49.844Z</time>
      </trkpt>
      <trkpt lat="49.35179" lon="1.02147">
        <ele>131.546</ele>
        <time>2012-06-24T07:46:54.020Z</time>
      </trkpt>
      <trkpt lat="49.35184" lon="1.0213">
        <ele>134.311</ele>
        <time>2012-06-24T07:46:56.691Z</time>
      </trkpt>
      <trkpt lat="49.35191" lon="1.02113">
        <ele>137.764</ele>
        <time>2012-06-24T07:46:59.310Z</time>
      </trkpt>
      <trkpt lat="49.35196" lon="1.02096">
        <ele>140.153</ele>
        <time>2012-06-24T07:47:01.858Z</time>
      </trkpt>
      <trkpt lat="49.35206" lon="1.02065">
        <ele>141.142</ele>
        <time>2012-06-24T07:47:06.525Z</time>
      </trkpt>
      <trkpt lat="49.35213" lon="1.02041">
        <ele>141.278</ele>
        <time>2012-06-24T07:47:10.084Z</time>
      </trkpt>
      <trkpt lat="49.35219" lon="1.02023">
        <ele>141.026</ele>
        <time>2012-06-24T07:47:12.802Z</time>
      </trkpt>
      <trkpt lat="49.35221" lon="1.02008">
        <ele>140.451</ele>
        <time>2012-06-24T07:47:15.741Z</time>
      </trkpt>
      <trkpt lat="49.35221" lon="1.02008">
        <ele>139.625</ele>
        <time>2012-06-24T07:47:17.746Z</time>
      </trkpt>
      <trkpt lat="49.35221" lon="1.02008">
        <ele>138.955</ele>
        <time>2012-06-24T07:47:21.741Z</time>
      </trkpt>
      <trkpt lat="49.35213" lon="1.01996">
        <ele>138.687</ele>
        <time>2012-06-24T07:47:21.741Z</time>
      </trkpt>
      <trkpt lat="49.35204" lon="1.01988">
        <ele>138.767</ele>
        <time>2012-06-24T07:47:30.460Z</time>
      </trkpt>
      <trkpt lat="49.35191" lon="1.01978">
        <ele>139.185</ele>
        <time>2012-06-24T07:47:34.263Z</time>
      </trkpt>
      <trkpt lat="49.35179" lon="1.01972">
        <ele>140.409</ele>
        <time>2012-06-24T07:47:37.212Z</time>
      </trkpt>
      <trkpt lat="49.35168" lon="1.01961">
        <ele>142.572</ele>
        <time>2012-06-24T07:47:39.980Z</time>
      </trkpt>
      <trkpt lat="49.3516" lon="1.01953">
        <ele>144.631</ele>
        <time>2012-06-24T07:47:42.107Z</time>
      </trkpt>
      <trkpt lat="49.35148" lon="1.01946">
        <ele>145.648</ele>
        <time>2012-06-24T07:47:45.027Z</time>
      </trkpt>
      <trkpt lat="49.35137" lon="1.01937">
        <ele>145.872</ele>
        <time>2012-06-24T07:47:47.964Z</time>
      </trkpt>
      <trkpt lat="49.35126" lon="1.01928">
        <ele>145.874</ele>
        <time>2012-06-24T07:47:51.007Z</time>
      </trkpt>
      <trkpt lat="49.35116" lon="1.0192">
        <ele>145.992</ele>
        <time>2012-06-24T07:47:53.551Z</time>
      </trkpt>
      <trkpt lat="49.35101" lon="1.01909">
        <ele>146.224</ele>
        <time>2012-06-24T07:47:57.281Z</time>
      </trkpt>
      <trkpt lat="49.35087" lon="1.01897">
        <ele>146.417</ele>
        <time>2012-06-24T07:48:00.898Z</time>
      </trkpt>
      <trkpt lat="49.35074" lon="1.01889">
        <ele>146.496</ele>
        <time>2012-06-24T07:48:04.033Z</time>
      </trkpt>
      <trkpt lat="49.35066" lon="1.01882">
        <ele>146.5</ele>
        <time>2012-06-24T07:48:06.067Z</time>
      </trkpt>
      <trkpt lat="49.35056" lon="1.01872">
        <ele>146.481</ele>
        <time>2012-06-24T07:48:08.770Z</time>
      </trkpt>
      <trkpt lat="49.35042" lon="1.01862">
        <ele>146.442</ele>
        <time>2012-06-24T07:48:12.506Z</time>
      </trkpt>
      <trkpt lat="49.35031" lon="1.01857">
        <ele>146.273</ele>
        <time>2012-06-24T07:48:15.008Z</time>
      </trkpt>
      <trkpt lat="49.35016" lon="1.01849">
        <ele>145.943</ele>
        <time>2012-06-24T07:48:18.741Z</time>
      </trkpt>
      <trkpt lat="49.35016" lon="1.01849">
        <ele>145.671</ele>
        <time>2012-06-24T07:48:10.749Z</time>
      </trkpt>
      <trkpt lat="49.35008" lon="1.01841">
        <ele>145.587</ele>
        <time>2012-06-24T07:48:20.954Z</time>
      </trkpt>
      <trkpt lat="49.34996" lon="1.0183">
        <ele>145.574</ele>
        <time>2012-06-24T07:48:24.279Z</time>
      </trkpt>
      <trkpt lat="49.34988" lon="1.01822">
        <ele>145.46</ele>
        <time>2012-06-24T07:48:26.562Z</time>
      </trkpt>
      <trkpt lat="49.34979" lon="1.01818">
        <ele>144.913</ele>
        <time>2012-06-24T07:48:28.966Z</time>
      </trkpt>
      <trkpt lat="49.34968" lon="1.01811">
        <ele>143.914</ele>
        <time>2012-06-24T07:48:33.191Z</time>
      </trkpt>
      <trkpt lat="49.34958" lon="1.018">
        <ele>143.037</ele>
        <time>2012-06-24T07:48:36.988Z</time>
      </trkpt>
      <trkpt lat="49.34957" lon="1.01786">
        <ele>142.663</ele>
        <time>2012-06-24T07:48:39.664Z</time>
      </trkpt>
      <trkpt lat="49.34957" lon="1.01786">
        <ele>142.63</ele>
        <time>2012-06-24T07:48:39.664Z</time>
      </trkpt>
      <trkpt lat="49.34959" lon="1.01768">
        <ele>142.671</ele>
        <time>2012-06-24T07:48:43.064Z</time>
      </trkpt>
      <trkpt lat="49.34962" lon="1.01752">
        <ele>142.516</ele>
        <time>2012-06-24T07:48:46.938Z</time>
      </trkpt>
      <trkpt lat="49.34963" lon="1.01736">
        <ele>142.029</ele>
        <time>2012-06-24T07:48:50.663Z</time>
      </trkpt>
      <trkpt lat="49.34962" lon="1.01717">
        <ele>140.893</ele>
        <time>2012-06-24T07:48:56.901Z</time>
      </trkpt>
      <trkpt lat="49.34954" lon="1.01707">
        <ele>139.054</ele>
        <time>2012-06-24T07:49:02.153Z</time>
      </trkpt>
      <trkpt lat="49.34943" lon="1.01708">
        <ele>137.033</ele>
        <time>2012-06-24T07:49:06.764Z</time>
      </trkpt>
      <trkpt lat="49.34939" lon="1.01692">
        <ele>135.098</ele>
        <time>2012-06-24T07:49:10.418Z</time>
      </trkpt>
      <trkpt lat="49.34938" lon="1.01674">
        <ele>133.356</ele>
        <time>2012-06-24T07:49:13.567Z</time>
      </trkpt>
      <trkpt lat="49.3494" lon="1.01657">
        <ele>131.698</ele>
        <time>2012-06-24T07:49:16.354Z</time>
      </trkpt>
      <trkpt lat="49.34946" lon="1.01639">
        <ele>129.754</ele>
        <time>2012-06-24T07:49:19.600Z</time>
      </trkpt>
      <trkpt lat="49.34951" lon="1.01621">
        <ele>127.602</ele>
        <time>2012-06-24T07:49:22.906Z</time>
      </trkpt>
      <trkpt lat="49.34956" lon="1.01605">
        <ele>125.467</ele>
        <time>2012-06-24T07:49:25.826Z</time>
      </trkpt>
      <trkpt lat="49.34965" lon="1.01586">
        <ele>123.525</ele>
        <time>2012-06-24T07:49:29.726Z</time>
      </trkpt>
      <trkpt lat="49.34971" lon="1.01572">
        <ele>122.007</ele>
        <time>2012-06-24T07:49:32.463Z</time>
      </trkpt>
      <trkpt lat="49.34975" lon="1.01558">
        <ele>120.83</ele>
        <time>2012-06-24T07:49:35.682Z</time>
      </trkpt>
      <trkpt lat="49.34982" lon="1.01541">
        <ele>119.953</ele>
        <time>2012-06-24T07:49:40.923Z</time>
      </trkpt>
      <trkpt lat="49.34991" lon="1.01527">
        <ele>119.4</ele>
        <time>2012-06-24T07:49:45.875Z</time>
      </trkpt>
      <trkpt lat="49.34998" lon="1.01518">
        <ele>118.743</ele>
        <time>2012-06-24T07:49:50.663Z</time>
      </trkpt>
      <trkpt lat="49.3499" lon="1.01506">
        <ele>117.6</ele>
        <time>2012-06-24T07:49:58.533Z</time>
      </trkpt>
      <trkpt lat="49.34995" lon="1.01489">
        <ele>115.576</ele>
        <time>2012-06-24T07:50:02.950Z</time>
      </trkpt>
      <trkpt lat="49.35004" lon="1.01474">
        <ele>112.396</ele>
        <time>2012-06-24T07:50:07.758Z</time>
      </trkpt>
      <trkpt lat="49.35012" lon="1.01463">
        <ele>108.609</ele>
        <time>2012-06-24T07:50:11.322Z</time>
      </trkpt>
      <trkpt lat="49.35019" lon="1.01452">
        <ele>105.158</ele>
        <time>2012-06-24T07:50:14.984Z</time>
      </trkpt>
      <trkpt lat="49.35025" lon="1.01437">
        <ele>101.843</ele>
        <time>2012-06-24T07:50:18.658Z</time>
      </trkpt>
      <trkpt lat="49.35033" lon="1.01431">
        <ele>98.551</ele>
        <time>2012-06-24T07:50:21.518Z</time>
      </trkpt>
      <trkpt lat="49.35042" lon="1.01423">
        <ele>95.924</ele>
        <time>2012-06-24T07:50:24.538Z</time>
      </trkpt>
      <trkpt lat="49.3505" lon="1.01415">
        <ele>94.314</ele>
        <time>2012-06-24T07:50:27.485Z</time>
      </trkpt>
      <trkpt lat="49.3506" lon="1.01412">
        <ele>92.955</ele>
        <time>2012-06-24T07:50:30.508Z</time>
      </trkpt>
      <trkpt lat="49.35069" lon="1.01404">
        <ele>91.089</ele>
        <time>2012-06-24T07:50:34.160Z</time>
      </trkpt>
      <trkpt lat="49.35073" lon="1.01388">
        <ele>88.333</ele>
        <time>2012-06-24T07:50:37.717Z</time>
      </trkpt>
      <trkpt lat="49.35078" lon="1.01374">
        <ele>84.451</ele>
        <time>2012-06-24T07:50:40.930Z</time>
      </trkpt>
      <trkpt lat="49.35089" lon="1.01366">
        <ele>80.196</ele>
        <time>2012-06-24T07:50:44.480Z</time>
      </trkpt>
      <trkpt lat="49.35098" lon="1.01362">
        <ele>77.123</ele>
        <time>2012-06-24T07:50:48.065Z</time>
      </trkpt>
      <trkpt lat="49.35107" lon="1.01349">
        <ele>75.137</ele>
        <time>2012-06-24T07:50:53.309Z</time>
      </trkpt>
      <trkpt lat="49.35112" lon="1.01337">
        <ele>73.268</ele>
        <time>2012-06-24T07:50:58.274Z</time>
      </trkpt>
      <trkpt lat="49.35107" lon="1.01325">
        <ele>71.554</ele>
        <time>2012-06-24T07:51:02.796Z</time>
      </trkpt>
      <trkpt lat="49.35102" lon="1.01312">
        <ele>70.352</ele>
        <time>2012-06-24T07:51:07.423Z</time>
      </trkpt>
      <trkpt lat="49.35097" lon="1.01299">
        <ele>69.099</ele>
        <time>2012-06-24T07:51:11.378Z</time>
      </trkpt>
      <trkpt lat="49.35093" lon="1.01283">
        <ele>67.358</ele>
        <time>2012-06-24T07:51:14.712Z</time>
      </trkpt>
      <trkpt lat="49.35082" lon="1.01271">
        <ele>65.83</ele>
        <time>2012-06-24T07:51:18.473Z</time>
      </trkpt>
      <trkpt lat="49.35075" lon="1.01261">
        <ele>65.177</ele>
        <time>2012-06-24T07:51:21.334Z</time>
      </trkpt>
      <trkpt lat="49.35071" lon="1.01245">
        <ele>65.246</ele>
        <time>2012-06-24T07:51:24.948Z</time>
      </trkpt>
      <trkpt lat="49.35069" lon="1.0123">
        <ele>66.034</ele>
        <time>2012-06-24T07:51:28.401Z</time>
      </trkpt>
      <trkpt lat="49.35064" lon="1.01216">
        <ele>67.607</ele>
        <time>2012-06-24T07:51:32.142Z</time>
      </trkpt>
      <trkpt lat="49.35058" lon="1.01205">
        <ele>69.407</ele>
        <time>2012-06-24T07:51:36.032Z</time>
      </trkpt>
      <trkpt lat="49.35053" lon="1.01193">
        <ele>70.605</ele>
        <time>2012-06-24T07:51:40.001Z</time>
      </trkpt>
      <trkpt lat="49.35047" lon="1.01181">
        <ele>71.08</ele>
        <time>2012-06-24T07:51:44.524Z</time>
      </trkpt>
      <trkpt lat="49.35042" lon="1.01165">
        <ele>71.232</ele>
        <time>2012-06-24T07:51:49.702Z</time>
      </trkpt>
      <trkpt lat="49.35038" lon="1.01151">
        <ele>71.292</ele>
        <time>2012-06-24T07:51:54.256Z</time>
      </trkpt>
      <trkpt lat="49.35036" lon="1.01137">
        <ele>71.492</ele>
        <time>2012-06-24T07:51:58.300Z</time>
      </trkpt>
      <trkpt lat="49.35036" lon="1.01137">
        <ele>71.963</ele>
        <time>2012-06-24T07:51:58.300Z</time>
      </trkpt>
      <trkpt lat="49.3504" lon="1.01121">
        <ele>72.549</ele>
        <time>2012-06-24T07:52:03.712Z</time>
      </trkpt>
      <trkpt lat="49.35041" lon="1.01107">
        <ele>73.167</ele>
        <time>2012-06-24T07:52:08.939Z</time>
      </trkpt>
      <trkpt lat="49.35035" lon="1.01096">
        <ele>73.876</ele>
        <time>2012-06-24T07:52:14.549Z</time>
      </trkpt>
      <trkpt lat="49.35035" lon="1.01096">
        <ele>74.541</ele>
        <time>2012-06-24T07:52:05.739Z</time>
      </trkpt>
      <trkpt lat="49.35032" lon="1.01083">
        <ele>75.378</ele>
        <time>2012-06-24T07:52:19.619Z</time>
      </trkpt>
      <trkpt lat="49.35035" lon="1.01069">
        <ele>76.684</ele>
        <time>2012-06-24T07:52:25.159Z</time>
      </trkpt>
      <trkpt lat="49.35037" lon="1.01054">
        <ele>78.04</ele>
        <time>2012-06-24T07:52:30.864Z</time>
      </trkpt>
      <trkpt lat="49.3504" lon="1.01037">
        <ele>79.17</ele>
        <time>2012-06-24T07:52:36.471Z</time>
      </trkpt>
      <trkpt lat="49.35044" lon="1.01024">
        <ele>81.194</ele>
        <time>2012-06-24T07:52:40.792Z</time>
      </trkpt>
      <trkpt lat="49.35044" lon="1.0101">
        <ele>84.464</ele>
        <time>2012-06-24T07:52:44.977Z</time>
      </trkpt>
      <trkpt lat="49.35048" lon="1.00994">
        <ele>87.497</ele>
        <time>2012-06-24T07:52:49.956Z</time>
      </trkpt>
      <trkpt lat="49.35055" lon="1.0098">
        <ele>89.158</ele>
        <time>2012-06-24T07:52:54.653Z</time>
      </trkpt>
      <trkpt lat="49.35057" lon="1.00967">
        <ele>89.543</ele>
        <time>2012-06-24T07:52:58.546Z</time>
      </trkpt>
      <trkpt lat="49.35057" lon="1.0095">
        <ele>89.104</ele>
        <time>2012-06-24T07:53:03.465Z</time>
      </trkpt>
      <trkpt lat="49.35055" lon="1.00936">
        <ele>88.664</ele>
        <time>2012-06-24T07:53:07.872Z</time>
      </trkpt>
      <trkpt lat="49.35055" lon="1.00921">
        <ele>88.714</ele>
        <time>2012-06-24T07:53:12.302Z</time>
      </trkpt>
      <trkpt lat="49.35058" lon="1.00907">
        <ele>89.014</ele>
        <time>2012-06-24T07:53:16.435Z</time>
      </trkpt>
      <trkpt lat="49.3506" lon="1.00891">
        <ele>89.276</ele>
        <time>2012-06-24T07:53:20.521Z</time>
      </trkpt>
      <trkpt lat="49.3506" lon="1.00876">
        <ele>89.66</ele>
        <time>2012-06-24T07:53:24.301Z</time>
      </trkpt>
      <trkpt lat="49.35058" lon="1.00861">
        <ele>90.317</ele>
        <time>2012-06-24T07:53:28.003Z</time>
      </trkpt>
      <trkpt lat="49.35054" lon="1.00847">
        <ele>91.095</ele>
        <time>2012-06-24T07:53:31.874Z</time>
      </trkpt>
      <trkpt lat="49.35051" lon="1.00832">
        <ele>91.814</ele>
        <time>2012-06-24T07:53:35.996Z</time>
      </trkpt>
      <trkpt lat="49.35049" lon="1.00818">
        <ele>92.39</ele>
        <time>2012-06-24T07:53:39.985Z</time>
      </trkpt>
      <trkpt lat="49.35045" lon="1.00803">
        <ele>92.816</ele>
        <time>2012-06-24T07:53:44.092Z</time>
      </trkpt>
      <trkpt lat="49.3504" lon="1.0079">
        <ele>93.334</ele>
        <time>2012-06-24T07:53:48.322Z</time>
      </trkpt>
      <trkpt lat="49.35037" lon="1.00775">
        <ele>94.044</ele>
        <time>2012-06-24T07:53:53.038Z</time>
      </trkpt>
      <trkpt lat="49.35034" lon="1.00761">
        <ele>94.784</ele>
        <time>2012-06-24T07:53:57.749Z</time>
      </trkpt>
      <trkpt lat="49.35034" lon="1.00761">
        <ele>95.412</ele>
        <time>2012-06-24T07:53:58.749Z</time>
      </trkpt>
      <trkpt lat="49.35034" lon="1.00761">
        <ele>95.812</ele>
        <time>2012-06-24T07:54:22.745Z</time>
      </trkpt>
      <trkpt lat="49.35031" lon="1.00732">
        <ele>96.078</ele>
        <time>2012-06-24T07:54:22.745Z</time>
      </trkpt>
      <trkpt lat="49.35038" lon="1.00721">
        <ele>96.528</ele>
        <time>2012-06-24T07:54:29.114Z</time>
      </trkpt>
      <trkpt lat="49.35046" lon="1.0071">
        <ele>97.113</ele>
        <time>2012-06-24T07:54:33.466Z</time>
      </trkpt>
      <trkpt lat="49.35054" lon="1.00699">
        <ele>97.208</ele>
        <time>2012-06-24T07:54:36.692Z</time>
      </trkpt>
      <trkpt lat="49.35062" lon="1.00687">
        <ele>96.446</ele>
        <time>2012-06-24T07:54:39.921Z</time>
      </trkpt>
      <trkpt lat="49.3507" lon="1.00673">
        <ele>95.312</ele>
        <time>2012-06-24T07:54:43.233Z</time>
      </trkpt>
      <trkpt lat="49.35077" lon="1.00662">
        <ele>93.936</ele>
        <time>2012-06-24T07:54:45.751Z</time>
      </trkpt>
      <trkpt lat="49.35077" lon="1.00662">
        <ele>92.157</ele>
        <time>2012-06-24T07:54:46.752Z</time>
      </trkpt>
      <trkpt lat="49.35077" lon="1.00662">
        <ele>90.666</ele>
        <time>2012-06-24T07:54:51.735Z</time>
      </trkpt>
      <trkpt lat="49.35074" lon="1.00644">
        <ele>89.498</ele>
        <time>2012-06-24T07:54:51.735Z</time>
      </trkpt>
      <trkpt lat="49.35065" lon="1.00637">
        <ele>87.461</ele>
        <time>2012-06-24T07:54:55.363Z</time>
      </trkpt>
      <trkpt lat="49.35059" lon="1.00626">
        <ele>84.218</ele>
        <time>2012-06-24T07:54:58.941Z</time>
      </trkpt>
      <trkpt lat="49.35062" lon="1.0061">
        <ele>80.837</ele>
        <time>2012-06-24T07:55:03.503Z</time>
      </trkpt>
      <trkpt lat="49.35065" lon="1.00595">
        <ele>78.43</ele>
        <time>2012-06-24T07:55:08.394Z</time>
      </trkpt>
      <trkpt lat="49.35066" lon="1.00575">
        <ele>77.162</ele>
        <time>2012-06-24T07:55:13.319Z</time>
      </trkpt>
      <trkpt lat="49.35064" lon="1.00561">
        <ele>76.37</ele>
        <time>2012-06-24T07:55:16.226Z</time>
      </trkpt>
      <trkpt lat="49.35055" lon="1.00544">
        <ele>75.479</ele>
        <time>2012-06-24T07:55:20.300Z</time>
      </trkpt>
      <trkpt lat="49.35044" lon="1.00536">
        <ele>74.375</ele>
        <time>2012-06-24T07:55:23.586Z</time>
      </trkpt>
      <trkpt lat="49.35034" lon="1.00527">
        <ele>72.924</ele>
        <time>2012-06-24T07:55:26.558Z</time>
      </trkpt>
      <trkpt lat="49.35027" lon="1.00517">
        <ele>71.221</ele>
        <time>2012-06-24T07:55:29.134Z</time>
      </trkpt>
      <trkpt lat="49.35021" lon="1.00505">
        <ele>69.89</ele>
        <time>2012-06-24T07:55:31.492Z</time>
      </trkpt>
      <trkpt lat="49.35014" lon="1.00492">
        <ele>69.245</ele>
        <time>2012-06-24T07:55:34.319Z</time>
      </trkpt>
      <trkpt lat="49.35004" lon="1.00477">
        <ele>68.911</ele>
        <time>2012-06-24T07:55:37.462Z</time>
      </trkpt>
      <trkpt lat="49.34998" lon="1.00467">
        <ele>68.553</ele>
        <time>2012-06-24T07:55:39.548Z</time>
      </trkpt>
      <trkpt lat="49.34988" lon="1.00456">
        <ele>68.079</ele>
        <time>2012-06-24T07:55:42.260Z</time>
      </trkpt>
      <trkpt lat="49.34979" lon="1.00446">
        <ele>67.52</ele>
        <time>2012-06-24T07:55:44.971Z</time>
      </trkpt>
      <trkpt lat="49.34969" lon="1.00436">
        <ele>66.98</ele>
        <time>2012-06-24T07:55:47.863Z</time>
      </trkpt>
      <trkpt lat="49.3496" lon="1.00429">
        <ele>66.628</ele>
        <time>2012-06-24T07:55:50.442Z</time>
      </trkpt>
      <trkpt lat="49.3495" lon="1.00424">
        <ele>66.518</ele>
        <time>2012-06-24T07:55:53.438Z</time>
      </trkpt>
      <trkpt lat="49.34941" lon="1.00419">
        <ele>66.598</ele>
        <time>2012-06-24T07:55:56.000Z</time>
      </trkpt>
      <trkpt lat="49.34929" lon="1.00414">
        <ele>66.723</ele>
        <time>2012-06-24T07:55:59.250Z</time>
      </trkpt>
      <trkpt lat="49.34919" lon="1.00404">
        <ele>66.977</ele>
        <time>2012-06-24T07:56:02.469Z</time>
      </trkpt>
      <trkpt lat="49.34913" lon="1.00393">
        <ele>67.479</ele>
        <time>2012-06-24T07:56:05.347Z</time>
      </trkpt>
      <trkpt lat="49.34911" lon="1.00377">
        <ele>68.207</ele>
        <time>2012-06-24T07:56:08.485Z</time>
      </trkpt>
      <trkpt lat="49.34903" lon="1.00369">
        <ele>69.033</ele>
        <time>2012-06-24T07:56:11.457Z</time>
      </trkpt>
      <trkpt lat="49.34894" lon="1.00361">
        <ele>69.82</ele>
        <time>2012-06-24T07:56:14.698Z</time>
      </trkpt>
      <trkpt lat="49.34888" lon="1.0035">
        <ele>70.481</ele>
        <time>2012-06-24T07:56:17.749Z</time>
      </trkpt>
      <trkpt lat="49.34888" lon="1.0035">
        <ele>70.957</ele>
        <time>2012-06-24T07:56:23.753Z</time>
      </trkpt>
      <trkpt lat="49.34888" lon="1.0035">
        <ele>71.154</ele>
        <time>2012-06-24T07:56:27.751Z</time>
      </trkpt>
      <trkpt lat="49.34872" lon="1.00339">
        <ele>71.237</ele>
        <time>2012-06-24T07:56:27.751Z</time>
      </trkpt>
      <trkpt lat="49.34865" lon="1.0033">
        <ele>71.45</ele>
        <time>2012-06-24T07:56:31.090Z</time>
      </trkpt>
      <trkpt lat="49.34857" lon="1.00318">
        <ele>71.804</ele>
        <time>2012-06-24T07:56:34.673Z</time>
      </trkpt>
      <trkpt lat="49.3485" lon="1.00305">
        <ele>71.912</ele>
        <time>2012-06-24T07:56:37.720Z</time>
      </trkpt>
      <trkpt lat="49.34844" lon="1.00289">
        <ele>71.566</ele>
        <time>2012-06-24T07:56:40.761Z</time>
      </trkpt>
      <trkpt lat="49.34844" lon="1.00289">
        <ele>71.184</ele>
        <time>2012-06-24T07:56:40.761Z</time>
      </trkpt>
      <trkpt lat="49.34844" lon="1.00289">
        <ele>71.15</ele>
        <time>2012-06-24T07:56:44.755Z</time>
      </trkpt>
      <trkpt lat="49.34832" lon="1.00267">
        <ele>71.319</ele>
        <time>2012-06-24T07:56:44.755Z</time>
      </trkpt>
      <trkpt lat="49.3482" lon="1.0025">
        <ele>71.455</ele>
        <time>2012-06-24T07:56:48.714Z</time>
      </trkpt>
      <trkpt lat="49.34812" lon="1.00237">
        <ele>71.555</ele>
        <time>2012-06-24T07:56:51.444Z</time>
      </trkpt>
      <trkpt lat="49.34794" lon="1.00221">
        <ele>71.678</ele>
        <time>2012-06-24T07:56:55.747Z</time>
      </trkpt>
      <trkpt lat="49.34783" lon="1.00211">
        <ele>71.742</ele>
        <time>2012-06-24T07:56:58.256Z</time>
      </trkpt>
      <trkpt lat="49.34773" lon="1.002">
        <ele>71.616</ele>
        <time>2012-06-24T07:57:00.543Z</time>
      </trkpt>
      <trkpt lat="49.34764" lon="1.00187">
        <ele>71.18</ele>
        <time>2012-06-24T07:57:02.906Z</time>
      </trkpt>
      <trkpt lat="49.34755" lon="1.00163">
        <ele>70.363</ele>
        <time>2012-06-24T07:57:06.224Z</time>
      </trkpt>
      <trkpt lat="49.3475" lon="1.0014">
        <ele>69.333</ele>
        <time>2012-06-24T07:57:09.222Z</time>
      </trkpt>
      <trkpt lat="49.34748" lon="1.00124">
        <ele>68.204</ele>
        <time>2012-06-24T07:57:11.213Z</time>
      </trkpt>
      <trkpt lat="49.34743" lon="1.00102">
        <ele>67.066</ele>
        <time>2012-06-24T07:57:14.151Z</time>
      </trkpt>
      <trkpt lat="49.34737" lon="1.0009">
        <ele>66.272</ele>
        <time>2012-06-24T07:57:16.152Z</time>
      </trkpt>
      <trkpt lat="49.34731" lon="1.00079">
        <ele>65.999</ele>
        <time>2012-06-24T07:57:18.126Z</time>
      </trkpt>
      <trkpt lat="49.3472" lon="1.00067">
        <ele>66.054</ele>
        <time>2012-06-24T07:57:21.113Z</time>
      </trkpt>
      <trkpt lat="49.34708" lon="1.00059">
        <ele>66.288</ele>
        <time>2012-06-24T07:57:24.004Z</time>
      </trkpt>
      <trkpt lat="49.34697" lon="1.00047">
        <ele>66.588</ele>
        <time>2012-06-24T07:57:27.077Z</time>
      </trkpt>
      <trkpt lat="49.34687" lon="1.00036">
        <ele>67.279</ele>
        <time>2012-06-24T07:57:30.134Z</time>
      </trkpt>
      <trkpt lat="49.34677" lon="1.00042">
        <ele>68.665</ele>
        <time>2012-06-24T07:57:33.636Z</time>
      </trkpt>
      <trkpt lat="49.34669" lon="1.00051">
        <ele>70.171</ele>
        <time>2012-06-24T07:57:36.759Z</time>
      </trkpt>
      <trkpt lat="49.34669" lon="1.00051">
        <ele>71.076</ele>
        <time>2012-06-24T07:57:38.761Z</time>
      </trkpt>
      <trkpt lat="49.34669" lon="1.00051">
        <ele>71.374</ele>
        <time>2012-06-24T07:57:42.763Z</time>
      </trkpt>
      <trkpt lat="49.34669" lon="1.00051">
        <ele>71.319</ele>
        <time>2012-06-24T07:57:42.763Z</time>
      </trkpt>
      <trkpt lat="49.34659" lon="1.00057">
        <ele>71.152</ele>
        <time>2012-06-24T07:57:48.548Z</time>
      </trkpt>
      <trkpt lat="49.34649" lon="1.00061">
        <ele>71.31</ele>
        <time>2012-06-24T07:57:54.758Z</time>
      </trkpt>
      <trkpt lat="49.34649" lon="1.00061">
        <ele>71.755</ele>
        <time>2012-06-24T07:58:06.763Z</time>
      </trkpt>
      <trkpt lat="49.34649" lon="1.00061">
        <ele>71.858</ele>
        <time>2012-06-24T07:58:12.761Z</time>
      </trkpt>
      <trkpt lat="49.34636" lon="1.00064">
        <ele>71.613</ele>
        <time>2012-06-24T07:58:12.761Z</time>
      </trkpt>
      <trkpt lat="49.34626" lon="1.00065">
        <ele>73.69</ele>
        <time>2012-06-24T07:58:21.064Z</time>
      </trkpt>
      <trkpt lat="49.34618" lon="1.00059">
        <ele>79.449</ele>
        <time>2012-06-24T07:58:28.190Z</time>
      </trkpt>
      <trkpt lat="49.34611" lon="1.00049">
        <ele>85.946</ele>
        <time>2012-06-24T07:58:35.421Z</time>
      </trkpt>
      <trkpt lat="49.34601" lon="1.00045">
        <ele>90.235</ele>
        <time>2012-06-24T07:58:47.505Z</time>
      </trkpt>
      <trkpt lat="49.34593" lon="1.0004">
        <ele>92.216</ele>
        <time>2012-06-24T07:58:57.400Z</time>
      </trkpt>
      <trkpt lat="49.34585" lon="1.00031">
        <ele>92.681</ele>
        <time>2012-06-24T07:59:05.623Z</time>
      </trkpt>
      <trkpt lat="49.34576" lon="1.0002">
        <ele>93.013</ele>
        <time>2012-06-24T07:59:16.363Z</time>
      </trkpt>
      <trkpt lat="49.3457" lon="1.00007">
        <ele>93.815</ele>
        <time>2012-06-24T07:59:25.748Z</time>
      </trkpt>
      <trkpt lat="49.34564" lon="0.99996">
        <ele>94.624</ele>
        <time>2012-06-24T07:59:31.250Z</time>
      </trkpt>
      <trkpt lat="49.34555" lon="0.99988">
        <ele>94.943</ele>
        <time>2012-06-24T07:59:35.108Z</time>
      </trkpt>
      <trkpt lat="49.34547" lon="0.99979">
        <ele>94.889</ele>
        <time>2012-06-24T07:59:38.287Z</time>
      </trkpt>
      <trkpt lat="49.34532" lon="0.9997">
        <ele>94.868</ele>
        <time>2012-06-24T07:59:42.300Z</time>
      </trkpt>
      <trkpt lat="49.34522" lon="0.99958">
        <ele>95.055</ele>
        <time>2012-06-24T07:59:45.442Z</time>
      </trkpt>
      <trkpt lat="49.34514" lon="0.99949">
        <ele>95.177</ele>
        <time>2012-06-24T07:59:47.721Z</time>
      </trkpt>
      <trkpt lat="49.34507" lon="0.99935">
        <ele>94.74</ele>
        <time>2012-06-24T07:59:50.429Z</time>
      </trkpt>
      <trkpt lat="49.34495" lon="0.99909">
        <ele>93.413</ele>
        <time>2012-06-24T07:59:55.155Z</time>
      </trkpt>
      <trkpt lat="49.34486" lon="0.9989">
        <ele>91.451</ele>
        <time>2012-06-24T07:59:57.911Z</time>
      </trkpt>
      <trkpt lat="49.34469" lon="0.99862">
        <ele>89.242</ele>
        <time>2012-06-24T08:00:01.290Z</time>
      </trkpt>
      <trkpt lat="49.34459" lon="0.99849">
        <ele>86.774</ele>
        <time>2012-06-24T08:00:03.269Z</time>
      </trkpt>
      <trkpt lat="49.34451" lon="0.9984">
        <ele>84.183</ele>
        <time>2012-06-24T08:00:05.201Z</time>
      </trkpt>
      <trkpt lat="49.34444" lon="0.99822">
        <ele>81.96</ele>
        <time>2012-06-24T08:00:08.298Z</time>
      </trkpt>
      <trkpt lat="49.34438" lon="0.99804">
        <ele>80.428</ele>
        <time>2012-06-24T08:00:11.471Z</time>
      </trkpt>
      <trkpt lat="49.34435" lon="0.99785">
        <ele>79.507</ele>
        <time>2012-06-24T08:00:14.504Z</time>
      </trkpt>
      <trkpt lat="49.34432" lon="0.99768">
        <ele>78.916</ele>
        <time>2012-06-24T08:00:17.566Z</time>
      </trkpt>
      <trkpt lat="49.34428" lon="0.99751">
        <ele>78.442</ele>
        <time>2012-06-24T08:00:21.956Z</time>
      </trkpt>
      <trkpt lat="49.34423" lon="0.99739">
        <ele>78.01</ele>
        <time>2012-06-24T08:00:26.966Z</time>
      </trkpt>
      <trkpt lat="49.3442" lon="0.99725">
        <ele>77.686</ele>
        <time>2012-06-24T08:00:33.262Z</time>
      </trkpt>
      <trkpt lat="49.3442" lon="0.99725">
        <ele>77.563</ele>
        <time>2012-06-24T08:00:33.262Z</time>
      </trkpt>
      <trkpt lat="49.34415" lon="0.99713">
        <ele>77.565</ele>
        <time>2012-06-24T08:00:37.041Z</time>
      </trkpt>
      <trkpt lat="49.34413" lon="0.99699">
        <ele>77.606</ele>
        <time>2012-06-24T08:00:42.763Z</time>
      </trkpt>
      <trkpt lat="49.34413" lon="0.99699">
        <ele>77.635</ele>
        <time>2012-06-24T08:00:47.748Z</time>
      </trkpt>
      <trkpt lat="49.34413" lon="0.99699">
        <ele>77.638</ele>
        <time>2012-06-24T08:01:00.755Z</time>
      </trkpt>
      <trkpt lat="49.34403" lon="0.99681">
        <ele>77.972</ele>
        <time>2012-06-24T08:01:00.755Z</time>
      </trkpt>
      <trkpt lat="49.34402" lon="0.99666">
        <ele>79.078</ele>
        <time>2012-06-24T08:01:13.957Z</time>
      </trkpt>
      <trkpt lat="49.344" lon="0.99652">
        <ele>80.728</ele>
        <time>2012-06-24T08:01:21.511Z</time>
      </trkpt>
      <trkpt lat="49.34397" lon="0.99637">
        <ele>82.821</ele>
        <time>2012-06-24T08:01:28.079Z</time>
      </trkpt>
      <trkpt lat="49.34395" lon="0.9962">
        <ele>85.75</ele>
        <time>2012-06-24T08:01:32.876Z</time>
      </trkpt>
      <trkpt lat="49.34392" lon="0.99597">
        <ele>88.94</ele>
        <time>2012-06-24T08:01:37.017Z</time>
      </trkpt>
      <trkpt lat="49.34389" lon="0.99578">
        <ele>91.114</ele>
        <time>2012-06-24T08:01:40.199Z</time>
      </trkpt>
      <trkpt lat="49.34384" lon="0.99566">
        <ele>91.916</ele>
        <time>2012-06-24T08:01:42.448Z</time>
      </trkpt>
      <trkpt lat="49.34376" lon="0.99548">
        <ele>91.9</ele>
        <time>2012-06-24T08:01:46.073Z</time>
      </trkpt>
      <trkpt lat="49.34372" lon="0.99533">
        <ele>91.438</ele>
        <time>2012-06-24T08:01:49.041Z</time>
      </trkpt>
      <trkpt lat="49.3437" lon="0.9952">
        <ele>90.452</ele>
        <time>2012-06-24T08:01:52.069Z</time>
      </trkpt>
      <trkpt lat="49.34367" lon="0.99506">
        <ele>89.19</ele>
        <time>2012-06-24T08:01:55.910Z</time>
      </trkpt>
      <trkpt lat="49.34363" lon="0.99493">
        <ele>88.289</ele>
        <time>2012-06-24T08:02:00.623Z</time>
      </trkpt>
      <trkpt lat="49.34361" lon="0.99479">
        <ele>87.97</ele>
        <time>2012-06-24T08:02:05.988Z</time>
      </trkpt>
      <trkpt lat="49.34357" lon="0.99466">
        <ele>88.022</ele>
        <time>2012-06-24T08:02:11.968Z</time>
      </trkpt>
      <trkpt lat="49.34353" lon="0.99453">
        <ele>88.914</ele>
        <time>2012-06-24T08:02:18.482Z</time>
      </trkpt>
      <trkpt lat="49.34346" lon="0.99444">
        <ele>91.062</ele>
        <time>2012-06-24T08:02:25.971Z</time>
      </trkpt>
      <trkpt lat="49.34339" lon="0.99437">
        <ele>93.468</ele>
        <time>2012-06-24T08:02:33.686Z</time>
      </trkpt>
      <trkpt lat="49.34329" lon="0.99425">
        <ele>95.18</ele>
        <time>2012-06-24T08:02:44.772Z</time>
      </trkpt>
      <trkpt lat="49.34329" lon="0.99425">
        <ele>96.327</ele>
        <time>2012-06-24T08:02:50.754Z</time>
      </trkpt>
      <trkpt lat="49.34329" lon="0.99425">
        <ele>96.971</ele>
        <time>2012-06-24T08:03:00.762Z</time>
      </trkpt>
      <trkpt lat="49.34305" lon="0.99417">
        <ele>97.908</ele>
        <time>2012-06-24T08:03:00.762Z</time>
      </trkpt>
      <trkpt lat="49.34292" lon="0.99409">
        <ele>100.111</ele>
        <time>2012-06-24T08:03:05.158Z</time>
      </trkpt>
      <trkpt lat="49.34284" lon="0.99402">
        <ele>103.135</ele>
        <time>2012-06-24T08:03:07.638Z</time>
      </trkpt>
      <trkpt lat="49.34273" lon="0.99392">
        <ele>105.985</ele>
        <time>2012-06-24T08:03:10.425Z</time>
      </trkpt>
      <trkpt lat="49.34259" lon="0.99375">
        <ele>108.05</ele>
        <time>2012-06-24T08:03:14.190Z</time>
      </trkpt>
      <trkpt lat="49.34251" lon="0.99366">
        <ele>108.991</ele>
        <time>2012-06-24T08:03:16.503Z</time>
      </trkpt>
      <trkpt lat="49.34244" lon="0.99356">
        <ele>109.111</ele>
        <time>2012-06-24T08:03:18.850Z</time>
      </trkpt>
      <trkpt lat="49.34238" lon="0.99344">
        <ele>108.322</ele>
        <time>2012-06-24T08:03:21.536Z</time>
      </trkpt>
      <trkpt lat="49.34232" lon="0.9933">
        <ele>106.403</ele>
        <time>2012-06-24T08:03:25.318Z</time>
      </trkpt>
      <trkpt lat="49.34227" lon="0.99317">
        <ele>104.25</ele>
        <time>2012-06-24T08:03:29.487Z</time>
      </trkpt>
      <trkpt lat="49.34223" lon="0.99304">
        <ele>102.959</ele>
        <time>2012-06-24T08:03:33.773Z</time>
      </trkpt>
      <trkpt lat="49.34214" lon="0.99288">
        <ele>102.603</ele>
        <time>2012-06-24T08:03:43.269Z</time>
      </trkpt>
      <trkpt lat="49.34206" lon="0.99273">
        <ele>102.761</ele>
        <time>2012-06-24T08:03:52.999Z</time>
      </trkpt>
      <trkpt lat="49.34199" lon="0.9926">
        <ele>103.162</ele>
        <time>2012-06-24T08:04:06.544Z</time>
      </trkpt>
      <trkpt lat="49.34192" lon="0.99246">
        <ele>103.841</ele>
        <time>2012-06-24T08:04:19.625Z</time>
      </trkpt>
      <trkpt lat="49.34184" lon="0.99232">
        <ele>105.059</ele>
        <time>2012-06-24T08:04:32.697Z</time>
      </trkpt>
      <trkpt lat="49.34178" lon="0.99222">
        <ele>106.9</ele>
        <time>2012-06-24T08:04:46.185Z</time>
      </trkpt>
      <trkpt lat="49.34172" lon="0.99211">
        <ele>109.137</ele>
        <time>2012-06-24T08:04:59.428Z</time>
      </trkpt>
      <trkpt lat="49.34166" lon="0.99201">
        <ele>111.263</ele>
        <time>2012-06-24T08:05:13.237Z</time>
      </trkpt>
      <trkpt lat="49.3416" lon="0.9919">
        <ele>113.583</ele>
        <time>2012-06-24T08:05:27.103Z</time>
      </trkpt>
      <trkpt lat="49.34153" lon="0.99181">
        <ele>116.657</ele>
        <time>2012-06-24T08:05:41.447Z</time>
      </trkpt>
      <trkpt lat="49.34145" lon="0.99175">
        <ele>119.794</ele>
        <time>2012-06-24T08:05:54.702Z</time>
      </trkpt>
      <trkpt lat="49.34135" lon="0.99173">
        <ele>121.84</ele>
        <time>2012-06-24T08:06:07.393Z</time>
      </trkpt>
      <trkpt lat="49.34126" lon="0.99173">
        <ele>123.229</ele>
        <time>2012-06-24T08:06:19.973Z</time>
      </trkpt>
      <trkpt lat="49.34117" lon="0.99172">
        <ele>124.709</ele>
        <time>2012-06-24T08:06:31.854Z</time>
      </trkpt>
      <trkpt lat="49.34107" lon="0.99166">
        <ele>126.688</ele>
        <time>2012-06-24T08:06:42.601Z</time>
      </trkpt>
      <trkpt lat="49.34097" lon="0.9916">
        <ele>129.129</ele>
        <time>2012-06-24T08:06:52.983Z</time>
      </trkpt>
      <trkpt lat="49.34088" lon="0.99151">
        <ele>131.23</ele>
        <time>2012-06-24T08:07:00.584Z</time>
      </trkpt>
      <trkpt lat="49.3408" lon="0.99144">
        <ele>132.335</ele>
        <time>2012-06-24T08:07:05.341Z</time>
      </trkpt>
      <trkpt lat="49.34071" lon="0.99138">
        <ele>132.852</ele>
        <time>2012-06-24T08:07:09.761Z</time>
      </trkpt>
      <trkpt lat="49.34062" lon="0.99129">
        <ele>133.384</ele>
        <time>2012-06-24T08:07:14.297Z</time>
      </trkpt>
      <trkpt lat="49.34056" lon="0.99116">
        <ele>134.221</ele>
        <time>2012-06-24T08:07:18.672Z</time>
      </trkpt>
      <trkpt lat="49.34053" lon="0.99104">
        <ele>135.077</ele>
        <time>2012-06-24T08:07:22.693Z</time>
      </trkpt>
      <trkpt lat="49.34048" lon="0.99088">
        <ele>135.575</ele>
        <time>2012-06-24T08:07:27.261Z</time>
      </trkpt>
      <trkpt lat="49.34044" lon="0.99075">
        <ele>135.739</ele>
        <time>2012-06-24T08:07:30.704Z</time>
      </trkpt>
      <trkpt lat="49.34041" lon="0.9906">
        <ele>135.72</ele>
        <time>2012-06-24T08:07:34.599Z</time>
      </trkpt>
      <trkpt lat="49.34038" lon="0.99043">
        <ele>135.614</ele>
        <time>2012-06-24T08:07:38.722Z</time>
      </trkpt>
      <trkpt lat="49.34039" lon="0.99026">
        <ele>135.376</ele>
        <time>2012-06-24T08:07:43.019Z</time>
      </trkpt>
      <trkpt lat="49.34041" lon="0.99009">
        <ele>134.872</ele>
        <time>2012-06-24T08:07:46.938Z</time>
      </trkpt>
      <trkpt lat="49.34041" lon="0.98987">
        <ele>134.174</ele>
        <time>2012-06-24T08:07:51.296Z</time>
      </trkpt>
      <trkpt lat="49.3404" lon="0.98969">
        <ele>133.626</ele>
        <time>2012-06-24T08:07:54.868Z</time>
      </trkpt>
      <trkpt lat="49.34039" lon="0.98954">
        <ele>133.377</ele>
        <time>2012-06-24T08:07:57.926Z</time>
      </trkpt>
      <trkpt lat="49.34038" lon="0.98937">
        <ele>133.282</ele>
        <time>2012-06-24T08:08:01.640Z</time>
      </trkpt>
      <trkpt lat="49.34038" lon="0.9892">
        <ele>133.201</ele>
        <time>2012-06-24T08:08:05.611Z</time>
      </trkpt>
      <trkpt lat="49.34038" lon="0.98905">
        <ele>133.05</ele>
        <time>2012-06-24T08:08:09.667Z</time>
      </trkpt>
      <trkpt lat="49.34042" lon="0.98889">
        <ele>132.857</ele>
        <time>2012-06-24T08:08:14.254Z</time>
      </trkpt>
      <trkpt lat="49.34046" lon="0.98875">
        <ele>132.724</ele>
        <time>2012-06-24T08:08:17.927Z</time>
      </trkpt>
      <trkpt lat="49.34051" lon="0.98854">
        <ele>132.679</ele>
        <time>2012-06-24T08:08:22.318Z</time>
      </trkpt>
      <trkpt lat="49.34057" lon="0.98835">
        <ele>132.558</ele>
        <time>2012-06-24T08:08:25.848Z</time>
      </trkpt>
      <trkpt lat="49.3406" lon="0.9882">
        <ele>131.977</ele>
        <time>2012-06-24T08:08:28.269Z</time>
      </trkpt>
      <trkpt lat="49.34061" lon="0.98806">
        <ele>130.869</ele>
        <time>2012-06-24T08:08:30.523Z</time>
      </trkpt>
      <trkpt lat="49.34062" lon="0.98782">
        <ele>129.451</ele>
        <time>2012-06-24T08:08:34.256Z</time>
      </trkpt>
      <trkpt lat="49.3406" lon="0.98765">
        <ele>127.887</ele>
        <time>2012-06-24T08:08:37.243Z</time>
      </trkpt>
      <trkpt lat="49.34053" lon="0.9875">
        <ele>126.559</ele>
        <time>2012-06-24T08:08:40.081Z</time>
      </trkpt>
      <trkpt lat="49.34046" lon="0.98734">
        <ele>125.752</ele>
        <time>2012-06-24T08:08:43.299Z</time>
      </trkpt>
      <trkpt lat="49.34037" lon="0.98717">
        <ele>125.201</ele>
        <time>2012-06-24T08:08:46.804Z</time>
      </trkpt>
      <trkpt lat="49.34029" lon="0.98703">
        <ele>124.74</ele>
        <time>2012-06-24T08:08:50.032Z</time>
      </trkpt>
      <trkpt lat="49.34023" lon="0.98692">
        <ele>124.471</ele>
        <time>2012-06-24T08:08:52.785Z</time>
      </trkpt>
      <trkpt lat="49.34016" lon="0.98682">
        <ele>124.439</ele>
        <time>2012-06-24T08:08:55.777Z</time>
      </trkpt>
      <trkpt lat="49.3401" lon="0.98671">
        <ele>124.564</ele>
        <time>2012-06-24T08:08:58.838Z</time>
      </trkpt>
      <trkpt lat="49.34007" lon="0.98658">
        <ele>124.68</ele>
        <time>2012-06-24T08:09:01.656Z</time>
      </trkpt>
      <trkpt lat="49.34004" lon="0.98641">
        <ele>124.684</ele>
        <time>2012-06-24T08:09:04.822Z</time>
      </trkpt>
      <trkpt lat="49.34002" lon="0.98623">
        <ele>124.629</ele>
        <time>2012-06-24T08:09:07.956Z</time>
      </trkpt>
      <trkpt lat="49.34" lon="0.98609">
        <ele>124.434</ele>
        <time>2012-06-24T08:09:10.311Z</time>
      </trkpt>
      <trkpt lat="49.33994" lon="0.98588">
        <ele>123.822</ele>
        <time>2012-06-24T08:09:14.398Z</time>
      </trkpt>
      <trkpt lat="49.33989" lon="0.98571">
        <ele>122.444</ele>
        <time>2012-06-24T08:09:17.955Z</time>
      </trkpt>
      <trkpt lat="49.33986" lon="0.98557">
        <ele>120.141</ele>
        <time>2012-06-24T08:09:21.004Z</time>
      </trkpt>
      <trkpt lat="49.33985" lon="0.9854">
        <ele>117.605</ele>
        <time>2012-06-24T08:09:24.926Z</time>
      </trkpt>
      <trkpt lat="49.33985" lon="0.98522">
        <ele>115.951</ele>
        <time>2012-06-24T08:09:29.303Z</time>
      </trkpt>
      <trkpt lat="49.33987" lon="0.98507">
        <ele>115.43</ele>
        <time>2012-06-24T08:09:33.501Z</time>
      </trkpt>
      <trkpt lat="49.33991" lon="0.98492">
        <ele>115.832</ele>
        <time>2012-06-24T08:09:37.975Z</time>
      </trkpt>
      <trkpt lat="49.33995" lon="0.98477">
        <ele>116.906</ele>
        <time>2012-06-24T08:09:43.176Z</time>
      </trkpt>
      <trkpt lat="49.33999" lon="0.98464">
        <ele>118.058</ele>
        <time>2012-06-24T08:09:49.658Z</time>
      </trkpt>
      <trkpt lat="49.34004" lon="0.98451">
        <ele>119.118</ele>
        <time>2012-06-24T08:09:56.770Z</time>
      </trkpt>
      <trkpt lat="49.33995" lon="0.98454">
        <ele>120.438</ele>
        <time>2012-06-24T08:10:06.366Z</time>
      </trkpt>
      <trkpt lat="49.33989" lon="0.98442">
        <ele>121.909</ele>
        <time>2012-06-24T08:10:19.754Z</time>
      </trkpt>
      <trkpt lat="49.33983" lon="0.98432">
        <ele>123.339</ele>
        <time>2012-06-24T08:10:31.338Z</time>
      </trkpt>
      <trkpt lat="49.33977" lon="0.98421">
        <ele>125.085</ele>
        <time>2012-06-24T08:10:39.218Z</time>
      </trkpt>
      <trkpt lat="49.33967" lon="0.98419">
        <ele>127.296</ele>
        <time>2012-06-24T08:10:46.564Z</time>
      </trkpt>
      <trkpt lat="49.33957" lon="0.98415">
        <ele>129.32</ele>
        <time>2012-06-24T08:10:54.709Z</time>
      </trkpt>
      <trkpt lat="49.33947" lon="0.98406">
        <ele>130.468</ele>
        <time>2012-06-24T08:11:02.718Z</time>
      </trkpt>
      <trkpt lat="49.33946" lon="0.98392">
        <ele>130.776</ele>
        <time>2012-06-24T08:11:07.131Z</time>
      </trkpt>
      <trkpt lat="49.33946" lon="0.98377">
        <ele>130.66</ele>
        <time>2012-06-24T08:11:10.469Z</time>
      </trkpt>
      <trkpt lat="49.33945" lon="0.9836">
        <ele>130.294</ele>
        <time>2012-06-24T08:11:14.020Z</time>
      </trkpt>
      <trkpt lat="49.33943" lon="0.9834">
        <ele>129.725</ele>
        <time>2012-06-24T08:11:18.002Z</time>
      </trkpt>
      <trkpt lat="49.33941" lon="0.98326">
        <ele>129.094</ele>
        <time>2012-06-24T08:11:20.951Z</time>
      </trkpt>
      <trkpt lat="49.33939" lon="0.98312">
        <ele>128.387</ele>
        <time>2012-06-24T08:11:23.909Z</time>
      </trkpt>
      <trkpt lat="49.33937" lon="0.98294">
        <ele>127.407</ele>
        <time>2012-06-24T08:11:28.671Z</time>
      </trkpt>
      <trkpt lat="49.33935" lon="0.9828">
        <ele>126.243</ele>
        <time>2012-06-24T08:11:33.529Z</time>
      </trkpt>
      <trkpt lat="49.33931" lon="0.98267">
        <ele>125.304</ele>
        <time>2012-06-24T08:11:41.737Z</time>
      </trkpt>
      <trkpt lat="49.33923" lon="0.98271">
        <ele>124.856</ele>
        <time>2012-06-24T08:11:49.744Z</time>
      </trkpt>
      <trkpt lat="49.33923" lon="0.98271">
        <ele>124.75</ele>
        <time>2012-06-24T08:12:07.748Z</time>
      </trkpt>
      <trkpt lat="49.33923" lon="0.98271">
        <ele>124.72</ele>
        <time>2012-06-24T08:12:18.747Z</time>
      </trkpt>
      <trkpt lat="49.33915" lon="0.98253">
        <ele>124.665</ele>
        <time>2012-06-24T08:12:18.747Z</time>
      </trkpt>
      <trkpt lat="49.33917" lon="0.98235">
        <ele>124.633</ele>
        <time>2012-06-24T08:12:26.006Z</time>
      </trkpt>
      <trkpt lat="49.33916" lon="0.98218">
        <ele>124.985</ele>
        <time>2012-06-24T08:12:30.233Z</time>
      </trkpt>
      <trkpt lat="49.33917" lon="0.98201">
        <ele>125.893</ele>
        <time>2012-06-24T08:12:33.869Z</time>
      </trkpt>
      <trkpt lat="49.33918" lon="0.98185">
        <ele>126.789</ele>
        <time>2012-06-24T08:12:37.264Z</time>
      </trkpt>
      <trkpt lat="49.33918" lon="0.9817">
        <ele>127.379</ele>
        <time>2012-06-24T08:12:40.544Z</time>
      </trkpt>
      <trkpt lat="49.33915" lon="0.98152">
        <ele>127.997</ele>
        <time>2012-06-24T08:12:44.598Z</time>
      </trkpt>
      <trkpt lat="49.33911" lon="0.98139">
        <ele>128.667</ele>
        <time>2012-06-24T08:12:47.802Z</time>
      </trkpt>
      <trkpt lat="49.33904" lon="0.98129">
        <ele>129.279</ele>
        <time>2012-06-24T08:12:50.996Z</time>
      </trkpt>
      <trkpt lat="49.33902" lon="0.98113">
        <ele>131.072</ele>
        <time>2012-06-24T08:12:55.127Z</time>
      </trkpt>
      <trkpt lat="49.33905" lon="0.981">
        <ele>134.78</ele>
        <time>2012-06-24T08:12:59.301Z</time>
      </trkpt>
      <trkpt lat="49.33911" lon="0.9809">
        <ele>138.504</ele>
        <time>2012-06-24T08:13:03.869Z</time>
      </trkpt>
      <trkpt lat="49.3392" lon="0.98081">
        <ele>140.356</ele>
        <time>2012-06-24T08:13:08.756Z</time>
      </trkpt>
      <trkpt lat="49.33929" lon="0.98074">
        <ele>140.755</ele>
        <time>2012-06-24T08:13:12.207Z</time>
      </trkpt>
      <trkpt lat="49.33939" lon="0.98068">
        <ele>140.62</ele>
        <time>2012-06-24T08:13:15.583Z</time>
      </trkpt>
      <trkpt lat="49.33949" lon="0.98062">
        <ele>140.415</ele>
        <time>2012-06-24T08:13:18.730Z</time>
      </trkpt>
      <trkpt lat="49.33958" lon="0.98054">
        <ele>140.183</ele>
        <time>2012-06-24T08:13:21.672Z</time>
      </trkpt>
      <trkpt lat="49.33967" lon="0.98048">
        <ele>139.861</ele>
        <time>2012-06-24T08:13:24.331Z</time>
      </trkpt>
      <trkpt lat="49.33981" lon="0.98037">
        <ele>139.166</ele>
        <time>2012-06-24T08:13:28.137Z</time>
      </trkpt>
      <trkpt lat="49.33993" lon="0.9803">
        <ele>138.035</ele>
        <time>2012-06-24T08:13:31.138Z</time>
      </trkpt>
      <trkpt lat="49.34003" lon="0.98021">
        <ele>136.91</ele>
        <time>2012-06-24T08:13:33.652Z</time>
      </trkpt>
      <trkpt lat="49.34011" lon="0.98012">
        <ele>135.588</ele>
        <time>2012-06-24T08:13:36.277Z</time>
      </trkpt>
      <trkpt lat="49.34013" lon="0.97997">
        <ele>132.766</ele>
        <time>2012-06-24T08:13:39.210Z</time>
      </trkpt>
      <trkpt lat="49.34009" lon="0.97981">
        <ele>128.334</ele>
        <time>2012-06-24T08:13:42.861Z</time>
      </trkpt>
      <trkpt lat="49.34005" lon="0.97968">
        <ele>124.214</ele>
        <time>2012-06-24T08:13:46.692Z</time>
      </trkpt>
      <trkpt lat="49.33999" lon="0.97948">
        <ele>122.023</ele>
        <time>2012-06-24T08:13:51.430Z</time>
      </trkpt>
      <trkpt lat="49.33992" lon="0.97932">
        <ele>121.549</ele>
        <time>2012-06-24T08:13:54.746Z</time>
      </trkpt>
      <trkpt lat="49.33985" lon="0.97913">
        <ele>121.976</ele>
        <time>2012-06-24T08:13:58.315Z</time>
      </trkpt>
      <trkpt lat="49.3398" lon="0.97897">
        <ele>122.727</ele>
        <time>2012-06-24T08:14:00.915Z</time>
      </trkpt>
      <trkpt lat="49.33972" lon="0.97875">
        <ele>123.33</ele>
        <time>2012-06-24T08:14:04.542Z</time>
      </trkpt>
      <trkpt lat="49.33962" lon="0.97858">
        <ele>123.631</ele>
        <time>2012-06-24T08:14:07.775Z</time>
      </trkpt>
      <trkpt lat="49.33955" lon="0.97844">
        <ele>123.801</ele>
        <time>2012-06-24T08:14:10.491Z</time>
      </trkpt>
      <trkpt lat="49.3395" lon="0.97826">
        <ele>123.906</ele>
        <time>2012-06-24T08:14:13.609Z</time>
      </trkpt>
      <trkpt lat="49.33944" lon="0.97813">
        <ele>123.937</ele>
        <time>2012-06-24T08:14:16.188Z</time>
      </trkpt>
      <trkpt lat="49.33938" lon="0.97801">
        <ele>123.929</ele>
        <time>2012-06-24T08:14:19.152Z</time>
      </trkpt>
      <trkpt lat="49.33938" lon="0.97787">
        <ele>123.943</ele>
        <time>2012-06-24T08:14:22.180Z</time>
      </trkpt>
      <trkpt lat="49.33947" lon="0.97784">
        <ele>124.005</ele>
        <time>2012-06-24T08:14:26.432Z</time>
      </trkpt>
      <trkpt lat="49.33956" lon="0.97796">
        <ele>124.076</ele>
        <time>2012-06-24T08:14:32.841Z</time>
      </trkpt>
      <trkpt lat="49.33965" lon="0.97805">
        <ele>124.082</ele>
        <time>2012-06-24T08:14:39.060Z</time>
      </trkpt>
      <trkpt lat="49.3397" lon="0.97819">
        <ele>123.577</ele>
        <time>2012-06-24T08:14:43.327Z</time>
      </trkpt>
      <trkpt lat="49.33979" lon="0.97831">
        <ele>121.557</ele>
        <time>2012-06-24T08:14:47.757Z</time>
      </trkpt>
      <trkpt lat="49.33987" lon="0.97838">
        <ele>118.214</ele>
        <time>2012-06-24T08:14:51.019Z</time>
      </trkpt>
      <trkpt lat="49.33998" lon="0.97849">
        <ele>115.388</ele>
        <time>2012-06-24T08:14:55.319Z</time>
      </trkpt>
      <trkpt lat="49.34007" lon="0.97859">
        <ele>113.844</ele>
        <time>2012-06-24T08:14:58.528Z</time>
      </trkpt>
      <trkpt lat="49.34018" lon="0.97869">
        <ele>112.745</ele>
        <time>2012-06-24T08:15:01.774Z</time>
      </trkpt>
      <trkpt lat="49.34033" lon="0.97884">
        <ele>111.683</ele>
        <time>2012-06-24T08:15:05.838Z</time>
      </trkpt>
      <trkpt lat="49.34045" lon="0.97894">
        <ele>110.899</ele>
        <time>2012-06-24T08:15:08.630Z</time>
      </trkpt>
      <trkpt lat="49.34058" lon="0.9791">
        <ele>110.314</ele>
        <time>2012-06-24T08:15:12.101Z</time>
      </trkpt>
      <trkpt lat="49.34067" lon="0.9792">
        <ele>109.595</ele>
        <time>2012-06-24T08:15:14.234Z</time>
      </trkpt>
      <trkpt lat="49.34075" lon="0.97932">
        <ele>108.411</ele>
        <time>2012-06-24T08:15:16.714Z</time>
      </trkpt>
      <trkpt lat="49.34084" lon="0.97947">
        <ele>106.445</ele>
        <time>2012-06-24T08:15:19.733Z</time>
      </trkpt>
      <trkpt lat="49.3409" lon="0.9796">
        <ele>103.837</ele>
        <time>2012-06-24T08:15:22.227Z</time>
      </trkpt>
      <trkpt lat="49.34093" lon="0.97975">
        <ele>101.447</ele>
        <time>2012-06-24T08:15:24.977Z</time>
      </trkpt>
      <trkpt lat="49.34093" lon="0.97991">
        <ele>99.151</ele>
        <time>2012-06-24T08:15:27.893Z</time>
      </trkpt>
      <trkpt lat="49.34093" lon="0.98006">
        <ele>96.302</ele>
        <time>2012-06-24T08:15:30.400Z</time>
      </trkpt>
      <trkpt lat="49.34093" lon="0.98023">
        <ele>93.654</ele>
        <time>2012-06-24T08:15:33.312Z</time>
      </trkpt>
      <trkpt lat="49.34094" lon="0.98041">
        <ele>92.109</ele>
        <time>2012-06-24T08:15:36.222Z</time>
      </trkpt>
      <trkpt lat="49.34097" lon="0.98061">
        <ele>91.361</ele>
        <time>2012-06-24T08:15:39.359Z</time>
      </trkpt>
      <trkpt lat="49.34097" lon="0.98078">
        <ele>90.98</ele>
        <time>2012-06-24T08:15:42.244Z</time>
      </trkpt>
      <trkpt lat="49.34098" lon="0.98092">
        <ele>90.114</ele>
        <time>2012-06-24T08:15:44.767Z</time>
      </trkpt>
      <trkpt lat="49.34098" lon="0.98092">
        <ele>88.316</ele>
        <time>2012-06-24T08:15:49.767Z</time>
      </trkpt>
      <trkpt lat="49.34098" lon="0.98092">
        <ele>86.581</ele>
        <time>2012-06-24T08:15:53.759Z</time>
      </trkpt>
      <trkpt lat="49.34111" lon="0.98091">
        <ele>85.528</ele>
        <time>2012-06-24T08:15:53.759Z</time>
      </trkpt>
      <trkpt lat="49.34118" lon="0.98077">
        <ele>84.348</ele>
        <time>2012-06-24T08:15:58.707Z</time>
      </trkpt>
      <trkpt lat="49.34125" lon="0.98066">
        <ele>82.51</ele>
        <time>2012-06-24T08:16:01.941Z</time>
      </trkpt>
      <trkpt lat="49.34131" lon="0.98052">
        <ele>79.573</ele>
        <time>2012-06-24T08:16:05.568Z</time>
      </trkpt>
      <trkpt lat="49.34131" lon="0.98052">
        <ele>75.741</ele>
        <time>2012-06-24T08:16:02.764Z</time>
      </trkpt>
      <trkpt lat="49.34132" lon="0.98038">
        <ele>72.642</ele>
        <time>2012-06-24T08:16:08.301Z</time>
      </trkpt>
      <trkpt lat="49.34131" lon="0.98024">
        <ele>70.729</ele>
        <time>2012-06-24T08:16:11.017Z</time>
      </trkpt>
      <trkpt lat="49.34133" lon="0.98007">
        <ele>68.839</ele>
        <time>2012-06-24T08:16:14.167Z</time>
      </trkpt>
      <trkpt lat="49.34134" lon="0.97993">
        <ele>67.048</ele>
        <time>2012-06-24T08:16:17.030Z</time>
      </trkpt>
      <trkpt lat="49.3413" lon="0.97978">
        <ele>65.866</ele>
        <time>2012-06-24T08:16:20.102Z</time>
      </trkpt>
      <trkpt lat="49.34126" lon="0.97963">
        <ele>65.093</ele>
        <time>2012-06-24T08:16:23.447Z</time>
      </trkpt>
      <trkpt lat="49.34119" lon="0.97945">
        <ele>64.636</ele>
        <time>2012-06-24T08:16:27.547Z</time>
      </trkpt>
      <trkpt lat="49.34111" lon="0.97932">
        <ele>64.512</ele>
        <time>2012-06-24T08:16:31.073Z</time>
      </trkpt>
      <trkpt lat="49.34104" lon="0.97923">
        <ele>64.55</ele>
        <time>2012-06-24T08:16:34.655Z</time>
      </trkpt>
      <trkpt lat="49.34101" lon="0.97908">
        <ele>64.482</ele>
        <time>2012-06-24T08:16:38.766Z</time>
      </trkpt>
      <trkpt lat="49.34101" lon="0.97908">
        <ele>64.179</ele>
        <time>2012-06-24T08:16:48.763Z</time>
      </trkpt>
      <trkpt lat="49.34101" lon="0.97908">
        <ele>63.894</ele>
        <time>2012-06-24T08:20:57.773Z</time>
      </trkpt>
      <trkpt lat="49.34101" lon="0.97892">
        <ele>63.61</ele>
        <time>2012-06-24T08:20:57.773Z</time>
      </trkpt>
      <trkpt lat="49.34101" lon="0.97892">
        <ele>63.052</ele>
        <time>2012-06-24T08:21:06.769Z</time>
      </trkpt>
      <trkpt lat="49.34101" lon="0.97892">
        <ele>62.558</ele>
        <time>2012-06-24T08:21:43.768Z</time>
      </trkpt>
      <trkpt lat="49.34101" lon="0.97892">
        <ele>62.538</ele>
        <time>2012-06-24T08:23:16.767Z</time>
      </trkpt>
      <trkpt lat="49.34101" lon="0.97892">
        <ele>62.768</ele>
        <time>2012-06-24T08:23:16.767Z</time>
      </trkpt>
      <trkpt lat="49.34091" lon="0.97894">
        <ele>62.878</ele>
        <time>2012-06-24T08:23:25.632Z</time>
      </trkpt>
      <trkpt lat="49.3408" lon="0.97886">
        <ele>62.769</ele>
        <time>2012-06-24T08:23:29.975Z</time>
      </trkpt>
      <trkpt lat="49.34069" lon="0.97875">
        <ele>62.587</ele>
        <time>2012-06-24T08:23:33.446Z</time>
      </trkpt>
      <trkpt lat="49.3406" lon="0.97865">
        <ele>61.986</ele>
        <time>2012-06-24T08:23:36.281Z</time>
      </trkpt>
      <trkpt lat="49.34051" lon="0.97859">
        <ele>60.613</ele>
        <time>2012-06-24T08:23:39.146Z</time>
      </trkpt>
      <trkpt lat="49.34044" lon="0.9785">
        <ele>59.152</ele>
        <time>2012-06-24T08:23:41.700Z</time>
      </trkpt>
      <trkpt lat="49.34036" lon="0.97842">
        <ele>58.388</ele>
        <time>2012-06-24T08:23:44.329Z</time>
      </trkpt>
      <trkpt lat="49.34026" lon="0.97833">
        <ele>58.281</ele>
        <time>2012-06-24T08:23:47.640Z</time>
      </trkpt>
      <trkpt lat="49.34018" lon="0.97828">
        <ele>58.519</ele>
        <time>2012-06-24T08:23:50.504Z</time>
      </trkpt>
      <trkpt lat="49.34011" lon="0.97818">
        <ele>58.939</ele>
        <time>2012-06-24T08:23:53.968Z</time>
      </trkpt>
      <trkpt lat="49.34001" lon="0.97813">
        <ele>59.469</ele>
        <time>2012-06-24T08:23:57.880Z</time>
      </trkpt>
      <trkpt lat="49.33992" lon="0.97806">
        <ele>59.969</ele>
        <time>2012-06-24T08:24:02.759Z</time>
      </trkpt>
      <trkpt lat="49.33992" lon="0.97806">
        <ele>60.326</ele>
        <time>2012-06-24T08:24:08.757Z</time>
      </trkpt>
      <trkpt lat="49.33992" lon="0.97806">
        <ele>60.523</ele>
        <time>2012-06-24T08:24:34.801Z</time>
      </trkpt>
      <trkpt lat="49.33562" lon="0.97481">
        <ele>60.569</ele>
        <time>2012-06-24T08:27:32.962Z</time>
      </trkpt>
      <trkpt lat="49.33552" lon="0.97475">
        <ele>60.613</ele>
        <time>2012-06-24T08:27:36.210Z</time>
      </trkpt>
      <trkpt lat="49.33542" lon="0.97469">
        <ele>60.754</ele>
        <time>2012-06-24T08:27:38.779Z</time>
      </trkpt>
      <trkpt lat="49.33532" lon="0.97464">
        <ele>62.165</ele>
        <time>2012-06-24T08:27:40.851Z</time>
      </trkpt>
      <trkpt lat="49.3352" lon="0.97456">
        <ele>66.194</ele>
        <time>2012-06-24T08:27:43.687Z</time>
      </trkpt>
      <trkpt lat="49.33509" lon="0.97448">
        <ele>71.752</ele>
        <time>2012-06-24T08:27:46.337Z</time>
      </trkpt>
      <trkpt lat="49.335" lon="0.97442">
        <ele>76.444</ele>
        <time>2012-06-24T08:27:48.681Z</time>
      </trkpt>
      <trkpt lat="49.33492" lon="0.97434">
        <ele>79.582</ele>
        <time>2012-06-24T08:27:51.056Z</time>
      </trkpt>
      <trkpt lat="49.33482" lon="0.97427">
        <ele>81.629</ele>
        <time>2012-06-24T08:27:53.122Z</time>
      </trkpt>
      <trkpt lat="49.33474" lon="0.9742">
        <ele>82.85</ele>
        <time>2012-06-24T08:27:54.926Z</time>
      </trkpt>
      <trkpt lat="49.33467" lon="0.9741">
        <ele>83.295</ele>
        <time>2012-06-24T08:27:56.768Z</time>
      </trkpt>
      <trkpt lat="49.33461" lon="0.97398">
        <ele>82.803</ele>
        <time>2012-06-24T08:27:58.356Z</time>
      </trkpt>
      <trkpt lat="49.33453" lon="0.97387">
        <ele>81.311</ele>
        <time>2012-06-24T08:28:00.242Z</time>
      </trkpt>
      <trkpt lat="49.33445" lon="0.97374">
        <ele>78.997</ele>
        <time>2012-06-24T08:28:02.062Z</time>
      </trkpt>
      <trkpt lat="49.33439" lon="0.97364">
        <ele>75.454</ele>
        <time>2012-06-24T08:28:03.634Z</time>
      </trkpt>
      <trkpt lat="49.3343" lon="0.97352">
        <ele>70.811</ele>
        <time>2012-06-24T08:28:05.656Z</time>
      </trkpt>
      <trkpt lat="49.33422" lon="0.97344">
        <ele>66.847</ele>
        <time>2012-06-24T08:28:07.399Z</time>
      </trkpt>
      <trkpt lat="49.33412" lon="0.97348">
        <ele>64.854</ele>
        <time>2012-06-24T08:28:09.190Z</time>
      </trkpt>
      <trkpt lat="49.33404" lon="0.97356">
        <ele>64.396</ele>
        <time>2012-06-24T08:28:10.961Z</time>
      </trkpt>
      <trkpt lat="49.334" lon="0.97371">
        <ele>64.492</ele>
        <time>2012-06-24T08:28:12.844Z</time>
      </trkpt>
      <trkpt lat="49.33399" lon="0.97389">
        <ele>64.499</ele>
        <time>2012-06-24T08:28:15.246Z</time>
      </trkpt>
      <trkpt lat="49.33398" lon="0.97405">
        <ele>64.07</ele>
        <time>2012-06-24T08:28:17.369Z</time>
      </trkpt>
      <trkpt lat="49.33394" lon="0.97419">
        <ele>63.248</ele>
        <time>2012-06-24T08:28:19.339Z</time>
      </trkpt>
      <trkpt lat="49.33384" lon="0.9742">
        <ele>62.255</ele>
        <time>2012-06-24T08:28:21.217Z</time>
      </trkpt>
      <trkpt lat="49.33374" lon="0.97422">
        <ele>61.253</ele>
        <time>2012-06-24T08:28:23.306Z</time>
      </trkpt>
      <trkpt lat="49.33365" lon="0.97412">
        <ele>60.54</ele>
        <time>2012-06-24T08:28:25.738Z</time>
      </trkpt>
      <trkpt lat="49.33365" lon="0.97412">
        <ele>60.302</ele>
        <time>2012-06-24T08:27:50.749Z</time>
      </trkpt>
      <trkpt lat="49.33354" lon="0.97401">
        <ele>60.326</ele>
        <time>2012-06-24T08:28:28.035Z</time>
      </trkpt>
      <trkpt lat="49.33346" lon="0.97394">
        <ele>60.392</ele>
        <time>2012-06-24T08:28:29.568Z</time>
      </trkpt>
      <trkpt lat="49.33338" lon="0.97381">
        <ele>60.443</ele>
        <time>2012-06-24T08:28:31.392Z</time>
      </trkpt>
      <trkpt lat="49.3333" lon="0.97374">
        <ele>60.548</ele>
        <time>2012-06-24T08:28:32.890Z</time>
      </trkpt>
      <trkpt lat="49.33317" lon="0.97368">
        <ele>61.091</ele>
        <time>2012-06-24T08:28:35.063Z</time>
      </trkpt>
      <trkpt lat="49.33305" lon="0.97368">
        <ele>62.262</ele>
        <time>2012-06-24T08:28:37.135Z</time>
      </trkpt>
      <trkpt lat="49.33295" lon="0.97367">
        <ele>63.489</ele>
        <time>2012-06-24T08:28:38.884Z</time>
      </trkpt>
      <trkpt lat="49.33283" lon="0.97367">
        <ele>64.166</ele>
        <time>2012-06-24T08:28:41.289Z</time>
      </trkpt>
      <trkpt lat="49.33273" lon="0.9737">
        <ele>64.325</ele>
        <time>2012-06-24T08:28:43.389Z</time>
      </trkpt>
      <trkpt lat="49.33263" lon="0.97374">
        <ele>63.136</ele>
        <time>2012-06-24T08:28:45.792Z</time>
      </trkpt>
      <trkpt lat="49.33263" lon="0.97374">
        <ele>60.129</ele>
        <time>2012-06-24T08:28:22.758Z</time>
      </trkpt>
      <trkpt lat="49.33254" lon="0.97382">
        <ele>56.246</ele>
        <time>2012-06-24T08:28:48.605Z</time>
      </trkpt>
      <trkpt lat="49.33241" lon="0.97394">
        <ele>52.099</ele>
        <time>2012-06-24T08:28:53.855Z</time>
      </trkpt>
      <trkpt lat="49.33225" lon="0.974">
        <ele>48.047</ele>
        <time>2012-06-24T08:28:59.325Z</time>
      </trkpt>
      <trkpt lat="49.33217" lon="0.97405">
        <ele>45.104</ele>
        <time>2012-06-24T08:29:03.154Z</time>
      </trkpt>
      <trkpt lat="49.33208" lon="0.97411">
        <ele>43.371</ele>
        <time>2012-06-24T08:29:05.784Z</time>
      </trkpt>
      <trkpt lat="49.33195" lon="0.97415">
        <ele>42.576</ele>
        <time>2012-06-24T08:29:08.911Z</time>
      </trkpt>
      <trkpt lat="49.33184" lon="0.9742">
        <ele>41.926</ele>
        <time>2012-06-24T08:29:11.438Z</time>
      </trkpt>
      <trkpt lat="49.33187" lon="0.97405">
        <ele>40.606</ele>
        <time>2012-06-24T08:29:13.454Z</time>
      </trkpt>
      <trkpt lat="49.33194" lon="0.97398">
        <ele>39.133</ele>
        <time>2012-06-24T08:29:15.202Z</time>
      </trkpt>
      <trkpt lat="49.33203" lon="0.97385">
        <ele>39.067</ele>
        <time>2012-06-24T08:29:17.432Z</time>
      </trkpt>
      <trkpt lat="49.33212" lon="0.97374">
        <ele>40.776</ele>
        <time>2012-06-24T08:29:19.495Z</time>
      </trkpt>
      <trkpt lat="49.33223" lon="0.97367">
        <ele>43.179</ele>
        <time>2012-06-24T08:29:21.765Z</time>
      </trkpt>
      <trkpt lat="49.33232" lon="0.97359">
        <ele>45.327</ele>
        <time>2012-06-24T08:29:23.678Z</time>
      </trkpt>
      <trkpt lat="49.33242" lon="0.97351">
        <ele>47.351</ele>
        <time>2012-06-24T08:29:25.821Z</time>
      </trkpt>
      <trkpt lat="49.3325" lon="0.97343">
        <ele>49.426</ele>
        <time>2012-06-24T08:29:27.775Z</time>
      </trkpt>
      <trkpt lat="49.33259" lon="0.97337">
        <ele>51.442</ele>
        <time>2012-06-24T08:29:29.772Z</time>
      </trkpt>
      <trkpt lat="49.33259" lon="0.97337">
        <ele>53.023</ele>
        <time>2012-06-24T08:29:40.749Z</time>
      </trkpt>
      <trkpt lat="49.33259" lon="0.97337">
        <ele>53.854</ele>
        <time>2012-06-24T08:29:53.760Z</time>
      </trkpt>
      <trkpt lat="49.33259" lon="0.97337">
        <ele>54.035</ele>
        <time>2012-06-24T08:30:22.749Z</time>
      </trkpt>
      <trkpt lat="49.33309" lon="0.97222">
        <ele>53.949</ele>
        <time>2012-06-24T08:30:22.749Z</time>
      </trkpt>
      <trkpt lat="49.33319" lon="0.97219">
        <ele>53.726</ele>
        <time>2012-06-24T08:30:28.916Z</time>
      </trkpt>
      <trkpt lat="49.33326" lon="0.97227">
        <ele>53.152</ele>
        <time>2012-06-24T08:30:34.457Z</time>
      </trkpt>
      <trkpt lat="49.33336" lon="0.97227">
        <ele>51.755</ele>
        <time>2012-06-24T08:30:40.041Z</time>
      </trkpt>
      <trkpt lat="49.33345" lon="0.97228">
        <ele>49.707</ele>
        <time>2012-06-24T08:30:44.474Z</time>
      </trkpt>
      <trkpt lat="49.33356" lon="0.97229">
        <ele>48.057</ele>
        <time>2012-06-24T08:30:49.714Z</time>
      </trkpt>
      <trkpt lat="49.33365" lon="0.97224">
        <ele>47.399</ele>
        <time>2012-06-24T08:30:54.296Z</time>
      </trkpt>
      <trkpt lat="49.33373" lon="0.97214">
        <ele>47.624</ele>
        <time>2012-06-24T08:30:59.441Z</time>
      </trkpt>
      <trkpt lat="49.33383" lon="0.97205">
        <ele>48.442</ele>
        <time>2012-06-24T08:31:04.062Z</time>
      </trkpt>
      <trkpt lat="49.33393" lon="0.97202">
        <ele>49.242</ele>
        <time>2012-06-24T08:31:07.592Z</time>
      </trkpt>
      <trkpt lat="49.33403" lon="0.97195">
        <ele>49.611</ele>
        <time>2012-06-24T08:31:11.018Z</time>
      </trkpt>
      <trkpt lat="49.33406" lon="0.9718">
        <ele>49.521</ele>
        <time>2012-06-24T08:31:14.441Z</time>
      </trkpt>
      <trkpt lat="49.33412" lon="0.97165">
        <ele>48.67</ele>
        <time>2012-06-24T08:31:18.981Z</time>
      </trkpt>
      <trkpt lat="49.33421" lon="0.97158">
        <ele>47.138</ele>
        <time>2012-06-24T08:31:23.063Z</time>
      </trkpt>
      <trkpt lat="49.33428" lon="0.97147">
        <ele>45.809</ele>
        <time>2012-06-24T08:31:27.220Z</time>
      </trkpt>
      <trkpt lat="49.33436" lon="0.97136">
        <ele>45.246</ele>
        <time>2012-06-24T08:31:31.945Z</time>
      </trkpt>
      <trkpt lat="49.33439" lon="0.97118">
        <ele>45.709</ele>
        <time>2012-06-24T08:31:36.463Z</time>
      </trkpt>
      <trkpt lat="49.33444" lon="0.97102">
        <ele>48.702</ele>
        <time>2012-06-24T08:31:40.160Z</time>
      </trkpt>
      <trkpt lat="49.33443" lon="0.97085">
        <ele>54.191</ele>
        <time>2012-06-24T08:31:43.398Z</time>
      </trkpt>
      <trkpt lat="49.3344" lon="0.97072">
        <ele>59.01</ele>
        <time>2012-06-24T08:31:46.164Z</time>
      </trkpt>
      <trkpt lat="49.33445" lon="0.97058">
        <ele>61.111</ele>
        <time>2012-06-24T08:31:49.311Z</time>
      </trkpt>
      <trkpt lat="49.33455" lon="0.97054">
        <ele>61.352</ele>
        <time>2012-06-24T08:31:52.842Z</time>
      </trkpt>
      <trkpt lat="49.33463" lon="0.9705">
        <ele>60.563</ele>
        <time>2012-06-24T08:31:56.224Z</time>
      </trkpt>
      <trkpt lat="49.33471" lon="0.97036">
        <ele>59.194</ele>
        <time>2012-06-24T08:32:00.919Z</time>
      </trkpt>
      <trkpt lat="49.33481" lon="0.97026">
        <ele>57.299</ele>
        <time>2012-06-24T08:32:05.243Z</time>
      </trkpt>
      <trkpt lat="49.33489" lon="0.97016">
        <ele>54.792</ele>
        <time>2012-06-24T08:32:08.866Z</time>
      </trkpt>
      <trkpt lat="49.33495" lon="0.97002">
        <ele>52.44</ele>
        <time>2012-06-24T08:32:12.860Z</time>
      </trkpt>
      <trkpt lat="49.33499" lon="0.96989">
        <ele>51.151</ele>
        <time>2012-06-24T08:32:16.527Z</time>
      </trkpt>
      <trkpt lat="49.33504" lon="0.96975">
        <ele>50.025</ele>
        <time>2012-06-24T08:32:20.779Z</time>
      </trkpt>
      <trkpt lat="49.33508" lon="0.96962">
        <ele>48.143</ele>
        <time>2012-06-24T08:32:24.293Z</time>
      </trkpt>
      <trkpt lat="49.33513" lon="0.96947">
        <ele>46.322</ele>
        <time>2012-06-24T08:32:28.766Z</time>
      </trkpt>
      <trkpt lat="49.33513" lon="0.96947">
        <ele>45.562</ele>
        <time>2012-06-24T08:32:28.766Z</time>
      </trkpt>
      <trkpt lat="49.33513" lon="0.96947">
        <ele>45.648</ele>
        <time>2012-06-24T08:32:33.772Z</time>
      </trkpt>
      <trkpt lat="49.3352" lon="0.96928">
        <ele>46.003</ele>
        <time>2012-06-24T08:32:33.772Z</time>
      </trkpt>
      <trkpt lat="49.33522" lon="0.96914">
        <ele>47.284</ele>
        <time>2012-06-24T08:32:38.360Z</time>
      </trkpt>
      <trkpt lat="49.33528" lon="0.969">
        <ele>50.787</ele>
        <time>2012-06-24T08:32:43.379Z</time>
      </trkpt>
      <trkpt lat="49.33533" lon="0.96887">
        <ele>55.421</ele>
        <time>2012-06-24T08:32:47.839Z</time>
      </trkpt>
      <trkpt lat="49.33536" lon="0.96871">
        <ele>58.287</ele>
        <time>2012-06-24T08:32:53.621Z</time>
      </trkpt>
      <trkpt lat="49.33538" lon="0.96857">
        <ele>58.643</ele>
        <time>2012-06-24T08:32:58.893Z</time>
      </trkpt>
      <trkpt lat="49.3354" lon="0.96844">
        <ele>58.223</ele>
        <time>2012-06-24T08:33:04.494Z</time>
      </trkpt>
      <trkpt lat="49.33542" lon="0.96828">
        <ele>58.304</ele>
        <time>2012-06-24T08:33:10.994Z</time>
      </trkpt>
      <trkpt lat="49.33548" lon="0.96813">
        <ele>58.674</ele>
        <time>2012-06-24T08:33:17.810Z</time>
      </trkpt>
      <trkpt lat="49.33548" lon="0.96813">
        <ele>58.88</ele>
        <time>2012-06-24T08:33:17.810Z</time>
      </trkpt>
      <trkpt lat="49.33554" lon="0.96803">
        <ele>59.287</ele>
        <time>2012-06-24T08:33:21.973Z</time>
      </trkpt>
      <trkpt lat="49.3356" lon="0.96791">
        <ele>60.554</ele>
        <time>2012-06-24T08:33:26.906Z</time>
      </trkpt>
      <trkpt lat="49.33564" lon="0.96778">
        <ele>62.334</ele>
        <time>2012-06-24T08:33:32.775Z</time>
      </trkpt>
      <trkpt lat="49.33568" lon="0.96764">
        <ele>63.876</ele>
        <time>2012-06-24T08:33:38.501Z</time>
      </trkpt>
      <trkpt lat="49.33568" lon="0.96764">
        <ele>65.019</ele>
        <time>2012-06-24T08:33:38.501Z</time>
      </trkpt>
      <trkpt lat="49.33569" lon="0.9675">
        <ele>65.966</ele>
        <time>2012-06-24T08:33:44.024Z</time>
      </trkpt>
      <trkpt lat="49.33573" lon="0.96734">
        <ele>67.693</ele>
        <time>2012-06-24T08:33:51.406Z</time>
      </trkpt>
      <trkpt lat="49.33573" lon="0.96718">
        <ele>70.964</ele>
        <time>2012-06-24T08:33:58.278Z</time>
      </trkpt>
      <trkpt lat="49.33576" lon="0.96705">
        <ele>74.621</ele>
        <time>2012-06-24T08:34:03.370Z</time>
      </trkpt>
      <trkpt lat="49.33577" lon="0.96689">
        <ele>77.139</ele>
        <time>2012-06-24T08:34:08.375Z</time>
      </trkpt>
      <trkpt lat="49.33578" lon="0.96673">
        <ele>78.354</ele>
        <time>2012-06-24T08:34:13.658Z</time>
      </trkpt>
      <trkpt lat="49.33582" lon="0.96658">
        <ele>78.86</ele>
        <time>2012-06-24T08:34:19.772Z</time>
      </trkpt>
      <trkpt lat="49.33584" lon="0.96644">
        <ele>79.195</ele>
        <time>2012-06-24T08:34:25.320Z</time>
      </trkpt>
      <trkpt lat="49.33587" lon="0.9663">
        <ele>79.529</ele>
        <time>2012-06-24T08:34:30.752Z</time>
      </trkpt>
      <trkpt lat="49.33587" lon="0.9663">
        <ele>79.735</ele>
        <time>2012-06-24T08:34:33.755Z</time>
      </trkpt>
      <trkpt lat="49.33587" lon="0.9663">
        <ele>79.795</ele>
        <time>2012-06-24T08:34:44.757Z</time>
      </trkpt>
      <trkpt lat="49.33589" lon="0.96592">
        <ele>79.768</ele>
        <time>2012-06-24T08:34:44.757Z</time>
      </trkpt>
      <trkpt lat="49.3359" lon="0.96577">
        <ele>79.679</ele>
        <time>2012-06-24T08:34:51.488Z</time>
      </trkpt>
      <trkpt lat="49.33593" lon="0.96564">
        <ele>79.08</ele>
        <time>2012-06-24T08:34:56.532Z</time>
      </trkpt>
      <trkpt lat="49.33595" lon="0.9655">
        <ele>77.59</ele>
        <time>2012-06-24T08:35:01.113Z</time>
      </trkpt>
      <trkpt lat="49.33596" lon="0.96534">
        <ele>75.702</ele>
        <time>2012-06-24T08:35:06.292Z</time>
      </trkpt>
      <trkpt lat="49.33592" lon="0.96521">
        <ele>74.146</ele>
        <time>2012-06-24T08:35:11.677Z</time>
      </trkpt>
      <trkpt lat="49.33589" lon="0.96508">
        <ele>73.185</ele>
        <time>2012-06-24T08:35:17.519Z</time>
      </trkpt>
      <trkpt lat="49.33589" lon="0.96494">
        <ele>72.819</ele>
        <time>2012-06-24T08:35:23.335Z</time>
      </trkpt>
      <trkpt lat="49.33586" lon="0.96478">
        <ele>72.817</ele>
        <time>2012-06-24T08:35:29.324Z</time>
      </trkpt>
      <trkpt lat="49.33587" lon="0.96463">
        <ele>73.535</ele>
        <time>2012-06-24T08:35:33.897Z</time>
      </trkpt>
      <trkpt lat="49.33591" lon="0.96451">
        <ele>75.441</ele>
        <time>2012-06-24T08:35:37.947Z</time>
      </trkpt>
      <trkpt lat="49.33592" lon="0.96436">
        <ele>77.747</ele>
        <time>2012-06-24T08:35:42.377Z</time>
      </trkpt>
      <trkpt lat="49.33591" lon="0.96422">
        <ele>79.429</ele>
        <time>2012-06-24T08:35:46.891Z</time>
      </trkpt>
      <trkpt lat="49.33594" lon="0.96408">
        <ele>80.943</ele>
        <time>2012-06-24T08:35:52.147Z</time>
      </trkpt>
      <trkpt lat="49.336" lon="0.96395">
        <ele>82.924</ele>
        <time>2012-06-24T08:35:58.704Z</time>
      </trkpt>
      <trkpt lat="49.33606" lon="0.9638">
        <ele>84.821</ele>
        <time>2012-06-24T08:36:04.978Z</time>
      </trkpt>
      <trkpt lat="49.3361" lon="0.96368">
        <ele>85.847</ele>
        <time>2012-06-24T08:36:09.259Z</time>
      </trkpt>
      <trkpt lat="49.33618" lon="0.96358">
        <ele>86.072</ele>
        <time>2012-06-24T08:36:13.800Z</time>
      </trkpt>
      <trkpt lat="49.33624" lon="0.96347">
        <ele>85.948</ele>
        <time>2012-06-24T08:36:18.482Z</time>
      </trkpt>
      <trkpt lat="49.33631" lon="0.96337">
        <ele>85.588</ele>
        <time>2012-06-24T08:36:23.535Z</time>
      </trkpt>
      <trkpt lat="49.33639" lon="0.96327">
        <ele>84.976</ele>
        <time>2012-06-24T08:36:29.869Z</time>
      </trkpt>
      <trkpt lat="49.33645" lon="0.96317">
        <ele>84.414</ele>
        <time>2012-06-24T08:36:35.732Z</time>
      </trkpt>
      <trkpt lat="49.33654" lon="0.96313">
        <ele>84.167</ele>
        <time>2012-06-24T08:36:41.817Z</time>
      </trkpt>
      <trkpt lat="49.33664" lon="0.96309">
        <ele>84.514</ele>
        <time>2012-06-24T08:36:48.409Z</time>
      </trkpt>
      <trkpt lat="49.33674" lon="0.96304">
        <ele>85.632</ele>
        <time>2012-06-24T08:36:54.771Z</time>
      </trkpt>
      <trkpt lat="49.33684" lon="0.963">
        <ele>87.046</ele>
        <time>2012-06-24T08:36:59.987Z</time>
      </trkpt>
      <trkpt lat="49.33694" lon="0.96296">
        <ele>88.116</ele>
        <time>2012-06-24T08:37:05.098Z</time>
      </trkpt>
      <trkpt lat="49.33703" lon="0.96292">
        <ele>88.643</ele>
        <time>2012-06-24T08:37:09.504Z</time>
      </trkpt>
      <trkpt lat="49.33714" lon="0.96292">
        <ele>88.609</ele>
        <time>2012-06-24T08:37:14.056Z</time>
      </trkpt>
      <trkpt lat="49.33725" lon="0.96294">
        <ele>88.327</ele>
        <time>2012-06-24T08:37:18.051Z</time>
      </trkpt>
      <trkpt lat="49.33725" lon="0.96294">
        <ele>88.189</ele>
        <time>2012-06-24T08:37:18.051Z</time>
      </trkpt>
      <trkpt lat="49.33736" lon="0.96291">
        <ele>88.212</ele>
        <time>2012-06-24T08:37:22.010Z</time>
      </trkpt>
      <trkpt lat="49.33749" lon="0.9629">
        <ele>88.225</ele>
        <time>2012-06-24T08:37:26.364Z</time>
      </trkpt>
      <trkpt lat="49.33749" lon="0.9629">
        <ele>88.23</ele>
        <time>2012-06-24T08:37:26.364Z</time>
      </trkpt>
      <trkpt lat="49.33759" lon="0.96288">
        <ele>88.3</ele>
        <time>2012-06-24T08:37:30.687Z</time>
      </trkpt>
      <trkpt lat="49.33768" lon="0.96286">
        <ele>88.496</ele>
        <time>2012-06-24T08:37:34.216Z</time>
      </trkpt>
      <trkpt lat="49.33778" lon="0.96279">
        <ele>88.866</ele>
        <time>2012-06-24T08:37:38.229Z</time>
      </trkpt>
      <trkpt lat="49.33786" lon="0.96272">
        <ele>89.864</ele>
        <time>2012-06-24T08:37:41.558Z</time>
      </trkpt>
      <trkpt lat="49.33795" lon="0.96261">
        <ele>91.667</ele>
        <time>2012-06-24T08:37:45.360Z</time>
      </trkpt>
      <trkpt lat="49.33806" lon="0.96255">
        <ele>93.418</ele>
        <time>2012-06-24T08:37:49.268Z</time>
      </trkpt>
      <trkpt lat="49.33815" lon="0.96248">
        <ele>94.321</ele>
        <time>2012-06-24T08:37:52.564Z</time>
      </trkpt>
      <trkpt lat="49.33823" lon="0.96235">
        <ele>94.502</ele>
        <time>2012-06-24T08:37:56.292Z</time>
      </trkpt>
      <trkpt lat="49.33832" lon="0.96224">
        <ele>94.38</ele>
        <time>2012-06-24T08:38:00.555Z</time>
      </trkpt>
      <trkpt lat="49.33841" lon="0.96217">
        <ele>94.818</ele>
        <time>2012-06-24T08:38:04.692Z</time>
      </trkpt>
      <trkpt lat="49.33849" lon="0.96205">
        <ele>96.258</ele>
        <time>2012-06-24T08:38:09.456Z</time>
      </trkpt>
      <trkpt lat="49.33853" lon="0.96189">
        <ele>97.797</ele>
        <time>2012-06-24T08:38:14.539Z</time>
      </trkpt>
      <trkpt lat="49.33857" lon="0.96175">
        <ele>98.655</ele>
        <time>2012-06-24T08:38:18.947Z</time>
      </trkpt>
      <trkpt lat="49.33858" lon="0.96159">
        <ele>99.066</ele>
        <time>2012-06-24T08:38:22.816Z</time>
      </trkpt>
      <trkpt lat="49.33861" lon="0.96139">
        <ele>99.38</ele>
        <time>2012-06-24T08:38:27.078Z</time>
      </trkpt>
      <trkpt lat="49.3386" lon="0.96121">
        <ele>99.755</ele>
        <time>2012-06-24T08:38:30.518Z</time>
      </trkpt>
      <trkpt lat="49.33862" lon="0.96106">
        <ele>99.691</ele>
        <time>2012-06-24T08:38:33.671Z</time>
      </trkpt>
      <trkpt lat="49.33864" lon="0.96092">
        <ele>98.562</ele>
        <time>2012-06-24T08:38:36.693Z</time>
      </trkpt>
      <trkpt lat="49.33862" lon="0.96078">
        <ele>96.831</ele>
        <time>2012-06-24T08:38:40.030Z</time>
      </trkpt>
      <trkpt lat="49.3386" lon="0.96062">
        <ele>95.509</ele>
        <time>2012-06-24T08:38:44.017Z</time>
      </trkpt>
      <trkpt lat="49.33861" lon="0.96047">
        <ele>95.009</ele>
        <time>2012-06-24T08:38:47.971Z</time>
      </trkpt>
      <trkpt lat="49.33861" lon="0.96047">
        <ele>95.015</ele>
        <time>2012-06-24T08:38:48.758Z</time>
      </trkpt>
      <trkpt lat="49.33866" lon="0.96034">
        <ele>95.046</ele>
        <time>2012-06-24T08:38:52.025Z</time>
      </trkpt>
      <trkpt lat="49.33869" lon="0.96021">
        <ele>95.148</ele>
        <time>2012-06-24T08:38:56.116Z</time>
      </trkpt>
      <trkpt lat="49.33869" lon="0.96021">
        <ele>95.533</ele>
        <time>2012-06-24T08:38:56.116Z</time>
      </trkpt>
      <trkpt lat="49.33874" lon="0.96007">
        <ele>95.965</ele>
        <time>2012-06-24T08:39:01.440Z</time>
      </trkpt>
      <trkpt lat="49.33872" lon="0.95993">
        <ele>96.18</ele>
        <time>2012-06-24T08:39:06.703Z</time>
      </trkpt>
      <trkpt lat="49.33869" lon="0.95979">
        <ele>96.219</ele>
        <time>2012-06-24T08:39:12.033Z</time>
      </trkpt>
      <trkpt lat="49.33869" lon="0.95965">
        <ele>96.454</ele>
        <time>2012-06-24T08:39:17.408Z</time>
      </trkpt>
      <trkpt lat="49.33868" lon="0.95948">
        <ele>97.116</ele>
        <time>2012-06-24T08:39:22.758Z</time>
      </trkpt>
      <trkpt lat="49.33868" lon="0.95948">
        <ele>97.815</ele>
        <time>2012-06-24T08:39:23.749Z</time>
      </trkpt>
      <trkpt lat="49.33868" lon="0.95948">
        <ele>98.151</ele>
        <time>2012-06-24T08:39:29.755Z</time>
      </trkpt>
      <trkpt lat="49.33861" lon="0.95914">
        <ele>98.348</ele>
        <time>2012-06-24T08:39:29.755Z</time>
      </trkpt>
      <trkpt lat="49.3386" lon="0.95896">
        <ele>98.786</ele>
        <time>2012-06-24T08:39:35.370Z</time>
      </trkpt>
      <trkpt lat="49.3386" lon="0.95879">
        <ele>99.431</ele>
        <time>2012-06-24T08:39:39.191Z</time>
      </trkpt>
      <trkpt lat="49.3386" lon="0.95861">
        <ele>100.011</ele>
        <time>2012-06-24T08:39:42.326Z</time>
      </trkpt>
      <trkpt lat="49.33861" lon="0.95843">
        <ele>101</ele>
        <time>2012-06-24T08:39:45.180Z</time>
      </trkpt>
      <trkpt lat="49.33861" lon="0.95829">
        <ele>102.723</ele>
        <time>2012-06-24T08:39:47.452Z</time>
      </trkpt>
      <trkpt lat="49.33859" lon="0.95813">
        <ele>104.519</ele>
        <time>2012-06-24T08:39:50.159Z</time>
      </trkpt>
      <trkpt lat="49.33859" lon="0.95794">
        <ele>105.761</ele>
        <time>2012-06-24T08:39:53.462Z</time>
      </trkpt>
      <trkpt lat="49.33857" lon="0.9578">
        <ele>106.184</ele>
        <time>2012-06-24T08:39:55.778Z</time>
      </trkpt>
      <trkpt lat="49.33856" lon="0.95765">
        <ele>105.558</ele>
        <time>2012-06-24T08:39:58.293Z</time>
      </trkpt>
      <trkpt lat="49.33856" lon="0.9575">
        <ele>104.36</ele>
        <time>2012-06-24T08:40:01.188Z</time>
      </trkpt>
      <trkpt lat="49.33857" lon="0.95736">
        <ele>103.285</ele>
        <time>2012-06-24T08:40:04.055Z</time>
      </trkpt>
      <trkpt lat="49.33856" lon="0.95719">
        <ele>102.521</ele>
        <time>2012-06-24T08:40:07.891Z</time>
      </trkpt>
      <trkpt lat="49.33855" lon="0.95703">
        <ele>102.022</ele>
        <time>2012-06-24T08:40:12.732Z</time>
      </trkpt>
      <trkpt lat="49.33856" lon="0.95689">
        <ele>101.755</ele>
        <time>2012-06-24T08:40:17.482Z</time>
      </trkpt>
      <trkpt lat="49.33859" lon="0.95668">
        <ele>101.591</ele>
        <time>2012-06-24T08:40:24.128Z</time>
      </trkpt>
      <trkpt lat="49.33861" lon="0.95654">
        <ele>101.461</ele>
        <time>2012-06-24T08:40:28.191Z</time>
      </trkpt>
      <trkpt lat="49.33864" lon="0.95639">
        <ele>101.362</ele>
        <time>2012-06-24T08:40:32.328Z</time>
      </trkpt>
      <trkpt lat="49.33861" lon="0.95623">
        <ele>101.23</ele>
        <time>2012-06-24T08:40:37.515Z</time>
      </trkpt>
      <trkpt lat="49.33858" lon="0.95609">
        <ele>100.749</ele>
        <time>2012-06-24T08:40:42.524Z</time>
      </trkpt>
      <trkpt lat="49.33855" lon="0.95595">
        <ele>99.826</ele>
        <time>2012-06-24T08:40:47.749Z</time>
      </trkpt>
      <trkpt lat="49.33855" lon="0.95595">
        <ele>98.982</ele>
        <time>2012-06-24T08:40:50.761Z</time>
      </trkpt>
      <trkpt lat="49.33855" lon="0.95595">
        <ele>98.629</ele>
        <time>2012-06-24T08:40:59.749Z</time>
      </trkpt>
      <trkpt lat="49.33841" lon="0.95566">
        <ele>98.754</ele>
        <time>2012-06-24T08:40:59.749Z</time>
      </trkpt>
      <trkpt lat="49.33838" lon="0.95551">
        <ele>99.336</ele>
        <time>2012-06-24T08:41:04.399Z</time>
      </trkpt>
      <trkpt lat="49.33833" lon="0.95537">
        <ele>100.288</ele>
        <time>2012-06-24T08:41:08.922Z</time>
      </trkpt>
      <trkpt lat="49.33829" lon="0.95521">
        <ele>101.983</ele>
        <time>2012-06-24T08:41:12.758Z</time>
      </trkpt>
      <trkpt lat="49.33829" lon="0.95521">
        <ele>104.453</ele>
        <time>2012-06-24T08:41:15.763Z</time>
      </trkpt>
      <trkpt lat="49.33829" lon="0.95521">
        <ele>106.536</ele>
        <time>2012-06-24T08:41:23.763Z</time>
      </trkpt>
      <trkpt lat="49.33822" lon="0.95481">
        <ele>107.547</ele>
        <time>2012-06-24T08:41:23.763Z</time>
      </trkpt>
      <trkpt lat="49.33822" lon="0.95467">
        <ele>108.064</ele>
        <time>2012-06-24T08:41:27.724Z</time>
      </trkpt>
      <trkpt lat="49.33823" lon="0.95451">
        <ele>108.793</ele>
        <time>2012-06-24T08:41:32.134Z</time>
      </trkpt>
      <trkpt lat="49.33822" lon="0.95437">
        <ele>110.191</ele>
        <time>2012-06-24T08:41:35.535Z</time>
      </trkpt>
      <trkpt lat="49.33822" lon="0.9542">
        <ele>111.931</ele>
        <time>2012-06-24T08:41:38.761Z</time>
      </trkpt>
      <trkpt lat="49.33822" lon="0.9542">
        <ele>113.166</ele>
        <time>2012-06-24T08:41:38.761Z</time>
      </trkpt>
      <trkpt lat="49.33822" lon="0.9542">
        <ele>113.618</ele>
        <time>2012-06-24T08:41:46.766Z</time>
      </trkpt>
      <trkpt lat="49.33818" lon="0.95387">
        <ele>113.587</ele>
        <time>2012-06-24T08:41:46.766Z</time>
      </trkpt>
      <trkpt lat="49.3382" lon="0.95369">
        <ele>113.375</ele>
        <time>2012-06-24T08:41:51.591Z</time>
      </trkpt>
      <trkpt lat="49.3382" lon="0.95355">
        <ele>113.159</ele>
        <time>2012-06-24T08:41:55.419Z</time>
      </trkpt>
      <trkpt lat="49.33818" lon="0.95341">
        <ele>113.032</ele>
        <time>2012-06-24T08:41:59.371Z</time>
      </trkpt>
      <trkpt lat="49.33816" lon="0.95323">
        <ele>112.998</ele>
        <time>2012-06-24T08:42:03.338Z</time>
      </trkpt>
      <trkpt lat="49.33816" lon="0.95307">
        <ele>113.049</ele>
        <time>2012-06-24T08:42:05.960Z</time>
      </trkpt>
      <trkpt lat="49.33816" lon="0.95291">
        <ele>113.594</ele>
        <time>2012-06-24T08:42:08.105Z</time>
      </trkpt>
      <trkpt lat="49.33814" lon="0.95276">
        <ele>115.414</ele>
        <time>2012-06-24T08:42:09.837Z</time>
      </trkpt>
      <trkpt lat="49.33813" lon="0.95258">
        <ele>118.194</ele>
        <time>2012-06-24T08:42:11.761Z</time>
      </trkpt>
      <trkpt lat="49.33813" lon="0.95258">
        <ele>120.425</ele>
        <time>2012-06-24T08:42:11.761Z</time>
      </trkpt>
      <trkpt lat="49.33813" lon="0.95258">
        <ele>121.344</ele>
        <time>2012-06-24T08:42:16.762Z</time>
      </trkpt>
      <trkpt lat="49.33809" lon="0.95234">
        <ele>121.5</ele>
        <time>2012-06-24T08:42:16.762Z</time>
      </trkpt>
      <trkpt lat="49.33805" lon="0.95219">
        <ele>121.808</ele>
        <time>2012-06-24T08:42:20.233Z</time>
      </trkpt>
      <trkpt lat="49.33804" lon="0.95199">
        <ele>122.557</ele>
        <time>2012-06-24T08:42:24.651Z</time>
      </trkpt>
      <trkpt lat="49.33802" lon="0.95182">
        <ele>123.006</ele>
        <time>2012-06-24T08:42:28.671Z</time>
      </trkpt>
      <trkpt lat="49.33801" lon="0.95163">
        <ele>122.667</ele>
        <time>2012-06-24T08:42:32.756Z</time>
      </trkpt>
      <trkpt lat="49.33801" lon="0.95147">
        <ele>122.23</ele>
        <time>2012-06-24T08:42:36.391Z</time>
      </trkpt>
      <trkpt lat="49.33804" lon="0.95133">
        <ele>122.332</ele>
        <time>2012-06-24T08:42:39.382Z</time>
      </trkpt>
      <trkpt lat="49.33808" lon="0.95115">
        <ele>122.714</ele>
        <time>2012-06-24T08:42:43.605Z</time>
      </trkpt>
      <trkpt lat="49.33815" lon="0.95099">
        <ele>122.86</ele>
        <time>2012-06-24T08:42:47.822Z</time>
      </trkpt>
      <trkpt lat="49.33823" lon="0.95081">
        <ele>122.53</ele>
        <time>2012-06-24T08:42:52.538Z</time>
      </trkpt>
      <trkpt lat="49.33829" lon="0.95071">
        <ele>121.531</ele>
        <time>2012-06-24T08:42:55.679Z</time>
      </trkpt>
      <trkpt lat="49.33841" lon="0.9506">
        <ele>119.592</ele>
        <time>2012-06-24T08:43:00.466Z</time>
      </trkpt>
      <trkpt lat="49.33852" lon="0.95049">
        <ele>117.172</ele>
        <time>2012-06-24T08:43:05.055Z</time>
      </trkpt>
      <trkpt lat="49.33861" lon="0.95038">
        <ele>115.393</ele>
        <time>2012-06-24T08:43:08.971Z</time>
      </trkpt>
      <trkpt lat="49.33871" lon="0.95031">
        <ele>114.675</ele>
        <time>2012-06-24T08:43:12.330Z</time>
      </trkpt>
      <trkpt lat="49.33881" lon="0.95021">
        <ele>114.643</ele>
        <time>2012-06-24T08:43:15.886Z</time>
      </trkpt>
      <trkpt lat="49.33887" lon="0.95008">
        <ele>114.908</ele>
        <time>2012-06-24T08:43:18.904Z</time>
      </trkpt>
      <trkpt lat="49.33891" lon="0.94995">
        <ele>115.183</ele>
        <time>2012-06-24T08:43:21.666Z</time>
      </trkpt>
      <trkpt lat="49.33893" lon="0.9498">
        <ele>115.33</ele>
        <time>2012-06-24T08:43:24.501Z</time>
      </trkpt>
      <trkpt lat="49.33896" lon="0.94964">
        <ele>115.143</ele>
        <time>2012-06-24T08:43:27.240Z</time>
      </trkpt>
      <trkpt lat="49.33897" lon="0.94946">
        <ele>114.353</ele>
        <time>2012-06-24T08:43:30.476Z</time>
      </trkpt>
      <trkpt lat="49.33898" lon="0.94931">
        <ele>113.194</ele>
        <time>2012-06-24T08:43:32.940Z</time>
      </trkpt>
      <trkpt lat="49.33899" lon="0.94914">
        <ele>112.3</ele>
        <time>2012-06-24T08:43:36.081Z</time>
      </trkpt>
      <trkpt lat="49.339" lon="0.94899">
        <ele>111.934</ele>
        <time>2012-06-24T08:43:38.751Z</time>
      </trkpt>
      <trkpt lat="49.33903" lon="0.94882">
        <ele>111.915</ele>
        <time>2012-06-24T08:43:42.258Z</time>
      </trkpt>
      <trkpt lat="49.33905" lon="0.94868">
        <ele>112.031</ele>
        <time>2012-06-24T08:43:45.559Z</time>
      </trkpt>
      <trkpt lat="49.33905" lon="0.94852">
        <ele>112.359</ele>
        <time>2012-06-24T08:43:49.269Z</time>
      </trkpt>
      <trkpt lat="49.33906" lon="0.94837">
        <ele>112.97</ele>
        <time>2012-06-24T08:43:52.731Z</time>
      </trkpt>
      <trkpt lat="49.33907" lon="0.9482">
        <ele>113.893</ele>
        <time>2012-06-24T08:43:56.470Z</time>
      </trkpt>
      <trkpt lat="49.3391" lon="0.94807">
        <ele>115.177</ele>
        <time>2012-06-24T08:43:59.890Z</time>
      </trkpt>
      <trkpt lat="49.33914" lon="0.9479">
        <ele>116.49</ele>
        <time>2012-06-24T08:44:04.218Z</time>
      </trkpt>
      <trkpt lat="49.33912" lon="0.94774">
        <ele>117.317</ele>
        <time>2012-06-24T08:44:08.425Z</time>
      </trkpt>
      <trkpt lat="49.33903" lon="0.94771">
        <ele>117.675</ele>
        <time>2012-06-24T08:44:13.471Z</time>
      </trkpt>
      <trkpt lat="49.33892" lon="0.94768">
        <ele>117.931</ele>
        <time>2012-06-24T08:44:19.002Z</time>
      </trkpt>
      <trkpt lat="49.33882" lon="0.94767">
        <ele>118.372</ele>
        <time>2012-06-24T08:44:22.942Z</time>
      </trkpt>
      <trkpt lat="49.33874" lon="0.94762">
        <ele>118.918</ele>
        <time>2012-06-24T08:44:26.043Z</time>
      </trkpt>
      <trkpt lat="49.33863" lon="0.94758">
        <ele>119.108</ele>
        <time>2012-06-24T08:44:29.498Z</time>
      </trkpt>
      <trkpt lat="49.33854" lon="0.94769">
        <ele>118.623</ele>
        <time>2012-06-24T08:44:33.331Z</time>
      </trkpt>
      <trkpt lat="49.33843" lon="0.94771">
        <ele>117.815</ele>
        <time>2012-06-24T08:44:37.127Z</time>
      </trkpt>
      <trkpt lat="49.33831" lon="0.94769">
        <ele>116.403</ele>
        <time>2012-06-24T08:44:40.411Z</time>
      </trkpt>
      <trkpt lat="49.33816" lon="0.94765">
        <ele>113.828</ele>
        <time>2012-06-24T08:44:44.372Z</time>
      </trkpt>
      <trkpt lat="49.33802" lon="0.94764">
        <ele>110.968</ele>
        <time>2012-06-24T08:44:47.390Z</time>
      </trkpt>
      <trkpt lat="49.33786" lon="0.94759">
        <ele>109.107</ele>
        <time>2012-06-24T08:44:50.762Z</time>
      </trkpt>
      <trkpt lat="49.33774" lon="0.94758">
        <ele>108.385</ele>
        <time>2012-06-24T08:44:52.942Z</time>
      </trkpt>
      <trkpt lat="49.33763" lon="0.94754">
        <ele>108.375</ele>
        <time>2012-06-24T08:44:55.277Z</time>
      </trkpt>
      <trkpt lat="49.33752" lon="0.94752">
        <ele>108.578</ele>
        <time>2012-06-24T08:44:57.693Z</time>
      </trkpt>
      <trkpt lat="49.33743" lon="0.94757">
        <ele>108.738</ele>
        <time>2012-06-24T08:44:59.796Z</time>
      </trkpt>
      <trkpt lat="49.3373" lon="0.94759">
        <ele>108.799</ele>
        <time>2012-06-24T08:45:03.330Z</time>
      </trkpt>
      <trkpt lat="49.33718" lon="0.94758">
        <ele>108.8</ele>
        <time>2012-06-24T08:45:06.693Z</time>
      </trkpt>
      <trkpt lat="49.33706" lon="0.94752">
        <ele>108.716</ele>
        <time>2012-06-24T08:45:10.159Z</time>
      </trkpt>
      <trkpt lat="49.33697" lon="0.94744">
        <ele>108.4</ele>
        <time>2012-06-24T08:45:12.765Z</time>
      </trkpt>
      <trkpt lat="49.33697" lon="0.94744">
        <ele>107.881</ele>
        <time>2012-06-24T08:45:14.762Z</time>
      </trkpt>
      <trkpt lat="49.33697" lon="0.94744">
        <ele>107.452</ele>
        <time>2012-06-24T08:45:18.769Z</time>
      </trkpt>
      <trkpt lat="49.33667" lon="0.94714">
        <ele>107.278</ele>
        <time>2012-06-24T08:45:18.769Z</time>
      </trkpt>
      <trkpt lat="49.33656" lon="0.94695">
        <ele>107.269</ele>
        <time>2012-06-24T08:45:22.981Z</time>
      </trkpt>
      <trkpt lat="49.33646" lon="0.94681">
        <ele>107.311</ele>
        <time>2012-06-24T08:45:26.004Z</time>
      </trkpt>
      <trkpt lat="49.33637" lon="0.94671">
        <ele>107.161</ele>
        <time>2012-06-24T08:45:28.449Z</time>
      </trkpt>
      <trkpt lat="49.33629" lon="0.94662">
        <ele>106.629</ele>
        <time>2012-06-24T08:45:30.480Z</time>
      </trkpt>
      <trkpt lat="49.33616" lon="0.94646">
        <ele>105.706</ele>
        <time>2012-06-24T08:45:33.782Z</time>
      </trkpt>
      <trkpt lat="49.33602" lon="0.94628">
        <ele>104.594</ele>
        <time>2012-06-24T08:45:37.383Z</time>
      </trkpt>
      <trkpt lat="49.33595" lon="0.94618">
        <ele>103.243</ele>
        <time>2012-06-24T08:45:39.341Z</time>
      </trkpt>
      <trkpt lat="49.33587" lon="0.94607">
        <ele>101.055</ele>
        <time>2012-06-24T08:45:41.493Z</time>
      </trkpt>
      <trkpt lat="49.33582" lon="0.94594">
        <ele>97.558</ele>
        <time>2012-06-24T08:45:43.659Z</time>
      </trkpt>
      <trkpt lat="49.33571" lon="0.9457">
        <ele>93.534</ele>
        <time>2012-06-24T08:45:47.492Z</time>
      </trkpt>
      <trkpt lat="49.33563" lon="0.94555">
        <ele>90.455</ele>
        <time>2012-06-24T08:45:49.864Z</time>
      </trkpt>
      <trkpt lat="49.33559" lon="0.94542">
        <ele>88.9</ele>
        <time>2012-06-24T08:45:51.773Z</time>
      </trkpt>
      <trkpt lat="49.33553" lon="0.94521">
        <ele>88.266</ele>
        <time>2012-06-24T08:45:54.556Z</time>
      </trkpt>
      <trkpt lat="49.33545" lon="0.94492">
        <ele>87.667</ele>
        <time>2012-06-24T08:45:58.405Z</time>
      </trkpt>
      <trkpt lat="49.33541" lon="0.94475">
        <ele>86.742</ele>
        <time>2012-06-24T08:46:00.555Z</time>
      </trkpt>
      <trkpt lat="49.33534" lon="0.94456">
        <ele>85.68</ele>
        <time>2012-06-24T08:46:04.087Z</time>
      </trkpt>
      <trkpt lat="49.3353" lon="0.94441">
        <ele>84.116</ele>
        <time>2012-06-24T08:46:07.110Z</time>
      </trkpt>
      <trkpt lat="49.33522" lon="0.94448">
        <ele>81.596</ele>
        <time>2012-06-24T08:46:10.715Z</time>
      </trkpt>
      <trkpt lat="49.3352" lon="0.94463">
        <ele>78.741</ele>
        <time>2012-06-24T08:46:15.227Z</time>
      </trkpt>
      <trkpt lat="49.3352" lon="0.94485">
        <ele>76.215</ele>
        <time>2012-06-24T08:46:19.057Z</time>
      </trkpt>
      <trkpt lat="49.3352" lon="0.94502">
        <ele>73.572</ele>
        <time>2012-06-24T08:46:21.600Z</time>
      </trkpt>
      <trkpt lat="49.33516" lon="0.94528">
        <ele>70.447</ele>
        <time>2012-06-24T08:46:25.363Z</time>
      </trkpt>
      <trkpt lat="49.33513" lon="0.94543">
        <ele>67.565</ele>
        <time>2012-06-24T08:46:27.742Z</time>
      </trkpt>
      <trkpt lat="49.33512" lon="0.94558">
        <ele>65.312</ele>
        <time>2012-06-24T08:46:30.244Z</time>
      </trkpt>
      <trkpt lat="49.33507" lon="0.94572">
        <ele>62.419</ele>
        <time>2012-06-24T08:46:32.955Z</time>
      </trkpt>
      <trkpt lat="49.33501" lon="0.94589">
        <ele>58.583</ele>
        <time>2012-06-24T08:46:36.737Z</time>
      </trkpt>
      <trkpt lat="49.33503" lon="0.94602">
        <ele>55.433</ele>
        <time>2012-06-24T08:46:39.919Z</time>
      </trkpt>
      <trkpt lat="49.33507" lon="0.94617">
        <ele>53.025</ele>
        <time>2012-06-24T08:46:43.846Z</time>
      </trkpt>
      <trkpt lat="49.33512" lon="0.9463">
        <ele>50.294</ele>
        <time>2012-06-24T08:46:47.458Z</time>
      </trkpt>
      <trkpt lat="49.33515" lon="0.94643">
        <ele>48.004</ele>
        <time>2012-06-24T08:46:50.756Z</time>
      </trkpt>
      <trkpt lat="49.33517" lon="0.94659">
        <ele>47.061</ele>
        <time>2012-06-24T08:46:54.370Z</time>
      </trkpt>
      <trkpt lat="49.33521" lon="0.94675">
        <ele>47.193</ele>
        <time>2012-06-24T08:46:58.158Z</time>
      </trkpt>
      <trkpt lat="49.33527" lon="0.94686">
        <ele>48.071</ele>
        <time>2012-06-24T08:47:01.287Z</time>
      </trkpt>
      <trkpt lat="49.33531" lon="0.947">
        <ele>49.352</ele>
        <time>2012-06-24T08:47:04.580Z</time>
      </trkpt>
      <trkpt lat="49.33537" lon="0.94712">
        <ele>50.737</ele>
        <time>2012-06-24T08:47:07.573Z</time>
      </trkpt>
      <trkpt lat="49.33541" lon="0.94728">
        <ele>52.128</ele>
        <time>2012-06-24T08:47:10.620Z</time>
      </trkpt>
      <trkpt lat="49.33547" lon="0.94745">
        <ele>53.504</ele>
        <time>2012-06-24T08:47:13.848Z</time>
      </trkpt>
      <trkpt lat="49.3355" lon="0.94766">
        <ele>54.9</ele>
        <time>2012-06-24T08:47:17.201Z</time>
      </trkpt>
      <trkpt lat="49.33554" lon="0.94781">
        <ele>56.4</ele>
        <time>2012-06-24T08:47:19.729Z</time>
      </trkpt>
      <trkpt lat="49.33561" lon="0.94792">
        <ele>57.909</ele>
        <time>2012-06-24T08:47:22.213Z</time>
      </trkpt>
      <trkpt lat="49.33565" lon="0.94805">
        <ele>59.261</ele>
        <time>2012-06-24T08:47:24.901Z</time>
      </trkpt>
      <trkpt lat="49.33565" lon="0.94805">
        <ele>60.33</ele>
        <time>2012-06-24T08:47:24.901Z</time>
      </trkpt>
      <trkpt lat="49.33571" lon="0.94818">
        <ele>61.403</ele>
        <time>2012-06-24T08:47:28.773Z</time>
      </trkpt>
      <trkpt lat="49.33571" lon="0.94818">
        <ele>62.755</ele>
        <time>2012-06-24T08:47:28.773Z</time>
      </trkpt>
      <trkpt lat="49.33578" lon="0.94828">
        <ele>63.937</ele>
        <time>2012-06-24T08:47:32.945Z</time>
      </trkpt>
      <trkpt lat="49.33588" lon="0.94832">
        <ele>64.493</ele>
        <time>2012-06-24T08:47:37.205Z</time>
      </trkpt>
      <trkpt lat="49.33596" lon="0.94837">
        <ele>64.857</ele>
        <time>2012-06-24T08:47:43.590Z</time>
      </trkpt>
      <trkpt lat="49.33606" lon="0.94841">
        <ele>65.708</ele>
        <time>2012-06-24T08:47:59.363Z</time>
      </trkpt>
      <trkpt lat="49.33612" lon="0.94853">
        <ele>67.049</ele>
        <time>2012-06-24T08:48:10.108Z</time>
      </trkpt>
      <trkpt lat="49.33617" lon="0.94865">
        <ele>68.888</ele>
        <time>2012-06-24T08:48:19.990Z</time>
      </trkpt>
      <trkpt lat="49.3362" lon="0.94883">
        <ele>71.254</ele>
        <time>2012-06-24T08:48:29.686Z</time>
      </trkpt>
      <trkpt lat="49.33625" lon="0.94897">
        <ele>73.232</ele>
        <time>2012-06-24T08:48:34.015Z</time>
      </trkpt>
      <trkpt lat="49.33631" lon="0.94911">
        <ele>74.045</ele>
        <time>2012-06-24T08:48:37.479Z</time>
      </trkpt>
      <trkpt lat="49.33639" lon="0.94923">
        <ele>73.593</ele>
        <time>2012-06-24T08:48:40.560Z</time>
      </trkpt>
      <trkpt lat="49.3364" lon="0.94938">
        <ele>72.077</ele>
        <time>2012-06-24T08:48:43.454Z</time>
      </trkpt>
      <trkpt lat="49.33646" lon="0.94951">
        <ele>70.538</ele>
        <time>2012-06-24T08:48:46.547Z</time>
      </trkpt>
      <trkpt lat="49.33655" lon="0.94963">
        <ele>69.774</ele>
        <time>2012-06-24T08:48:49.853Z</time>
      </trkpt>
      <trkpt lat="49.33656" lon="0.94979">
        <ele>69.613</ele>
        <time>2012-06-24T08:48:53.090Z</time>
      </trkpt>
      <trkpt lat="49.33656" lon="0.94998">
        <ele>69.424</ele>
        <time>2012-06-24T08:48:56.834Z</time>
      </trkpt>
      <trkpt lat="49.33655" lon="0.95014">
        <ele>68.716</ele>
        <time>2012-06-24T08:48:59.827Z</time>
      </trkpt>
      <trkpt lat="49.33653" lon="0.95035">
        <ele>67.679</ele>
        <time>2012-06-24T08:49:03.516Z</time>
      </trkpt>
      <trkpt lat="49.33652" lon="0.9506">
        <ele>66.482</ele>
        <time>2012-06-24T08:49:07.424Z</time>
      </trkpt>
      <trkpt lat="49.33654" lon="0.95081">
        <ele>64.718</ele>
        <time>2012-06-24T08:49:10.649Z</time>
      </trkpt>
      <trkpt lat="49.3366" lon="0.95098">
        <ele>62.479</ele>
        <time>2012-06-24T08:49:13.657Z</time>
      </trkpt>
      <trkpt lat="49.33666" lon="0.95112">
        <ele>60.551</ele>
        <time>2012-06-24T08:49:16.385Z</time>
      </trkpt>
      <trkpt lat="49.33668" lon="0.95127">
        <ele>59.436</ele>
        <time>2012-06-24T08:49:19.103Z</time>
      </trkpt>
      <trkpt lat="49.33669" lon="0.95145">
        <ele>58.871</ele>
        <time>2012-06-24T08:49:22.255Z</time>
      </trkpt>
      <trkpt lat="49.33671" lon="0.95159">
        <ele>58.364</ele>
        <time>2012-06-24T08:49:24.798Z</time>
      </trkpt>
      <trkpt lat="49.33673" lon="0.95178">
        <ele>57.823</ele>
        <time>2012-06-24T08:49:28.291Z</time>
      </trkpt>
      <trkpt lat="49.33674" lon="0.95197">
        <ele>57.328</ele>
        <time>2012-06-24T08:49:31.466Z</time>
      </trkpt>
      <trkpt lat="49.33676" lon="0.95216">
        <ele>56.835</ele>
        <time>2012-06-24T08:49:34.693Z</time>
      </trkpt>
      <trkpt lat="49.33681" lon="0.95236">
        <ele>56.462</ele>
        <time>2012-06-24T08:49:37.970Z</time>
      </trkpt>
      <trkpt lat="49.33684" lon="0.95253">
        <ele>56.321</ele>
        <time>2012-06-24T08:49:40.466Z</time>
      </trkpt>
      <trkpt lat="49.33685" lon="0.95267">
        <ele>56.399</ele>
        <time>2012-06-24T08:49:42.629Z</time>
      </trkpt>
      <trkpt lat="49.33689" lon="0.95284">
        <ele>56.642</ele>
        <time>2012-06-24T08:49:45.449Z</time>
      </trkpt>
      <trkpt lat="49.33693" lon="0.95298">
        <ele>56.915</ele>
        <time>2012-06-24T08:49:47.991Z</time>
      </trkpt>
      <trkpt lat="49.33696" lon="0.95312">
        <ele>57.317</ele>
        <time>2012-06-24T08:49:50.515Z</time>
      </trkpt>
      <trkpt lat="49.33698" lon="0.95329">
        <ele>57.986</ele>
        <time>2012-06-24T08:49:53.518Z</time>
      </trkpt>
      <trkpt lat="49.33696" lon="0.95348">
        <ele>58.645</ele>
        <time>2012-06-24T08:49:57.149Z</time>
      </trkpt>
      <trkpt lat="49.33696" lon="0.95365">
        <ele>58.986</ele>
        <time>2012-06-24T08:50:00.297Z</time>
      </trkpt>
      <trkpt lat="49.33695" lon="0.95382">
        <ele>59.018</ele>
        <time>2012-06-24T08:50:03.277Z</time>
      </trkpt>
      <trkpt lat="49.33692" lon="0.95398">
        <ele>58.787</ele>
        <time>2012-06-24T08:50:06.181Z</time>
      </trkpt>
      <trkpt lat="49.33689" lon="0.95413">
        <ele>57.633</ele>
        <time>2012-06-24T08:50:08.740Z</time>
      </trkpt>
      <trkpt lat="49.33689" lon="0.95428">
        <ele>54.917</ele>
        <time>2012-06-24T08:50:11.303Z</time>
      </trkpt>
      <trkpt lat="49.33686" lon="0.95446">
        <ele>51.246</ele>
        <time>2012-06-24T08:50:14.480Z</time>
      </trkpt>
      <trkpt lat="49.33681" lon="0.95463">
        <ele>47.455</ele>
        <time>2012-06-24T08:50:17.632Z</time>
      </trkpt>
      <trkpt lat="49.33674" lon="0.95479">
        <ele>44.137</ele>
        <time>2012-06-24T08:50:21.004Z</time>
      </trkpt>
      <trkpt lat="49.33671" lon="0.95496">
        <ele>42.149</ele>
        <time>2012-06-24T08:50:24.051Z</time>
      </trkpt>
      <trkpt lat="49.33667" lon="0.95511">
        <ele>41.599</ele>
        <time>2012-06-24T08:50:26.872Z</time>
      </trkpt>
      <trkpt lat="49.33665" lon="0.95525">
        <ele>42.107</ele>
        <time>2012-06-24T08:50:29.633Z</time>
      </trkpt>
      <trkpt lat="49.3366" lon="0.95539">
        <ele>43.623</ele>
        <time>2012-06-24T08:50:32.380Z</time>
      </trkpt>
      <trkpt lat="49.33656" lon="0.95554">
        <ele>45.746</ele>
        <time>2012-06-24T08:50:35.359Z</time>
      </trkpt>
      <trkpt lat="49.33652" lon="0.95571">
        <ele>47.588</ele>
        <time>2012-06-24T08:50:38.569Z</time>
      </trkpt>
      <trkpt lat="49.33647" lon="0.95585">
        <ele>48.694</ele>
        <time>2012-06-24T08:50:41.200Z</time>
      </trkpt>
      <trkpt lat="49.33645" lon="0.956">
        <ele>49.472</ele>
        <time>2012-06-24T08:50:43.820Z</time>
      </trkpt>
      <trkpt lat="49.33642" lon="0.95618">
        <ele>50.363</ele>
        <time>2012-06-24T08:50:47.204Z</time>
      </trkpt>
      <trkpt lat="49.3364" lon="0.95633">
        <ele>51.177</ele>
        <time>2012-06-24T08:50:50.218Z</time>
      </trkpt>
      <trkpt lat="49.33639" lon="0.95651">
        <ele>52.253</ele>
        <time>2012-06-24T08:50:54.066Z</time>
      </trkpt>
      <trkpt lat="49.3364" lon="0.95666">
        <ele>54.131</ele>
        <time>2012-06-24T08:50:57.336Z</time>
      </trkpt>
      <trkpt lat="49.33641" lon="0.95682">
        <ele>56.081</ele>
        <time>2012-06-24T08:51:00.901Z</time>
      </trkpt>
      <trkpt lat="49.33641" lon="0.95696">
        <ele>57.24</ele>
        <time>2012-06-24T08:51:04.260Z</time>
      </trkpt>
      <trkpt lat="49.33641" lon="0.95711">
        <ele>57.764</ele>
        <time>2012-06-24T08:51:07.736Z</time>
      </trkpt>
      <trkpt lat="49.33641" lon="0.95727">
        <ele>57.98</ele>
        <time>2012-06-24T08:51:11.482Z</time>
      </trkpt>
      <trkpt lat="49.33642" lon="0.95743">
        <ele>58.14</ele>
        <time>2012-06-24T08:51:15.287Z</time>
      </trkpt>
      <trkpt lat="49.33641" lon="0.95761">
        <ele>58.406</ele>
        <time>2012-06-24T08:51:19.770Z</time>
      </trkpt>
      <trkpt lat="49.33639" lon="0.95776">
        <ele>58.667</ele>
        <time>2012-06-24T08:51:23.572Z</time>
      </trkpt>
      <trkpt lat="49.33631" lon="0.95785">
        <ele>58.949</ele>
        <time>2012-06-24T08:51:27.463Z</time>
      </trkpt>
      <trkpt lat="49.33631" lon="0.95785">
        <ele>59.385</ele>
        <time>2012-06-24T08:51:27.463Z</time>
      </trkpt>
      <trkpt lat="49.3362" lon="0.95794">
        <ele>59.655</ele>
        <time>2012-06-24T08:51:31.893Z</time>
      </trkpt>
      <trkpt lat="49.33606" lon="0.95797">
        <ele>59.471</ele>
        <time>2012-06-24T08:51:37.177Z</time>
      </trkpt>
      <trkpt lat="49.33595" lon="0.95797">
        <ele>58.98</ele>
        <time>2012-06-24T08:51:40.787Z</time>
      </trkpt>
      <trkpt lat="49.33586" lon="0.95794">
        <ele>58.402</ele>
        <time>2012-06-24T08:51:43.788Z</time>
      </trkpt>
      <trkpt lat="49.33586" lon="0.95794">
        <ele>58.017</ele>
        <time>2012-06-24T08:51:43.788Z</time>
      </trkpt>
      <trkpt lat="49.33572" lon="0.95785">
        <ele>57.763</ele>
        <time>2012-06-24T08:51:48.086Z</time>
      </trkpt>
      <trkpt lat="49.33562" lon="0.95777">
        <ele>57.285</ele>
        <time>2012-06-24T08:51:51.327Z</time>
      </trkpt>
      <trkpt lat="49.33551" lon="0.95772">
        <ele>56.609</ele>
        <time>2012-06-24T08:51:53.844Z</time>
      </trkpt>
      <trkpt lat="49.33543" lon="0.95786">
        <ele>55.88</ele>
        <time>2012-06-24T08:51:56.874Z</time>
      </trkpt>
      <trkpt lat="49.33538" lon="0.95801">
        <ele>54.976</ele>
        <time>2012-06-24T08:51:59.801Z</time>
      </trkpt>
      <trkpt lat="49.33534" lon="0.95814">
        <ele>54</ele>
        <time>2012-06-24T08:52:02.980Z</time>
      </trkpt>
      <trkpt lat="49.33528" lon="0.9583">
        <ele>51.535</ele>
        <time>2012-06-24T08:52:06.613Z</time>
      </trkpt>
      <trkpt lat="49.33518" lon="0.95847">
        <ele>46.639</ele>
        <time>2012-06-24T08:52:10.807Z</time>
      </trkpt>
      <trkpt lat="49.33503" lon="0.95862">
        <ele>41.812</ele>
        <time>2012-06-24T08:52:15.163Z</time>
      </trkpt>
      <trkpt lat="49.33487" lon="0.95874">
        <ele>39.507</ele>
        <time>2012-06-24T08:52:18.933Z</time>
      </trkpt>
      <trkpt lat="49.33473" lon="0.95883">
        <ele>39.124</ele>
        <time>2012-06-24T08:52:21.756Z</time>
      </trkpt>
      <trkpt lat="49.33461" lon="0.95886">
        <ele>39.517</ele>
        <time>2012-06-24T08:52:24.174Z</time>
      </trkpt>
      <trkpt lat="49.33451" lon="0.95889">
        <ele>40.04</ele>
        <time>2012-06-24T08:52:25.974Z</time>
      </trkpt>
      <trkpt lat="49.3343" lon="0.95892">
        <ele>40.852</ele>
        <time>2012-06-24T08:52:29.866Z</time>
      </trkpt>
      <trkpt lat="49.33415" lon="0.9589">
        <ele>42.074</ele>
        <time>2012-06-24T08:52:32.466Z</time>
      </trkpt>
      <trkpt lat="49.33399" lon="0.95885">
        <ele>43.131</ele>
        <time>2012-06-24T08:52:35.386Z</time>
      </trkpt>
      <trkpt lat="49.33388" lon="0.95883">
        <ele>43.578</ele>
        <time>2012-06-24T08:52:37.425Z</time>
      </trkpt>
      <trkpt lat="49.33379" lon="0.95878">
        <ele>43.591</ele>
        <time>2012-06-24T08:52:39.265Z</time>
      </trkpt>
      <trkpt lat="49.33371" lon="0.95863">
        <ele>43.176</ele>
        <time>2012-06-24T08:52:41.791Z</time>
      </trkpt>
      <trkpt lat="49.33371" lon="0.95844">
        <ele>42.228</ele>
        <time>2012-06-24T08:52:44.576Z</time>
      </trkpt>
      <trkpt lat="49.33372" lon="0.95825">
        <ele>40.42</ele>
        <time>2012-06-24T08:52:47.526Z</time>
      </trkpt>
      <trkpt lat="49.33374" lon="0.95807">
        <ele>37.699</ele>
        <time>2012-06-24T08:52:50.296Z</time>
      </trkpt>
      <trkpt lat="49.33377" lon="0.95791">
        <ele>35.093</ele>
        <time>2012-06-24T08:52:52.770Z</time>
      </trkpt>
      <trkpt lat="49.33377" lon="0.95791">
        <ele>33.673</ele>
        <time>2012-06-24T08:52:54.769Z</time>
      </trkpt>
      <trkpt lat="49.33377" lon="0.95791">
        <ele>33.315</ele>
        <time>2012-06-24T08:52:58.771Z</time>
      </trkpt>
      <trkpt lat="49.33384" lon="0.9576">
        <ele>33.44</ele>
        <time>2012-06-24T08:52:58.771Z</time>
      </trkpt>
      <trkpt lat="49.33386" lon="0.95746">
        <ele>33.631</ele>
        <time>2012-06-24T08:53:01.607Z</time>
      </trkpt>
      <trkpt lat="49.33388" lon="0.95731">
        <ele>33.922</ele>
        <time>2012-06-24T08:53:04.360Z</time>
      </trkpt>
      <trkpt lat="49.33389" lon="0.95713">
        <ele>34.639</ele>
        <time>2012-06-24T08:53:07.975Z</time>
      </trkpt>
      <trkpt lat="49.33389" lon="0.95699">
        <ele>35.684</ele>
        <time>2012-06-24T08:53:10.872Z</time>
      </trkpt>
      <trkpt lat="49.33388" lon="0.95685">
        <ele>36.65</ele>
        <time>2012-06-24T08:53:13.863Z</time>
      </trkpt>
      <trkpt lat="49.33387" lon="0.95668">
        <ele>37.62</ele>
        <time>2012-06-24T08:53:17.674Z</time>
      </trkpt>
      <trkpt lat="49.33384" lon="0.9565">
        <ele>38.683</ele>
        <time>2012-06-24T08:53:21.649Z</time>
      </trkpt>
      <trkpt lat="49.33378" lon="0.95637">
        <ele>39.594</ele>
        <time>2012-06-24T08:53:25.365Z</time>
      </trkpt>
      <trkpt lat="49.3337" lon="0.95624">
        <ele>40.405</ele>
        <time>2012-06-24T08:53:29.441Z</time>
      </trkpt>
      <trkpt lat="49.3336" lon="0.95615">
        <ele>41.35</ele>
        <time>2012-06-24T08:53:33.713Z</time>
      </trkpt>
      <trkpt lat="49.3335" lon="0.95607">
        <ele>42.282</ele>
        <time>2012-06-24T08:53:38.123Z</time>
      </trkpt>
      <trkpt lat="49.33341" lon="0.95604">
        <ele>43.161</ele>
        <time>2012-06-24T08:53:41.630Z</time>
      </trkpt>
      <trkpt lat="49.33331" lon="0.95603">
        <ele>44.117</ele>
        <time>2012-06-24T08:53:45.569Z</time>
      </trkpt>
      <trkpt lat="49.3332" lon="0.95606">
        <ele>44.984</ele>
        <time>2012-06-24T08:53:49.774Z</time>
      </trkpt>
      <trkpt lat="49.3332" lon="0.95606">
        <ele>45.493</ele>
        <time>2012-06-24T08:53:49.774Z</time>
      </trkpt>
      <trkpt lat="49.3332" lon="0.95606">
        <ele>45.673</ele>
        <time>2012-06-24T08:53:54.775Z</time>
      </trkpt>
      <trkpt lat="49.33304" lon="0.95612">
        <ele>45.921</ele>
        <time>2012-06-24T08:53:54.775Z</time>
      </trkpt>
      <trkpt lat="49.33295" lon="0.95613">
        <ele>46.78</ele>
        <time>2012-06-24T08:53:58.448Z</time>
      </trkpt>
      <trkpt lat="49.33285" lon="0.95612">
        <ele>48.288</ele>
        <time>2012-06-24T08:54:02.243Z</time>
      </trkpt>
      <trkpt lat="49.33276" lon="0.95615">
        <ele>49.831</ele>
        <time>2012-06-24T08:54:05.924Z</time>
      </trkpt>
      <trkpt lat="49.33266" lon="0.9562">
        <ele>50.489</ele>
        <time>2012-06-24T08:54:10.238Z</time>
      </trkpt>
      <trkpt lat="49.33257" lon="0.95625">
        <ele>50.005</ele>
        <time>2012-06-24T08:54:14.338Z</time>
      </trkpt>
      <trkpt lat="49.3325" lon="0.95634">
        <ele>49.162</ele>
        <time>2012-06-24T08:54:18.042Z</time>
      </trkpt>
      <trkpt lat="49.33242" lon="0.95645">
        <ele>48.665</ele>
        <time>2012-06-24T08:54:22.419Z</time>
      </trkpt>
      <trkpt lat="49.33235" lon="0.95657">
        <ele>48.533</ele>
        <time>2012-06-24T08:54:26.648Z</time>
      </trkpt>
      <trkpt lat="49.33227" lon="0.95668">
        <ele>48.574</ele>
        <time>2012-06-24T08:54:30.757Z</time>
      </trkpt>
      <trkpt lat="49.33219" lon="0.95677">
        <ele>48.805</ele>
        <time>2012-06-24T08:54:34.585Z</time>
      </trkpt>
      <trkpt lat="49.33212" lon="0.95688">
        <ele>49.311</ele>
        <time>2012-06-24T08:54:38.416Z</time>
      </trkpt>
      <trkpt lat="49.33206" lon="0.957">
        <ele>49.869</ele>
        <time>2012-06-24T08:54:42.482Z</time>
      </trkpt>
      <trkpt lat="49.332" lon="0.95713">
        <ele>50.286</ele>
        <time>2012-06-24T08:54:47.037Z</time>
      </trkpt>
      <trkpt lat="49.33194" lon="0.95726">
        <ele>50.623</ele>
        <time>2012-06-24T08:54:51.377Z</time>
      </trkpt>
      <trkpt lat="49.33189" lon="0.9574">
        <ele>50.893</ele>
        <time>2012-06-24T08:54:55.336Z</time>
      </trkpt>
      <trkpt lat="49.33189" lon="0.9574">
        <ele>51.067</ele>
        <time>2012-06-24T08:54:55.336Z</time>
      </trkpt>
      <trkpt lat="49.33183" lon="0.95753">
        <ele>51.243</ele>
        <time>2012-06-24T08:54:59.455Z</time>
      </trkpt>
      <trkpt lat="49.33179" lon="0.95767">
        <ele>51.638</ele>
        <time>2012-06-24T08:55:03.610Z</time>
      </trkpt>
      <trkpt lat="49.33179" lon="0.95767">
        <ele>52.255</ele>
        <time>2012-06-24T08:55:03.610Z</time>
      </trkpt>
      <trkpt lat="49.33175" lon="0.95783">
        <ele>52.96</ele>
        <time>2012-06-24T08:55:08.288Z</time>
      </trkpt>
      <trkpt lat="49.33172" lon="0.958">
        <ele>53.486</ele>
        <time>2012-06-24T08:55:12.437Z</time>
      </trkpt>
      <trkpt lat="49.3317" lon="0.95814">
        <ele>53.366</ele>
        <time>2012-06-24T08:55:15.640Z</time>
      </trkpt>
      <trkpt lat="49.33167" lon="0.95828">
        <ele>52.658</ele>
        <time>2012-06-24T08:55:18.827Z</time>
      </trkpt>
      <trkpt lat="49.33162" lon="0.95843">
        <ele>51.981</ele>
        <time>2012-06-24T08:55:22.708Z</time>
      </trkpt>
      <trkpt lat="49.33159" lon="0.9586">
        <ele>51.604</ele>
        <time>2012-06-24T08:55:26.823Z</time>
      </trkpt>
      <trkpt lat="49.33155" lon="0.95875">
        <ele>51.439</ele>
        <time>2012-06-24T08:55:31.054Z</time>
      </trkpt>
      <trkpt lat="49.3315" lon="0.9589">
        <ele>51.365</ele>
        <time>2012-06-24T08:55:35.436Z</time>
      </trkpt>
      <trkpt lat="49.33146" lon="0.95904">
        <ele>51.328</ele>
        <time>2012-06-24T08:55:39.343Z</time>
      </trkpt>
      <trkpt lat="49.33143" lon="0.95918">
        <ele>51.35</ele>
        <time>2012-06-24T08:55:43.170Z</time>
      </trkpt>
      <trkpt lat="49.33138" lon="0.95932">
        <ele>51.662</ele>
        <time>2012-06-24T08:55:47.680Z</time>
      </trkpt>
      <trkpt lat="49.33133" lon="0.95946">
        <ele>52.349</ele>
        <time>2012-06-24T08:55:52.376Z</time>
      </trkpt>
      <trkpt lat="49.33129" lon="0.9596">
        <ele>53.027</ele>
        <time>2012-06-24T08:55:57.294Z</time>
      </trkpt>
      <trkpt lat="49.33125" lon="0.95974">
        <ele>53.431</ele>
        <time>2012-06-24T08:56:02.420Z</time>
      </trkpt>
      <trkpt lat="49.33123" lon="0.95988">
        <ele>53.741</ele>
        <time>2012-06-24T08:56:07.638Z</time>
      </trkpt>
      <trkpt lat="49.33121" lon="0.96002">
        <ele>54.172</ele>
        <time>2012-06-24T08:56:13.088Z</time>
      </trkpt>
      <trkpt lat="49.33121" lon="0.96017">
        <ele>54.986</ele>
        <time>2012-06-24T08:56:19.348Z</time>
      </trkpt>
      <trkpt lat="49.33121" lon="0.96033">
        <ele>56.483</ele>
        <time>2012-06-24T08:56:25.766Z</time>
      </trkpt>
      <trkpt lat="49.33121" lon="0.96033">
        <ele>58.323</ele>
        <time>2012-06-24T08:56:35.774Z</time>
      </trkpt>
      <trkpt lat="49.33121" lon="0.96033">
        <ele>59.634</ele>
        <time>2012-06-24T08:56:47.774Z</time>
      </trkpt>
      <trkpt lat="49.33121" lon="0.96052">
        <ele>60.629</ele>
        <time>2012-06-24T08:56:47.774Z</time>
      </trkpt>
      <trkpt lat="49.3312" lon="0.96066">
        <ele>62.164</ele>
        <time>2012-06-24T08:57:02.104Z</time>
      </trkpt>
      <trkpt lat="49.33122" lon="0.96081">
        <ele>64.427</ele>
        <time>2012-06-24T08:57:13.964Z</time>
      </trkpt>
      <trkpt lat="49.33123" lon="0.96095">
        <ele>66.884</ele>
        <time>2012-06-24T08:57:23.035Z</time>
      </trkpt>
      <trkpt lat="49.33122" lon="0.96109">
        <ele>68.808</ele>
        <time>2012-06-24T08:57:32.845Z</time>
      </trkpt>
      <trkpt lat="49.33122" lon="0.96124">
        <ele>69.86</ele>
        <time>2012-06-24T08:57:44.027Z</time>
      </trkpt>
      <trkpt lat="49.33113" lon="0.9613">
        <ele>70.33</ele>
        <time>2012-06-24T08:57:55.434Z</time>
      </trkpt>
      <trkpt lat="49.33105" lon="0.96124">
        <ele>70.7</ele>
        <time>2012-06-24T08:58:07.595Z</time>
      </trkpt>
      <trkpt lat="49.33096" lon="0.96117">
        <ele>71.432</ele>
        <time>2012-06-24T08:58:19.289Z</time>
      </trkpt>
      <trkpt lat="49.33088" lon="0.96109">
        <ele>72.672</ele>
        <time>2012-06-24T08:58:30.581Z</time>
      </trkpt>
      <trkpt lat="49.3308" lon="0.96102">
        <ele>74.392</ele>
        <time>2012-06-24T08:58:42.261Z</time>
      </trkpt>
      <trkpt lat="49.33073" lon="0.96092">
        <ele>76.56</ele>
        <time>2012-06-24T08:58:53.402Z</time>
      </trkpt>
      <trkpt lat="49.33066" lon="0.96083">
        <ele>78.979</ele>
        <time>2012-06-24T08:59:03.420Z</time>
      </trkpt>
      <trkpt lat="49.33059" lon="0.96072">
        <ele>81.364</ele>
        <time>2012-06-24T08:59:14.141Z</time>
      </trkpt>
      <trkpt lat="49.33052" lon="0.9606">
        <ele>83.333</ele>
        <time>2012-06-24T08:59:24.350Z</time>
      </trkpt>
      <trkpt lat="49.33045" lon="0.96048">
        <ele>85.01</ele>
        <time>2012-06-24T08:59:31.935Z</time>
      </trkpt>
      <trkpt lat="49.3304" lon="0.96037">
        <ele>86.79</ele>
        <time>2012-06-24T08:59:37.930Z</time>
      </trkpt>
      <trkpt lat="49.33034" lon="0.96026">
        <ele>88.612</ele>
        <time>2012-06-24T08:59:43.771Z</time>
      </trkpt>
      <trkpt lat="49.33034" lon="0.96026">
        <ele>90.05</ele>
        <time>2012-06-24T08:59:48.771Z</time>
      </trkpt>
      <trkpt lat="49.33034" lon="0.96026">
        <ele>90.868</ele>
        <time>2012-06-24T08:59:54.768Z</time>
      </trkpt>
      <trkpt lat="49.33025" lon="0.95999">
        <ele>91.093</ele>
        <time>2012-06-24T08:59:54.768Z</time>
      </trkpt>
      <trkpt lat="49.33023" lon="0.95985">
        <ele>91.248</ele>
        <time>2012-06-24T08:59:59.871Z</time>
      </trkpt>
      <trkpt lat="49.33021" lon="0.95971">
        <ele>91.659</ele>
        <time>2012-06-24T09:00:04.126Z</time>
      </trkpt>
      <trkpt lat="49.33019" lon="0.95958">
        <ele>92.182</ele>
        <time>2012-06-24T09:00:07.889Z</time>
      </trkpt>
      <trkpt lat="49.33017" lon="0.95943">
        <ele>92.746</ele>
        <time>2012-06-24T09:00:11.960Z</time>
      </trkpt>
      <trkpt lat="49.33016" lon="0.95928">
        <ele>93.449</ele>
        <time>2012-06-24T09:00:15.674Z</time>
      </trkpt>
      <trkpt lat="49.33015" lon="0.95911">
        <ele>94.109</ele>
        <time>2012-06-24T09:00:19.912Z</time>
      </trkpt>
      <trkpt lat="49.33014" lon="0.95893">
        <ele>94.624</ele>
        <time>2012-06-24T09:00:24.247Z</time>
      </trkpt>
      <trkpt lat="49.33013" lon="0.95876">
        <ele>95.111</ele>
        <time>2012-06-24T09:00:28.223Z</time>
      </trkpt>
      <trkpt lat="49.33013" lon="0.9586">
        <ele>95.536</ele>
        <time>2012-06-24T09:00:31.950Z</time>
      </trkpt>
      <trkpt lat="49.33013" lon="0.95844">
        <ele>95.786</ele>
        <time>2012-06-24T09:00:35.770Z</time>
      </trkpt>
      <trkpt lat="49.33013" lon="0.95827">
        <ele>96.009</ele>
        <time>2012-06-24T09:00:39.674Z</time>
      </trkpt>
      <trkpt lat="49.33014" lon="0.95811">
        <ele>96.464</ele>
        <time>2012-06-24T09:00:43.422Z</time>
      </trkpt>
      <trkpt lat="49.33016" lon="0.95796">
        <ele>97.175</ele>
        <time>2012-06-24T09:00:47.094Z</time>
      </trkpt>
      <trkpt lat="49.33016" lon="0.95796">
        <ele>97.839</ele>
        <time>2012-06-24T09:00:47.094Z</time>
      </trkpt>
      <trkpt lat="49.33019" lon="0.95779">
        <ele>98.229</ele>
        <time>2012-06-24T09:00:51.409Z</time>
      </trkpt>
      <trkpt lat="49.33022" lon="0.95764">
        <ele>98.384</ele>
        <time>2012-06-24T09:00:54.853Z</time>
      </trkpt>
      <trkpt lat="49.33024" lon="0.95749">
        <ele>98.39</ele>
        <time>2012-06-24T09:00:58.127Z</time>
      </trkpt>
      <trkpt lat="49.33028" lon="0.95735">
        <ele>98.293</ele>
        <time>2012-06-24T09:01:01.634Z</time>
      </trkpt>
      <trkpt lat="49.33028" lon="0.95735">
        <ele>98.182</ele>
        <time>2012-06-24T09:01:01.634Z</time>
      </trkpt>
      <trkpt lat="49.3303" lon="0.95721">
        <ele>98.114</ele>
        <time>2012-06-24T09:01:04.782Z</time>
      </trkpt>
      <trkpt lat="49.33035" lon="0.95704">
        <ele>98.081</ele>
        <time>2012-06-24T09:01:08.149Z</time>
      </trkpt>
      <trkpt lat="49.33039" lon="0.95687">
        <ele>98.054</ele>
        <time>2012-06-24T09:01:11.348Z</time>
      </trkpt>
      <trkpt lat="49.33045" lon="0.95672">
        <ele>97.995</ele>
        <time>2012-06-24T09:01:14.456Z</time>
      </trkpt>
      <trkpt lat="49.3305" lon="0.95657">
        <ele>97.902</ele>
        <time>2012-06-24T09:01:17.244Z</time>
      </trkpt>
      <trkpt lat="49.33055" lon="0.95642">
        <ele>97.848</ele>
        <time>2012-06-24T09:01:20.288Z</time>
      </trkpt>
      <trkpt lat="49.33053" lon="0.95628">
        <ele>97.877</ele>
        <time>2012-06-24T09:01:23.537Z</time>
      </trkpt>
      <trkpt lat="49.33043" lon="0.95624">
        <ele>97.951</ele>
        <time>2012-06-24T09:01:27.644Z</time>
      </trkpt>
      <trkpt lat="49.33032" lon="0.95621">
        <ele>98.1</ele>
        <time>2012-06-24T09:01:32.507Z</time>
      </trkpt>
      <trkpt lat="49.33023" lon="0.95619">
        <ele>98.346</ele>
        <time>2012-06-24T09:01:36.746Z</time>
      </trkpt>
      <trkpt lat="49.33013" lon="0.95615">
        <ele>98.574</ele>
        <time>2012-06-24T09:01:41.280Z</time>
      </trkpt>
      <trkpt lat="49.33003" lon="0.95612">
        <ele>99.098</ele>
        <time>2012-06-24T09:01:45.944Z</time>
      </trkpt>
      <trkpt lat="49.32994" lon="0.95609">
        <ele>100.381</ele>
        <time>2012-06-24T09:01:50.532Z</time>
      </trkpt>
      <trkpt lat="49.32985" lon="0.95606">
        <ele>102.138</ele>
        <time>2012-06-24T09:01:55.132Z</time>
      </trkpt>
      <trkpt lat="49.32976" lon="0.95602">
        <ele>103.902</ele>
        <time>2012-06-24T09:02:00.009Z</time>
      </trkpt>
      <trkpt lat="49.32967" lon="0.95599">
        <ele>105.808</ele>
        <time>2012-06-24T09:02:04.808Z</time>
      </trkpt>
      <trkpt lat="49.32957" lon="0.95596">
        <ele>107.77</ele>
        <time>2012-06-24T09:02:09.674Z</time>
      </trkpt>
      <trkpt lat="49.32948" lon="0.95593">
        <ele>109.278</ele>
        <time>2012-06-24T09:02:14.681Z</time>
      </trkpt>
      <trkpt lat="49.32938" lon="0.95589">
        <ele>110.099</ele>
        <time>2012-06-24T09:02:19.774Z</time>
      </trkpt>
      <trkpt lat="49.32928" lon="0.95586">
        <ele>110.412</ele>
        <time>2012-06-24T09:02:24.491Z</time>
      </trkpt>
      <trkpt lat="49.3292" lon="0.95576">
        <ele>110.486</ele>
        <time>2012-06-24T09:02:29.444Z</time>
      </trkpt>
      <trkpt lat="49.32921" lon="0.95562">
        <ele>110.657</ele>
        <time>2012-06-24T09:02:34.233Z</time>
      </trkpt>
      <trkpt lat="49.32923" lon="0.95548">
        <ele>111.196</ele>
        <time>2012-06-24T09:02:39.552Z</time>
      </trkpt>
      <trkpt lat="49.32926" lon="0.95534">
        <ele>112.026</ele>
        <time>2012-06-24T09:02:43.845Z</time>
      </trkpt>
      <trkpt lat="49.3293" lon="0.95519">
        <ele>112.75</ele>
        <time>2012-06-24T09:02:48.188Z</time>
      </trkpt>
      <trkpt lat="49.32931" lon="0.95504">
        <ele>113.431</ele>
        <time>2012-06-24T09:02:52.381Z</time>
      </trkpt>
      <trkpt lat="49.32933" lon="0.95488">
        <ele>114.318</ele>
        <time>2012-06-24T09:02:57.052Z</time>
      </trkpt>
      <trkpt lat="49.32936" lon="0.95471">
        <ele>115.122</ele>
        <time>2012-06-24T09:03:01.831Z</time>
      </trkpt>
      <trkpt lat="49.32938" lon="0.95455">
        <ele>115.542</ele>
        <time>2012-06-24T09:03:05.317Z</time>
      </trkpt>
      <trkpt lat="49.32939" lon="0.95439">
        <ele>115.815</ele>
        <time>2012-06-24T09:03:08.425Z</time>
      </trkpt>
      <trkpt lat="49.32942" lon="0.95422">
        <ele>116.4</ele>
        <time>2012-06-24T09:03:12.026Z</time>
      </trkpt>
      <trkpt lat="49.32945" lon="0.95407">
        <ele>117.099</ele>
        <time>2012-06-24T09:03:15.288Z</time>
      </trkpt>
      <trkpt lat="49.32947" lon="0.95391">
        <ele>117.272</ele>
        <time>2012-06-24T09:03:18.937Z</time>
      </trkpt>
      <trkpt lat="49.3295" lon="0.95373">
        <ele>116.984</ele>
        <time>2012-06-24T09:03:22.871Z</time>
      </trkpt>
      <trkpt lat="49.32953" lon="0.95355">
        <ele>116.971</ele>
        <time>2012-06-24T09:03:26.852Z</time>
      </trkpt>
      <trkpt lat="49.32955" lon="0.9534">
        <ele>117.513</ele>
        <time>2012-06-24T09:03:29.839Z</time>
      </trkpt>
      <trkpt lat="49.32959" lon="0.95318">
        <ele>118.176</ele>
        <time>2012-06-24T09:03:33.894Z</time>
      </trkpt>
      <trkpt lat="49.32961" lon="0.95304">
        <ele>118.595</ele>
        <time>2012-06-24T09:03:36.652Z</time>
      </trkpt>
      <trkpt lat="49.32964" lon="0.9529">
        <ele>118.863</ele>
        <time>2012-06-24T09:03:39.460Z</time>
      </trkpt>
      <trkpt lat="49.32967" lon="0.9527">
        <ele>119.026</ele>
        <time>2012-06-24T09:03:43.301Z</time>
      </trkpt>
      <trkpt lat="49.3297" lon="0.95252">
        <ele>119.078</ele>
        <time>2012-06-24T09:03:46.655Z</time>
      </trkpt>
      <trkpt lat="49.32973" lon="0.95235">
        <ele>119.979</ele>
        <time>2012-06-24T09:03:49.884Z</time>
      </trkpt>
      <trkpt lat="49.32976" lon="0.95214">
        <ele>122.322</ele>
        <time>2012-06-24T09:03:53.529Z</time>
      </trkpt>
      <trkpt lat="49.32977" lon="0.95194">
        <ele>124.734</ele>
        <time>2012-06-24T09:03:56.972Z</time>
      </trkpt>
      <trkpt lat="49.32979" lon="0.95177">
        <ele>125.881</ele>
        <time>2012-06-24T09:04:00.126Z</time>
      </trkpt>
      <trkpt lat="49.3298" lon="0.95162">
        <ele>125.668</ele>
        <time>2012-06-24T09:04:03.048Z</time>
      </trkpt>
      <trkpt lat="49.32987" lon="0.95148">
        <ele>123.975</ele>
        <time>2012-06-24T09:04:06.879Z</time>
      </trkpt>
      <trkpt lat="49.32991" lon="0.95135">
        <ele>120.965</ele>
        <time>2012-06-24T09:04:10.412Z</time>
      </trkpt>
      <trkpt lat="49.32985" lon="0.95124">
        <ele>117.697</ele>
        <time>2012-06-24T09:04:14.778Z</time>
      </trkpt>
      <trkpt lat="49.32975" lon="0.95119">
        <ele>115.42</ele>
        <time>2012-06-24T09:04:19.645Z</time>
      </trkpt>
      <trkpt lat="49.32968" lon="0.95107">
        <ele>114.471</ele>
        <time>2012-06-24T09:04:24.517Z</time>
      </trkpt>
      <trkpt lat="49.32961" lon="0.95094">
        <ele>114.263</ele>
        <time>2012-06-24T09:04:28.766Z</time>
      </trkpt>
      <trkpt lat="49.32956" lon="0.9508">
        <ele>113.972</ele>
        <time>2012-06-24T09:04:31.974Z</time>
      </trkpt>
      <trkpt lat="49.32953" lon="0.95066">
        <ele>113.267</ele>
        <time>2012-06-24T09:04:35.307Z</time>
      </trkpt>
      <trkpt lat="49.32947" lon="0.95055">
        <ele>112.571</ele>
        <time>2012-06-24T09:04:38.683Z</time>
      </trkpt>
      <trkpt lat="49.3294" lon="0.95045">
        <ele>112.249</ele>
        <time>2012-06-24T09:04:42.457Z</time>
      </trkpt>
      <trkpt lat="49.32929" lon="0.95037">
        <ele>112.204</ele>
        <time>2012-06-24T09:04:46.996Z</time>
      </trkpt>
      <trkpt lat="49.3292" lon="0.95028">
        <ele>112.263</ele>
        <time>2012-06-24T09:04:50.975Z</time>
      </trkpt>
      <trkpt lat="49.32912" lon="0.95015">
        <ele>112.058</ele>
        <time>2012-06-24T09:04:55.228Z</time>
      </trkpt>
      <trkpt lat="49.32906" lon="0.95004">
        <ele>112.613</ele>
        <time>2012-06-24T09:04:58.777Z</time>
      </trkpt>
      <trkpt lat="49.32899" lon="0.94991">
        <ele>115.126</ele>
        <time>2012-06-24T09:05:04.528Z</time>
      </trkpt>
      <trkpt lat="49.32899" lon="0.94991">
        <ele>118.171</ele>
        <time>2012-06-24T09:05:05.774Z</time>
      </trkpt>
      <trkpt lat="49.32889" lon="0.94984">
        <ele>119.8</ele>
        <time>2012-06-24T09:05:09.285Z</time>
      </trkpt>
      <trkpt lat="49.32881" lon="0.94977">
        <ele>120.186</ele>
        <time>2012-06-24T09:05:13.310Z</time>
      </trkpt>
      <trkpt lat="49.32872" lon="0.9497">
        <ele>119.982</ele>
        <time>2012-06-24T09:05:17.492Z</time>
      </trkpt>
      <trkpt lat="49.32872" lon="0.9497">
        <ele>119.68</ele>
        <time>2012-06-24T09:05:17.492Z</time>
      </trkpt>
      <trkpt lat="49.32861" lon="0.94962">
        <ele>119.592</ele>
        <time>2012-06-24T09:05:22.175Z</time>
      </trkpt>
      <trkpt lat="49.32853" lon="0.94954">
        <ele>119.519</ele>
        <time>2012-06-24T09:05:25.570Z</time>
      </trkpt>
      <trkpt lat="49.32847" lon="0.94941">
        <ele>119.151</ele>
        <time>2012-06-24T09:05:29.772Z</time>
      </trkpt>
      <trkpt lat="49.32847" lon="0.94941">
        <ele>118.713</ele>
        <time>2012-06-24T09:05:30.777Z</time>
      </trkpt>
      <trkpt lat="49.32847" lon="0.94941">
        <ele>118.489</ele>
        <time>2012-06-24T09:05:37.775Z</time>
      </trkpt>
      <trkpt lat="49.32829" lon="0.94919">
        <ele>118.393</ele>
        <time>2012-06-24T09:05:37.775Z</time>
      </trkpt>
      <trkpt lat="49.32821" lon="0.94911">
        <ele>118.288</ele>
        <time>2012-06-24T09:05:40.731Z</time>
      </trkpt>
      <trkpt lat="49.32813" lon="0.94901">
        <ele>118.244</ele>
        <time>2012-06-24T09:05:43.401Z</time>
      </trkpt>
      <trkpt lat="49.32805" lon="0.94889">
        <ele>118.41</ele>
        <time>2012-06-24T09:05:45.776Z</time>
      </trkpt>
      <trkpt lat="49.32805" lon="0.94889">
        <ele>118.719</ele>
        <time>2012-06-24T09:05:47.780Z</time>
      </trkpt>
      <trkpt lat="49.32805" lon="0.94889">
        <ele>118.904</ele>
        <time>2012-06-24T09:05:51.766Z</time>
      </trkpt>
      <trkpt lat="49.32787" lon="0.9487">
        <ele>119.088</ele>
        <time>2012-06-24T09:05:51.766Z</time>
      </trkpt>
      <trkpt lat="49.32778" lon="0.9486">
        <ele>120.077</ele>
        <time>2012-06-24T09:05:55.610Z</time>
      </trkpt>
      <trkpt lat="49.3277" lon="0.94849">
        <ele>122.009</ele>
        <time>2012-06-24T09:05:58.438Z</time>
      </trkpt>
      <trkpt lat="49.32761" lon="0.94839">
        <ele>123.771</ele>
        <time>2012-06-24T09:06:01.240Z</time>
      </trkpt>
      <trkpt lat="49.32753" lon="0.9483">
        <ele>124.632</ele>
        <time>2012-06-24T09:06:03.588Z</time>
      </trkpt>
      <trkpt lat="49.3274" lon="0.94821">
        <ele>124.925</ele>
        <time>2012-06-24T09:06:06.780Z</time>
      </trkpt>
      <trkpt lat="49.3274" lon="0.94821">
        <ele>125.061</ele>
        <time>2012-06-24T09:06:06.780Z</time>
      </trkpt>
      <trkpt lat="49.3274" lon="0.94821">
        <ele>125.112</ele>
        <time>2012-06-24T09:06:10.778Z</time>
      </trkpt>
      <trkpt lat="49.32726" lon="0.9481">
        <ele>125.054</ele>
        <time>2012-06-24T09:06:10.778Z</time>
      </trkpt>
      <trkpt lat="49.32716" lon="0.94801">
        <ele>125.208</ele>
        <time>2012-06-24T09:06:15.125Z</time>
      </trkpt>
      <trkpt lat="49.32704" lon="0.94791">
        <ele>125.794</ele>
        <time>2012-06-24T09:06:20.389Z</time>
      </trkpt>
      <trkpt lat="49.32692" lon="0.9478">
        <ele>126.368</ele>
        <time>2012-06-24T09:06:24.691Z</time>
      </trkpt>
      <trkpt lat="49.32673" lon="0.94767">
        <ele>126.451</ele>
        <time>2012-06-24T09:06:30.938Z</time>
      </trkpt>
      <trkpt lat="49.32664" lon="0.94758">
        <ele>126.174</ele>
        <time>2012-06-24T09:06:34.589Z</time>
      </trkpt>
      <trkpt lat="49.32656" lon="0.94745">
        <ele>125.883</ele>
        <time>2012-06-24T09:06:39.451Z</time>
      </trkpt>
      <trkpt lat="49.32654" lon="0.9473">
        <ele>125.539</ele>
        <time>2012-06-24T09:06:43.942Z</time>
      </trkpt>
      <trkpt lat="49.32655" lon="0.94714">
        <ele>124.76</ele>
        <time>2012-06-24T09:06:49.722Z</time>
      </trkpt>
      <trkpt lat="49.32653" lon="0.94696">
        <ele>122.439</ele>
        <time>2012-06-24T09:06:55.845Z</time>
      </trkpt>
      <trkpt lat="49.32647" lon="0.94683">
        <ele>118.409</ele>
        <time>2012-06-24T09:07:00.643Z</time>
      </trkpt>
      <trkpt lat="49.32642" lon="0.94671">
        <ele>114.502</ele>
        <time>2012-06-24T09:07:04.856Z</time>
      </trkpt>
      <trkpt lat="49.32636" lon="0.94659">
        <ele>112.13</ele>
        <time>2012-06-24T09:07:08.534Z</time>
      </trkpt>
      <trkpt lat="49.32634" lon="0.94642">
        <ele>111.103</ele>
        <time>2012-06-24T09:07:12.270Z</time>
      </trkpt>
      <trkpt lat="49.32629" lon="0.94627">
        <ele>110.984</ele>
        <time>2012-06-24T09:07:15.695Z</time>
      </trkpt>
      <trkpt lat="49.32629" lon="0.94627">
        <ele>111.127</ele>
        <time>2012-06-24T09:07:15.695Z</time>
      </trkpt>
      <trkpt lat="49.32625" lon="0.94614">
        <ele>110.893</ele>
        <time>2012-06-24T09:07:18.994Z</time>
      </trkpt>
      <trkpt lat="49.3262" lon="0.94601">
        <ele>110.192</ele>
        <time>2012-06-24T09:07:22.620Z</time>
      </trkpt>
      <trkpt lat="49.32619" lon="0.94588">
        <ele>109.732</ele>
        <time>2012-06-24T09:07:26.324Z</time>
      </trkpt>
      <trkpt lat="49.32618" lon="0.94573">
        <ele>109.984</ele>
        <time>2012-06-24T09:07:31.287Z</time>
      </trkpt>
      <trkpt lat="49.32619" lon="0.94558">
        <ele>110.413</ele>
        <time>2012-06-24T09:07:36.843Z</time>
      </trkpt>
      <trkpt lat="49.3262" lon="0.94543">
        <ele>110.464</ele>
        <time>2012-06-24T09:07:42.116Z</time>
      </trkpt>
      <trkpt lat="49.32619" lon="0.94529">
        <ele>110.272</ele>
        <time>2012-06-24T09:07:46.839Z</time>
      </trkpt>
      <trkpt lat="49.32619" lon="0.94529">
        <ele>110.122</ele>
        <time>2012-06-24T09:07:37.776Z</time>
      </trkpt>
      <trkpt lat="49.32622" lon="0.94515">
        <ele>110.082</ele>
        <time>2012-06-24T09:07:52.003Z</time>
      </trkpt>
      <trkpt lat="49.32622" lon="0.945">
        <ele>110.095</ele>
        <time>2012-06-24T09:07:57.498Z</time>
      </trkpt>
      <trkpt lat="49.32623" lon="0.94484">
        <ele>110.107</ele>
        <time>2012-06-24T09:08:03.246Z</time>
      </trkpt>
      <trkpt lat="49.32622" lon="0.94469">
        <ele>110.202</ele>
        <time>2012-06-24T09:08:07.669Z</time>
      </trkpt>
      <trkpt lat="49.32619" lon="0.94454">
        <ele>110.952</ele>
        <time>2012-06-24T09:08:11.541Z</time>
      </trkpt>
      <trkpt lat="49.32614" lon="0.94437">
        <ele>112.146</ele>
        <time>2012-06-24T09:08:15.795Z</time>
      </trkpt>
      <trkpt lat="49.32613" lon="0.94422">
        <ele>112.62</ele>
        <time>2012-06-24T09:08:19.209Z</time>
      </trkpt>
      <trkpt lat="49.32611" lon="0.94408">
        <ele>112.125</ele>
        <time>2012-06-24T09:08:22.863Z</time>
      </trkpt>
      <trkpt lat="49.3261" lon="0.94395">
        <ele>111.407</ele>
        <time>2012-06-24T09:08:26.563Z</time>
      </trkpt>
      <trkpt lat="49.32606" lon="0.94379">
        <ele>110.925</ele>
        <time>2012-06-24T09:08:31.162Z</time>
      </trkpt>
      <trkpt lat="49.32599" lon="0.94362">
        <ele>110.796</ele>
        <time>2012-06-24T09:08:35.484Z</time>
      </trkpt>
      <trkpt lat="49.32593" lon="0.94344">
        <ele>110.808</ele>
        <time>2012-06-24T09:08:39.331Z</time>
      </trkpt>
      <trkpt lat="49.3259" lon="0.9433">
        <ele>110.822</ele>
        <time>2012-06-24T09:08:42.190Z</time>
      </trkpt>
      <trkpt lat="49.32586" lon="0.94316">
        <ele>110.861</ele>
        <time>2012-06-24T09:08:45.288Z</time>
      </trkpt>
      <trkpt lat="49.32582" lon="0.94303">
        <ele>110.995</ele>
        <time>2012-06-24T09:08:48.503Z</time>
      </trkpt>
      <trkpt lat="49.32575" lon="0.94288">
        <ele>111.207</ele>
        <time>2012-06-24T09:08:52.443Z</time>
      </trkpt>
      <trkpt lat="49.32571" lon="0.94276">
        <ele>111.494</ele>
        <time>2012-06-24T09:08:55.778Z</time>
      </trkpt>
      <trkpt lat="49.32567" lon="0.94261">
        <ele>111.88</ele>
        <time>2012-06-24T09:08:59.710Z</time>
      </trkpt>
      <trkpt lat="49.32564" lon="0.94245">
        <ele>112.263</ele>
        <time>2012-06-24T09:09:03.544Z</time>
      </trkpt>
      <trkpt lat="49.32558" lon="0.94234">
        <ele>112.784</ele>
        <time>2012-06-24T09:09:07.187Z</time>
      </trkpt>
      <trkpt lat="49.32553" lon="0.94221">
        <ele>113.33</ele>
        <time>2012-06-24T09:09:11.076Z</time>
      </trkpt>
      <trkpt lat="49.32545" lon="0.9421">
        <ele>113.359</ele>
        <time>2012-06-24T09:09:15.284Z</time>
      </trkpt>
      <trkpt lat="49.3254" lon="0.94196">
        <ele>112.954</ele>
        <time>2012-06-24T09:09:19.429Z</time>
      </trkpt>
      <trkpt lat="49.32533" lon="0.94187">
        <ele>112.913</ele>
        <time>2012-06-24T09:09:23.007Z</time>
      </trkpt>
      <trkpt lat="49.32524" lon="0.94177">
        <ele>113.432</ele>
        <time>2012-06-24T09:09:27.474Z</time>
      </trkpt>
      <trkpt lat="49.32514" lon="0.94168">
        <ele>113.571</ele>
        <time>2012-06-24T09:09:32.317Z</time>
      </trkpt>
      <trkpt lat="49.32507" lon="0.94157">
        <ele>112.661</ele>
        <time>2012-06-24T09:09:35.986Z</time>
      </trkpt>
      <trkpt lat="49.32499" lon="0.94147">
        <ele>111.451</ele>
        <time>2012-06-24T09:09:39.300Z</time>
      </trkpt>
      <trkpt lat="49.3249" lon="0.94142">
        <ele>110.8</ele>
        <time>2012-06-24T09:09:42.980Z</time>
      </trkpt>
      <trkpt lat="49.32482" lon="0.94134">
        <ele>110.859</ele>
        <time>2012-06-24T09:09:46.552Z</time>
      </trkpt>
      <trkpt lat="49.32472" lon="0.94133">
        <ele>111.237</ele>
        <time>2012-06-24T09:09:50.687Z</time>
      </trkpt>
      <trkpt lat="49.32464" lon="0.94124">
        <ele>111.399</ele>
        <time>2012-06-24T09:09:55.432Z</time>
      </trkpt>
      <trkpt lat="49.32456" lon="0.94117">
        <ele>111.303</ele>
        <time>2012-06-24T09:10:00.245Z</time>
      </trkpt>
      <trkpt lat="49.32448" lon="0.94106">
        <ele>111.301</ele>
        <time>2012-06-24T09:10:05.154Z</time>
      </trkpt>
      <trkpt lat="49.32437" lon="0.94097">
        <ele>111.511</ele>
        <time>2012-06-24T09:10:10.104Z</time>
      </trkpt>
      <trkpt lat="49.32428" lon="0.94092">
        <ele>111.669</ele>
        <time>2012-06-24T09:10:13.662Z</time>
      </trkpt>
      <trkpt lat="49.32417" lon="0.94086">
        <ele>111.535</ele>
        <time>2012-06-24T09:10:17.570Z</time>
      </trkpt>
      <trkpt lat="49.32408" lon="0.94074">
        <ele>111.277</ele>
        <time>2012-06-24T09:10:21.646Z</time>
      </trkpt>
      <trkpt lat="49.32399" lon="0.94066">
        <ele>111.118</ele>
        <time>2012-06-24T09:10:24.678Z</time>
      </trkpt>
      <trkpt lat="49.32391" lon="0.94056">
        <ele>111.052</ele>
        <time>2012-06-24T09:10:27.829Z</time>
      </trkpt>
      <trkpt lat="49.32384" lon="0.94046">
        <ele>110.935</ele>
        <time>2012-06-24T09:10:30.659Z</time>
      </trkpt>
      <trkpt lat="49.32377" lon="0.94038">
        <ele>110.702</ele>
        <time>2012-06-24T09:10:33.484Z</time>
      </trkpt>
      <trkpt lat="49.32368" lon="0.94032">
        <ele>110.473</ele>
        <time>2012-06-24T09:10:36.339Z</time>
      </trkpt>
      <trkpt lat="49.32359" lon="0.94027">
        <ele>110.363</ele>
        <time>2012-06-24T09:10:39.531Z</time>
      </trkpt>
      <trkpt lat="49.32349" lon="0.94019">
        <ele>110.214</ele>
        <time>2012-06-24T09:10:43.251Z</time>
      </trkpt>
      <trkpt lat="49.32343" lon="0.94005">
        <ele>109.636</ele>
        <time>2012-06-24T09:10:46.865Z</time>
      </trkpt>
      <trkpt lat="49.32336" lon="0.93994">
        <ele>108.627</ele>
        <time>2012-06-24T09:10:50.062Z</time>
      </trkpt>
      <trkpt lat="49.3233" lon="0.93982">
        <ele>107.494</ele>
        <time>2012-06-24T09:10:53.343Z</time>
      </trkpt>
      <trkpt lat="49.32327" lon="0.93968">
        <ele>106.429</ele>
        <time>2012-06-24T09:10:56.546Z</time>
      </trkpt>
      <trkpt lat="49.32325" lon="0.93953">
        <ele>105.92</ele>
        <time>2012-06-24T09:10:59.878Z</time>
      </trkpt>
      <trkpt lat="49.32326" lon="0.93938">
        <ele>106.313</ele>
        <time>2012-06-24T09:11:03.419Z</time>
      </trkpt>
      <trkpt lat="49.32328" lon="0.93922">
        <ele>107.05</ele>
        <time>2012-06-24T09:11:07.351Z</time>
      </trkpt>
      <trkpt lat="49.32328" lon="0.93907">
        <ele>107.565</ele>
        <time>2012-06-24T09:11:11.681Z</time>
      </trkpt>
      <trkpt lat="49.32326" lon="0.93893">
        <ele>107.822</ele>
        <time>2012-06-24T09:11:15.723Z</time>
      </trkpt>
      <trkpt lat="49.32326" lon="0.93878">
        <ele>107.919</ele>
        <time>2012-06-24T09:11:19.677Z</time>
      </trkpt>
      <trkpt lat="49.32326" lon="0.93878">
        <ele>107.924</ele>
        <time>2012-06-24T09:11:19.677Z</time>
      </trkpt>
      <trkpt lat="49.32328" lon="0.93864">
        <ele>107.988</ele>
        <time>2012-06-24T09:11:23.851Z</time>
      </trkpt>
      <trkpt lat="49.32328" lon="0.93848">
        <ele>108.201</ele>
        <time>2012-06-24T09:11:28.002Z</time>
      </trkpt>
      <trkpt lat="49.32328" lon="0.93832">
        <ele>108.435</ele>
        <time>2012-06-24T09:11:31.975Z</time>
      </trkpt>
      <trkpt lat="49.32324" lon="0.93817">
        <ele>108.449</ele>
        <time>2012-06-24T09:11:35.893Z</time>
      </trkpt>
      <trkpt lat="49.32324" lon="0.93817">
        <ele>108.205</ele>
        <time>2012-06-24T09:11:35.893Z</time>
      </trkpt>
      <trkpt lat="49.32315" lon="0.93816">
        <ele>107.623</ele>
        <time>2012-06-24T09:11:39.487Z</time>
      </trkpt>
      <trkpt lat="49.32307" lon="0.93829">
        <ele>106.241</ele>
        <time>2012-06-24T09:11:43.313Z</time>
      </trkpt>
      <trkpt lat="49.32303" lon="0.93844">
        <ele>104.206</ele>
        <time>2012-06-24T09:11:48.132Z</time>
      </trkpt>
      <trkpt lat="49.323" lon="0.93859">
        <ele>102.6</ele>
        <time>2012-06-24T09:11:53.598Z</time>
      </trkpt>
      <trkpt lat="49.32297" lon="0.93884">
        <ele>102.722</ele>
        <time>2012-06-24T09:12:00.456Z</time>
      </trkpt>
      <trkpt lat="49.32294" lon="0.93908">
        <ele>104.747</ele>
        <time>2012-06-24T09:12:04.726Z</time>
      </trkpt>
      <trkpt lat="49.32293" lon="0.93926">
        <ele>107.17</ele>
        <time>2012-06-24T09:12:07.600Z</time>
      </trkpt>
      <trkpt lat="49.32291" lon="0.93944">
        <ele>108.813</ele>
        <time>2012-06-24T09:12:10.097Z</time>
      </trkpt>
      <trkpt lat="49.32286" lon="0.93966">
        <ele>109.875</ele>
        <time>2012-06-24T09:12:13.289Z</time>
      </trkpt>
      <trkpt lat="49.32282" lon="0.93983">
        <ele>110.471</ele>
        <time>2012-06-24T09:12:15.781Z</time>
      </trkpt>
      <trkpt lat="49.32282" lon="0.93983">
        <ele>110.616</ele>
        <time>2012-06-24T09:12:16.784Z</time>
      </trkpt>
      <trkpt lat="49.32282" lon="0.93983">
        <ele>110.556</ele>
        <time>2012-06-24T09:12:20.781Z</time>
      </trkpt>
      <trkpt lat="49.32278" lon="0.94008">
        <ele>110.458</ele>
        <time>2012-06-24T09:12:20.781Z</time>
      </trkpt>
      <trkpt lat="49.32278" lon="0.94024">
        <ele>110.377</ele>
        <time>2012-06-24T09:12:24.814Z</time>
      </trkpt>
      <trkpt lat="49.32283" lon="0.94042">
        <ele>110.013</ele>
        <time>2012-06-24T09:12:29.283Z</time>
      </trkpt>
      <trkpt lat="49.32289" lon="0.94054">
        <ele>108.922</ele>
        <time>2012-06-24T09:12:32.735Z</time>
      </trkpt>
      <trkpt lat="49.32297" lon="0.94065">
        <ele>107.097</ele>
        <time>2012-06-24T09:12:36.178Z</time>
      </trkpt>
      <trkpt lat="49.32307" lon="0.9408">
        <ele>105.183</ele>
        <time>2012-06-24T09:12:40.176Z</time>
      </trkpt>
      <trkpt lat="49.32316" lon="0.9409">
        <ele>103.893</ele>
        <time>2012-06-24T09:12:43.289Z</time>
      </trkpt>
      <trkpt lat="49.32327" lon="0.94101">
        <ele>103.168</ele>
        <time>2012-06-24T09:12:46.703Z</time>
      </trkpt>
      <trkpt lat="49.32336" lon="0.9411">
        <ele>102.554</ele>
        <time>2012-06-24T09:12:49.593Z</time>
      </trkpt>
      <trkpt lat="49.32344" lon="0.94118">
        <ele>102.255</ele>
        <time>2012-06-24T09:12:51.870Z</time>
      </trkpt>
      <trkpt lat="49.32351" lon="0.94129">
        <ele>102.514</ele>
        <time>2012-06-24T09:12:54.381Z</time>
      </trkpt>
      <trkpt lat="49.32362" lon="0.94143">
        <ele>102.653</ele>
        <time>2012-06-24T09:12:58.167Z</time>
      </trkpt>
      <trkpt lat="49.32371" lon="0.94153">
        <ele>101.686</ele>
        <time>2012-06-24T09:13:01.410Z</time>
      </trkpt>
      <trkpt lat="49.32379" lon="0.94162">
        <ele>99.794</ele>
        <time>2012-06-24T09:13:04.437Z</time>
      </trkpt>
      <trkpt lat="49.32388" lon="0.9417">
        <ele>97.967</ele>
        <time>2012-06-24T09:13:07.700Z</time>
      </trkpt>
      <trkpt lat="49.32397" lon="0.94175">
        <ele>96.651</ele>
        <time>2012-06-24T09:13:11.488Z</time>
      </trkpt>
      <trkpt lat="49.32407" lon="0.94179">
        <ele>95.796</ele>
        <time>2012-06-24T09:13:16.464Z</time>
      </trkpt>
      <trkpt lat="49.32413" lon="0.94189">
        <ele>95.376</ele>
        <time>2012-06-24T09:13:22.361Z</time>
      </trkpt>
      <trkpt lat="49.32419" lon="0.942">
        <ele>95.304</ele>
        <time>2012-06-24T09:13:33.051Z</time>
      </trkpt>
      <trkpt lat="49.32429" lon="0.94207">
        <ele>95.521</ele>
        <time>2012-06-24T09:13:41.542Z</time>
      </trkpt>
      <trkpt lat="49.32439" lon="0.94213">
        <ele>97.246</ele>
        <time>2012-06-24T09:13:46.002Z</time>
      </trkpt>
      <trkpt lat="49.32451" lon="0.94221">
        <ele>101.122</ele>
        <time>2012-06-24T09:13:50.755Z</time>
      </trkpt>
      <trkpt lat="49.32459" lon="0.94228">
        <ele>105.075</ele>
        <time>2012-06-24T09:13:53.913Z</time>
      </trkpt>
      <trkpt lat="49.32464" lon="0.94242">
        <ele>107.153</ele>
        <time>2012-06-24T09:13:57.473Z</time>
      </trkpt>
      <trkpt lat="49.32469" lon="0.94255">
        <ele>107.685</ele>
        <time>2012-06-24T09:14:00.660Z</time>
      </trkpt>
      <trkpt lat="49.32475" lon="0.94268">
        <ele>107.493</ele>
        <time>2012-06-24T09:14:04.379Z</time>
      </trkpt>
      <trkpt lat="49.32479" lon="0.94282">
        <ele>107.165</ele>
        <time>2012-06-24T09:14:07.981Z</time>
      </trkpt>
      <trkpt lat="49.32479" lon="0.94296">
        <ele>106.95</ele>
        <time>2012-06-24T09:14:11.652Z</time>
      </trkpt>
      <trkpt lat="49.32479" lon="0.9431">
        <ele>106.908</ele>
        <time>2012-06-24T09:14:15.277Z</time>
      </trkpt>
      <trkpt lat="49.32481" lon="0.94323">
        <ele>106.966</ele>
        <time>2012-06-24T09:14:18.633Z</time>
      </trkpt>
      <trkpt lat="49.32487" lon="0.94336">
        <ele>107.02</ele>
        <time>2012-06-24T09:14:22.056Z</time>
      </trkpt>
      <trkpt lat="49.32487" lon="0.94354">
        <ele>107.043</ele>
        <time>2012-06-24T09:14:25.755Z</time>
      </trkpt>
      <trkpt lat="49.32491" lon="0.94372">
        <ele>107.044</ele>
        <time>2012-06-24T09:14:29.536Z</time>
      </trkpt>
      <trkpt lat="49.32497" lon="0.94386">
        <ele>107.08</ele>
        <time>2012-06-24T09:14:32.621Z</time>
      </trkpt>
      <trkpt lat="49.32499" lon="0.944">
        <ele>107.353</ele>
        <time>2012-06-24T09:14:35.470Z</time>
      </trkpt>
      <trkpt lat="49.32502" lon="0.9442">
        <ele>107.734</ele>
        <time>2012-06-24T09:14:39.938Z</time>
      </trkpt>
      <trkpt lat="49.32501" lon="0.94435">
        <ele>107.798</ele>
        <time>2012-06-24T09:14:43.407Z</time>
      </trkpt>
      <trkpt lat="49.32498" lon="0.94454">
        <ele>107.434</ele>
        <time>2012-06-24T09:14:48.529Z</time>
      </trkpt>
      <trkpt lat="49.32495" lon="0.9447">
        <ele>106.624</ele>
        <time>2012-06-24T09:14:53.235Z</time>
      </trkpt>
      <trkpt lat="49.3249" lon="0.94484">
        <ele>105.484</ele>
        <time>2012-06-24T09:14:58.330Z</time>
      </trkpt>
      <trkpt lat="49.32485" lon="0.94499">
        <ele>104.096</ele>
        <time>2012-06-24T09:15:04.257Z</time>
      </trkpt>
      <trkpt lat="49.32481" lon="0.94512">
        <ele>102.462</ele>
        <time>2012-06-24T09:15:09.739Z</time>
      </trkpt>
      <trkpt lat="49.32475" lon="0.94523">
        <ele>101.136</ele>
        <time>2012-06-24T09:15:14.478Z</time>
      </trkpt>
      <trkpt lat="49.32475" lon="0.94523">
        <ele>100.628</ele>
        <time>2012-06-24T09:15:14.478Z</time>
      </trkpt>
      <trkpt lat="49.32466" lon="0.94533">
        <ele>100.941</ele>
        <time>2012-06-24T09:15:19.500Z</time>
      </trkpt>
      <trkpt lat="49.32458" lon="0.94537">
        <ele>101.85</ele>
        <time>2012-06-24T09:15:25.322Z</time>
      </trkpt>
      <trkpt lat="49.32449" lon="0.94543">
        <ele>102.717</ele>
        <time>2012-06-24T09:15:30.830Z</time>
      </trkpt>
      <trkpt lat="49.3244" lon="0.94544">
        <ele>103.174</ele>
        <time>2012-06-24T09:15:37.064Z</time>
      </trkpt>
      <trkpt lat="49.3243" lon="0.94544">
        <ele>103.422</ele>
        <time>2012-06-24T09:15:43.838Z</time>
      </trkpt>
      <trkpt lat="49.32419" lon="0.94548">
        <ele>103.602</ele>
        <time>2012-06-24T09:15:51.353Z</time>
      </trkpt>
      <trkpt lat="49.32419" lon="0.94548">
        <ele>103.699</ele>
        <time>2012-06-24T09:15:51.353Z</time>
      </trkpt>
      <trkpt lat="49.32411" lon="0.94555">
        <ele>103.72</ele>
        <time>2012-06-24T09:15:56.744Z</time>
      </trkpt>
      <trkpt lat="49.32404" lon="0.94563">
        <ele>103.735</ele>
        <time>2012-06-24T09:16:02.002Z</time>
      </trkpt>
      <trkpt lat="49.32395" lon="0.94571">
        <ele>103.788</ele>
        <time>2012-06-24T09:16:07.854Z</time>
      </trkpt>
      <trkpt lat="49.32388" lon="0.94579">
        <ele>103.988</ele>
        <time>2012-06-24T09:16:13.246Z</time>
      </trkpt>
      <trkpt lat="49.32388" lon="0.94579">
        <ele>104.241</ele>
        <time>2012-06-24T09:16:13.246Z</time>
      </trkpt>
      <trkpt lat="49.3238" lon="0.94588">
        <ele>105.177</ele>
        <time>2012-06-24T09:16:17.672Z</time>
      </trkpt>
      <trkpt lat="49.32372" lon="0.94595">
        <ele>107.471</ele>
        <time>2012-06-24T09:16:22.781Z</time>
      </trkpt>
      <trkpt lat="49.32372" lon="0.94595">
        <ele>110.021</ele>
        <time>2012-06-24T09:16:22.781Z</time>
      </trkpt>
      <trkpt lat="49.32364" lon="0.94602">
        <ele>111.381</ele>
        <time>2012-06-24T09:16:28.980Z</time>
      </trkpt>
      <trkpt lat="49.32355" lon="0.94612">
        <ele>111.694</ele>
        <time>2012-06-24T09:16:36.327Z</time>
      </trkpt>
      <trkpt lat="49.32347" lon="0.94621">
        <ele>111.849</ele>
        <time>2012-06-24T09:16:41.199Z</time>
      </trkpt>
      <trkpt lat="49.32336" lon="0.94627">
        <ele>112.448</ele>
        <time>2012-06-24T09:16:45.989Z</time>
      </trkpt>
      <trkpt lat="49.32327" lon="0.94631">
        <ele>113.258</ele>
        <time>2012-06-24T09:16:49.714Z</time>
      </trkpt>
      <trkpt lat="49.32317" lon="0.94635">
        <ele>113.839</ele>
        <time>2012-06-24T09:16:53.686Z</time>
      </trkpt>
      <trkpt lat="49.32305" lon="0.94638">
        <ele>114.11</ele>
        <time>2012-06-24T09:16:58.773Z</time>
      </trkpt>
      <trkpt lat="49.32305" lon="0.94638">
        <ele>114.149</ele>
        <time>2012-06-24T09:16:58.773Z</time>
      </trkpt>
      <trkpt lat="49.32305" lon="0.94638">
        <ele>114.1</ele>
        <time>2012-06-24T09:17:05.769Z</time>
      </trkpt>
      <trkpt lat="49.32287" lon="0.94639">
        <ele>114.05</ele>
        <time>2012-06-24T09:17:05.769Z</time>
      </trkpt>
      <trkpt lat="49.32274" lon="0.94641">
        <ele>114.026</ele>
        <time>2012-06-24T09:17:13.348Z</time>
      </trkpt>
      <trkpt lat="49.32261" lon="0.94641">
        <ele>114.195</ele>
        <time>2012-06-24T09:17:17.907Z</time>
      </trkpt>
      <trkpt lat="49.32251" lon="0.94638">
        <ele>114.839</ele>
        <time>2012-06-24T09:17:21.070Z</time>
      </trkpt>
      <trkpt lat="49.32241" lon="0.94634">
        <ele>115.988</ele>
        <time>2012-06-24T09:17:23.621Z</time>
      </trkpt>
      <trkpt lat="49.32225" lon="0.94634">
        <ele>117.203</ele>
        <time>2012-06-24T09:17:27.613Z</time>
      </trkpt>
      <trkpt lat="49.32212" lon="0.94635">
        <ele>117.974</ele>
        <time>2012-06-24T09:17:30.526Z</time>
      </trkpt>
      <trkpt lat="49.322" lon="0.94632">
        <ele>118.023</ele>
        <time>2012-06-24T09:17:33.473Z</time>
      </trkpt>
      <trkpt lat="49.32187" lon="0.94628">
        <ele>117.499</ele>
        <time>2012-06-24T09:17:36.842Z</time>
      </trkpt>
      <trkpt lat="49.32175" lon="0.94624">
        <ele>116.906</ele>
        <time>2012-06-24T09:17:39.895Z</time>
      </trkpt>
      <trkpt lat="49.32163" lon="0.94623">
        <ele>116.848</ele>
        <time>2012-06-24T09:17:43.157Z</time>
      </trkpt>
      <trkpt lat="49.32151" lon="0.94623">
        <ele>117.486</ele>
        <time>2012-06-24T09:17:46.318Z</time>
      </trkpt>
      <trkpt lat="49.3214" lon="0.94622">
        <ele>118.438</ele>
        <time>2012-06-24T09:17:49.421Z</time>
      </trkpt>
      <trkpt lat="49.32127" lon="0.94624">
        <ele>119.203</ele>
        <time>2012-06-24T09:17:52.967Z</time>
      </trkpt>
      <trkpt lat="49.32119" lon="0.94631">
        <ele>119.591</ele>
        <time>2012-06-24T09:17:55.629Z</time>
      </trkpt>
      <trkpt lat="49.32107" lon="0.94637">
        <ele>119.665</ele>
        <time>2012-06-24T09:18:00.588Z</time>
      </trkpt>
      <trkpt lat="49.32098" lon="0.94635">
        <ele>119.213</ele>
        <time>2012-06-24T09:18:05.038Z</time>
      </trkpt>
      <trkpt lat="49.32088" lon="0.94636">
        <ele>117.745</ele>
        <time>2012-06-24T09:18:09.468Z</time>
      </trkpt>
      <trkpt lat="49.32079" lon="0.94633">
        <ele>115.42</ele>
        <time>2012-06-24T09:18:13.844Z</time>
      </trkpt>
      <trkpt lat="49.3207" lon="0.94635">
        <ele>113.232</ele>
        <time>2012-06-24T09:18:21.249Z</time>
      </trkpt>
      <trkpt lat="49.32059" lon="0.94635">
        <ele>111.987</ele>
        <time>2012-06-24T09:18:26.024Z</time>
      </trkpt>
      <trkpt lat="49.32049" lon="0.94632">
        <ele>111.758</ele>
        <time>2012-06-24T09:18:30.000Z</time>
      </trkpt>
      <trkpt lat="49.32037" lon="0.94629">
        <ele>112.096</ele>
        <time>2012-06-24T09:18:34.276Z</time>
      </trkpt>
      <trkpt lat="49.32028" lon="0.94626">
        <ele>112.502</ele>
        <time>2012-06-24T09:18:37.958Z</time>
      </trkpt>
      <trkpt lat="49.32015" lon="0.9462">
        <ele>112.762</ele>
        <time>2012-06-24T09:18:42.721Z</time>
      </trkpt>
      <trkpt lat="49.32004" lon="0.94617">
        <ele>113.32</ele>
        <time>2012-06-24T09:18:46.409Z</time>
      </trkpt>
      <trkpt lat="49.31994" lon="0.94619">
        <ele>114.469</ele>
        <time>2012-06-24T09:18:49.411Z</time>
      </trkpt>
      <trkpt lat="49.31984" lon="0.94622">
        <ele>115.873</ele>
        <time>2012-06-24T09:18:52.586Z</time>
      </trkpt>
      <trkpt lat="49.31973" lon="0.94626">
        <ele>117.09</ele>
        <time>2012-06-24T09:18:56.286Z</time>
      </trkpt>
      <trkpt lat="49.31959" lon="0.94629">
        <ele>117.851</ele>
        <time>2012-06-24T09:19:01.462Z</time>
      </trkpt>
      <trkpt lat="49.3195" lon="0.9463">
        <ele>118.048</ele>
        <time>2012-06-24T09:19:05.048Z</time>
      </trkpt>
      <trkpt lat="49.3194" lon="0.94629">
        <ele>117.927</ele>
        <time>2012-06-24T09:19:08.229Z</time>
      </trkpt>
      <trkpt lat="49.3193" lon="0.94627">
        <ele>117.752</ele>
        <time>2012-06-24T09:19:11.134Z</time>
      </trkpt>
      <trkpt lat="49.31921" lon="0.94622">
        <ele>117.808</ele>
        <time>2012-06-24T09:19:13.921Z</time>
      </trkpt>
      <trkpt lat="49.31912" lon="0.94619">
        <ele>118.183</ele>
        <time>2012-06-24T09:19:16.722Z</time>
      </trkpt>
      <trkpt lat="49.31902" lon="0.94616">
        <ele>118.666</ele>
        <time>2012-06-24T09:19:20.081Z</time>
      </trkpt>
      <trkpt lat="49.31892" lon="0.94614">
        <ele>119.039</ele>
        <time>2012-06-24T09:19:23.257Z</time>
      </trkpt>
      <trkpt lat="49.31882" lon="0.94613">
        <ele>119.308</ele>
        <time>2012-06-24T09:19:26.460Z</time>
      </trkpt>
      <trkpt lat="49.31871" lon="0.94616">
        <ele>119.589</ele>
        <time>2012-06-24T09:19:29.736Z</time>
      </trkpt>
      <trkpt lat="49.31863" lon="0.94625">
        <ele>119.914</ele>
        <time>2012-06-24T09:19:33.115Z</time>
      </trkpt>
      <trkpt lat="49.31856" lon="0.94635">
        <ele>120.22</ele>
        <time>2012-06-24T09:19:36.425Z</time>
      </trkpt>
      <trkpt lat="49.31847" lon="0.94644">
        <ele>120.497</ele>
        <time>2012-06-24T09:19:40.711Z</time>
      </trkpt>
      <trkpt lat="49.31839" lon="0.94661">
        <ele>120.695</ele>
        <time>2012-06-24T09:19:47.253Z</time>
      </trkpt>
      <trkpt lat="49.31827" lon="0.94683">
        <ele>120.767</ele>
        <time>2012-06-24T09:19:55.016Z</time>
      </trkpt>
      <trkpt lat="49.31813" lon="0.94708">
        <ele>120.765</ele>
        <time>2012-06-24T09:20:00.477Z</time>
      </trkpt>
      <trkpt lat="49.31804" lon="0.9472">
        <ele>120.683</ele>
        <time>2012-06-24T09:20:02.961Z</time>
      </trkpt>
      <trkpt lat="49.31793" lon="0.94734">
        <ele>120.508</ele>
        <time>2012-06-24T09:20:05.778Z</time>
      </trkpt>
      <trkpt lat="49.31782" lon="0.94749">
        <ele>120.333</ele>
        <time>2012-06-24T09:20:08.720Z</time>
      </trkpt>
      <trkpt lat="49.31771" lon="0.94763">
        <ele>120.06</ele>
        <time>2012-06-24T09:20:11.532Z</time>
      </trkpt>
      <trkpt lat="49.31761" lon="0.94773">
        <ele>119.47</ele>
        <time>2012-06-24T09:20:13.928Z</time>
      </trkpt>
      <trkpt lat="49.3175" lon="0.94787">
        <ele>118.757</ele>
        <time>2012-06-24T09:20:16.895Z</time>
      </trkpt>
      <trkpt lat="49.31741" lon="0.94803">
        <ele>118.247</ele>
        <time>2012-06-24T09:20:19.782Z</time>
      </trkpt>
      <trkpt lat="49.31731" lon="0.94817">
        <ele>117.96</ele>
        <time>2012-06-24T09:20:22.857Z</time>
      </trkpt>
      <trkpt lat="49.31724" lon="0.94828">
        <ele>117.793</ele>
        <time>2012-06-24T09:20:24.876Z</time>
      </trkpt>
      <trkpt lat="49.31714" lon="0.94841">
        <ele>117.655</ele>
        <time>2012-06-24T09:20:27.784Z</time>
      </trkpt>
      <trkpt lat="49.31703" lon="0.94852">
        <ele>117.521</ele>
        <time>2012-06-24T09:20:30.573Z</time>
      </trkpt>
      <trkpt lat="49.31694" lon="0.94863">
        <ele>117.439</ele>
        <time>2012-06-24T09:20:33.207Z</time>
      </trkpt>
      <trkpt lat="49.31684" lon="0.94874">
        <ele>117.285</ele>
        <time>2012-06-24T09:20:35.911Z</time>
      </trkpt>
      <trkpt lat="49.31676" lon="0.94885">
        <ele>116.95</ele>
        <time>2012-06-24T09:20:38.434Z</time>
      </trkpt>
      <trkpt lat="49.31667" lon="0.94896">
        <ele>116.61</ele>
        <time>2012-06-24T09:20:41.229Z</time>
      </trkpt>
      <trkpt lat="49.31657" lon="0.94908">
        <ele>116.451</ele>
        <time>2012-06-24T09:20:44.198Z</time>
      </trkpt>
      <trkpt lat="49.31648" lon="0.94918">
        <ele>116.577</ele>
        <time>2012-06-24T09:20:47.014Z</time>
      </trkpt>
      <trkpt lat="49.3164" lon="0.94928">
        <ele>116.995</ele>
        <time>2012-06-24T09:20:49.733Z</time>
      </trkpt>
      <trkpt lat="49.31632" lon="0.94936">
        <ele>117.429</ele>
        <time>2012-06-24T09:20:52.249Z</time>
      </trkpt>
      <trkpt lat="49.31623" lon="0.94945">
        <ele>117.721</ele>
        <time>2012-06-24T09:20:54.990Z</time>
      </trkpt>
      <trkpt lat="49.31615" lon="0.94954">
        <ele>118.183</ele>
        <time>2012-06-24T09:20:57.668Z</time>
      </trkpt>
      <trkpt lat="49.31608" lon="0.94965">
        <ele>118.939</ele>
        <time>2012-06-24T09:21:00.456Z</time>
      </trkpt>
      <trkpt lat="49.31597" lon="0.94967">
        <ele>119.606</ele>
        <time>2012-06-24T09:21:03.763Z</time>
      </trkpt>
      <trkpt lat="49.31588" lon="0.94971">
        <ele>119.897</ele>
        <time>2012-06-24T09:21:06.581Z</time>
      </trkpt>
      <trkpt lat="49.31585" lon="0.94988">
        <ele>119.925</ele>
        <time>2012-06-24T09:21:10.204Z</time>
      </trkpt>
      <trkpt lat="49.31581" lon="0.95007">
        <ele>119.864</ele>
        <time>2012-06-24T09:21:15.162Z</time>
      </trkpt>
      <trkpt lat="49.31577" lon="0.95023">
        <ele>119.835</ele>
        <time>2012-06-24T09:21:19.688Z</time>
      </trkpt>
      <trkpt lat="49.31574" lon="0.95036">
        <ele>119.887</ele>
        <time>2012-06-24T09:21:23.192Z</time>
      </trkpt>
      <trkpt lat="49.31568" lon="0.9505">
        <ele>120.487</ele>
        <time>2012-06-24T09:21:27.047Z</time>
      </trkpt>
      <trkpt lat="49.31562" lon="0.95062">
        <ele>122.026</ele>
        <time>2012-06-24T09:21:30.226Z</time>
      </trkpt>
      <trkpt lat="49.31555" lon="0.95078">
        <ele>123.94</ele>
        <time>2012-06-24T09:21:34.221Z</time>
      </trkpt>
      <trkpt lat="49.3155" lon="0.95092">
        <ele>125.581</ele>
        <time>2012-06-24T09:21:37.521Z</time>
      </trkpt>
      <trkpt lat="49.31546" lon="0.95107">
        <ele>126.832</ele>
        <time>2012-06-24T09:21:40.896Z</time>
      </trkpt>
      <trkpt lat="49.31541" lon="0.95124">
        <ele>127.589</ele>
        <time>2012-06-24T09:21:44.668Z</time>
      </trkpt>
      <trkpt lat="49.31536" lon="0.95138">
        <ele>127.915</ele>
        <time>2012-06-24T09:21:48.150Z</time>
      </trkpt>
      <trkpt lat="49.31527" lon="0.95156">
        <ele>128.111</ele>
        <time>2012-06-24T09:21:52.362Z</time>
      </trkpt>
      <trkpt lat="49.31518" lon="0.95169">
        <ele>128.362</ele>
        <time>2012-06-24T09:21:55.733Z</time>
      </trkpt>
      <trkpt lat="49.31508" lon="0.95183">
        <ele>128.601</ele>
        <time>2012-06-24T09:21:59.078Z</time>
      </trkpt>
      <trkpt lat="49.31502" lon="0.95193">
        <ele>128.709</ele>
        <time>2012-06-24T09:22:01.124Z</time>
      </trkpt>
      <trkpt lat="49.31494" lon="0.95201">
        <ele>128.722</ele>
        <time>2012-06-24T09:22:03.251Z</time>
      </trkpt>
      <trkpt lat="49.31487" lon="0.95211">
        <ele>128.717</ele>
        <time>2012-06-24T09:22:05.382Z</time>
      </trkpt>
      <trkpt lat="49.3148" lon="0.95221">
        <ele>128.978</ele>
        <time>2012-06-24T09:22:07.657Z</time>
      </trkpt>
      <trkpt lat="49.31473" lon="0.9523">
        <ele>129.638</ele>
        <time>2012-06-24T09:22:09.987Z</time>
      </trkpt>
      <trkpt lat="49.31463" lon="0.9524">
        <ele>130.3</ele>
        <time>2012-06-24T09:22:13.160Z</time>
      </trkpt>
      <trkpt lat="49.31453" lon="0.95253">
        <ele>130.195</ele>
        <time>2012-06-24T09:22:16.933Z</time>
      </trkpt>
      <trkpt lat="49.31446" lon="0.95266">
        <ele>129.15</ele>
        <time>2012-06-24T09:22:20.033Z</time>
      </trkpt>
      <trkpt lat="49.31441" lon="0.95277">
        <ele>127.965</ele>
        <time>2012-06-24T09:22:22.509Z</time>
      </trkpt>
      <trkpt lat="49.31435" lon="0.95293">
        <ele>127.364</ele>
        <time>2012-06-24T09:22:25.759Z</time>
      </trkpt>
      <trkpt lat="49.3143" lon="0.95306">
        <ele>127.25</ele>
        <time>2012-06-24T09:22:28.783Z</time>
      </trkpt>
      <trkpt lat="49.31424" lon="0.95322">
        <ele>127.628</ele>
        <time>2012-06-24T09:22:32.256Z</time>
      </trkpt>
      <trkpt lat="49.31419" lon="0.95333">
        <ele>128.674</ele>
        <time>2012-06-24T09:22:35.206Z</time>
      </trkpt>
      <trkpt lat="49.31414" lon="0.95347">
        <ele>129.989</ele>
        <time>2012-06-24T09:22:38.119Z</time>
      </trkpt>
      <trkpt lat="49.31411" lon="0.95364">
        <ele>130.997</ele>
        <time>2012-06-24T09:22:41.484Z</time>
      </trkpt>
      <trkpt lat="49.31411" lon="0.95364">
        <ele>131.623</ele>
        <time>2012-06-24T09:22:41.484Z</time>
      </trkpt>
      <trkpt lat="49.31406" lon="0.95376">
        <ele>131.795</ele>
        <time>2012-06-24T09:22:44.161Z</time>
      </trkpt>
      <trkpt lat="49.31401" lon="0.9539">
        <ele>131.481</ele>
        <time>2012-06-24T09:22:47.283Z</time>
      </trkpt>
      <trkpt lat="49.31395" lon="0.95406">
        <ele>131.196</ele>
        <time>2012-06-24T09:22:51.059Z</time>
      </trkpt>
      <trkpt lat="49.31389" lon="0.95421">
        <ele>131.427</ele>
        <time>2012-06-24T09:22:54.362Z</time>
      </trkpt>
      <trkpt lat="49.31384" lon="0.95437">
        <ele>131.993</ele>
        <time>2012-06-24T09:22:57.771Z</time>
      </trkpt>
      <trkpt lat="49.31379" lon="0.9545">
        <ele>132.444</ele>
        <time>2012-06-24T09:23:00.646Z</time>
      </trkpt>
      <trkpt lat="49.31374" lon="0.95464">
        <ele>132.622</ele>
        <time>2012-06-24T09:23:03.590Z</time>
      </trkpt>
      <trkpt lat="49.31366" lon="0.95479">
        <ele>132.627</ele>
        <time>2012-06-24T09:23:07.146Z</time>
      </trkpt>
      <trkpt lat="49.31366" lon="0.95479">
        <ele>132.572</ele>
        <time>2012-06-24T09:23:06.770Z</time>
      </trkpt>
      <trkpt lat="49.31362" lon="0.95493">
        <ele>132.507</ele>
        <time>2012-06-24T09:23:10.596Z</time>
      </trkpt>
      <trkpt lat="49.31358" lon="0.95509">
        <ele>132.457</ele>
        <time>2012-06-24T09:23:13.675Z</time>
      </trkpt>
      <trkpt lat="49.31354" lon="0.95523">
        <ele>132.437</ele>
        <time>2012-06-24T09:23:16.397Z</time>
      </trkpt>
      <trkpt lat="49.3135" lon="0.95537">
        <ele>132.446</ele>
        <time>2012-06-24T09:23:19.060Z</time>
      </trkpt>
      <trkpt lat="49.31346" lon="0.95555">
        <ele>132.464</ele>
        <time>2012-06-24T09:23:22.369Z</time>
      </trkpt>
      <trkpt lat="49.31343" lon="0.95572">
        <ele>132.842</ele>
        <time>2012-06-24T09:23:25.434Z</time>
      </trkpt>
      <trkpt lat="49.31341" lon="0.9559">
        <ele>134.071</ele>
        <time>2012-06-24T09:23:28.644Z</time>
      </trkpt>
      <trkpt lat="49.31337" lon="0.9561">
        <ele>135.755</ele>
        <time>2012-06-24T09:23:32.001Z</time>
      </trkpt>
      <trkpt lat="49.31331" lon="0.95627">
        <ele>136.672</ele>
        <time>2012-06-24T09:23:35.101Z</time>
      </trkpt>
      <trkpt lat="49.31325" lon="0.95639">
        <ele>136.077</ele>
        <time>2012-06-24T09:23:37.395Z</time>
      </trkpt>
      <trkpt lat="49.3132" lon="0.95653">
        <ele>134.288</ele>
        <time>2012-06-24T09:23:39.940Z</time>
      </trkpt>
      <trkpt lat="49.31316" lon="0.95668">
        <ele>132.599</ele>
        <time>2012-06-24T09:23:42.599Z</time>
      </trkpt>
      <trkpt lat="49.31311" lon="0.95682">
        <ele>132.049</ele>
        <time>2012-06-24T09:23:45.508Z</time>
      </trkpt>
      <trkpt lat="49.31308" lon="0.95696">
        <ele>132.363</ele>
        <time>2012-06-24T09:23:48.367Z</time>
      </trkpt>
      <trkpt lat="49.3131" lon="0.95713">
        <ele>132.935</ele>
        <time>2012-06-24T09:23:51.988Z</time>
      </trkpt>
      <trkpt lat="49.31313" lon="0.95731">
        <ele>133.767</ele>
        <time>2012-06-24T09:23:56.162Z</time>
      </trkpt>
      <trkpt lat="49.31319" lon="0.95746">
        <ele>134.744</ele>
        <time>2012-06-24T09:24:00.505Z</time>
      </trkpt>
      <trkpt lat="49.31322" lon="0.95765">
        <ele>135.594</ele>
        <time>2012-06-24T09:24:04.849Z</time>
      </trkpt>
      <trkpt lat="49.31326" lon="0.9578">
        <ele>136.505</ele>
        <time>2012-06-24T09:24:07.901Z</time>
      </trkpt>
      <trkpt lat="49.31332" lon="0.95792">
        <ele>138.075</ele>
        <time>2012-06-24T09:24:10.750Z</time>
      </trkpt>
      <trkpt lat="49.31336" lon="0.95809">
        <ele>140.148</ele>
        <time>2012-06-24T09:24:13.905Z</time>
      </trkpt>
      <trkpt lat="49.31337" lon="0.95826">
        <ele>141.724</ele>
        <time>2012-06-24T09:24:16.856Z</time>
      </trkpt>
      <trkpt lat="49.31339" lon="0.95843">
        <ele>142.318</ele>
        <time>2012-06-24T09:24:19.773Z</time>
      </trkpt>
      <trkpt lat="49.31339" lon="0.95862">
        <ele>142.316</ele>
        <time>2012-06-24T09:24:23.064Z</time>
      </trkpt>
      <trkpt lat="49.31338" lon="0.95881">
        <ele>142.145</ele>
        <time>2012-06-24T09:24:26.774Z</time>
      </trkpt>
      <trkpt lat="49.31338" lon="0.95881">
        <ele>142.015</ele>
        <time>2012-06-24T09:24:37.779Z</time>
      </trkpt>
      <trkpt lat="49.31338" lon="0.95881">
        <ele>141.944</ele>
        <time>2012-06-24T09:25:17.767Z</time>
      </trkpt>
      <trkpt lat="49.31341" lon="0.95898">
        <ele>141.893</ele>
        <time>2012-06-24T09:25:17.767Z</time>
      </trkpt>
      <trkpt lat="49.31341" lon="0.95898">
        <ele>141.857</ele>
        <time>2012-06-24T09:25:23.787Z</time>
      </trkpt>
      <trkpt lat="49.31341" lon="0.95898">
        <ele>141.844</ele>
        <time>2012-06-24T09:26:37.774Z</time>
      </trkpt>
      <trkpt lat="49.3133" lon="0.95917">
        <ele>141.827</ele>
        <time>2012-06-24T09:26:37.774Z</time>
      </trkpt>
      <trkpt lat="49.31328" lon="0.95935">
        <ele>141.783</ele>
        <time>2012-06-24T09:26:46.057Z</time>
      </trkpt>
      <trkpt lat="49.31327" lon="0.95959">
        <ele>140.355</ele>
        <time>2012-06-24T09:26:50.145Z</time>
      </trkpt>
      <trkpt lat="49.31328" lon="0.95973">
        <ele>136.66</ele>
        <time>2012-06-24T09:26:52.158Z</time>
      </trkpt>
      <trkpt lat="49.31327" lon="0.95989">
        <ele>132.843</ele>
        <time>2012-06-24T09:26:54.329Z</time>
      </trkpt>
      <trkpt lat="49.31325" lon="0.96007">
        <ele>131.013</ele>
        <time>2012-06-24T09:26:56.699Z</time>
      </trkpt>
      <trkpt lat="49.31321" lon="0.96034">
        <ele>130.591</ele>
        <time>2012-06-24T09:27:00.063Z</time>
      </trkpt>
      <trkpt lat="49.31319" lon="0.96049">
        <ele>130.595</ele>
        <time>2012-06-24T09:27:01.811Z</time>
      </trkpt>
      <trkpt lat="49.31317" lon="0.96075">
        <ele>130.657</ele>
        <time>2012-06-24T09:27:04.804Z</time>
      </trkpt>
      <trkpt lat="49.31315" lon="0.96094">
        <ele>130.632</ele>
        <time>2012-06-24T09:27:07.075Z</time>
      </trkpt>
      <trkpt lat="49.31307" lon="0.9612">
        <ele>130.465</ele>
        <time>2012-06-24T09:27:10.263Z</time>
      </trkpt>
      <trkpt lat="49.31298" lon="0.96143">
        <ele>130.194</ele>
        <time>2012-06-24T09:27:13.475Z</time>
      </trkpt>
      <trkpt lat="49.31295" lon="0.96157">
        <ele>129.727</ele>
        <time>2012-06-24T09:27:15.250Z</time>
      </trkpt>
      <trkpt lat="49.31291" lon="0.96172">
        <ele>128.704</ele>
        <time>2012-06-24T09:27:17.191Z</time>
      </trkpt>
      <trkpt lat="49.31282" lon="0.96193">
        <ele>127.22</ele>
        <time>2012-06-24T09:27:20.418Z</time>
      </trkpt>
      <trkpt lat="49.31273" lon="0.96211">
        <ele>125.799</ele>
        <time>2012-06-24T09:27:23.327Z</time>
      </trkpt>
      <trkpt lat="49.31267" lon="0.96224">
        <ele>124.685</ele>
        <time>2012-06-24T09:27:25.300Z</time>
      </trkpt>
      <trkpt lat="49.31256" lon="0.96244">
        <ele>123.933</ele>
        <time>2012-06-24T09:27:28.779Z</time>
      </trkpt>
      <trkpt lat="49.31242" lon="0.96259">
        <ele>123.685</ele>
        <time>2012-06-24T09:27:32.206Z</time>
      </trkpt>
      <trkpt lat="49.31236" lon="0.96268">
        <ele>123.807</ele>
        <time>2012-06-24T09:27:34.033Z</time>
      </trkpt>
      <trkpt lat="49.31228" lon="0.96281">
        <ele>124.021</ele>
        <time>2012-06-24T09:27:36.220Z</time>
      </trkpt>
      <trkpt lat="49.31218" lon="0.96294">
        <ele>124.021</ele>
        <time>2012-06-24T09:27:38.865Z</time>
      </trkpt>
      <trkpt lat="49.31202" lon="0.96312">
        <ele>123.66</ele>
        <time>2012-06-24T09:27:43.842Z</time>
      </trkpt>
      <trkpt lat="49.31192" lon="0.9632">
        <ele>122.788</ele>
        <time>2012-06-24T09:27:47.090Z</time>
      </trkpt>
      <trkpt lat="49.31182" lon="0.96326">
        <ele>121.52</ele>
        <time>2012-06-24T09:27:50.820Z</time>
      </trkpt>
      <trkpt lat="49.31173" lon="0.96327">
        <ele>120.466</ele>
        <time>2012-06-24T09:27:54.847Z</time>
      </trkpt>
      <trkpt lat="49.31165" lon="0.96338">
        <ele>120.035</ele>
        <time>2012-06-24T09:27:59.141Z</time>
      </trkpt>
      <trkpt lat="49.31166" lon="0.96355">
        <ele>120.028</ele>
        <time>2012-06-24T09:28:03.309Z</time>
      </trkpt>
      <trkpt lat="49.31168" lon="0.9637">
        <ele>120.446</ele>
        <time>2012-06-24T09:28:06.377Z</time>
      </trkpt>
      <trkpt lat="49.31169" lon="0.96386">
        <ele>121.559</ele>
        <time>2012-06-24T09:28:09.629Z</time>
      </trkpt>
      <trkpt lat="49.31172" lon="0.964">
        <ele>123.241</ele>
        <time>2012-06-24T09:28:12.594Z</time>
      </trkpt>
      <trkpt lat="49.3118" lon="0.96414">
        <ele>124.787</ele>
        <time>2012-06-24T09:28:16.881Z</time>
      </trkpt>
      <trkpt lat="49.31183" lon="0.9643">
        <ele>125.642</ele>
        <time>2012-06-24T09:28:20.890Z</time>
      </trkpt>
      <trkpt lat="49.31184" lon="0.96446">
        <ele>125.844</ele>
        <time>2012-06-24T09:28:24.880Z</time>
      </trkpt>
      <trkpt lat="49.31188" lon="0.96459">
        <ele>125.678</ele>
        <time>2012-06-24T09:28:28.332Z</time>
      </trkpt>
      <trkpt lat="49.31194" lon="0.9647">
        <ele>125.118</ele>
        <time>2012-06-24T09:28:31.333Z</time>
      </trkpt>
      <trkpt lat="49.31201" lon="0.9648">
        <ele>124.227</ele>
        <time>2012-06-24T09:28:34.011Z</time>
      </trkpt>
      <trkpt lat="49.31204" lon="0.96496">
        <ele>123.478</ele>
        <time>2012-06-24T09:28:36.921Z</time>
      </trkpt>
      <trkpt lat="49.3121" lon="0.9651">
        <ele>123.169</ele>
        <time>2012-06-24T09:28:39.728Z</time>
      </trkpt>
      <trkpt lat="49.31216" lon="0.96524">
        <ele>123.371</ele>
        <time>2012-06-24T09:28:42.622Z</time>
      </trkpt>
      <trkpt lat="49.31223" lon="0.96538">
        <ele>124.023</ele>
        <time>2012-06-24T09:28:45.497Z</time>
      </trkpt>
      <trkpt lat="49.3123" lon="0.96552">
        <ele>124.678</ele>
        <time>2012-06-24T09:28:48.565Z</time>
      </trkpt>
      <trkpt lat="49.31241" lon="0.96569">
        <ele>124.984</ele>
        <time>2012-06-24T09:28:52.798Z</time>
      </trkpt>
      <trkpt lat="49.31251" lon="0.96576">
        <ele>124.916</ele>
        <time>2012-06-24T09:28:55.669Z</time>
      </trkpt>
      <trkpt lat="49.31263" lon="0.9658">
        <ele>124.571</ele>
        <time>2012-06-24T09:28:59.043Z</time>
      </trkpt>
      <trkpt lat="49.31273" lon="0.96582">
        <ele>124.22</ele>
        <time>2012-06-24T09:29:01.824Z</time>
      </trkpt>
      <trkpt lat="49.31282" lon="0.96589">
        <ele>123.664</ele>
        <time>2012-06-24T09:29:04.867Z</time>
      </trkpt>
      <trkpt lat="49.31291" lon="0.966">
        <ele>122.627</ele>
        <time>2012-06-24T09:29:08.754Z</time>
      </trkpt>
      <trkpt lat="49.31297" lon="0.96614">
        <ele>121.773</ele>
        <time>2012-06-24T09:29:12.252Z</time>
      </trkpt>
      <trkpt lat="49.31305" lon="0.96621">
        <ele>121.72</ele>
        <time>2012-06-24T09:29:15.454Z</time>
      </trkpt>
      <trkpt lat="49.31313" lon="0.96631">
        <ele>122.081</ele>
        <time>2012-06-24T09:29:18.947Z</time>
      </trkpt>
      <trkpt lat="49.31323" lon="0.96638">
        <ele>122.056</ele>
        <time>2012-06-24T09:29:23.052Z</time>
      </trkpt>
      <trkpt lat="49.31331" lon="0.96647">
        <ele>121.357</ele>
        <time>2012-06-24T09:29:26.551Z</time>
      </trkpt>
      <trkpt lat="49.31343" lon="0.96648">
        <ele>120.733</ele>
        <time>2012-06-24T09:29:30.612Z</time>
      </trkpt>
      <trkpt lat="49.31355" lon="0.96648">
        <ele>120.742</ele>
        <time>2012-06-24T09:29:33.929Z</time>
      </trkpt>
      <trkpt lat="49.31367" lon="0.96648">
        <ele>120.945</ele>
        <time>2012-06-24T09:29:36.800Z</time>
      </trkpt>
      <trkpt lat="49.31378" lon="0.96648">
        <ele>121.006</ele>
        <time>2012-06-24T09:29:39.639Z</time>
      </trkpt>
      <trkpt lat="49.31389" lon="0.96647">
        <ele>121.018</ele>
        <time>2012-06-24T09:29:42.532Z</time>
      </trkpt>
      <trkpt lat="49.31403" lon="0.96649">
        <ele>121.021</ele>
        <time>2012-06-24T09:29:46.125Z</time>
      </trkpt>
      <trkpt lat="49.31412" lon="0.96654">
        <ele>121.008</ele>
        <time>2012-06-24T09:29:48.791Z</time>
      </trkpt>
      <trkpt lat="49.31421" lon="0.96654">
        <ele>120.392</ele>
        <time>2012-06-24T09:29:51.378Z</time>
      </trkpt>
      <trkpt lat="49.3143" lon="0.96653">
        <ele>118.84</ele>
        <time>2012-06-24T09:29:53.876Z</time>
      </trkpt>
      <trkpt lat="49.31442" lon="0.96653">
        <ele>116.999</ele>
        <time>2012-06-24T09:29:57.086Z</time>
      </trkpt>
      <trkpt lat="49.31452" lon="0.96658">
        <ele>115.021</ele>
        <time>2012-06-24T09:30:00.277Z</time>
      </trkpt>
      <trkpt lat="49.31462" lon="0.96665">
        <ele>112.752</ele>
        <time>2012-06-24T09:30:03.842Z</time>
      </trkpt>
      <trkpt lat="49.31473" lon="0.96669">
        <ele>110.837</ele>
        <time>2012-06-24T09:30:07.523Z</time>
      </trkpt>
      <trkpt lat="49.31485" lon="0.96671">
        <ele>109.709</ele>
        <time>2012-06-24T09:30:11.472Z</time>
      </trkpt>
      <trkpt lat="49.31496" lon="0.96676">
        <ele>109.243</ele>
        <time>2012-06-24T09:30:15.406Z</time>
      </trkpt>
      <trkpt lat="49.31506" lon="0.96683">
        <ele>109.214</ele>
        <time>2012-06-24T09:30:19.218Z</time>
      </trkpt>
      <trkpt lat="49.31514" lon="0.96692">
        <ele>109.326</ele>
        <time>2012-06-24T09:30:22.838Z</time>
      </trkpt>
      <trkpt lat="49.31523" lon="0.96697">
        <ele>109.42</ele>
        <time>2012-06-24T09:30:26.632Z</time>
      </trkpt>
      <trkpt lat="49.31532" lon="0.96684">
        <ele>109.46</ele>
        <time>2012-06-24T09:30:31.990Z</time>
      </trkpt>
      <trkpt lat="49.31539" lon="0.9667">
        <ele>109.463</ele>
        <time>2012-06-24T09:30:35.974Z</time>
      </trkpt>
      <trkpt lat="49.31545" lon="0.96657">
        <ele>109.42</ele>
        <time>2012-06-24T09:30:39.625Z</time>
      </trkpt>
      <trkpt lat="49.31541" lon="0.96644">
        <ele>108.235</ele>
        <time>2012-06-24T09:30:44.048Z</time>
      </trkpt>
      <trkpt lat="49.3154" lon="0.96628">
        <ele>104.768</ele>
        <time>2012-06-24T09:30:49.494Z</time>
      </trkpt>
      <trkpt lat="49.3154" lon="0.96613">
        <ele>100.423</ele>
        <time>2012-06-24T09:30:56.789Z</time>
      </trkpt>
      <trkpt lat="49.3154" lon="0.96613">
        <ele>97.611</ele>
        <time>2012-06-24T09:31:00.785Z</time>
      </trkpt>
      <trkpt lat="49.3154" lon="0.96613">
        <ele>96.735</ele>
        <time>2012-06-24T09:31:07.788Z</time>
      </trkpt>
      <trkpt lat="49.31541" lon="0.96598">
        <ele>96.881</ele>
        <time>2012-06-24T09:31:07.788Z</time>
      </trkpt>
      <trkpt lat="49.31549" lon="0.9659">
        <ele>97.581</ele>
        <time>2012-06-24T09:31:17.662Z</time>
      </trkpt>
      <trkpt lat="49.31558" lon="0.96586">
        <ele>98.741</ele>
        <time>2012-06-24T09:31:27.125Z</time>
      </trkpt>
      <trkpt lat="49.31567" lon="0.96588">
        <ele>99.868</ele>
        <time>2012-06-24T09:31:34.786Z</time>
      </trkpt>
      <trkpt lat="49.31567" lon="0.96588">
        <ele>100.471</ele>
        <time>2012-06-24T09:31:38.790Z</time>
      </trkpt>
      <trkpt lat="49.31567" lon="0.96588">
        <ele>100.62</ele>
        <time>2012-06-24T09:31:49.790Z</time>
      </trkpt>
      <trkpt lat="49.31586" lon="0.96583">
        <ele>101.238</ele>
        <time>2012-06-24T09:31:49.790Z</time>
      </trkpt>
      <trkpt lat="49.31596" lon="0.96585">
        <ele>103.292</ele>
        <time>2012-06-24T09:31:56.409Z</time>
      </trkpt>
      <trkpt lat="49.31605" lon="0.96593">
        <ele>106.038</ele>
        <time>2012-06-24T09:32:02.936Z</time>
      </trkpt>
      <trkpt lat="49.31615" lon="0.96599">
        <ele>108.279</ele>
        <time>2012-06-24T09:32:08.193Z</time>
      </trkpt>
      <trkpt lat="49.31625" lon="0.96604">
        <ele>109.89</ele>
        <time>2012-06-24T09:32:12.178Z</time>
      </trkpt>
      <trkpt lat="49.31636" lon="0.96607">
        <ele>110.847</ele>
        <time>2012-06-24T09:32:16.029Z</time>
      </trkpt>
      <trkpt lat="49.31646" lon="0.96609">
        <ele>111.107</ele>
        <time>2012-06-24T09:32:19.841Z</time>
      </trkpt>
      <trkpt lat="49.31655" lon="0.96608">
        <ele>111.03</ele>
        <time>2012-06-24T09:32:24.039Z</time>
      </trkpt>
      <trkpt lat="49.31665" lon="0.96609">
        <ele>110.898</ele>
        <time>2012-06-24T09:32:28.926Z</time>
      </trkpt>
      <trkpt lat="49.31673" lon="0.96598">
        <ele>110.599</ele>
        <time>2012-06-24T09:32:34.500Z</time>
      </trkpt>
      <trkpt lat="49.3168" lon="0.96586">
        <ele>110.001</ele>
        <time>2012-06-24T09:32:40.257Z</time>
      </trkpt>
      <trkpt lat="49.31689" lon="0.9658">
        <ele>109.46</ele>
        <time>2012-06-24T09:32:45.414Z</time>
      </trkpt>
      <trkpt lat="49.31697" lon="0.96575">
        <ele>109.89</ele>
        <time>2012-06-24T09:32:49.428Z</time>
      </trkpt>
      <trkpt lat="49.31706" lon="0.96569">
        <ele>111.503</ele>
        <time>2012-06-24T09:32:53.213Z</time>
      </trkpt>
      <trkpt lat="49.31713" lon="0.96556">
        <ele>113.201</ele>
        <time>2012-06-24T09:32:57.069Z</time>
      </trkpt>
      <trkpt lat="49.31716" lon="0.96544">
        <ele>113.772</ele>
        <time>2012-06-24T09:33:00.433Z</time>
      </trkpt>
      <trkpt lat="49.31719" lon="0.96527">
        <ele>113.236</ele>
        <time>2012-06-24T09:33:04.591Z</time>
      </trkpt>
      <trkpt lat="49.31724" lon="0.96513">
        <ele>112.409</ele>
        <time>2012-06-24T09:33:08.429Z</time>
      </trkpt>
      <trkpt lat="49.31733" lon="0.965">
        <ele>111.936</ele>
        <time>2012-06-24T09:33:12.368Z</time>
      </trkpt>
      <trkpt lat="49.31744" lon="0.96491">
        <ele>111.794</ele>
        <time>2012-06-24T09:33:16.295Z</time>
      </trkpt>
      <trkpt lat="49.31754" lon="0.96486">
        <ele>111.623</ele>
        <time>2012-06-24T09:33:19.412Z</time>
      </trkpt>
      <trkpt lat="49.31767" lon="0.96485">
        <ele>111.204</ele>
        <time>2012-06-24T09:33:23.170Z</time>
      </trkpt>
      <trkpt lat="49.31777" lon="0.96484">
        <ele>110.766</ele>
        <time>2012-06-24T09:33:25.870Z</time>
      </trkpt>
      <trkpt lat="49.31786" lon="0.96489">
        <ele>110.556</ele>
        <time>2012-06-24T09:33:28.698Z</time>
      </trkpt>
      <trkpt lat="49.31792" lon="0.965">
        <ele>110.625</ele>
        <time>2012-06-24T09:33:31.707Z</time>
      </trkpt>
      <trkpt lat="49.31799" lon="0.9649">
        <ele>110.925</ele>
        <time>2012-06-24T09:33:35.367Z</time>
      </trkpt>
      <trkpt lat="49.31809" lon="0.96479">
        <ele>111.233</ele>
        <time>2012-06-24T09:33:41.214Z</time>
      </trkpt>
      <trkpt lat="49.31818" lon="0.96471">
        <ele>111.38</ele>
        <time>2012-06-24T09:33:45.337Z</time>
      </trkpt>
      <trkpt lat="49.31826" lon="0.96459">
        <ele>110.958</ele>
        <time>2012-06-24T09:33:49.048Z</time>
      </trkpt>
      <trkpt lat="49.31826" lon="0.96443">
        <ele>109.694</ele>
        <time>2012-06-24T09:33:52.435Z</time>
      </trkpt>
      <trkpt lat="49.31828" lon="0.96426">
        <ele>108.085</ele>
        <time>2012-06-24T09:33:56.103Z</time>
      </trkpt>
      <trkpt lat="49.31832" lon="0.96407">
        <ele>106.817</ele>
        <time>2012-06-24T09:34:00.005Z</time>
      </trkpt>
      <trkpt lat="49.31841" lon="0.96393">
        <ele>106.142</ele>
        <time>2012-06-24T09:34:03.609Z</time>
      </trkpt>
      <trkpt lat="49.31851" lon="0.96385">
        <ele>105.996</ele>
        <time>2012-06-24T09:34:06.706Z</time>
      </trkpt>
      <trkpt lat="49.31864" lon="0.96382">
        <ele>106.183</ele>
        <time>2012-06-24T09:34:10.074Z</time>
      </trkpt>
      <trkpt lat="49.31874" lon="0.96378">
        <ele>106.559</ele>
        <time>2012-06-24T09:34:12.725Z</time>
      </trkpt>
      <trkpt lat="49.31885" lon="0.96371">
        <ele>107.191</ele>
        <time>2012-06-24T09:34:15.407Z</time>
      </trkpt>
      <trkpt lat="49.319" lon="0.96365">
        <ele>108.24</ele>
        <time>2012-06-24T09:34:18.745Z</time>
      </trkpt>
      <trkpt lat="49.3191" lon="0.9636">
        <ele>109.382</ele>
        <time>2012-06-24T09:34:21.030Z</time>
      </trkpt>
      <trkpt lat="49.31922" lon="0.96348">
        <ele>110.068</ele>
        <time>2012-06-24T09:34:24.180Z</time>
      </trkpt>
      <trkpt lat="49.31933" lon="0.96328">
        <ele>110.132</ele>
        <time>2012-06-24T09:34:27.497Z</time>
      </trkpt>
      <trkpt lat="49.31941" lon="0.96307">
        <ele>109.639</ele>
        <time>2012-06-24T09:34:30.629Z</time>
      </trkpt>
      <trkpt lat="49.31947" lon="0.96293">
        <ele>107.989</ele>
        <time>2012-06-24T09:34:32.545Z</time>
      </trkpt>
      <trkpt lat="49.31957" lon="0.96272">
        <ele>104.898</ele>
        <time>2012-06-24T09:34:35.924Z</time>
      </trkpt>
      <trkpt lat="49.31963" lon="0.96258">
        <ele>101.752</ele>
        <time>2012-06-24T09:34:38.110Z</time>
      </trkpt>
      <trkpt lat="49.31972" lon="0.96242">
        <ele>99.976</ele>
        <time>2012-06-24T09:34:41.659Z</time>
      </trkpt>
      <trkpt lat="49.31979" lon="0.96232">
        <ele>99.465</ele>
        <time>2012-06-24T09:34:44.389Z</time>
      </trkpt>
      <trkpt lat="49.3198" lon="0.96249">
        <ele>99.469</ele>
        <time>2012-06-24T09:34:50.055Z</time>
      </trkpt>
      <trkpt lat="49.31986" lon="0.96267">
        <ele>99.359</ele>
        <time>2012-06-24T09:34:56.405Z</time>
      </trkpt>
      <trkpt lat="49.31988" lon="0.96289">
        <ele>99.047</ele>
        <time>2012-06-24T09:35:00.303Z</time>
      </trkpt>
      <trkpt lat="49.31988" lon="0.96308">
        <ele>98.696</ele>
        <time>2012-06-24T09:35:03.282Z</time>
      </trkpt>
      <trkpt lat="49.31982" lon="0.96321">
        <ele>98.039</ele>
        <time>2012-06-24T09:35:05.891Z</time>
      </trkpt>
      <trkpt lat="49.31978" lon="0.96334">
        <ele>96.362</ele>
        <time>2012-06-24T09:35:08.482Z</time>
      </trkpt>
      <trkpt lat="49.31974" lon="0.96349">
        <ele>93.975</ele>
        <time>2012-06-24T09:35:11.601Z</time>
      </trkpt>
      <trkpt lat="49.31971" lon="0.96364">
        <ele>92.273</ele>
        <time>2012-06-24T09:35:15.104Z</time>
      </trkpt>
      <trkpt lat="49.31973" lon="0.9638">
        <ele>91.773</ele>
        <time>2012-06-24T09:35:19.152Z</time>
      </trkpt>
      <trkpt lat="49.31976" lon="0.96394">
        <ele>91.783</ele>
        <time>2012-06-24T09:35:22.932Z</time>
      </trkpt>
      <trkpt lat="49.31978" lon="0.9641">
        <ele>91.749</ele>
        <time>2012-06-24T09:35:26.981Z</time>
      </trkpt>
      <trkpt lat="49.31978" lon="0.96426">
        <ele>91.622</ele>
        <time>2012-06-24T09:35:30.843Z</time>
      </trkpt>
      <trkpt lat="49.31978" lon="0.96441">
        <ele>91.53</ele>
        <time>2012-06-24T09:35:34.328Z</time>
      </trkpt>
      <trkpt lat="49.31978" lon="0.96455">
        <ele>91.2</ele>
        <time>2012-06-24T09:35:37.345Z</time>
      </trkpt>
      <trkpt lat="49.31978" lon="0.96472">
        <ele>90.013</ele>
        <time>2012-06-24T09:35:40.614Z</time>
      </trkpt>
      <trkpt lat="49.31981" lon="0.96486">
        <ele>88.028</ele>
        <time>2012-06-24T09:35:43.525Z</time>
      </trkpt>
      <trkpt lat="49.31987" lon="0.96506">
        <ele>86.155</ele>
        <time>2012-06-24T09:35:47.456Z</time>
      </trkpt>
      <trkpt lat="49.31995" lon="0.96525">
        <ele>85.027</ele>
        <time>2012-06-24T09:35:51.245Z</time>
      </trkpt>
      <trkpt lat="49.32003" lon="0.96541">
        <ele>84.613</ele>
        <time>2012-06-24T09:35:54.245Z</time>
      </trkpt>
      <trkpt lat="49.32016" lon="0.9655">
        <ele>84.641</ele>
        <time>2012-06-24T09:35:57.243Z</time>
      </trkpt>
      <trkpt lat="49.32026" lon="0.96556">
        <ele>84.786</ele>
        <time>2012-06-24T09:35:59.331Z</time>
      </trkpt>
      <trkpt lat="49.32034" lon="0.96563">
        <ele>84.862</ele>
        <time>2012-06-24T09:36:01.228Z</time>
      </trkpt>
      <trkpt lat="49.32045" lon="0.96567">
        <ele>84.534</ele>
        <time>2012-06-24T09:36:03.286Z</time>
      </trkpt>
      <trkpt lat="49.32055" lon="0.96577">
        <ele>83.652</ele>
        <time>2012-06-24T09:36:05.802Z</time>
      </trkpt>
      <trkpt lat="49.32065" lon="0.96587">
        <ele>82.534</ele>
        <time>2012-06-24T09:36:08.258Z</time>
      </trkpt>
      <trkpt lat="49.32082" lon="0.96605">
        <ele>81.494</ele>
        <time>2012-06-24T09:36:12.797Z</time>
      </trkpt>
      <trkpt lat="49.32093" lon="0.96611">
        <ele>80.311</ele>
        <time>2012-06-24T09:36:14.958Z</time>
      </trkpt>
      <trkpt lat="49.32104" lon="0.96619">
        <ele>78.502</ele>
        <time>2012-06-24T09:36:17.070Z</time>
      </trkpt>
      <trkpt lat="49.32113" lon="0.96628">
        <ele>76.06</ele>
        <time>2012-06-24T09:36:18.826Z</time>
      </trkpt>
      <trkpt lat="49.32124" lon="0.96642">
        <ele>73.606</ele>
        <time>2012-06-24T09:36:21.407Z</time>
      </trkpt>
      <trkpt lat="49.32137" lon="0.96636">
        <ele>71.738</ele>
        <time>2012-06-24T09:36:24.145Z</time>
      </trkpt>
      <trkpt lat="49.32146" lon="0.96626">
        <ele>70.359</ele>
        <time>2012-06-24T09:36:26.707Z</time>
      </trkpt>
      <trkpt lat="49.32156" lon="0.96624">
        <ele>67.881</ele>
        <time>2012-06-24T09:36:29.598Z</time>
      </trkpt>
      <trkpt lat="49.32163" lon="0.96637">
        <ele>63.401</ele>
        <time>2012-06-24T09:36:32.828Z</time>
      </trkpt>
      <trkpt lat="49.32169" lon="0.96655">
        <ele>58.868</ele>
        <time>2012-06-24T09:36:37.555Z</time>
      </trkpt>
      <trkpt lat="49.32172" lon="0.96668">
        <ele>56.296</ele>
        <time>2012-06-24T09:36:40.582Z</time>
      </trkpt>
      <trkpt lat="49.32177" lon="0.96683">
        <ele>55.486</ele>
        <time>2012-06-24T09:36:43.792Z</time>
      </trkpt>
      <trkpt lat="49.32177" lon="0.96683">
        <ele>55.52</ele>
        <time>2012-06-24T09:36:44.788Z</time>
      </trkpt>
      <trkpt lat="49.32177" lon="0.96683">
        <ele>55.776</ele>
        <time>2012-06-24T09:36:48.788Z</time>
      </trkpt>
      <trkpt lat="49.32177" lon="0.96683">
        <ele>55.924</ele>
        <time>2012-06-24T09:36:48.788Z</time>
      </trkpt>
      <trkpt lat="49.32191" lon="0.9669">
        <ele>55.888</ele>
        <time>2012-06-24T09:36:54.982Z</time>
      </trkpt>
      <trkpt lat="49.322" lon="0.96692">
        <ele>55.769</ele>
        <time>2012-06-24T09:36:59.782Z</time>
      </trkpt>
      <trkpt lat="49.3221" lon="0.96689">
        <ele>55.681</ele>
        <time>2012-06-24T09:37:07.152Z</time>
      </trkpt>
      <trkpt lat="49.32219" lon="0.96683">
        <ele>55.649</ele>
        <time>2012-06-24T09:37:14.100Z</time>
      </trkpt>
      <trkpt lat="49.32221" lon="0.96669">
        <ele>56.567</ele>
        <time>2012-06-24T09:37:24.247Z</time>
      </trkpt>
      <trkpt lat="49.32222" lon="0.96655">
        <ele>59.159</ele>
        <time>2012-06-24T09:37:33.057Z</time>
      </trkpt>
      <trkpt lat="49.32219" lon="0.96639">
        <ele>62.211</ele>
        <time>2012-06-24T09:37:42.081Z</time>
      </trkpt>
      <trkpt lat="49.32219" lon="0.96639">
        <ele>64.12</ele>
        <time>2012-06-24T09:37:42.081Z</time>
      </trkpt>
      <trkpt lat="49.32216" lon="0.96625">
        <ele>64.771</ele>
        <time>2012-06-24T09:37:46.854Z</time>
      </trkpt>
      <trkpt lat="49.32214" lon="0.96611">
        <ele>64.632</ele>
        <time>2012-06-24T09:37:52.710Z</time>
      </trkpt>
      <trkpt lat="49.3221" lon="0.96596">
        <ele>64.269</ele>
        <time>2012-06-24T09:38:00.770Z</time>
      </trkpt>
      <trkpt lat="49.32208" lon="0.96581">
        <ele>64.175</ele>
        <time>2012-06-24T09:38:07.853Z</time>
      </trkpt>
      <trkpt lat="49.32208" lon="0.96581">
        <ele>64.414</ele>
        <time>2012-06-24T09:38:07.853Z</time>
      </trkpt>
      <trkpt lat="49.32206" lon="0.96563">
        <ele>64.688</ele>
        <time>2012-06-24T09:38:14.673Z</time>
      </trkpt>
      <trkpt lat="49.32207" lon="0.96548">
        <ele>64.861</ele>
        <time>2012-06-24T09:38:18.789Z</time>
      </trkpt>
      <trkpt lat="49.32206" lon="0.96531">
        <ele>64.945</ele>
        <time>2012-06-24T09:38:22.896Z</time>
      </trkpt>
      <trkpt lat="49.32209" lon="0.96514">
        <ele>65.151</ele>
        <time>2012-06-24T09:38:27.278Z</time>
      </trkpt>
      <trkpt lat="49.3221" lon="0.96499">
        <ele>65.662</ele>
        <time>2012-06-24T09:38:30.739Z</time>
      </trkpt>
      <trkpt lat="49.32214" lon="0.96484">
        <ele>66.344</ele>
        <time>2012-06-24T09:38:34.984Z</time>
      </trkpt>
      <trkpt lat="49.32218" lon="0.96471">
        <ele>67.041</ele>
        <time>2012-06-24T09:38:38.729Z</time>
      </trkpt>
      <trkpt lat="49.32222" lon="0.96458">
        <ele>67.661</ele>
        <time>2012-06-24T09:38:42.564Z</time>
      </trkpt>
      <trkpt lat="49.32227" lon="0.96444">
        <ele>68.391</ele>
        <time>2012-06-24T09:38:46.945Z</time>
      </trkpt>
      <trkpt lat="49.32227" lon="0.96444">
        <ele>69.452</ele>
        <time>2012-06-24T09:38:45.783Z</time>
      </trkpt>
      <trkpt lat="49.32232" lon="0.96431">
        <ele>70.635</ele>
        <time>2012-06-24T09:38:51.011Z</time>
      </trkpt>
      <trkpt lat="49.32233" lon="0.96415">
        <ele>71.641</ele>
        <time>2012-06-24T09:38:55.566Z</time>
      </trkpt>
      <trkpt lat="49.32233" lon="0.96415">
        <ele>72.182</ele>
        <time>2012-06-24T09:38:55.566Z</time>
      </trkpt>
      <trkpt lat="49.32233" lon="0.964">
        <ele>72.096</ele>
        <time>2012-06-24T09:39:01.326Z</time>
      </trkpt>
      <trkpt lat="49.32235" lon="0.96385">
        <ele>71.764</ele>
        <time>2012-06-24T09:39:06.501Z</time>
      </trkpt>
      <trkpt lat="49.32238" lon="0.96371">
        <ele>71.548</ele>
        <time>2012-06-24T09:39:11.491Z</time>
      </trkpt>
      <trkpt lat="49.32241" lon="0.96357">
        <ele>71.646</ele>
        <time>2012-06-24T09:39:15.831Z</time>
      </trkpt>
      <trkpt lat="49.32245" lon="0.96342">
        <ele>73.167</ele>
        <time>2012-06-24T09:39:20.805Z</time>
      </trkpt>
      <trkpt lat="49.32251" lon="0.96329">
        <ele>76.615</ele>
        <time>2012-06-24T09:39:25.956Z</time>
      </trkpt>
      <trkpt lat="49.32255" lon="0.96315">
        <ele>80.323</ele>
        <time>2012-06-24T09:39:32.409Z</time>
      </trkpt>
      <trkpt lat="49.32257" lon="0.96301">
        <ele>82.814</ele>
        <time>2012-06-24T09:39:40.103Z</time>
      </trkpt>
      <trkpt lat="49.32262" lon="0.96287">
        <ele>84.285</ele>
        <time>2012-06-24T09:39:47.733Z</time>
      </trkpt>
      <trkpt lat="49.32262" lon="0.96287">
        <ele>85.073</ele>
        <time>2012-06-24T09:39:47.733Z</time>
      </trkpt>
      <trkpt lat="49.32262" lon="0.96272">
        <ele>85.4</ele>
        <time>2012-06-24T09:39:52.182Z</time>
      </trkpt>
      <trkpt lat="49.32261" lon="0.96259">
        <ele>85.511</ele>
        <time>2012-06-24T09:39:57.949Z</time>
      </trkpt>
      <trkpt lat="49.32261" lon="0.96259">
        <ele>85.533</ele>
        <time>2012-06-24T09:40:00.794Z</time>
      </trkpt>
      <trkpt lat="49.3226" lon="0.96244">
        <ele>85.49</ele>
        <time>2012-06-24T09:40:05.208Z</time>
      </trkpt>
      <trkpt lat="49.32261" lon="0.96229">
        <ele>85.406</ele>
        <time>2012-06-24T09:40:11.789Z</time>
      </trkpt>
      <trkpt lat="49.32261" lon="0.96229">
        <ele>85.297</ele>
        <time>2012-06-24T09:40:13.788Z</time>
      </trkpt>
      <trkpt lat="49.32261" lon="0.96229">
        <ele>85.21</ele>
        <time>2012-06-24T09:40:17.786Z</time>
      </trkpt>
      <trkpt lat="49.3226" lon="0.96211">
        <ele>85.178</ele>
        <time>2012-06-24T09:40:17.786Z</time>
      </trkpt>
      <trkpt lat="49.3226" lon="0.96211">
        <ele>85.18</ele>
        <time>2012-06-24T09:40:27.783Z</time>
      </trkpt>
      <trkpt lat="49.3226" lon="0.96211">
        <ele>85.189</ele>
        <time>2012-06-24T09:41:04.795Z</time>
      </trkpt>
      <trkpt lat="49.32253" lon="0.96178">
        <ele>85.195</ele>
        <time>2012-06-24T09:41:04.795Z</time>
      </trkpt>
      <trkpt lat="49.32248" lon="0.96166">
        <ele>85.212</ele>
        <time>2012-06-24T09:41:12.835Z</time>
      </trkpt>
      <trkpt lat="49.32243" lon="0.96154">
        <ele>85.525</ele>
        <time>2012-06-24T09:41:18.330Z</time>
      </trkpt>
      <trkpt lat="49.32239" lon="0.9614">
        <ele>86.431</ele>
        <time>2012-06-24T09:41:22.493Z</time>
      </trkpt>
      <trkpt lat="49.32238" lon="0.96126">
        <ele>87.429</ele>
        <time>2012-06-24T09:41:26.327Z</time>
      </trkpt>
      <trkpt lat="49.32237" lon="0.96109">
        <ele>87.944</ele>
        <time>2012-06-24T09:41:31.160Z</time>
      </trkpt>
      <trkpt lat="49.32241" lon="0.96095">
        <ele>88.516</ele>
        <time>2012-06-24T09:41:36.329Z</time>
      </trkpt>
      <trkpt lat="49.32247" lon="0.96083">
        <ele>89.576</ele>
        <time>2012-06-24T09:41:41.930Z</time>
      </trkpt>
      <trkpt lat="49.32256" lon="0.96074">
        <ele>90.637</ele>
        <time>2012-06-24T09:41:50.143Z</time>
      </trkpt>
      <trkpt lat="49.32263" lon="0.96065">
        <ele>91.54</ele>
        <time>2012-06-24T09:41:57.787Z</time>
      </trkpt>
      <trkpt lat="49.32263" lon="0.96065">
        <ele>92.442</ele>
        <time>2012-06-24T09:42:00.793Z</time>
      </trkpt>
      <trkpt lat="49.32263" lon="0.96065">
        <ele>93.097</ele>
        <time>2012-06-24T09:42:11.788Z</time>
      </trkpt>
      <trkpt lat="49.3228" lon="0.96043">
        <ele>93.73</ele>
        <time>2012-06-24T09:42:11.788Z</time>
      </trkpt>
      <trkpt lat="49.32288" lon="0.96035">
        <ele>94.956</ele>
        <time>2012-06-24T09:42:17.871Z</time>
      </trkpt>
      <trkpt lat="49.32296" lon="0.96026">
        <ele>96.921</ele>
        <time>2012-06-24T09:42:23.792Z</time>
      </trkpt>
      <trkpt lat="49.32296" lon="0.96026">
        <ele>98.638</ele>
        <time>2012-06-24T09:42:26.790Z</time>
      </trkpt>
      <trkpt lat="49.32296" lon="0.96026">
        <ele>99.121</ele>
        <time>2012-06-24T09:42:30.799Z</time>
      </trkpt>
      <trkpt lat="49.32305" lon="0.96014">
        <ele>99.977</ele>
        <time>2012-06-24T09:42:30.799Z</time>
      </trkpt>
      <trkpt lat="49.32313" lon="0.96004">
        <ele>103.15</ele>
        <time>2012-06-24T09:42:36.806Z</time>
      </trkpt>
      <trkpt lat="49.32319" lon="0.95993">
        <ele>106.76</ele>
        <time>2012-06-24T09:42:41.836Z</time>
      </trkpt>
      <trkpt lat="49.32319" lon="0.95993">
        <ele>108.224</ele>
        <time>2012-06-24T09:42:41.836Z</time>
      </trkpt>
      <trkpt lat="49.32326" lon="0.95979">
        <ele>107.648</ele>
        <time>2012-06-24T09:42:46.761Z</time>
      </trkpt>
      <trkpt lat="49.32333" lon="0.9597">
        <ele>106.567</ele>
        <time>2012-06-24T09:42:51.771Z</time>
      </trkpt>
      <trkpt lat="49.3234" lon="0.95959">
        <ele>106.095</ele>
        <time>2012-06-24T09:42:57.117Z</time>
      </trkpt>
      <trkpt lat="49.3234" lon="0.95959">
        <ele>106.254</ele>
        <time>2012-06-24T09:42:57.117Z</time>
      </trkpt>
      <trkpt lat="49.32347" lon="0.95949">
        <ele>106.438</ele>
        <time>2012-06-24T09:43:03.752Z</time>
      </trkpt>
      <trkpt lat="49.32353" lon="0.95938">
        <ele>106.471</ele>
        <time>2012-06-24T09:43:10.738Z</time>
      </trkpt>
      <trkpt lat="49.32359" lon="0.95926">
        <ele>106.503</ele>
        <time>2012-06-24T09:43:17.619Z</time>
      </trkpt>
      <trkpt lat="49.32363" lon="0.95913">
        <ele>107.048</ele>
        <time>2012-06-24T09:43:23.911Z</time>
      </trkpt>
      <trkpt lat="49.32368" lon="0.95901">
        <ele>108.552</ele>
        <time>2012-06-24T09:43:30.399Z</time>
      </trkpt>
      <trkpt lat="49.32373" lon="0.95888">
        <ele>110.58</ele>
        <time>2012-06-24T09:43:37.721Z</time>
      </trkpt>
      <trkpt lat="49.32379" lon="0.95875">
        <ele>112.658</ele>
        <time>2012-06-24T09:43:46.111Z</time>
      </trkpt>
      <trkpt lat="49.32385" lon="0.95864">
        <ele>114.686</ele>
        <time>2012-06-24T09:43:54.249Z</time>
      </trkpt>
      <trkpt lat="49.32393" lon="0.95853">
        <ele>116.279</ele>
        <time>2012-06-24T09:44:01.779Z</time>
      </trkpt>
      <trkpt lat="49.32393" lon="0.95853">
        <ele>117.205</ele>
        <time>2012-06-24T09:44:03.791Z</time>
      </trkpt>
      <trkpt lat="49.32393" lon="0.95853">
        <ele>117.611</ele>
        <time>2012-06-24T09:44:20.785Z</time>
      </trkpt>
      <trkpt lat="49.3241" lon="0.95834">
        <ele>117.654</ele>
        <time>2012-06-24T09:44:20.785Z</time>
      </trkpt>
      <trkpt lat="49.32419" lon="0.95836">
        <ele>117.623</ele>
        <time>2012-06-24T09:44:28.377Z</time>
      </trkpt>
      <trkpt lat="49.32425" lon="0.95848">
        <ele>118.536</ele>
        <time>2012-06-24T09:44:35.417Z</time>
      </trkpt>
      <trkpt lat="49.3243" lon="0.95862">
        <ele>121.013</ele>
        <time>2012-06-24T09:44:40.979Z</time>
      </trkpt>
      <trkpt lat="49.32436" lon="0.95873">
        <ele>123.752</ele>
        <time>2012-06-24T09:44:45.192Z</time>
      </trkpt>
      <trkpt lat="49.32442" lon="0.95888">
        <ele>125.261</ele>
        <time>2012-06-24T09:44:50.065Z</time>
      </trkpt>
      <trkpt lat="49.32448" lon="0.95902">
        <ele>125.615</ele>
        <time>2012-06-24T09:44:54.051Z</time>
      </trkpt>
      <trkpt lat="49.32448" lon="0.95902">
        <ele>125.451</ele>
        <time>2012-06-24T09:44:54.051Z</time>
      </trkpt>
      <trkpt lat="49.32454" lon="0.95922">
        <ele>125.107</ele>
        <time>2012-06-24T09:44:57.914Z</time>
      </trkpt>
      <trkpt lat="49.32457" lon="0.95935">
        <ele>124.671</ele>
        <time>2012-06-24T09:45:00.006Z</time>
      </trkpt>
      <trkpt lat="49.32462" lon="0.95949">
        <ele>124.322</ele>
        <time>2012-06-24T09:45:02.362Z</time>
      </trkpt>
      <trkpt lat="49.32466" lon="0.95964">
        <ele>124</ele>
        <time>2012-06-24T09:45:04.854Z</time>
      </trkpt>
      <trkpt lat="49.32471" lon="0.9598">
        <ele>123.704</ele>
        <time>2012-06-24T09:45:07.590Z</time>
      </trkpt>
      <trkpt lat="49.32471" lon="0.9598">
        <ele>123.734</ele>
        <time>2012-06-24T09:45:07.793Z</time>
      </trkpt>
      <trkpt lat="49.32475" lon="0.95994">
        <ele>124.026</ele>
        <time>2012-06-24T09:45:10.814Z</time>
      </trkpt>
      <trkpt lat="49.32482" lon="0.96015">
        <ele>124.296</ele>
        <time>2012-06-24T09:45:14.342Z</time>
      </trkpt>
      <trkpt lat="49.32488" lon="0.9603">
        <ele>124.465</ele>
        <time>2012-06-24T09:45:16.768Z</time>
      </trkpt>
      <trkpt lat="49.32495" lon="0.96046">
        <ele>124.369</ele>
        <time>2012-06-24T09:45:19.338Z</time>
      </trkpt>
      <trkpt lat="49.32501" lon="0.96062">
        <ele>124.009</ele>
        <time>2012-06-24T09:45:21.790Z</time>
      </trkpt>
      <trkpt lat="49.32501" lon="0.96062">
        <ele>123.668</ele>
        <time>2012-06-24T09:45:21.790Z</time>
      </trkpt>
      <trkpt lat="49.32501" lon="0.96062">
        <ele>123.509</ele>
        <time>2012-06-24T09:45:25.786Z</time>
      </trkpt>
      <trkpt lat="49.32508" lon="0.96086">
        <ele>123.06</ele>
        <time>2012-06-24T09:45:25.786Z</time>
      </trkpt>
      <trkpt lat="49.32512" lon="0.96102">
        <ele>121.988</ele>
        <time>2012-06-24T09:45:28.451Z</time>
      </trkpt>
      <trkpt lat="49.32517" lon="0.96118">
        <ele>121.091</ele>
        <time>2012-06-24T09:45:31.218Z</time>
      </trkpt>
      <trkpt lat="49.32523" lon="0.9614">
        <ele>121.176</ele>
        <time>2012-06-24T09:45:35.041Z</time>
      </trkpt>
      <trkpt lat="49.3253" lon="0.9616">
        <ele>121.851</ele>
        <time>2012-06-24T09:45:38.719Z</time>
      </trkpt>
      <trkpt lat="49.32536" lon="0.96181">
        <ele>122.419</ele>
        <time>2012-06-24T09:45:42.227Z</time>
      </trkpt>
      <trkpt lat="49.32542" lon="0.962">
        <ele>122.614</ele>
        <time>2012-06-24T09:45:45.604Z</time>
      </trkpt>
      <trkpt lat="49.32548" lon="0.96217">
        <ele>122.525</ele>
        <time>2012-06-24T09:45:48.590Z</time>
      </trkpt>
      <trkpt lat="49.32554" lon="0.96234">
        <ele>122.363</ele>
        <time>2012-06-24T09:45:51.502Z</time>
      </trkpt>
      <trkpt lat="49.32561" lon="0.9625">
        <ele>122.147</ele>
        <time>2012-06-24T09:45:54.207Z</time>
      </trkpt>
      <trkpt lat="49.32567" lon="0.96264">
        <ele>121.622</ele>
        <time>2012-06-24T09:45:56.600Z</time>
      </trkpt>
      <trkpt lat="49.32574" lon="0.96284">
        <ele>120.748</ele>
        <time>2012-06-24T09:45:59.711Z</time>
      </trkpt>
      <trkpt lat="49.32578" lon="0.96297">
        <ele>119.314</ele>
        <time>2012-06-24T09:46:01.685Z</time>
      </trkpt>
      <trkpt lat="49.32582" lon="0.9631">
        <ele>117.226</ele>
        <time>2012-06-24T09:46:03.682Z</time>
      </trkpt>
      <trkpt lat="49.32587" lon="0.96324">
        <ele>115.114</ele>
        <time>2012-06-24T09:46:05.743Z</time>
      </trkpt>
      <trkpt lat="49.32592" lon="0.96339">
        <ele>113.636</ele>
        <time>2012-06-24T09:46:07.833Z</time>
      </trkpt>
      <trkpt lat="49.32596" lon="0.96353">
        <ele>112.892</ele>
        <time>2012-06-24T09:46:09.756Z</time>
      </trkpt>
      <trkpt lat="49.32604" lon="0.96375">
        <ele>112.67</ele>
        <time>2012-06-24T09:46:12.940Z</time>
      </trkpt>
      <trkpt lat="49.32612" lon="0.96393">
        <ele>112.57</ele>
        <time>2012-06-24T09:46:15.707Z</time>
      </trkpt>
      <trkpt lat="49.32617" lon="0.96411">
        <ele>112.413</ele>
        <time>2012-06-24T09:46:18.315Z</time>
      </trkpt>
      <trkpt lat="49.32622" lon="0.96432">
        <ele>112.198</ele>
        <time>2012-06-24T09:46:21.248Z</time>
      </trkpt>
      <trkpt lat="49.32626" lon="0.96445">
        <ele>112.015</ele>
        <time>2012-06-24T09:46:23.161Z</time>
      </trkpt>
      <trkpt lat="49.32632" lon="0.96464">
        <ele>112.071</ele>
        <time>2012-06-24T09:46:26.049Z</time>
      </trkpt>
      <trkpt lat="49.3264" lon="0.96485">
        <ele>112.412</ele>
        <time>2012-06-24T09:46:29.291Z</time>
      </trkpt>
      <trkpt lat="49.32646" lon="0.96509">
        <ele>112.843</ele>
        <time>2012-06-24T09:46:33.389Z</time>
      </trkpt>
      <trkpt lat="49.32646" lon="0.96509">
        <ele>113.173</ele>
        <time>2012-06-24T09:46:29.790Z</time>
      </trkpt>
      <trkpt lat="49.32653" lon="0.96528">
        <ele>113.452</ele>
        <time>2012-06-24T09:46:36.356Z</time>
      </trkpt>
      <trkpt lat="49.32659" lon="0.96545">
        <ele>114.065</ele>
        <time>2012-06-24T09:46:39.269Z</time>
      </trkpt>
      <trkpt lat="49.32667" lon="0.96572">
        <ele>115.133</ele>
        <time>2012-06-24T09:46:44.253Z</time>
      </trkpt>
      <trkpt lat="49.32667" lon="0.96572">
        <ele>115.893</ele>
        <time>2012-06-24T09:46:44.253Z</time>
      </trkpt>
      <trkpt lat="49.32674" lon="0.96594">
        <ele>115.819</ele>
        <time>2012-06-24T09:46:47.602Z</time>
      </trkpt>
      <trkpt lat="49.3268" lon="0.96613">
        <ele>115.361</ele>
        <time>2012-06-24T09:46:50.593Z</time>
      </trkpt>
      <trkpt lat="49.32689" lon="0.96636">
        <ele>115.038</ele>
        <time>2012-06-24T09:46:54.670Z</time>
      </trkpt>
      <trkpt lat="49.32695" lon="0.96656">
        <ele>114.926</ele>
        <time>2012-06-24T09:46:58.100Z</time>
      </trkpt>
      <trkpt lat="49.32701" lon="0.96674">
        <ele>114.933</ele>
        <time>2012-06-24T09:47:01.297Z</time>
      </trkpt>
      <trkpt lat="49.32708" lon="0.96689">
        <ele>115.065</ele>
        <time>2012-06-24T09:47:04.193Z</time>
      </trkpt>
      <trkpt lat="49.32715" lon="0.96708">
        <ele>115.548</ele>
        <time>2012-06-24T09:47:07.842Z</time>
      </trkpt>
      <trkpt lat="49.32718" lon="0.96731">
        <ele>116.358</ele>
        <time>2012-06-24T09:47:11.924Z</time>
      </trkpt>
      <trkpt lat="49.32724" lon="0.96744">
        <ele>117.04</ele>
        <time>2012-06-24T09:47:14.915Z</time>
      </trkpt>
      <trkpt lat="49.32729" lon="0.96756">
        <ele>117.322</ele>
        <time>2012-06-24T09:47:17.530Z</time>
      </trkpt>
      <trkpt lat="49.32735" lon="0.96767">
        <ele>116.835</ele>
        <time>2012-06-24T09:47:20.250Z</time>
      </trkpt>
      <trkpt lat="49.3274" lon="0.96782">
        <ele>115.452</ele>
        <time>2012-06-24T09:47:23.484Z</time>
      </trkpt>
      <trkpt lat="49.32746" lon="0.968">
        <ele>114.045</ele>
        <time>2012-06-24T09:47:27.653Z</time>
      </trkpt>
      <trkpt lat="49.32751" lon="0.96816">
        <ele>113.382</ele>
        <time>2012-06-24T09:47:31.411Z</time>
      </trkpt>
      <trkpt lat="49.32754" lon="0.96831">
        <ele>113.734</ele>
        <time>2012-06-24T09:47:34.915Z</time>
      </trkpt>
      <trkpt lat="49.3276" lon="0.96845">
        <ele>115.113</ele>
        <time>2012-06-24T09:47:38.302Z</time>
      </trkpt>
      <trkpt lat="49.32766" lon="0.96856">
        <ele>116.678</ele>
        <time>2012-06-24T09:47:40.854Z</time>
      </trkpt>
      <trkpt lat="49.32776" lon="0.96862">
        <ele>117.832</ele>
        <time>2012-06-24T09:47:43.698Z</time>
      </trkpt>
      <trkpt lat="49.32788" lon="0.96867">
        <ele>118.746</ele>
        <time>2012-06-24T09:47:47.161Z</time>
      </trkpt>
      <trkpt lat="49.32799" lon="0.96872">
        <ele>119.364</ele>
        <time>2012-06-24T09:47:50.234Z</time>
      </trkpt>
      <trkpt lat="49.32817" lon="0.96876">
        <ele>119.568</ele>
        <time>2012-06-24T09:47:56.315Z</time>
      </trkpt>
      <trkpt lat="49.3283" lon="0.96882">
        <ele>119.322</ele>
        <time>2012-06-24T09:48:00.977Z</time>
      </trkpt>
      <trkpt lat="49.32835" lon="0.969">
        <ele>117.45</ele>
        <time>2012-06-24T09:48:05.643Z</time>
      </trkpt>
      <trkpt lat="49.32838" lon="0.96914">
        <ele>112.896</ele>
        <time>2012-06-24T09:48:08.726Z</time>
      </trkpt>
      <trkpt lat="49.32846" lon="0.96925">
        <ele>107.221</ele>
        <time>2012-06-24T09:48:11.555Z</time>
      </trkpt>
      <trkpt lat="49.32853" lon="0.96934">
        <ele>103.145</ele>
        <time>2012-06-24T09:48:13.869Z</time>
      </trkpt>
      <trkpt lat="49.3286" lon="0.96946">
        <ele>101.498</ele>
        <time>2012-06-24T09:48:16.339Z</time>
      </trkpt>
      <trkpt lat="49.3287" lon="0.96951">
        <ele>101.521</ele>
        <time>2012-06-24T09:48:18.760Z</time>
      </trkpt>
      <trkpt lat="49.32883" lon="0.96956">
        <ele>102.291</ele>
        <time>2012-06-24T09:48:21.554Z</time>
      </trkpt>
      <trkpt lat="49.32896" lon="0.96963">
        <ele>103.146</ele>
        <time>2012-06-24T09:48:24.705Z</time>
      </trkpt>
      <trkpt lat="49.32907" lon="0.96971">
        <ele>103.569</ele>
        <time>2012-06-24T09:48:27.645Z</time>
      </trkpt>
      <trkpt lat="49.32918" lon="0.9698">
        <ele>103.462</ele>
        <time>2012-06-24T09:48:31.515Z</time>
      </trkpt>
      <trkpt lat="49.32928" lon="0.9699">
        <ele>102.9</ele>
        <time>2012-06-24T09:48:35.949Z</time>
      </trkpt>
      <trkpt lat="49.32936" lon="0.96996">
        <ele>101.987</ele>
        <time>2012-06-24T09:48:40.333Z</time>
      </trkpt>
      <trkpt lat="49.32947" lon="0.96999">
        <ele>101.019</ele>
        <time>2012-06-24T09:48:45.977Z</time>
      </trkpt>
      <trkpt lat="49.32956" lon="0.97001">
        <ele>100.252</ele>
        <time>2012-06-24T09:48:50.866Z</time>
      </trkpt>
      <trkpt lat="49.32965" lon="0.97003">
        <ele>99.737</ele>
        <time>2012-06-24T09:48:54.918Z</time>
      </trkpt>
      <trkpt lat="49.32975" lon="0.97003">
        <ele>99.511</ele>
        <time>2012-06-24T09:48:58.593Z</time>
      </trkpt>
      <trkpt lat="49.32985" lon="0.97004">
        <ele>99.544</ele>
        <time>2012-06-24T09:49:01.895Z</time>
      </trkpt>
      <trkpt lat="49.32995" lon="0.97013">
        <ele>99.764</ele>
        <time>2012-06-24T09:49:04.907Z</time>
      </trkpt>
      <trkpt lat="49.33003" lon="0.9702">
        <ele>100.022</ele>
        <time>2012-06-24T09:49:07.046Z</time>
      </trkpt>
      <trkpt lat="49.3301" lon="0.9703">
        <ele>100.283</ele>
        <time>2012-06-24T09:49:09.078Z</time>
      </trkpt>
      <trkpt lat="49.33018" lon="0.97049">
        <ele>100.598</ele>
        <time>2012-06-24T09:49:12.268Z</time>
      </trkpt>
      <trkpt lat="49.33023" lon="0.97068">
        <ele>100.865</ele>
        <time>2012-06-24T09:49:15.259Z</time>
      </trkpt>
      <trkpt lat="49.33026" lon="0.97081">
        <ele>100.871</ele>
        <time>2012-06-24T09:49:17.476Z</time>
      </trkpt>
      <trkpt lat="49.33033" lon="0.97096">
        <ele>100.124</ele>
        <time>2012-06-24T09:49:20.874Z</time>
      </trkpt>
      <trkpt lat="49.33042" lon="0.97104">
        <ele>98.371</ele>
        <time>2012-06-24T09:49:24.095Z</time>
      </trkpt>
      <trkpt lat="49.33052" lon="0.97105">
        <ele>96.076</ele>
        <time>2012-06-24T09:49:27.274Z</time>
      </trkpt>
      <trkpt lat="49.33064" lon="0.97109">
        <ele>93.484</ele>
        <time>2012-06-24T09:49:30.972Z</time>
      </trkpt>
      <trkpt lat="49.33073" lon="0.97115">
        <ele>90.168</ele>
        <time>2012-06-24T09:49:34.073Z</time>
      </trkpt>
      <trkpt lat="49.33083" lon="0.97117">
        <ele>86.546</ele>
        <time>2012-06-24T09:49:37.317Z</time>
      </trkpt>
      <trkpt lat="49.33091" lon="0.97124">
        <ele>83.494</ele>
        <time>2012-06-24T09:49:40.547Z</time>
      </trkpt>
      <trkpt lat="49.331" lon="0.97131">
        <ele>80.842</ele>
        <time>2012-06-24T09:49:44.876Z</time>
      </trkpt>
      <trkpt lat="49.33111" lon="0.9713">
        <ele>78.408</ele>
        <time>2012-06-24T09:49:49.975Z</time>
      </trkpt>
      <trkpt lat="49.3312" lon="0.97123">
        <ele>76.793</ele>
        <time>2012-06-24T09:49:54.165Z</time>
      </trkpt>
      <trkpt lat="49.3313" lon="0.97127">
        <ele>75.52</ele>
        <time>2012-06-24T09:49:57.645Z</time>
      </trkpt>
      <trkpt lat="49.33141" lon="0.97124">
        <ele>73.484</ele>
        <time>2012-06-24T09:50:01.354Z</time>
      </trkpt>
      <trkpt lat="49.33152" lon="0.97116">
        <ele>70.824</ele>
        <time>2012-06-24T09:50:04.749Z</time>
      </trkpt>
      <trkpt lat="49.33164" lon="0.97104">
        <ele>68.568</ele>
        <time>2012-06-24T09:50:08.286Z</time>
      </trkpt>
      <trkpt lat="49.33174" lon="0.97094">
        <ele>67.202</ele>
        <time>2012-06-24T09:50:11.408Z</time>
      </trkpt>
      <trkpt lat="49.33184" lon="0.97085">
        <ele>66.402</ele>
        <time>2012-06-24T09:50:14.622Z</time>
      </trkpt>
      <trkpt lat="49.33192" lon="0.97076">
        <ele>65.43</ele>
        <time>2012-06-24T09:50:18.261Z</time>
      </trkpt>
      <trkpt lat="49.332" lon="0.97065">
        <ele>64.13</ele>
        <time>2012-06-24T09:50:23.741Z</time>
      </trkpt>
      <trkpt lat="49.33203" lon="0.9708">
        <ele>63.093</ele>
        <time>2012-06-24T09:50:29.307Z</time>
      </trkpt>
      <trkpt lat="49.33201" lon="0.97094">
        <ele>63.019</ele>
        <time>2012-06-24T09:50:34.257Z</time>
      </trkpt>
      <trkpt lat="49.33201" lon="0.97109">
        <ele>63.959</ele>
        <time>2012-06-24T09:50:37.924Z</time>
      </trkpt>
      <trkpt lat="49.33196" lon="0.97122">
        <ele>65.575</ele>
        <time>2012-06-24T09:50:41.813Z</time>
      </trkpt>
      <trkpt lat="49.33186" lon="0.97133">
        <ele>67.504</ele>
        <time>2012-06-24T09:50:45.762Z</time>
      </trkpt>
      <trkpt lat="49.33178" lon="0.97142">
        <ele>69.32</ele>
        <time>2012-06-24T09:50:48.675Z</time>
      </trkpt>
      <trkpt lat="49.3317" lon="0.97149">
        <ele>70.73</ele>
        <time>2012-06-24T09:50:51.235Z</time>
      </trkpt>
      <trkpt lat="49.33162" lon="0.97158">
        <ele>71.762</ele>
        <time>2012-06-24T09:50:53.871Z</time>
      </trkpt>
      <trkpt lat="49.33149" lon="0.97165">
        <ele>72.326</ele>
        <time>2012-06-24T09:50:57.551Z</time>
      </trkpt>
      <trkpt lat="49.33124" lon="0.97167">
        <ele>72.457</ele>
        <time>2012-06-24T09:51:02.921Z</time>
      </trkpt>
      <trkpt lat="49.33109" lon="0.97165">
        <ele>72.283</ele>
        <time>2012-06-24T09:51:06.328Z</time>
      </trkpt>
      <trkpt lat="49.33097" lon="0.97163">
        <ele>71.373</ele>
        <time>2012-06-24T09:51:09.063Z</time>
      </trkpt>
      <trkpt lat="49.33085" lon="0.97159">
        <ele>68.777</ele>
        <time>2012-06-24T09:51:11.935Z</time>
      </trkpt>
      <trkpt lat="49.33073" lon="0.97157">
        <ele>64.964</ele>
        <time>2012-06-24T09:51:14.737Z</time>
      </trkpt>
      <trkpt lat="49.33061" lon="0.97157">
        <ele>61.981</ele>
        <time>2012-06-24T09:51:18.045Z</time>
      </trkpt>
      <trkpt lat="49.33051" lon="0.97157">
        <ele>60.824</ele>
        <time>2012-06-24T09:51:21.054Z</time>
      </trkpt>
      <trkpt lat="49.33051" lon="0.97157">
        <ele>60.804</ele>
        <time>2012-06-24T09:51:21.054Z</time>
      </trkpt>
      <trkpt lat="49.33039" lon="0.97156">
        <ele>61.245</ele>
        <time>2012-06-24T09:51:24.326Z</time>
      </trkpt>
      <trkpt lat="49.33027" lon="0.97155">
        <ele>62.234</ele>
        <time>2012-06-24T09:51:27.538Z</time>
      </trkpt>
      <trkpt lat="49.33015" lon="0.97153">
        <ele>63.755</ele>
        <time>2012-06-24T09:51:30.832Z</time>
      </trkpt>
      <trkpt lat="49.33005" lon="0.97151">
        <ele>65.035</ele>
        <time>2012-06-24T09:51:33.782Z</time>
      </trkpt>
      <trkpt lat="49.32993" lon="0.97151">
        <ele>65.565</ele>
        <time>2012-06-24T09:51:38.307Z</time>
      </trkpt>
      <trkpt lat="49.32993" lon="0.97151">
        <ele>65.598</ele>
        <time>2012-06-24T09:51:38.307Z</time>
      </trkpt>
      <trkpt lat="49.3298" lon="0.9715">
        <ele>65.492</ele>
        <time>2012-06-24T09:51:42.946Z</time>
      </trkpt>
      <trkpt lat="49.32971" lon="0.97144">
        <ele>65.441</ele>
        <time>2012-06-24T09:51:46.796Z</time>
      </trkpt>
      <trkpt lat="49.32971" lon="0.97144">
        <ele>65.452</ele>
        <time>2012-06-24T09:52:00.797Z</time>
      </trkpt>
      <trkpt lat="49.32971" lon="0.97144">
        <ele>65.475</ele>
        <time>2012-06-24T09:52:12.803Z</time>
      </trkpt>
      <trkpt lat="49.32971" lon="0.97144">
        <ele>65.489</ele>
        <time>2012-06-24T09:52:12.803Z</time>
      </trkpt>
      <trkpt lat="49.32971" lon="0.97144">
        <ele>65.483</ele>
        <time>2012-06-24T09:52:18.792Z</time>
      </trkpt>
      <trkpt lat="49.32971" lon="0.97144">
        <ele>65.454</ele>
        <time>2012-06-24T09:52:24.802Z</time>
      </trkpt>
      <trkpt lat="49.32985" lon="0.97143">
        <ele>65.422</ele>
        <time>2012-06-24T09:52:24.802Z</time>
      </trkpt>
      <trkpt lat="49.32995" lon="0.97145">
        <ele>65.405</ele>
        <time>2012-06-24T09:52:32.799Z</time>
      </trkpt>
      <trkpt lat="49.32995" lon="0.97145">
        <ele>65.402</ele>
        <time>2012-06-24T09:52:45.796Z</time>
      </trkpt>
      <trkpt lat="49.32995" lon="0.97145">
        <ele>65.404</ele>
        <time>2012-06-24T09:52:54.799Z</time>
      </trkpt>
      <trkpt lat="49.33008" lon="0.97155">
        <ele>65.406</ele>
        <time>2012-06-24T09:52:54.799Z</time>
      </trkpt>
      <trkpt lat="49.33018" lon="0.9716">
        <ele>65.397</ele>
        <time>2012-06-24T09:53:04.511Z</time>
      </trkpt>
      <trkpt lat="49.33026" lon="0.97167">
        <ele>65.369</ele>
        <time>2012-06-24T09:53:12.113Z</time>
      </trkpt>
      <trkpt lat="49.33036" lon="0.97168">
        <ele>65.34</ele>
        <time>2012-06-24T09:53:20.655Z</time>
      </trkpt>
      <trkpt lat="49.33044" lon="0.97174">
        <ele>65.326</ele>
        <time>2012-06-24T09:53:30.224Z</time>
      </trkpt>
      <trkpt lat="49.33054" lon="0.97175">
        <ele>65.782</ele>
        <time>2012-06-24T09:53:37.630Z</time>
      </trkpt>
      <trkpt lat="49.33064" lon="0.97181">
        <ele>67.143</ele>
        <time>2012-06-24T09:53:43.118Z</time>
      </trkpt>
      <trkpt lat="49.33073" lon="0.97183">
        <ele>69.25</ele>
        <time>2012-06-24T09:53:47.088Z</time>
      </trkpt>
      <trkpt lat="49.33084" lon="0.97183">
        <ele>71.444</ele>
        <time>2012-06-24T09:53:52.084Z</time>
      </trkpt>
      <trkpt lat="49.33092" lon="0.9719">
        <ele>72.942</ele>
        <time>2012-06-24T09:53:56.843Z</time>
      </trkpt>
      <trkpt lat="49.33088" lon="0.97206">
        <ele>73.444</ele>
        <time>2012-06-24T09:54:03.923Z</time>
      </trkpt>
      <trkpt lat="49.33081" lon="0.97214">
        <ele>73.213</ele>
        <time>2012-06-24T09:54:10.156Z</time>
      </trkpt>
      <trkpt lat="49.33071" lon="0.97214">
        <ele>72.361</ele>
        <time>2012-06-24T09:54:16.907Z</time>
      </trkpt>
      <trkpt lat="49.33063" lon="0.97223">
        <ele>70.884</ele>
        <time>2012-06-24T09:54:24.376Z</time>
      </trkpt>
      <trkpt lat="49.33065" lon="0.97236">
        <ele>69.008</ele>
        <time>2012-06-24T09:54:33.224Z</time>
      </trkpt>
      <trkpt lat="49.33073" lon="0.97243">
        <ele>67.25</ele>
        <time>2012-06-24T09:54:41.791Z</time>
      </trkpt>
      <trkpt lat="49.33084" lon="0.97243">
        <ele>65.596</ele>
        <time>2012-06-24T09:54:49.787Z</time>
      </trkpt>
      <trkpt lat="49.33084" lon="0.97243">
        <ele>63.844</ele>
        <time>2012-06-24T09:54:51.792Z</time>
      </trkpt>
      <trkpt lat="49.33084" lon="0.97243">
        <ele>62.52</ele>
        <time>2012-06-24T09:54:55.795Z</time>
      </trkpt>
      <trkpt lat="49.33096" lon="0.97237">
        <ele>61.966</ele>
        <time>2012-06-24T09:54:55.795Z</time>
      </trkpt>
      <trkpt lat="49.33104" lon="0.97231">
        <ele>61.822</ele>
        <time>2012-06-24T09:55:01.187Z</time>
      </trkpt>
      <trkpt lat="49.33114" lon="0.97225">
        <ele>61.499</ele>
        <time>2012-06-24T09:55:05.788Z</time>
      </trkpt>
      <trkpt lat="49.33123" lon="0.97218">
        <ele>60.714</ele>
        <time>2012-06-24T09:55:10.756Z</time>
      </trkpt>
      <trkpt lat="49.3313" lon="0.97228">
        <ele>59.902</ele>
        <time>2012-06-24T09:55:16.075Z</time>
      </trkpt>
      <trkpt lat="49.33126" lon="0.97243">
        <ele>59.306</ele>
        <time>2012-06-24T09:55:22.805Z</time>
      </trkpt>
      <trkpt lat="49.33121" lon="0.97256">
        <ele>58.609</ele>
        <time>2012-06-24T09:55:29.090Z</time>
      </trkpt>
      <trkpt lat="49.33116" lon="0.97268">
        <ele>57.779</ele>
        <time>2012-06-24T09:55:33.424Z</time>
      </trkpt>
      <trkpt lat="49.3311" lon="0.97283">
        <ele>56.699</ele>
        <time>2012-06-24T09:55:37.987Z</time>
      </trkpt>
      <trkpt lat="49.33103" lon="0.97293">
        <ele>55.302</ele>
        <time>2012-06-24T09:55:41.344Z</time>
      </trkpt>
      <trkpt lat="49.33095" lon="0.97306">
        <ele>54.558</ele>
        <time>2012-06-24T09:55:45.522Z</time>
      </trkpt>
      <trkpt lat="49.33087" lon="0.97316">
        <ele>55.195</ele>
        <time>2012-06-24T09:55:49.367Z</time>
      </trkpt>
      <trkpt lat="49.33077" lon="0.97325">
        <ele>56.401</ele>
        <time>2012-06-24T09:55:52.980Z</time>
      </trkpt>
      <trkpt lat="49.3307" lon="0.97335">
        <ele>57.189</ele>
        <time>2012-06-24T09:55:56.199Z</time>
      </trkpt>
      <trkpt lat="49.33065" lon="0.97347">
        <ele>57.439</ele>
        <time>2012-06-24T09:55:59.547Z</time>
      </trkpt>
      <trkpt lat="49.33064" lon="0.97365">
        <ele>57.402</ele>
        <time>2012-06-24T09:56:04.123Z</time>
      </trkpt>
      <trkpt lat="49.3307" lon="0.9738">
        <ele>57.303</ele>
        <time>2012-06-24T09:56:08.716Z</time>
      </trkpt>
      <trkpt lat="49.3307" lon="0.97396">
        <ele>56.797</ele>
        <time>2012-06-24T09:56:13.095Z</time>
      </trkpt>
      <trkpt lat="49.33063" lon="0.97408">
        <ele>54.858</ele>
        <time>2012-06-24T09:56:17.002Z</time>
      </trkpt>
      <trkpt lat="49.33058" lon="0.9742">
        <ele>50.259</ele>
        <time>2012-06-24T09:56:20.535Z</time>
      </trkpt>
      <trkpt lat="49.33052" lon="0.9743">
        <ele>43.924</ele>
        <time>2012-06-24T09:56:23.910Z</time>
      </trkpt>
      <trkpt lat="49.33048" lon="0.97445">
        <ele>38.745</ele>
        <time>2012-06-24T09:56:27.802Z</time>
      </trkpt>
      <trkpt lat="49.33048" lon="0.97445">
        <ele>36.159</ele>
        <time>2012-06-24T09:56:32.007Z</time>
      </trkpt>
      <trkpt lat="49.33048" lon="0.97445">
        <ele>35.427</ele>
        <time>2012-06-24T09:56:36.797Z</time>
      </trkpt>
      <trkpt lat="49.33064" lon="0.97475">
        <ele>35.595</ele>
        <time>2012-06-24T09:56:36.797Z</time>
      </trkpt>
      <trkpt lat="49.33071" lon="0.97482">
        <ele>35.751</ele>
        <time>2012-06-24T09:56:39.807Z</time>
      </trkpt>
      <trkpt lat="49.33071" lon="0.97482">
        <ele>35.504</ele>
        <time>2012-06-24T09:56:54.826Z</time>
      </trkpt>
      <trkpt lat="49.33071" lon="0.97482">
        <ele>35.183</ele>
        <time>2012-06-24T09:59:22.783Z</time>
      </trkpt>
      <trkpt lat="49.33084" lon="0.97506">
        <ele>35.161</ele>
        <time>2012-06-24T09:59:22.783Z</time>
      </trkpt>
      <trkpt lat="49.33093" lon="0.97509">
        <ele>35.316</ele>
        <time>2012-06-24T09:59:29.335Z</time>
      </trkpt>
      <trkpt lat="49.33103" lon="0.97517">
        <ele>35.438</ele>
        <time>2012-06-24T09:59:34.147Z</time>
      </trkpt>
      <trkpt lat="49.33112" lon="0.97522">
        <ele>35.521</ele>
        <time>2012-06-24T09:59:37.508Z</time>
      </trkpt>
      <trkpt lat="49.33123" lon="0.97528">
        <ele>36.332</ele>
        <time>2012-06-24T09:59:41.049Z</time>
      </trkpt>
      <trkpt lat="49.33131" lon="0.97536">
        <ele>38.288</ele>
        <time>2012-06-24T09:59:44.139Z</time>
      </trkpt>
      <trkpt lat="49.33138" lon="0.97545">
        <ele>40.527</ele>
        <time>2012-06-24T09:59:47.610Z</time>
      </trkpt>
      <trkpt lat="49.33145" lon="0.97555">
        <ele>42.231</ele>
        <time>2012-06-24T09:59:51.102Z</time>
      </trkpt>
      <trkpt lat="49.33152" lon="0.97565">
        <ele>43.265</ele>
        <time>2012-06-24T09:59:55.257Z</time>
      </trkpt>
      <trkpt lat="49.33159" lon="0.97576">
        <ele>43.62</ele>
        <time>2012-06-24T10:00:00.740Z</time>
      </trkpt>
      <trkpt lat="49.33166" lon="0.97589">
        <ele>43.951</ele>
        <time>2012-06-24T10:00:06.696Z</time>
      </trkpt>
      <trkpt lat="49.33172" lon="0.97601">
        <ele>44.773</ele>
        <time>2012-06-24T10:00:11.533Z</time>
      </trkpt>
      <trkpt lat="49.33179" lon="0.9761">
        <ele>45.947</ele>
        <time>2012-06-24T10:00:16.162Z</time>
      </trkpt>
      <trkpt lat="49.33188" lon="0.9762">
        <ele>47.138</ele>
        <time>2012-06-24T10:00:21.781Z</time>
      </trkpt>
      <trkpt lat="49.33188" lon="0.9762">
        <ele>48.027</ele>
        <time>2012-06-24T10:00:21.781Z</time>
      </trkpt>
      <trkpt lat="49.33188" lon="0.9762">
        <ele>48.389</ele>
        <time>2012-06-24T10:00:29.786Z</time>
      </trkpt>
      <trkpt lat="49.33201" lon="0.9764">
        <ele>48.442</ele>
        <time>2012-06-24T10:00:29.786Z</time>
      </trkpt>
      <trkpt lat="49.33209" lon="0.97651">
        <ele>48.649</ele>
        <time>2012-06-24T10:00:35.767Z</time>
      </trkpt>
      <trkpt lat="49.33216" lon="0.97662">
        <ele>49.273</ele>
        <time>2012-06-24T10:00:40.337Z</time>
      </trkpt>
      <trkpt lat="49.33223" lon="0.97675">
        <ele>50.49</ele>
        <time>2012-06-24T10:00:44.916Z</time>
      </trkpt>
      <trkpt lat="49.33231" lon="0.97685">
        <ele>52.768</ele>
        <time>2012-06-24T10:00:48.853Z</time>
      </trkpt>
      <trkpt lat="49.33238" lon="0.97695">
        <ele>55.707</ele>
        <time>2012-06-24T10:00:52.606Z</time>
      </trkpt>
      <trkpt lat="49.33247" lon="0.97707">
        <ele>57.862</ele>
        <time>2012-06-24T10:00:57.608Z</time>
      </trkpt>
      <trkpt lat="49.33257" lon="0.97705">
        <ele>58.684</ele>
        <time>2012-06-24T10:01:02.534Z</time>
      </trkpt>
      <trkpt lat="49.33266" lon="0.97695">
        <ele>58.722</ele>
        <time>2012-06-24T10:01:08.702Z</time>
      </trkpt>
      <trkpt lat="49.33274" lon="0.97689">
        <ele>58.522</ele>
        <time>2012-06-24T10:01:13.732Z</time>
      </trkpt>
      <trkpt lat="49.33283" lon="0.97681">
        <ele>58.394</ele>
        <time>2012-06-24T10:01:19.044Z</time>
      </trkpt>
      <trkpt lat="49.33291" lon="0.97675">
        <ele>58.394</ele>
        <time>2012-06-24T10:01:23.937Z</time>
      </trkpt>
      <trkpt lat="49.33302" lon="0.97668">
        <ele>58.827</ele>
        <time>2012-06-24T10:01:29.324Z</time>
      </trkpt>
      <trkpt lat="49.3331" lon="0.97664">
        <ele>60.606</ele>
        <time>2012-06-24T10:01:33.608Z</time>
      </trkpt>
      <trkpt lat="49.3332" lon="0.97658">
        <ele>63.88</ele>
        <time>2012-06-24T10:01:38.818Z</time>
      </trkpt>
      <trkpt lat="49.33329" lon="0.97653">
        <ele>67.183</ele>
        <time>2012-06-24T10:01:43.706Z</time>
      </trkpt>
      <trkpt lat="49.33338" lon="0.97647">
        <ele>69.117</ele>
        <time>2012-06-24T10:01:48.784Z</time>
      </trkpt>
      <trkpt lat="49.33338" lon="0.97647">
        <ele>69.694</ele>
        <time>2012-06-24T10:01:56.780Z</time>
      </trkpt>
      <trkpt lat="49.33338" lon="0.97647">
        <ele>69.658</ele>
        <time>2012-06-24T10:02:10.787Z</time>
      </trkpt>
      <trkpt lat="49.33361" lon="0.97624">
        <ele>69.569</ele>
        <time>2012-06-24T10:02:10.787Z</time>
      </trkpt>
      <trkpt lat="49.3337" lon="0.97619">
        <ele>69.57</ele>
        <time>2012-06-24T10:02:21.126Z</time>
      </trkpt>
      <trkpt lat="49.33379" lon="0.97611">
        <ele>69.732</ele>
        <time>2012-06-24T10:02:31.972Z</time>
      </trkpt>
      <trkpt lat="49.33388" lon="0.97607">
        <ele>70.286</ele>
        <time>2012-06-24T10:02:45.233Z</time>
      </trkpt>
      <trkpt lat="49.33396" lon="0.97614">
        <ele>71.703</ele>
        <time>2012-06-24T10:03:02.661Z</time>
      </trkpt>
      <trkpt lat="49.33399" lon="0.97628">
        <ele>73.938</ele>
        <time>2012-06-24T10:03:14.409Z</time>
      </trkpt>
      <trkpt lat="49.33399" lon="0.97628">
        <ele>75.939</ele>
        <time>2012-06-24T10:03:12.789Z</time>
      </trkpt>
      <trkpt lat="49.33404" lon="0.97642">
        <ele>76.991</ele>
        <time>2012-06-24T10:03:19.168Z</time>
      </trkpt>
      <trkpt lat="49.33407" lon="0.97656">
        <ele>77.405</ele>
        <time>2012-06-24T10:03:25.052Z</time>
      </trkpt>
      <trkpt lat="49.33412" lon="0.97669">
        <ele>77.519</ele>
        <time>2012-06-24T10:03:30.789Z</time>
      </trkpt>
      <trkpt lat="49.33412" lon="0.97669">
        <ele>77.487</ele>
        <time>2012-06-24T10:03:33.783Z</time>
      </trkpt>
      <trkpt lat="49.33412" lon="0.97669">
        <ele>77.431</ele>
        <time>2012-06-24T10:03:46.789Z</time>
      </trkpt>
      <trkpt lat="49.33416" lon="0.97704">
        <ele>77.397</ele>
        <time>2012-06-24T10:03:46.789Z</time>
      </trkpt>
      <trkpt lat="49.33421" lon="0.97717">
        <ele>77.393</ele>
        <time>2012-06-24T10:03:55.211Z</time>
      </trkpt>
      <trkpt lat="49.33423" lon="0.97733">
        <ele>77.621</ele>
        <time>2012-06-24T10:04:02.144Z</time>
      </trkpt>
      <trkpt lat="49.33424" lon="0.97747">
        <ele>78.423</ele>
        <time>2012-06-24T10:04:07.512Z</time>
      </trkpt>
      <trkpt lat="49.33423" lon="0.97762">
        <ele>80.042</ele>
        <time>2012-06-24T10:04:13.045Z</time>
      </trkpt>
      <trkpt lat="49.33421" lon="0.9778">
        <ele>82.178</ele>
        <time>2012-06-24T10:04:18.848Z</time>
      </trkpt>
      <trkpt lat="49.3342" lon="0.97794">
        <ele>83.936</ele>
        <time>2012-06-24T10:04:22.241Z</time>
      </trkpt>
      <trkpt lat="49.33419" lon="0.97809">
        <ele>84.736</ele>
        <time>2012-06-24T10:04:25.547Z</time>
      </trkpt>
      <trkpt lat="49.3342" lon="0.97823">
        <ele>84.821</ele>
        <time>2012-06-24T10:04:28.744Z</time>
      </trkpt>
      <trkpt lat="49.33422" lon="0.9784">
        <ele>84.624</ele>
        <time>2012-06-24T10:04:33.052Z</time>
      </trkpt>
      <trkpt lat="49.33419" lon="0.97856">
        <ele>84.435</ele>
        <time>2012-06-24T10:04:37.454Z</time>
      </trkpt>
      <trkpt lat="49.33414" lon="0.9787">
        <ele>84.349</ele>
        <time>2012-06-24T10:04:41.589Z</time>
      </trkpt>
      <trkpt lat="49.33408" lon="0.97883">
        <ele>84.12</ele>
        <time>2012-06-24T10:04:45.685Z</time>
      </trkpt>
      <trkpt lat="49.33403" lon="0.97897">
        <ele>83.568</ele>
        <time>2012-06-24T10:04:49.391Z</time>
      </trkpt>
      <trkpt lat="49.33397" lon="0.97911">
        <ele>83</ele>
        <time>2012-06-24T10:04:53.318Z</time>
      </trkpt>
      <trkpt lat="49.33389" lon="0.9792">
        <ele>82.731</ele>
        <time>2012-06-24T10:04:57.020Z</time>
      </trkpt>
      <trkpt lat="49.33379" lon="0.97929">
        <ele>82.608</ele>
        <time>2012-06-24T10:05:01.380Z</time>
      </trkpt>
      <trkpt lat="49.33373" lon="0.9794">
        <ele>81.885</ele>
        <time>2012-06-24T10:05:05.163Z</time>
      </trkpt>
      <trkpt lat="49.33367" lon="0.97954">
        <ele>80.247</ele>
        <time>2012-06-24T10:05:09.350Z</time>
      </trkpt>
      <trkpt lat="49.33364" lon="0.97972">
        <ele>78.467</ele>
        <time>2012-06-24T10:05:14.539Z</time>
      </trkpt>
      <trkpt lat="49.33361" lon="0.97989">
        <ele>77.268</ele>
        <time>2012-06-24T10:05:19.305Z</time>
      </trkpt>
      <trkpt lat="49.33357" lon="0.98003">
        <ele>76.625</ele>
        <time>2012-06-24T10:05:23.915Z</time>
      </trkpt>
      <trkpt lat="49.33358" lon="0.98019">
        <ele>76.33</ele>
        <time>2012-06-24T10:05:29.105Z</time>
      </trkpt>
      <trkpt lat="49.3336" lon="0.98037">
        <ele>76.203</ele>
        <time>2012-06-24T10:05:35.896Z</time>
      </trkpt>
      <trkpt lat="49.33362" lon="0.98051">
        <ele>76.193</ele>
        <time>2012-06-24T10:05:42.270Z</time>
      </trkpt>
      <trkpt lat="49.33363" lon="0.98065">
        <ele>76.449</ele>
        <time>2012-06-24T10:05:48.402Z</time>
      </trkpt>
      <trkpt lat="49.33362" lon="0.98079">
        <ele>77.187</ele>
        <time>2012-06-24T10:05:54.783Z</time>
      </trkpt>
      <trkpt lat="49.33359" lon="0.98094">
        <ele>78.049</ele>
        <time>2012-06-24T10:06:01.649Z</time>
      </trkpt>
      <trkpt lat="49.33357" lon="0.98108">
        <ele>78.548</ele>
        <time>2012-06-24T10:06:08.639Z</time>
      </trkpt>
      <trkpt lat="49.33357" lon="0.98123">
        <ele>78.822</ele>
        <time>2012-06-24T10:06:14.877Z</time>
      </trkpt>
      <trkpt lat="49.33356" lon="0.9814">
        <ele>79.03</ele>
        <time>2012-06-24T10:06:21.249Z</time>
      </trkpt>
      <trkpt lat="49.33358" lon="0.98155">
        <ele>79.027</ele>
        <time>2012-06-24T10:06:26.183Z</time>
      </trkpt>
      <trkpt lat="49.33357" lon="0.9817">
        <ele>78.874</ele>
        <time>2012-06-24T10:06:30.877Z</time>
      </trkpt>
      <trkpt lat="49.33355" lon="0.98188">
        <ele>79.276</ele>
        <time>2012-06-24T10:06:36.136Z</time>
      </trkpt>
      <trkpt lat="49.33352" lon="0.98202">
        <ele>80.655</ele>
        <time>2012-06-24T10:06:40.795Z</time>
      </trkpt>
      <trkpt lat="49.33343" lon="0.98203">
        <ele>82.242</ele>
        <time>2012-06-24T10:06:46.029Z</time>
      </trkpt>
      <trkpt lat="49.33334" lon="0.98194">
        <ele>83.13</ele>
        <time>2012-06-24T10:06:51.472Z</time>
      </trkpt>
      <trkpt lat="49.33323" lon="0.98181">
        <ele>83.399</ele>
        <time>2012-06-24T10:06:56.381Z</time>
      </trkpt>
      <trkpt lat="49.33318" lon="0.98164">
        <ele>83.497</ele>
        <time>2012-06-24T10:07:00.060Z</time>
      </trkpt>
      <trkpt lat="49.33312" lon="0.9815">
        <ele>83.635</ele>
        <time>2012-06-24T10:07:03.764Z</time>
      </trkpt>
      <trkpt lat="49.3331" lon="0.98134">
        <ele>83.877</ele>
        <time>2012-06-24T10:07:07.817Z</time>
      </trkpt>
      <trkpt lat="49.33309" lon="0.9812">
        <ele>84.25</ele>
        <time>2012-06-24T10:07:11.907Z</time>
      </trkpt>
      <trkpt lat="49.33312" lon="0.98105">
        <ele>84.47</ele>
        <time>2012-06-24T10:07:17.039Z</time>
      </trkpt>
      <trkpt lat="49.33308" lon="0.98088">
        <ele>84.301</ele>
        <time>2012-06-24T10:07:22.646Z</time>
      </trkpt>
      <trkpt lat="49.33306" lon="0.98072">
        <ele>83.629</ele>
        <time>2012-06-24T10:07:27.575Z</time>
      </trkpt>
      <trkpt lat="49.33302" lon="0.98057">
        <ele>82.399</ele>
        <time>2012-06-24T10:07:31.890Z</time>
      </trkpt>
      <trkpt lat="49.33295" lon="0.98044">
        <ele>81.051</ele>
        <time>2012-06-24T10:07:36.087Z</time>
      </trkpt>
      <trkpt lat="49.33289" lon="0.9803">
        <ele>79.954</ele>
        <time>2012-06-24T10:07:39.904Z</time>
      </trkpt>
      <trkpt lat="49.33284" lon="0.98018">
        <ele>78.942</ele>
        <time>2012-06-24T10:07:43.234Z</time>
      </trkpt>
      <trkpt lat="49.33277" lon="0.98006">
        <ele>78.097</ele>
        <time>2012-06-24T10:07:46.674Z</time>
      </trkpt>
      <trkpt lat="49.33271" lon="0.97992">
        <ele>77.75</ele>
        <time>2012-06-24T10:07:50.457Z</time>
      </trkpt>
      <trkpt lat="49.33266" lon="0.97981">
        <ele>77.882</ele>
        <time>2012-06-24T10:07:53.306Z</time>
      </trkpt>
      <trkpt lat="49.33259" lon="0.97965">
        <ele>78.282</ele>
        <time>2012-06-24T10:07:56.875Z</time>
      </trkpt>
      <trkpt lat="49.33251" lon="0.97953">
        <ele>78.876</ele>
        <time>2012-06-24T10:08:00.128Z</time>
      </trkpt>
      <trkpt lat="49.33243" lon="0.97942">
        <ele>79.642</ele>
        <time>2012-06-24T10:08:03.253Z</time>
      </trkpt>
      <trkpt lat="49.33234" lon="0.9793">
        <ele>80.479</ele>
        <time>2012-06-24T10:08:07.039Z</time>
      </trkpt>
      <trkpt lat="49.33225" lon="0.97918">
        <ele>81.205</ele>
        <time>2012-06-24T10:08:10.563Z</time>
      </trkpt>
      <trkpt lat="49.33218" lon="0.97906">
        <ele>81.623</ele>
        <time>2012-06-24T10:08:13.670Z</time>
      </trkpt>
      <trkpt lat="49.33211" lon="0.97893">
        <ele>81.633</ele>
        <time>2012-06-24T10:08:17.168Z</time>
      </trkpt>
      <trkpt lat="49.33204" lon="0.97883">
        <ele>81.329</ele>
        <time>2012-06-24T10:08:20.579Z</time>
      </trkpt>
      <trkpt lat="49.33197" lon="0.97874">
        <ele>80.979</ele>
        <time>2012-06-24T10:08:24.294Z</time>
      </trkpt>
      <trkpt lat="49.3319" lon="0.97863">
        <ele>80.577</ele>
        <time>2012-06-24T10:08:29.103Z</time>
      </trkpt>
      <trkpt lat="49.3318" lon="0.97853">
        <ele>79.965</ele>
        <time>2012-06-24T10:08:34.968Z</time>
      </trkpt>
      <trkpt lat="49.33169" lon="0.97848">
        <ele>79.207</ele>
        <time>2012-06-24T10:08:39.669Z</time>
      </trkpt>
      <trkpt lat="49.33159" lon="0.97845">
        <ele>78.012</ele>
        <time>2012-06-24T10:08:43.764Z</time>
      </trkpt>
      <trkpt lat="49.3315" lon="0.97841">
        <ele>76.168</ele>
        <time>2012-06-24T10:08:47.638Z</time>
      </trkpt>
      <trkpt lat="49.3314" lon="0.97838">
        <ele>74.415</ele>
        <time>2012-06-24T10:08:52.067Z</time>
      </trkpt>
      <trkpt lat="49.3313" lon="0.9784">
        <ele>73.451</ele>
        <time>2012-06-24T10:08:57.836Z</time>
      </trkpt>
      <trkpt lat="49.33121" lon="0.97844">
        <ele>72.868</ele>
        <time>2012-06-24T10:09:04.940Z</time>
      </trkpt>
      <trkpt lat="49.33112" lon="0.97842">
        <ele>72.137</ele>
        <time>2012-06-24T10:09:13.561Z</time>
      </trkpt>
      <trkpt lat="49.33101" lon="0.97843">
        <ele>71.467</ele>
        <time>2012-06-24T10:09:24.247Z</time>
      </trkpt>
      <trkpt lat="49.33092" lon="0.97842">
        <ele>71.17</ele>
        <time>2012-06-24T10:09:30.605Z</time>
      </trkpt>
      <trkpt lat="49.33083" lon="0.97849">
        <ele>71.181</ele>
        <time>2012-06-24T10:09:35.908Z</time>
      </trkpt>
      <trkpt lat="49.33073" lon="0.97856">
        <ele>71.352</ele>
        <time>2012-06-24T10:09:40.517Z</time>
      </trkpt>
      <trkpt lat="49.33062" lon="0.97861">
        <ele>71.521</ele>
        <time>2012-06-24T10:09:45.405Z</time>
      </trkpt>
      <trkpt lat="49.33053" lon="0.97868">
        <ele>71.598</ele>
        <time>2012-06-24T10:09:49.479Z</time>
      </trkpt>
      <trkpt lat="49.33046" lon="0.97882">
        <ele>71.154</ele>
        <time>2012-06-24T10:09:53.752Z</time>
      </trkpt>
      <trkpt lat="49.33044" lon="0.97896">
        <ele>69.853</ele>
        <time>2012-06-24T10:09:57.939Z</time>
      </trkpt>
      <trkpt lat="49.33041" lon="0.9791">
        <ele>68.002</ele>
        <time>2012-06-24T10:10:02.286Z</time>
      </trkpt>
      <trkpt lat="49.33035" lon="0.97922">
        <ele>66.185</ele>
        <time>2012-06-24T10:10:07.146Z</time>
      </trkpt>
      <trkpt lat="49.33026" lon="0.97932">
        <ele>64.809</ele>
        <time>2012-06-24T10:10:12.274Z</time>
      </trkpt>
      <trkpt lat="49.33023" lon="0.97945">
        <ele>64.052</ele>
        <time>2012-06-24T10:10:16.592Z</time>
      </trkpt>
      <trkpt lat="49.33021" lon="0.97958">
        <ele>63.77</ele>
        <time>2012-06-24T10:10:21.153Z</time>
      </trkpt>
      <trkpt lat="49.33021" lon="0.97973">
        <ele>63.75</ele>
        <time>2012-06-24T10:10:26.544Z</time>
      </trkpt>
      <trkpt lat="49.33018" lon="0.97989">
        <ele>63.942</ele>
        <time>2012-06-24T10:10:32.964Z</time>
      </trkpt>
      <trkpt lat="49.33014" lon="0.98003">
        <ele>64.383</ele>
        <time>2012-06-24T10:10:39.666Z</time>
      </trkpt>
      <trkpt lat="49.33011" lon="0.98017">
        <ele>64.858</ele>
        <time>2012-06-24T10:10:46.883Z</time>
      </trkpt>
      <trkpt lat="49.33005" lon="0.98029">
        <ele>65.27</ele>
        <time>2012-06-24T10:10:54.252Z</time>
      </trkpt>
      <trkpt lat="49.33002" lon="0.98042">
        <ele>65.822</ele>
        <time>2012-06-24T10:11:00.338Z</time>
      </trkpt>
      <trkpt lat="49.32998" lon="0.98057">
        <ele>66.574</ele>
        <time>2012-06-24T10:11:06.901Z</time>
      </trkpt>
      <trkpt lat="49.32996" lon="0.98071">
        <ele>67.427</ele>
        <time>2012-06-24T10:11:12.940Z</time>
      </trkpt>
      <trkpt lat="49.32991" lon="0.98085">
        <ele>68.487</ele>
        <time>2012-06-24T10:11:19.115Z</time>
      </trkpt>
      <trkpt lat="49.32987" lon="0.98098">
        <ele>69.847</ele>
        <time>2012-06-24T10:11:24.867Z</time>
      </trkpt>
      <trkpt lat="49.32982" lon="0.98112">
        <ele>71.289</ele>
        <time>2012-06-24T10:11:30.457Z</time>
      </trkpt>
      <trkpt lat="49.32978" lon="0.98126">
        <ele>72.792</ele>
        <time>2012-06-24T10:11:35.804Z</time>
      </trkpt>
      <trkpt lat="49.32978" lon="0.98126">
        <ele>74.319</ele>
        <time>2012-06-24T10:11:37.796Z</time>
      </trkpt>
      <trkpt lat="49.32978" lon="0.98126">
        <ele>75.373</ele>
        <time>2012-06-24T10:11:41.787Z</time>
      </trkpt>
      <trkpt lat="49.3297" lon="0.98147">
        <ele>75.73</ele>
        <time>2012-06-24T10:11:41.787Z</time>
      </trkpt>
      <trkpt lat="49.32969" lon="0.98163">
        <ele>75.526</ele>
        <time>2012-06-24T10:11:47.285Z</time>
      </trkpt>
      <trkpt lat="49.32965" lon="0.98179">
        <ele>74.74</ele>
        <time>2012-06-24T10:11:52.383Z</time>
      </trkpt>
      <trkpt lat="49.32959" lon="0.98192">
        <ele>73.644</ele>
        <time>2012-06-24T10:11:56.789Z</time>
      </trkpt>
      <trkpt lat="49.32951" lon="0.98205">
        <ele>72.833</ele>
        <time>2012-06-24T10:12:01.372Z</time>
      </trkpt>
      <trkpt lat="49.32952" lon="0.9822">
        <ele>72.543</ele>
        <time>2012-06-24T10:12:05.642Z</time>
      </trkpt>
      <trkpt lat="49.32955" lon="0.98234">
        <ele>72.57</ele>
        <time>2012-06-24T10:12:10.771Z</time>
      </trkpt>
      <trkpt lat="49.32958" lon="0.98248">
        <ele>72.804</ele>
        <time>2012-06-24T10:12:16.171Z</time>
      </trkpt>
      <trkpt lat="49.32961" lon="0.98264">
        <ele>73.287</ele>
        <time>2012-06-24T10:12:22.553Z</time>
      </trkpt>
      <trkpt lat="49.32966" lon="0.98279">
        <ele>73.867</ele>
        <time>2012-06-24T10:12:28.789Z</time>
      </trkpt>
      <trkpt lat="49.32966" lon="0.98279">
        <ele>74.183</ele>
        <time>2012-06-24T10:12:40.793Z</time>
      </trkpt>
      <trkpt lat="49.32966" lon="0.98279">
        <ele>74.171</ele>
        <time>2012-06-24T10:13:19.785Z</time>
      </trkpt>
      <trkpt lat="49.32953" lon="0.98293">
        <ele>74.085</ele>
        <time>2012-06-24T10:13:19.785Z</time>
      </trkpt>
      <trkpt lat="49.32962" lon="0.98304">
        <ele>74.067</ele>
        <time>2012-06-24T10:13:27.782Z</time>
      </trkpt>
      <trkpt lat="49.32969" lon="0.98315">
        <ele>74.078</ele>
        <time>2012-06-24T10:13:31.948Z</time>
      </trkpt>
      <trkpt lat="49.32976" lon="0.98328">
        <ele>74.091</ele>
        <time>2012-06-24T10:13:35.959Z</time>
      </trkpt>
      <trkpt lat="49.32984" lon="0.98341">
        <ele>74.672</ele>
        <time>2012-06-24T10:13:39.800Z</time>
      </trkpt>
      <trkpt lat="49.32984" lon="0.98341">
        <ele>76.166</ele>
        <time>2012-06-24T10:13:40.790Z</time>
      </trkpt>
      <trkpt lat="49.32984" lon="0.98341">
        <ele>77.697</ele>
        <time>2012-06-24T10:13:49.790Z</time>
      </trkpt>
      <trkpt lat="49.32995" lon="0.98368">
        <ele>78.751</ele>
        <time>2012-06-24T10:13:49.790Z</time>
      </trkpt>
      <trkpt lat="49.33" lon="0.98379">
        <ele>80.274</ele>
        <time>2012-06-24T10:13:54.531Z</time>
      </trkpt>
      <trkpt lat="49.33007" lon="0.98391">
        <ele>82.482</ele>
        <time>2012-06-24T10:13:59.452Z</time>
      </trkpt>
      <trkpt lat="49.33012" lon="0.98405">
        <ele>83.997</ele>
        <time>2012-06-24T10:14:04.608Z</time>
      </trkpt>
      <trkpt lat="49.33019" lon="0.98418">
        <ele>83.811</ele>
        <time>2012-06-24T10:14:09.978Z</time>
      </trkpt>
      <trkpt lat="49.33025" lon="0.98433">
        <ele>82.803</ele>
        <time>2012-06-24T10:14:15.239Z</time>
      </trkpt>
      <trkpt lat="49.3303" lon="0.98444">
        <ele>82.783</ele>
        <time>2012-06-24T10:14:19.527Z</time>
      </trkpt>
      <trkpt lat="49.33037" lon="0.98456">
        <ele>84.209</ele>
        <time>2012-06-24T10:14:24.709Z</time>
      </trkpt>
      <trkpt lat="49.33042" lon="0.98468">
        <ele>86.609</ele>
        <time>2012-06-24T10:14:29.110Z</time>
      </trkpt>
      <trkpt lat="49.33046" lon="0.98482">
        <ele>90.346</ele>
        <time>2012-06-24T10:14:34.077Z</time>
      </trkpt>
      <trkpt lat="49.33046" lon="0.98499">
        <ele>95.155</ele>
        <time>2012-06-24T10:14:39.390Z</time>
      </trkpt>
      <trkpt lat="49.33043" lon="0.98515">
        <ele>99.222</ele>
        <time>2012-06-24T10:14:44.379Z</time>
      </trkpt>
      <trkpt lat="49.33042" lon="0.9853">
        <ele>101.403</ele>
        <time>2012-06-24T10:14:48.739Z</time>
      </trkpt>
      <trkpt lat="49.33042" lon="0.98546">
        <ele>102.275</ele>
        <time>2012-06-24T10:14:53.792Z</time>
      </trkpt>
      <trkpt lat="49.33041" lon="0.98563">
        <ele>102.842</ele>
        <time>2012-06-24T10:14:59.180Z</time>
      </trkpt>
      <trkpt lat="49.33041" lon="0.9858">
        <ele>103.308</ele>
        <time>2012-06-24T10:15:05.221Z</time>
      </trkpt>
      <trkpt lat="49.33039" lon="0.98598">
        <ele>103.756</ele>
        <time>2012-06-24T10:15:10.744Z</time>
      </trkpt>
      <trkpt lat="49.33041" lon="0.98612">
        <ele>104.618</ele>
        <time>2012-06-24T10:15:14.360Z</time>
      </trkpt>
      <trkpt lat="49.33045" lon="0.98625">
        <ele>105.87</ele>
        <time>2012-06-24T10:15:17.958Z</time>
      </trkpt>
      <trkpt lat="49.33051" lon="0.98636">
        <ele>107.126</ele>
        <time>2012-06-24T10:15:21.808Z</time>
      </trkpt>
      <trkpt lat="49.33056" lon="0.98651">
        <ele>108.105</ele>
        <time>2012-06-24T10:15:26.958Z</time>
      </trkpt>
      <trkpt lat="49.33061" lon="0.98664">
        <ele>108.961</ele>
        <time>2012-06-24T10:15:31.795Z</time>
      </trkpt>
      <trkpt lat="49.33061" lon="0.98664">
        <ele>109.915</ele>
        <time>2012-06-24T10:15:32.805Z</time>
      </trkpt>
      <trkpt lat="49.33061" lon="0.98664">
        <ele>110.692</ele>
        <time>2012-06-24T10:15:41.787Z</time>
      </trkpt>
      <trkpt lat="49.3307" lon="0.9869">
        <ele>111.233</ele>
        <time>2012-06-24T10:15:41.787Z</time>
      </trkpt>
      <trkpt lat="49.33071" lon="0.98705">
        <ele>112.078</ele>
        <time>2012-06-24T10:15:47.653Z</time>
      </trkpt>
      <trkpt lat="49.33077" lon="0.98717">
        <ele>113.562</ele>
        <time>2012-06-24T10:15:53.922Z</time>
      </trkpt>
      <trkpt lat="49.33081" lon="0.98731">
        <ele>115.706</ele>
        <time>2012-06-24T10:16:00.598Z</time>
      </trkpt>
      <trkpt lat="49.33075" lon="0.98741">
        <ele>118.338</ele>
        <time>2012-06-24T10:16:07.317Z</time>
      </trkpt>
      <trkpt lat="49.33065" lon="0.98747">
        <ele>121.473</ele>
        <time>2012-06-24T10:16:14.603Z</time>
      </trkpt>
      <trkpt lat="49.33056" lon="0.98756">
        <ele>124.753</ele>
        <time>2012-06-24T10:16:21.454Z</time>
      </trkpt>
      <trkpt lat="49.33047" lon="0.9876">
        <ele>127.043</ele>
        <time>2012-06-24T10:16:27.336Z</time>
      </trkpt>
      <trkpt lat="49.33038" lon="0.98766">
        <ele>127.83</ele>
        <time>2012-06-24T10:16:33.784Z</time>
      </trkpt>
      <trkpt lat="49.33038" lon="0.98766">
        <ele>127.823</ele>
        <time>2012-06-24T10:16:40.782Z</time>
      </trkpt>
      <trkpt lat="49.33038" lon="0.98766">
        <ele>127.692</ele>
        <time>2012-06-24T10:16:52.785Z</time>
      </trkpt>
      <trkpt lat="49.33017" lon="0.9879">
        <ele>127.041</ele>
        <time>2012-06-24T10:16:52.785Z</time>
      </trkpt>
      <trkpt lat="49.33007" lon="0.98796">
        <ele>125.465</ele>
        <time>2012-06-24T10:17:00.055Z</time>
      </trkpt>
      <trkpt lat="49.32997" lon="0.98802">
        <ele>123.578</ele>
        <time>2012-06-24T10:17:06.691Z</time>
      </trkpt>
      <trkpt lat="49.32988" lon="0.98808">
        <ele>122.495</ele>
        <time>2012-06-24T10:17:11.956Z</time>
      </trkpt>
      <trkpt lat="49.32978" lon="0.98813">
        <ele>122.721</ele>
        <time>2012-06-24T10:17:16.080Z</time>
      </trkpt>
      <trkpt lat="49.32967" lon="0.98818">
        <ele>123.656</ele>
        <time>2012-06-24T10:17:19.800Z</time>
      </trkpt>
      <trkpt lat="49.32967" lon="0.98818">
        <ele>124.294</ele>
        <time>2012-06-24T10:17:23.796Z</time>
      </trkpt>
      <trkpt lat="49.32967" lon="0.98818">
        <ele>124.462</ele>
        <time>2012-06-24T10:17:34.797Z</time>
      </trkpt>
      <trkpt lat="49.32949" lon="0.9884">
        <ele>124.373</ele>
        <time>2012-06-24T10:17:34.797Z</time>
      </trkpt>
      <trkpt lat="49.32951" lon="0.98855">
        <ele>124.239</ele>
        <time>2012-06-24T10:17:40.515Z</time>
      </trkpt>
      <trkpt lat="49.32957" lon="0.98867">
        <ele>124.066</ele>
        <time>2012-06-24T10:17:44.600Z</time>
      </trkpt>
      <trkpt lat="49.32965" lon="0.98881">
        <ele>123.585</ele>
        <time>2012-06-24T10:17:48.174Z</time>
      </trkpt>
      <trkpt lat="49.3297" lon="0.98894">
        <ele>122.769</ele>
        <time>2012-06-24T10:17:50.657Z</time>
      </trkpt>
      <trkpt lat="49.32975" lon="0.98908">
        <ele>122.068</ele>
        <time>2012-06-24T10:17:53.595Z</time>
      </trkpt>
      <trkpt lat="49.32981" lon="0.98924">
        <ele>121.773</ele>
        <time>2012-06-24T10:17:56.953Z</time>
      </trkpt>
      <trkpt lat="49.32988" lon="0.98935">
        <ele>122.085</ele>
        <time>2012-06-24T10:17:59.798Z</time>
      </trkpt>
      <trkpt lat="49.32988" lon="0.98935">
        <ele>123.023</ele>
        <time>2012-06-24T10:17:59.798Z</time>
      </trkpt>
      <trkpt lat="49.32988" lon="0.98935">
        <ele>123.973</ele>
        <time>2012-06-24T10:18:04.797Z</time>
      </trkpt>
      <trkpt lat="49.32995" lon="0.98955">
        <ele>124.429</ele>
        <time>2012-06-24T10:18:04.797Z</time>
      </trkpt>
      <trkpt lat="49.32998" lon="0.98971">
        <ele>124.796</ele>
        <time>2012-06-24T10:18:09.013Z</time>
      </trkpt>
      <trkpt lat="49.32991" lon="0.98984">
        <ele>125.669</ele>
        <time>2012-06-24T10:18:13.554Z</time>
      </trkpt>
      <trkpt lat="49.32981" lon="0.98991">
        <ele>126.673</ele>
        <time>2012-06-24T10:18:17.608Z</time>
      </trkpt>
      <trkpt lat="49.32971" lon="0.99">
        <ele>126.874</ele>
        <time>2012-06-24T10:18:21.778Z</time>
      </trkpt>
      <trkpt lat="49.32961" lon="0.99006">
        <ele>126.423</ele>
        <time>2012-06-24T10:18:25.594Z</time>
      </trkpt>
      <trkpt lat="49.32951" lon="0.99012">
        <ele>126.244</ele>
        <time>2012-06-24T10:18:29.344Z</time>
      </trkpt>
      <trkpt lat="49.32941" lon="0.9902">
        <ele>126.564</ele>
        <time>2012-06-24T10:18:33.325Z</time>
      </trkpt>
      <trkpt lat="49.32932" lon="0.99029">
        <ele>127.02</ele>
        <time>2012-06-24T10:18:37.450Z</time>
      </trkpt>
      <trkpt lat="49.32923" lon="0.99037">
        <ele>127.384</ele>
        <time>2012-06-24T10:18:41.177Z</time>
      </trkpt>
      <trkpt lat="49.32913" lon="0.99045">
        <ele>127.644</ele>
        <time>2012-06-24T10:18:45.484Z</time>
      </trkpt>
      <trkpt lat="49.32902" lon="0.99053">
        <ele>128.091</ele>
        <time>2012-06-24T10:18:49.555Z</time>
      </trkpt>
      <trkpt lat="49.32892" lon="0.9906">
        <ele>129.032</ele>
        <time>2012-06-24T10:18:53.382Z</time>
      </trkpt>
      <trkpt lat="49.32892" lon="0.9906">
        <ele>130.158</ele>
        <time>2012-06-24T10:18:53.798Z</time>
      </trkpt>
      <trkpt lat="49.32883" lon="0.99066">
        <ele>130.882</ele>
        <time>2012-06-24T10:18:56.743Z</time>
      </trkpt>
      <trkpt lat="49.32874" lon="0.99073">
        <ele>131.076</ele>
        <time>2012-06-24T10:19:00.224Z</time>
      </trkpt>
      <trkpt lat="49.32865" lon="0.9908">
        <ele>131.001</ele>
        <time>2012-06-24T10:19:03.682Z</time>
      </trkpt>
      <trkpt lat="49.32865" lon="0.9908">
        <ele>130.89</ele>
        <time>2012-06-24T10:19:03.682Z</time>
      </trkpt>
      <trkpt lat="49.32855" lon="0.99087">
        <ele>130.557</ele>
        <time>2012-06-24T10:19:08.349Z</time>
      </trkpt>
      <trkpt lat="49.32846" lon="0.99093">
        <ele>129.84</ele>
        <time>2012-06-24T10:19:11.467Z</time>
      </trkpt>
      <trkpt lat="49.32836" lon="0.99102">
        <ele>129.393</ele>
        <time>2012-06-24T10:19:15.199Z</time>
      </trkpt>
      <trkpt lat="49.32828" lon="0.99109">
        <ele>129.448</ele>
        <time>2012-06-24T10:19:18.180Z</time>
      </trkpt>
      <trkpt lat="49.32818" lon="0.99115">
        <ele>129.31</ele>
        <time>2012-06-24T10:19:21.470Z</time>
      </trkpt>
      <trkpt lat="49.32808" lon="0.99124">
        <ele>128.881</ele>
        <time>2012-06-24T10:19:25.261Z</time>
      </trkpt>
      <trkpt lat="49.328" lon="0.99132">
        <ele>128.598</ele>
        <time>2012-06-24T10:19:28.498Z</time>
      </trkpt>
      <trkpt lat="49.3279" lon="0.99141">
        <ele>128.507</ele>
        <time>2012-06-24T10:19:32.308Z</time>
      </trkpt>
      <trkpt lat="49.32781" lon="0.99148">
        <ele>128.49</ele>
        <time>2012-06-24T10:19:35.624Z</time>
      </trkpt>
      <trkpt lat="49.32769" lon="0.99155">
        <ele>128.401</ele>
        <time>2012-06-24T10:19:39.296Z</time>
      </trkpt>
      <trkpt lat="49.32761" lon="0.9916">
        <ele>128.039</ele>
        <time>2012-06-24T10:19:41.800Z</time>
      </trkpt>
      <trkpt lat="49.32751" lon="0.99167">
        <ele>127.405</ele>
        <time>2012-06-24T10:19:44.722Z</time>
      </trkpt>
      <trkpt lat="49.32741" lon="0.99175">
        <ele>126.586</ele>
        <time>2012-06-24T10:19:47.674Z</time>
      </trkpt>
      <trkpt lat="49.3273" lon="0.99183">
        <ele>125.67</ele>
        <time>2012-06-24T10:19:50.695Z</time>
      </trkpt>
      <trkpt lat="49.3272" lon="0.99192">
        <ele>124.955</ele>
        <time>2012-06-24T10:19:53.700Z</time>
      </trkpt>
      <trkpt lat="49.32707" lon="0.99202">
        <ele>124.826</ele>
        <time>2012-06-24T10:19:57.061Z</time>
      </trkpt>
      <trkpt lat="49.32695" lon="0.99213">
        <ele>125.207</ele>
        <time>2012-06-24T10:20:00.338Z</time>
      </trkpt>
      <trkpt lat="49.3268" lon="0.99224">
        <ele>125.678</ele>
        <time>2012-06-24T10:20:03.692Z</time>
      </trkpt>
      <trkpt lat="49.32666" lon="0.99234">
        <ele>125.645</ele>
        <time>2012-06-24T10:20:06.823Z</time>
      </trkpt>
      <trkpt lat="49.32658" lon="0.99241">
        <ele>124.971</ele>
        <time>2012-06-24T10:20:08.731Z</time>
      </trkpt>
      <trkpt lat="49.32645" lon="0.99252">
        <ele>124.076</ele>
        <time>2012-06-24T10:20:11.645Z</time>
      </trkpt>
      <trkpt lat="49.32636" lon="0.9926">
        <ele>123.296</ele>
        <time>2012-06-24T10:20:13.694Z</time>
      </trkpt>
      <trkpt lat="49.32628" lon="0.99267">
        <ele>122.698</ele>
        <time>2012-06-24T10:20:15.536Z</time>
      </trkpt>
      <trkpt lat="49.32618" lon="0.99276">
        <ele>122.471</ele>
        <time>2012-06-24T10:20:18.010Z</time>
      </trkpt>
      <trkpt lat="49.32613" lon="0.99288">
        <ele>122.618</ele>
        <time>2012-06-24T10:20:20.507Z</time>
      </trkpt>
      <trkpt lat="49.32619" lon="0.993">
        <ele>123.189</ele>
        <time>2012-06-24T10:20:23.338Z</time>
      </trkpt>
      <trkpt lat="49.32623" lon="0.99312">
        <ele>124.164</ele>
        <time>2012-06-24T10:20:26.880Z</time>
      </trkpt>
      <trkpt lat="49.32628" lon="0.99325">
        <ele>125.052</ele>
        <time>2012-06-24T10:20:30.902Z</time>
      </trkpt>
      <trkpt lat="49.32632" lon="0.99339">
        <ele>125.441</ele>
        <time>2012-06-24T10:20:34.796Z</time>
      </trkpt>
      <trkpt lat="49.32632" lon="0.99339">
        <ele>125.479</ele>
        <time>2012-06-24T10:20:37.804Z</time>
      </trkpt>
      <trkpt lat="49.32632" lon="0.99339">
        <ele>125.394</ele>
        <time>2012-06-24T10:20:43.807Z</time>
      </trkpt>
      <trkpt lat="49.32628" lon="0.99371">
        <ele>124.307</ele>
        <time>2012-06-24T10:20:43.807Z</time>
      </trkpt>
      <trkpt lat="49.3262" lon="0.9938">
        <ele>121.629</ele>
        <time>2012-06-24T10:20:47.982Z</time>
      </trkpt>
      <trkpt lat="49.32616" lon="0.99394">
        <ele>118.792</ele>
        <time>2012-06-24T10:20:52.259Z</time>
      </trkpt>
      <trkpt lat="49.32613" lon="0.99408">
        <ele>117.219</ele>
        <time>2012-06-24T10:20:56.379Z</time>
      </trkpt>
      <trkpt lat="49.32604" lon="0.99417">
        <ele>117.084</ele>
        <time>2012-06-24T10:21:01.335Z</time>
      </trkpt>
      <trkpt lat="49.32607" lon="0.99431">
        <ele>117.494</ele>
        <time>2012-06-24T10:21:06.309Z</time>
      </trkpt>
      <trkpt lat="49.32613" lon="0.99442">
        <ele>117.079</ele>
        <time>2012-06-24T10:21:11.804Z</time>
      </trkpt>
      <trkpt lat="49.32613" lon="0.99442">
        <ele>116.038</ele>
        <time>2012-06-24T10:21:17.794Z</time>
      </trkpt>
      <trkpt lat="49.32613" lon="0.99442">
        <ele>115.469</ele>
        <time>2012-06-24T10:21:22.797Z</time>
      </trkpt>
      <trkpt lat="49.32613" lon="0.99442">
        <ele>115.485</ele>
        <time>2012-06-24T10:21:22.797Z</time>
      </trkpt>
      <trkpt lat="49.32631" lon="0.99454">
        <ele>115.713</ele>
        <time>2012-06-24T10:21:33.854Z</time>
      </trkpt>
      <trkpt lat="49.32636" lon="0.99468">
        <ele>115.88</ele>
        <time>2012-06-24T10:21:39.175Z</time>
      </trkpt>
      <trkpt lat="49.32628" lon="0.99476">
        <ele>116.085</ele>
        <time>2012-06-24T10:21:42.609Z</time>
      </trkpt>
      <trkpt lat="49.32618" lon="0.99476">
        <ele>116.633</ele>
        <time>2012-06-24T10:21:45.928Z</time>
      </trkpt>
      <trkpt lat="49.32608" lon="0.99478">
        <ele>117.456</ele>
        <time>2012-06-24T10:21:49.330Z</time>
      </trkpt>
      <trkpt lat="49.32596" lon="0.99478">
        <ele>118.094</ele>
        <time>2012-06-24T10:21:53.212Z</time>
      </trkpt>
      <trkpt lat="49.32586" lon="0.99481">
        <ele>118.381</ele>
        <time>2012-06-24T10:21:56.929Z</time>
      </trkpt>
      <trkpt lat="49.32575" lon="0.99489">
        <ele>118.49</ele>
        <time>2012-06-24T10:22:01.019Z</time>
      </trkpt>
      <trkpt lat="49.32567" lon="0.995">
        <ele>118.49</ele>
        <time>2012-06-24T10:22:04.926Z</time>
      </trkpt>
      <trkpt lat="49.3256" lon="0.99511">
        <ele>118.144</ele>
        <time>2012-06-24T10:22:08.789Z</time>
      </trkpt>
      <trkpt lat="49.32559" lon="0.99527">
        <ele>117.077</ele>
        <time>2012-06-24T10:22:13.268Z</time>
      </trkpt>
      <trkpt lat="49.32564" lon="0.9954">
        <ele>115.481</ele>
        <time>2012-06-24T10:22:16.919Z</time>
      </trkpt>
      <trkpt lat="49.32572" lon="0.99549">
        <ele>114.151</ele>
        <time>2012-06-24T10:22:20.222Z</time>
      </trkpt>
      <trkpt lat="49.32579" lon="0.99561">
        <ele>113.544</ele>
        <time>2012-06-24T10:22:23.432Z</time>
      </trkpt>
      <trkpt lat="49.32584" lon="0.99577">
        <ele>113.352</ele>
        <time>2012-06-24T10:22:27.037Z</time>
      </trkpt>
      <trkpt lat="49.3259" lon="0.99594">
        <ele>113.169</ele>
        <time>2012-06-24T10:22:31.176Z</time>
      </trkpt>
      <trkpt lat="49.32592" lon="0.99609">
        <ele>112.971</ele>
        <time>2012-06-24T10:22:34.980Z</time>
      </trkpt>
      <trkpt lat="49.3259" lon="0.99623">
        <ele>112.978</ele>
        <time>2012-06-24T10:22:38.753Z</time>
      </trkpt>
      <trkpt lat="49.32595" lon="0.99636">
        <ele>112.954</ele>
        <time>2012-06-24T10:22:42.832Z</time>
      </trkpt>
      <trkpt lat="49.32601" lon="0.99648">
        <ele>112.523</ele>
        <time>2012-06-24T10:22:47.298Z</time>
      </trkpt>
      <trkpt lat="49.32606" lon="0.99662">
        <ele>111.929</ele>
        <time>2012-06-24T10:22:51.461Z</time>
      </trkpt>
      <trkpt lat="49.32608" lon="0.99677">
        <ele>111.724</ele>
        <time>2012-06-24T10:22:54.553Z</time>
      </trkpt>
      <trkpt lat="49.3261" lon="0.99696">
        <ele>112.057</ele>
        <time>2012-06-24T10:22:58.165Z</time>
      </trkpt>
      <trkpt lat="49.32613" lon="0.99714">
        <ele>112.682</ele>
        <time>2012-06-24T10:23:01.538Z</time>
      </trkpt>
      <trkpt lat="49.32616" lon="0.99728">
        <ele>113.181</ele>
        <time>2012-06-24T10:23:04.424Z</time>
      </trkpt>
      <trkpt lat="49.32622" lon="0.9974">
        <ele>113.502</ele>
        <time>2012-06-24T10:23:07.370Z</time>
      </trkpt>
      <trkpt lat="49.32626" lon="0.99753">
        <ele>113.808</ele>
        <time>2012-06-24T10:23:10.566Z</time>
      </trkpt>
      <trkpt lat="49.32632" lon="0.99765">
        <ele>114.071</ele>
        <time>2012-06-24T10:23:14.231Z</time>
      </trkpt>
      <trkpt lat="49.32634" lon="0.99781">
        <ele>114.193</ele>
        <time>2012-06-24T10:23:18.526Z</time>
      </trkpt>
      <trkpt lat="49.32638" lon="0.99796">
        <ele>114.169</ele>
        <time>2012-06-24T10:23:23.083Z</time>
      </trkpt>
      <trkpt lat="49.32639" lon="0.9981">
        <ele>114.074</ele>
        <time>2012-06-24T10:23:27.256Z</time>
      </trkpt>
      <trkpt lat="49.32643" lon="0.99824">
        <ele>114.03</ele>
        <time>2012-06-24T10:23:31.971Z</time>
      </trkpt>
      <trkpt lat="49.3265" lon="0.99836">
        <ele>114.051</ele>
        <time>2012-06-24T10:23:36.858Z</time>
      </trkpt>
      <trkpt lat="49.32654" lon="0.99851">
        <ele>114.079</ele>
        <time>2012-06-24T10:23:40.973Z</time>
      </trkpt>
      <trkpt lat="49.32658" lon="0.99864">
        <ele>113.937</ele>
        <time>2012-06-24T10:23:43.984Z</time>
      </trkpt>
      <trkpt lat="49.32662" lon="0.9988">
        <ele>113.531</ele>
        <time>2012-06-24T10:23:47.581Z</time>
      </trkpt>
      <trkpt lat="49.32664" lon="0.99894">
        <ele>113.108</ele>
        <time>2012-06-24T10:23:50.808Z</time>
      </trkpt>
      <trkpt lat="49.32665" lon="0.99909">
        <ele>112.523</ele>
        <time>2012-06-24T10:23:54.137Z</time>
      </trkpt>
      <trkpt lat="49.32669" lon="0.99926">
        <ele>111.457</ele>
        <time>2012-06-24T10:23:58.083Z</time>
      </trkpt>
      <trkpt lat="49.32676" lon="0.99936">
        <ele>110.373</ele>
        <time>2012-06-24T10:24:01.329Z</time>
      </trkpt>
      <trkpt lat="49.32682" lon="0.9995">
        <ele>109.749</ele>
        <time>2012-06-24T10:24:04.986Z</time>
      </trkpt>
      <trkpt lat="49.32691" lon="0.99964">
        <ele>109.251</ele>
        <time>2012-06-24T10:24:08.843Z</time>
      </trkpt>
      <trkpt lat="49.32696" lon="0.99976">
        <ele>108.516</ele>
        <time>2012-06-24T10:24:11.365Z</time>
      </trkpt>
      <trkpt lat="49.32698" lon="0.9999">
        <ele>107.727</ele>
        <time>2012-06-24T10:24:13.979Z</time>
      </trkpt>
      <trkpt lat="49.3269" lon="0.99999">
        <ele>107.29</ele>
        <time>2012-06-24T10:24:17.507Z</time>
      </trkpt>
      <trkpt lat="49.3268" lon="1.00008">
        <ele>107.267</ele>
        <time>2012-06-24T10:24:22.268Z</time>
      </trkpt>
      <trkpt lat="49.32688" lon="1.00018">
        <ele>107.374</ele>
        <time>2012-06-24T10:24:29.049Z</time>
      </trkpt>
      <trkpt lat="49.32684" lon="1.00035">
        <ele>107.365</ele>
        <time>2012-06-24T10:24:36.948Z</time>
      </trkpt>
      <trkpt lat="49.32676" lon="1.00043">
        <ele>107.219</ele>
        <time>2012-06-24T10:24:45.272Z</time>
      </trkpt>
      <trkpt lat="49.32665" lon="1.0004">
        <ele>106.042</ele>
        <time>2012-06-24T10:24:51.805Z</time>
      </trkpt>
      <trkpt lat="49.32656" lon="1.00034">
        <ele>103.233</ele>
        <time>2012-06-24T10:24:55.800Z</time>
      </trkpt>
      <trkpt lat="49.32656" lon="1.00034">
        <ele>100.276</ele>
        <time>2012-06-24T10:25:02.788Z</time>
      </trkpt>
      <trkpt lat="49.32656" lon="1.00034">
        <ele>98.748</ele>
        <time>2012-06-24T10:25:33.794Z</time>
      </trkpt>
      <trkpt lat="49.32636" lon="1.00016">
        <ele>97.635</ele>
        <time>2012-06-24T10:25:33.794Z</time>
      </trkpt>
      <trkpt lat="49.32636" lon="1.00016">
        <ele>96.344</ele>
        <time>2012-06-24T10:25:36.803Z</time>
      </trkpt>
      <trkpt lat="49.32636" lon="1.00016">
        <ele>96.002</ele>
        <time>2012-06-24T10:26:07.802Z</time>
      </trkpt>
      <trkpt lat="49.32617" lon="1.00001">
        <ele>96.715</ele>
        <time>2012-06-24T10:26:07.802Z</time>
      </trkpt>
      <trkpt lat="49.3261" lon="0.99991">
        <ele>97.17</ele>
        <time>2012-06-24T10:26:14.798Z</time>
      </trkpt>
      <trkpt lat="49.32604" lon="0.99981">
        <ele>96.098</ele>
        <time>2012-06-24T10:26:19.681Z</time>
      </trkpt>
      <trkpt lat="49.32598" lon="0.99967">
        <ele>92.953</ele>
        <time>2012-06-24T10:26:24.621Z</time>
      </trkpt>
      <trkpt lat="49.32591" lon="0.99951">
        <ele>89.153</ele>
        <time>2012-06-24T10:26:28.546Z</time>
      </trkpt>
      <trkpt lat="49.32587" lon="0.99937">
        <ele>86.556</ele>
        <time>2012-06-24T10:26:31.514Z</time>
      </trkpt>
      <trkpt lat="49.32582" lon="0.99923">
        <ele>85.117</ele>
        <time>2012-06-24T10:26:34.371Z</time>
      </trkpt>
      <trkpt lat="49.32573" lon="0.99908">
        <ele>83.94</ele>
        <time>2012-06-24T10:26:37.674Z</time>
      </trkpt>
      <trkpt lat="49.3256" lon="0.99884">
        <ele>82.881</ele>
        <time>2012-06-24T10:26:42.069Z</time>
      </trkpt>
      <trkpt lat="49.3255" lon="0.99864">
        <ele>82.023</ele>
        <time>2012-06-24T10:26:45.200Z</time>
      </trkpt>
      <trkpt lat="49.32542" lon="0.99839">
        <ele>81.107</ele>
        <time>2012-06-24T10:26:48.543Z</time>
      </trkpt>
      <trkpt lat="49.32535" lon="0.99818">
        <ele>80.194</ele>
        <time>2012-06-24T10:26:51.572Z</time>
      </trkpt>
      <trkpt lat="49.3253" lon="0.99805">
        <ele>78.905</ele>
        <time>2012-06-24T10:26:53.439Z</time>
      </trkpt>
      <trkpt lat="49.32525" lon="0.99788">
        <ele>76.594</ele>
        <time>2012-06-24T10:26:56.055Z</time>
      </trkpt>
      <trkpt lat="49.3252" lon="0.99772">
        <ele>73.68</ele>
        <time>2012-06-24T10:26:58.747Z</time>
      </trkpt>
      <trkpt lat="49.32516" lon="0.99756">
        <ele>71.308</ele>
        <time>2012-06-24T10:27:01.387Z</time>
      </trkpt>
      <trkpt lat="49.32513" lon="0.99738">
        <ele>69.931</ele>
        <time>2012-06-24T10:27:04.251Z</time>
      </trkpt>
      <trkpt lat="49.32511" lon="0.9972">
        <ele>69.343</ele>
        <time>2012-06-24T10:27:07.111Z</time>
      </trkpt>
      <trkpt lat="49.32507" lon="0.99701">
        <ele>69.187</ele>
        <time>2012-06-24T10:27:10.312Z</time>
      </trkpt>
      <trkpt lat="49.32503" lon="0.99686">
        <ele>69.237</ele>
        <time>2012-06-24T10:27:13.107Z</time>
      </trkpt>
      <trkpt lat="49.32498" lon="0.99672">
        <ele>69.32</ele>
        <time>2012-06-24T10:27:15.939Z</time>
      </trkpt>
      <trkpt lat="49.32494" lon="0.99657">
        <ele>69.729</ele>
        <time>2012-06-24T10:27:18.957Z</time>
      </trkpt>
      <trkpt lat="49.32491" lon="0.99643">
        <ele>70.69</ele>
        <time>2012-06-24T10:27:21.871Z</time>
      </trkpt>
      <trkpt lat="49.32486" lon="0.99631">
        <ele>71.716</ele>
        <time>2012-06-24T10:27:25.086Z</time>
      </trkpt>
      <trkpt lat="49.32479" lon="0.99619">
        <ele>72.301</ele>
        <time>2012-06-24T10:27:28.979Z</time>
      </trkpt>
      <trkpt lat="49.32472" lon="0.99611">
        <ele>72.662</ele>
        <time>2012-06-24T10:27:32.528Z</time>
      </trkpt>
      <trkpt lat="49.32462" lon="0.99608">
        <ele>73.112</ele>
        <time>2012-06-24T10:27:36.930Z</time>
      </trkpt>
      <trkpt lat="49.32452" lon="0.9961">
        <ele>73.542</ele>
        <time>2012-06-24T10:27:41.338Z</time>
      </trkpt>
      <trkpt lat="49.32441" lon="0.99612">
        <ele>73.713</ele>
        <time>2012-06-24T10:27:46.466Z</time>
      </trkpt>
      <trkpt lat="49.32432" lon="0.9962">
        <ele>73.691</ele>
        <time>2012-06-24T10:27:51.103Z</time>
      </trkpt>
      <trkpt lat="49.32437" lon="0.99635">
        <ele>73.006</ele>
        <time>2012-06-24T10:27:57.156Z</time>
      </trkpt>
      <trkpt lat="49.32441" lon="0.99653">
        <ele>70.556</ele>
        <time>2012-06-24T10:28:03.111Z</time>
      </trkpt>
      <trkpt lat="49.32445" lon="0.99666">
        <ele>65.827</ele>
        <time>2012-06-24T10:28:06.595Z</time>
      </trkpt>
      <trkpt lat="49.32445" lon="0.99683">
        <ele>60.091</ele>
        <time>2012-06-24T10:28:10.984Z</time>
      </trkpt>
      <trkpt lat="49.32438" lon="0.99695">
        <ele>55.599</ele>
        <time>2012-06-24T10:28:15.421Z</time>
      </trkpt>
      <trkpt lat="49.32439" lon="0.99709">
        <ele>53.377</ele>
        <time>2012-06-24T10:28:19.505Z</time>
      </trkpt>
      <trkpt lat="49.32438" lon="0.99724">
        <ele>52.737</ele>
        <time>2012-06-24T10:28:23.501Z</time>
      </trkpt>
      <trkpt lat="49.32442" lon="0.99744">
        <ele>52.178</ele>
        <time>2012-06-24T10:28:28.149Z</time>
      </trkpt>
      <trkpt lat="49.32443" lon="0.99759">
        <ele>50.795</ele>
        <time>2012-06-24T10:28:30.983Z</time>
      </trkpt>
      <trkpt lat="49.32442" lon="0.99777">
        <ele>49.297</ele>
        <time>2012-06-24T10:28:34.136Z</time>
      </trkpt>
      <trkpt lat="49.32444" lon="0.99797">
        <ele>48.518</ele>
        <time>2012-06-24T10:28:37.795Z</time>
      </trkpt>
      <trkpt lat="49.32447" lon="0.99812">
        <ele>48.263</ele>
        <time>2012-06-24T10:28:40.756Z</time>
      </trkpt>
      <trkpt lat="49.32451" lon="0.99828">
        <ele>48.229</ele>
        <time>2012-06-24T10:28:43.845Z</time>
      </trkpt>
      <trkpt lat="49.32451" lon="0.99828">
        <ele>48.246</ele>
        <time>2012-06-24T10:28:43.845Z</time>
      </trkpt>
      <trkpt lat="49.32458" lon="0.99848">
        <ele>48.232</ele>
        <time>2012-06-24T10:28:47.843Z</time>
      </trkpt>
      <trkpt lat="49.32463" lon="0.99864">
        <ele>48.197</ele>
        <time>2012-06-24T10:28:50.854Z</time>
      </trkpt>
      <trkpt lat="49.3247" lon="0.99879">
        <ele>48.174</ele>
        <time>2012-06-24T10:28:54.980Z</time>
      </trkpt>
      <trkpt lat="49.32473" lon="0.99894">
        <ele>48.405</ele>
        <time>2012-06-24T10:28:58.320Z</time>
      </trkpt>
      <trkpt lat="49.32473" lon="0.99894">
        <ele>49.026</ele>
        <time>2012-06-24T10:28:58.320Z</time>
      </trkpt>
      <trkpt lat="49.32478" lon="0.99907">
        <ele>49.869</ele>
        <time>2012-06-24T10:29:01.087Z</time>
      </trkpt>
      <trkpt lat="49.32484" lon="0.99923">
        <ele>50.929</ele>
        <time>2012-06-24T10:29:04.195Z</time>
      </trkpt>
      <trkpt lat="49.32491" lon="0.99942">
        <ele>52.214</ele>
        <time>2012-06-24T10:29:08.045Z</time>
      </trkpt>
      <trkpt lat="49.32494" lon="0.99957">
        <ele>53.475</ele>
        <time>2012-06-24T10:29:10.870Z</time>
      </trkpt>
      <trkpt lat="49.32499" lon="0.9997">
        <ele>54.311</ele>
        <time>2012-06-24T10:29:14.023Z</time>
      </trkpt>
      <trkpt lat="49.32504" lon="0.99983">
        <ele>54.327</ele>
        <time>2012-06-24T10:29:17.012Z</time>
      </trkpt>
      <trkpt lat="49.32507" lon="0.99997">
        <ele>53.728</ele>
        <time>2012-06-24T10:29:20.059Z</time>
      </trkpt>
      <trkpt lat="49.3251" lon="1.00013">
        <ele>52.504</ele>
        <time>2012-06-24T10:29:23.594Z</time>
      </trkpt>
      <trkpt lat="49.32515" lon="1.00026">
        <ele>50.528</ele>
        <time>2012-06-24T10:29:27.093Z</time>
      </trkpt>
      <trkpt lat="49.3252" lon="1.00039">
        <ele>48.729</ele>
        <time>2012-06-24T10:29:30.223Z</time>
      </trkpt>
      <trkpt lat="49.32525" lon="1.00051">
        <ele>47.939</ele>
        <time>2012-06-24T10:29:33.460Z</time>
      </trkpt>
      <trkpt lat="49.32529" lon="1.00065">
        <ele>48.405</ele>
        <time>2012-06-24T10:29:36.944Z</time>
      </trkpt>
      <trkpt lat="49.32535" lon="1.00082">
        <ele>49.995</ele>
        <time>2012-06-24T10:29:41.297Z</time>
      </trkpt>
      <trkpt lat="49.3254" lon="1.00096">
        <ele>51.845</ele>
        <time>2012-06-24T10:29:45.242Z</time>
      </trkpt>
      <trkpt lat="49.32542" lon="1.0011">
        <ele>53.402</ele>
        <time>2012-06-24T10:29:49.612Z</time>
      </trkpt>
      <trkpt lat="49.32547" lon="1.00121">
        <ele>55.066</ele>
        <time>2012-06-24T10:29:53.965Z</time>
      </trkpt>
      <trkpt lat="49.32551" lon="1.00135">
        <ele>56.514</ele>
        <time>2012-06-24T10:29:58.357Z</time>
      </trkpt>
      <trkpt lat="49.32556" lon="1.00146">
        <ele>56.799</ele>
        <time>2012-06-24T10:30:02.713Z</time>
      </trkpt>
      <trkpt lat="49.32563" lon="1.00158">
        <ele>56.075</ele>
        <time>2012-06-24T10:30:07.268Z</time>
      </trkpt>
      <trkpt lat="49.3257" lon="1.00171">
        <ele>55.375</ele>
        <time>2012-06-24T10:30:11.976Z</time>
      </trkpt>
      <trkpt lat="49.32577" lon="1.00181">
        <ele>54.913</ele>
        <time>2012-06-24T10:30:16.200Z</time>
      </trkpt>
      <trkpt lat="49.32584" lon="1.00191">
        <ele>54.503</ele>
        <time>2012-06-24T10:30:21.576Z</time>
      </trkpt>
      <trkpt lat="49.32592" lon="1.00203">
        <ele>54.053</ele>
        <time>2012-06-24T10:30:28.796Z</time>
      </trkpt>
      <trkpt lat="49.32592" lon="1.00203">
        <ele>53.589</ele>
        <time>2012-06-24T10:30:31.801Z</time>
      </trkpt>
      <trkpt lat="49.32592" lon="1.00203">
        <ele>53.285</ele>
        <time>2012-06-24T10:30:39.811Z</time>
      </trkpt>
      <trkpt lat="49.32616" lon="1.00208">
        <ele>53.231</ele>
        <time>2012-06-24T10:30:39.811Z</time>
      </trkpt>
      <trkpt lat="49.32626" lon="1.00211">
        <ele>53.283</ele>
        <time>2012-06-24T10:30:45.927Z</time>
      </trkpt>
      <trkpt lat="49.32636" lon="1.00214">
        <ele>53.444</ele>
        <time>2012-06-24T10:30:50.957Z</time>
      </trkpt>
      <trkpt lat="49.32645" lon="1.00218">
        <ele>53.717</ele>
        <time>2012-06-24T10:30:54.107Z</time>
      </trkpt>
      <trkpt lat="49.32653" lon="1.00224">
        <ele>54.398</ele>
        <time>2012-06-24T10:30:56.806Z</time>
      </trkpt>
      <trkpt lat="49.32653" lon="1.00224">
        <ele>55.68</ele>
        <time>2012-06-24T10:31:01.797Z</time>
      </trkpt>
      <trkpt lat="49.32653" lon="1.00224">
        <ele>56.908</ele>
        <time>2012-06-24T10:31:05.808Z</time>
      </trkpt>
      <trkpt lat="49.32668" lon="1.00226">
        <ele>57.482</ele>
        <time>2012-06-24T10:31:05.808Z</time>
      </trkpt>
      <trkpt lat="49.32679" lon="1.00232">
        <ele>57.596</ele>
        <time>2012-06-24T10:31:11.161Z</time>
      </trkpt>
      <trkpt lat="49.32688" lon="1.00238">
        <ele>57.534</ele>
        <time>2012-06-24T10:31:14.792Z</time>
      </trkpt>
      <trkpt lat="49.32688" lon="1.00238">
        <ele>57.462</ele>
        <time>2012-06-24T10:31:18.803Z</time>
      </trkpt>
      <trkpt lat="49.32688" lon="1.00238">
        <ele>57.438</ele>
        <time>2012-06-24T10:31:29.806Z</time>
      </trkpt>
      <trkpt lat="49.32712" lon="1.00243">
        <ele>57.961</ele>
        <time>2012-06-24T10:31:29.806Z</time>
      </trkpt>
      <trkpt lat="49.32723" lon="1.00248">
        <ele>59.314</ele>
        <time>2012-06-24T10:31:37.398Z</time>
      </trkpt>
      <trkpt lat="49.32733" lon="1.0025">
        <ele>60.696</ele>
        <time>2012-06-24T10:31:42.596Z</time>
      </trkpt>
      <trkpt lat="49.32742" lon="1.00254">
        <ele>61.35</ele>
        <time>2012-06-24T10:31:47.936Z</time>
      </trkpt>
      <trkpt lat="49.32751" lon="1.00259">
        <ele>61.985</ele>
        <time>2012-06-24T10:31:53.601Z</time>
      </trkpt>
      <trkpt lat="49.32761" lon="1.00261">
        <ele>63.271</ele>
        <time>2012-06-24T10:31:59.847Z</time>
      </trkpt>
      <trkpt lat="49.3277" lon="1.00261">
        <ele>64.594</ele>
        <time>2012-06-24T10:32:04.672Z</time>
      </trkpt>
      <trkpt lat="49.3278" lon="1.00263">
        <ele>65.143</ele>
        <time>2012-06-24T10:32:09.351Z</time>
      </trkpt>
      <trkpt lat="49.32789" lon="1.00266">
        <ele>65.112</ele>
        <time>2012-06-24T10:32:13.685Z</time>
      </trkpt>
      <trkpt lat="49.32799" lon="1.00268">
        <ele>65.339</ele>
        <time>2012-06-24T10:32:18.799Z</time>
      </trkpt>
      <trkpt lat="49.32799" lon="1.00268">
        <ele>65.917</ele>
        <time>2012-06-24T10:32:19.796Z</time>
      </trkpt>
      <trkpt lat="49.32799" lon="1.00268">
        <ele>66.047</ele>
        <time>2012-06-24T10:32:30.794Z</time>
      </trkpt>
      <trkpt lat="49.3282" lon="1.00278">
        <ele>65.746</ele>
        <time>2012-06-24T10:32:30.794Z</time>
      </trkpt>
      <trkpt lat="49.3283" lon="1.00279">
        <ele>65.955</ele>
        <time>2012-06-24T10:32:38.323Z</time>
      </trkpt>
      <trkpt lat="49.32838" lon="1.00284">
        <ele>67.113</ele>
        <time>2012-06-24T10:32:43.711Z</time>
      </trkpt>
      <trkpt lat="49.32847" lon="1.00291">
        <ele>68.588</ele>
        <time>2012-06-24T10:32:47.600Z</time>
      </trkpt>
      <trkpt lat="49.32856" lon="1.00295">
        <ele>69.518</ele>
        <time>2012-06-24T10:32:50.851Z</time>
      </trkpt>
      <trkpt lat="49.32866" lon="1.00298">
        <ele>70.08</ele>
        <time>2012-06-24T10:32:54.790Z</time>
      </trkpt>
      <trkpt lat="49.32877" lon="1.00299">
        <ele>71.014</ele>
        <time>2012-06-24T10:32:59.276Z</time>
      </trkpt>
      <trkpt lat="49.32887" lon="1.00304">
        <ele>72.409</ele>
        <time>2012-06-24T10:33:03.873Z</time>
      </trkpt>
      <trkpt lat="49.32897" lon="1.00308">
        <ele>73.641</ele>
        <time>2012-06-24T10:33:08.812Z</time>
      </trkpt>
      <trkpt lat="49.32897" lon="1.00308">
        <ele>74.244</ele>
        <time>2012-06-24T10:33:08.812Z</time>
      </trkpt>
      <trkpt lat="49.32897" lon="1.00308">
        <ele>74.348</ele>
        <time>2012-06-24T10:33:13.806Z</time>
      </trkpt>
      <trkpt lat="49.32897" lon="1.00308">
        <ele>74.262</ele>
        <time>2012-06-24T10:33:13.806Z</time>
      </trkpt>
      <trkpt lat="49.32909" lon="1.00314">
        <ele>74.178</ele>
        <time>2012-06-24T10:33:21.737Z</time>
      </trkpt>
      <trkpt lat="49.32919" lon="1.0032">
        <ele>74.144</ele>
        <time>2012-06-24T10:33:28.434Z</time>
      </trkpt>
      <trkpt lat="49.32929" lon="1.00323">
        <ele>74.142</ele>
        <time>2012-06-24T10:33:35.111Z</time>
      </trkpt>
      <trkpt lat="49.32937" lon="1.00329">
        <ele>74.14</ele>
        <time>2012-06-24T10:33:41.218Z</time>
      </trkpt>
      <trkpt lat="49.32945" lon="1.00336">
        <ele>74.121</ele>
        <time>2012-06-24T10:33:47.081Z</time>
      </trkpt>
      <trkpt lat="49.32954" lon="1.00345">
        <ele>74.06</ele>
        <time>2012-06-24T10:33:53.786Z</time>
      </trkpt>
      <trkpt lat="49.3296" lon="1.00356">
        <ele>73.946</ele>
        <time>2012-06-24T10:33:59.947Z</time>
      </trkpt>
      <trkpt lat="49.32965" lon="1.0037">
        <ele>73.801</ele>
        <time>2012-06-24T10:34:07.262Z</time>
      </trkpt>
      <trkpt lat="49.32972" lon="1.00382">
        <ele>73.696</ele>
        <time>2012-06-24T10:34:13.490Z</time>
      </trkpt>
      <trkpt lat="49.32977" lon="1.00395">
        <ele>73.679</ele>
        <time>2012-06-24T10:34:19.749Z</time>
      </trkpt>
      <trkpt lat="49.32983" lon="1.00408">
        <ele>73.721</ele>
        <time>2012-06-24T10:34:25.463Z</time>
      </trkpt>
      <trkpt lat="49.32988" lon="1.00422">
        <ele>74.484</ele>
        <time>2012-06-24T10:34:30.985Z</time>
      </trkpt>
      <trkpt lat="49.32991" lon="1.00435">
        <ele>76.51</ele>
        <time>2012-06-24T10:34:36.688Z</time>
      </trkpt>
      <trkpt lat="49.32993" lon="1.00449">
        <ele>78.758</ele>
        <time>2012-06-24T10:34:44.009Z</time>
      </trkpt>
      <trkpt lat="49.32995" lon="1.00464">
        <ele>80.024</ele>
        <time>2012-06-24T10:34:54.120Z</time>
      </trkpt>
      <trkpt lat="49.32999" lon="1.00477">
        <ele>80.7</ele>
        <time>2012-06-24T10:35:03.665Z</time>
      </trkpt>
      <trkpt lat="49.33003" lon="1.00491">
        <ele>81.178</ele>
        <time>2012-06-24T10:35:12.104Z</time>
      </trkpt>
      <trkpt lat="49.33008" lon="1.00504">
        <ele>81.162</ele>
        <time>2012-06-24T10:35:18.372Z</time>
      </trkpt>
      <trkpt lat="49.33011" lon="1.00517">
        <ele>80.755</ele>
        <time>2012-06-24T10:35:24.631Z</time>
      </trkpt>
      <trkpt lat="49.33016" lon="1.00529">
        <ele>80.72</ele>
        <time>2012-06-24T10:35:32.174Z</time>
      </trkpt>
      <trkpt lat="49.33019" lon="1.00543">
        <ele>81.888</ele>
        <time>2012-06-24T10:35:39.649Z</time>
      </trkpt>
      <trkpt lat="49.33023" lon="1.00556">
        <ele>84.699</ele>
        <time>2012-06-24T10:35:46.678Z</time>
      </trkpt>
      <trkpt lat="49.33028" lon="1.00569">
        <ele>88.611</ele>
        <time>2012-06-24T10:35:54.641Z</time>
      </trkpt>
      <trkpt lat="49.33034" lon="1.00582">
        <ele>92.841</ele>
        <time>2012-06-24T10:36:02.906Z</time>
      </trkpt>
      <trkpt lat="49.33036" lon="1.00597">
        <ele>96.748</ele>
        <time>2012-06-24T10:36:10.808Z</time>
      </trkpt>
      <trkpt lat="49.33036" lon="1.00597">
        <ele>99.487</ele>
        <time>2012-06-24T10:36:12.813Z</time>
      </trkpt>
      <trkpt lat="49.33036" lon="1.00597">
        <ele>100.64</ele>
        <time>2012-06-24T10:36:23.806Z</time>
      </trkpt>
      <trkpt lat="49.33047" lon="1.00622">
        <ele>100.785</ele>
        <time>2012-06-24T10:36:23.806Z</time>
      </trkpt>
      <trkpt lat="49.33049" lon="1.00636">
        <ele>100.752</ele>
        <time>2012-06-24T10:36:30.987Z</time>
      </trkpt>
      <trkpt lat="49.33053" lon="1.0065">
        <ele>101.091</ele>
        <time>2012-06-24T10:36:36.222Z</time>
      </trkpt>
      <trkpt lat="49.33056" lon="1.00667">
        <ele>102.346</ele>
        <time>2012-06-24T10:36:40.751Z</time>
      </trkpt>
      <trkpt lat="49.33057" lon="1.00681">
        <ele>104.02</ele>
        <time>2012-06-24T10:36:43.936Z</time>
      </trkpt>
      <trkpt lat="49.33062" lon="1.00696">
        <ele>104.769</ele>
        <time>2012-06-24T10:36:47.574Z</time>
      </trkpt>
      <trkpt lat="49.33066" lon="1.00709">
        <ele>104.482</ele>
        <time>2012-06-24T10:36:51.013Z</time>
      </trkpt>
      <trkpt lat="49.33071" lon="1.0072">
        <ele>104.234</ele>
        <time>2012-06-24T10:36:54.466Z</time>
      </trkpt>
      <trkpt lat="49.33077" lon="1.00733">
        <ele>104.463</ele>
        <time>2012-06-24T10:36:59.065Z</time>
      </trkpt>
      <trkpt lat="49.33074" lon="1.00746">
        <ele>104.885</ele>
        <time>2012-06-24T10:37:04.113Z</time>
      </trkpt>
      <trkpt lat="49.33082" lon="1.0076">
        <ele>105.138</ele>
        <time>2012-06-24T10:37:12.833Z</time>
      </trkpt>
      <trkpt lat="49.33087" lon="1.00771">
        <ele>105.596</ele>
        <time>2012-06-24T10:37:17.371Z</time>
      </trkpt>
      <trkpt lat="49.33094" lon="1.00784">
        <ele>107.175</ele>
        <time>2012-06-24T10:37:22.168Z</time>
      </trkpt>
      <trkpt lat="49.33099" lon="1.00796">
        <ele>109.801</ele>
        <time>2012-06-24T10:37:27.489Z</time>
      </trkpt>
      <trkpt lat="49.33103" lon="1.00809">
        <ele>112.087</ele>
        <time>2012-06-24T10:37:33.248Z</time>
      </trkpt>
      <trkpt lat="49.33108" lon="1.00822">
        <ele>113.243</ele>
        <time>2012-06-24T10:37:40.773Z</time>
      </trkpt>
      <trkpt lat="49.33112" lon="1.00836">
        <ele>113.538</ele>
        <time>2012-06-24T10:37:47.417Z</time>
      </trkpt>
      <trkpt lat="49.33115" lon="1.00851">
        <ele>113.259</ele>
        <time>2012-06-24T10:37:54.143Z</time>
      </trkpt>
      <trkpt lat="49.33118" lon="1.00864">
        <ele>112.7</ele>
        <time>2012-06-24T10:38:00.543Z</time>
      </trkpt>
      <trkpt lat="49.33121" lon="1.00878">
        <ele>112.194</ele>
        <time>2012-06-24T10:38:06.906Z</time>
      </trkpt>
      <trkpt lat="49.33122" lon="1.00892">
        <ele>111.843</ele>
        <time>2012-06-24T10:38:13.311Z</time>
      </trkpt>
      <trkpt lat="49.33126" lon="1.00904">
        <ele>111.983</ele>
        <time>2012-06-24T10:38:19.743Z</time>
      </trkpt>
      <trkpt lat="49.33132" lon="1.00916">
        <ele>112.822</ele>
        <time>2012-06-24T10:38:25.966Z</time>
      </trkpt>
      <trkpt lat="49.33141" lon="1.00927">
        <ele>114.436</ele>
        <time>2012-06-24T10:38:31.185Z</time>
      </trkpt>
      <trkpt lat="49.33149" lon="1.00935">
        <ele>116.64</ele>
        <time>2012-06-24T10:38:35.179Z</time>
      </trkpt>
      <trkpt lat="49.33156" lon="1.00944">
        <ele>118.489</ele>
        <time>2012-06-24T10:38:39.464Z</time>
      </trkpt>
      <trkpt lat="49.33163" lon="1.00951">
        <ele>119.251</ele>
        <time>2012-06-24T10:38:44.251Z</time>
      </trkpt>
      <trkpt lat="49.33172" lon="1.00961">
        <ele>119.298</ele>
        <time>2012-06-24T10:38:50.979Z</time>
      </trkpt>
      <trkpt lat="49.3318" lon="1.00971">
        <ele>119.115</ele>
        <time>2012-06-24T10:38:58.813Z</time>
      </trkpt>
      <trkpt lat="49.3318" lon="1.00971">
        <ele>118.972</ele>
        <time>2012-06-24T10:39:01.803Z</time>
      </trkpt>
      <trkpt lat="49.3318" lon="1.00971">
        <ele>118.908</ele>
        <time>2012-06-24T10:39:12.815Z</time>
      </trkpt>
      <trkpt lat="49.33201" lon="1.00988">
        <ele>118.89</ele>
        <time>2012-06-24T10:39:12.815Z</time>
      </trkpt>
      <trkpt lat="49.3321" lon="1.00993">
        <ele>118.912</ele>
        <time>2012-06-24T10:39:18.950Z</time>
      </trkpt>
      <trkpt lat="49.33219" lon="1.00997">
        <ele>118.979</ele>
        <time>2012-06-24T10:39:23.810Z</time>
      </trkpt>
      <trkpt lat="49.33219" lon="1.00997">
        <ele>119.044</ele>
        <time>2012-06-24T10:39:25.807Z</time>
      </trkpt>
      <trkpt lat="49.33219" lon="1.00997">
        <ele>119.043</ele>
        <time>2012-06-24T10:40:24.810Z</time>
      </trkpt>
      <trkpt lat="49.33238" lon="1.01017">
        <ele>118.98</ele>
        <time>2012-06-24T10:40:24.810Z</time>
      </trkpt>
      <trkpt lat="49.33248" lon="1.01015">
        <ele>119.293</ele>
        <time>2012-06-24T10:40:33.359Z</time>
      </trkpt>
      <trkpt lat="49.33258" lon="1.01005">
        <ele>120.547</ele>
        <time>2012-06-24T10:40:38.699Z</time>
      </trkpt>
      <trkpt lat="49.33262" lon="1.00992">
        <ele>123.271</ele>
        <time>2012-06-24T10:40:42.332Z</time>
      </trkpt>
      <trkpt lat="49.33265" lon="1.00974">
        <ele>127.144</ele>
        <time>2012-06-24T10:40:46.134Z</time>
      </trkpt>
      <trkpt lat="49.33269" lon="1.00959">
        <ele>130.608</ele>
        <time>2012-06-24T10:40:49.369Z</time>
      </trkpt>
      <trkpt lat="49.33274" lon="1.00946">
        <ele>132.536</ele>
        <time>2012-06-24T10:40:52.753Z</time>
      </trkpt>
      <trkpt lat="49.33277" lon="1.00932">
        <ele>133.16</ele>
        <time>2012-06-24T10:40:56.219Z</time>
      </trkpt>
      <trkpt lat="49.33277" lon="1.00932">
        <ele>133.094</ele>
        <time>2012-06-24T10:40:56.219Z</time>
      </trkpt>
      <trkpt lat="49.3328" lon="1.00917">
        <ele>132.94</ele>
        <time>2012-06-24T10:41:00.051Z</time>
      </trkpt>
      <trkpt lat="49.33285" lon="1.00903">
        <ele>132.932</ele>
        <time>2012-06-24T10:41:04.904Z</time>
      </trkpt>
      <trkpt lat="49.33285" lon="1.00903">
        <ele>132.969</ele>
        <time>2012-06-24T10:41:04.808Z</time>
      </trkpt>
      <trkpt lat="49.33292" lon="1.00891">
        <ele>132.994</ele>
        <time>2012-06-24T10:41:10.359Z</time>
      </trkpt>
      <trkpt lat="49.333" lon="1.00878">
        <ele>132.966</ele>
        <time>2012-06-24T10:41:15.120Z</time>
      </trkpt>
      <trkpt lat="49.33309" lon="1.0087">
        <ele>132.884</ele>
        <time>2012-06-24T10:41:19.131Z</time>
      </trkpt>
      <trkpt lat="49.33319" lon="1.00876">
        <ele>132.509</ele>
        <time>2012-06-24T10:41:23.646Z</time>
      </trkpt>
      <trkpt lat="49.3333" lon="1.00884">
        <ele>131.618</ele>
        <time>2012-06-24T10:41:28.407Z</time>
      </trkpt>
      <trkpt lat="49.33338" lon="1.00889">
        <ele>130.345</ele>
        <time>2012-06-24T10:41:32.065Z</time>
      </trkpt>
      <trkpt lat="49.33348" lon="1.00894">
        <ele>129.071</ele>
        <time>2012-06-24T10:41:36.174Z</time>
      </trkpt>
      <trkpt lat="49.33358" lon="1.00895">
        <ele>128.213</ele>
        <time>2012-06-24T10:41:39.996Z</time>
      </trkpt>
      <trkpt lat="49.33369" lon="1.00891">
        <ele>127.93</ele>
        <time>2012-06-24T10:41:44.209Z</time>
      </trkpt>
      <trkpt lat="49.3338" lon="1.0089">
        <ele>127.993</ele>
        <time>2012-06-24T10:41:48.303Z</time>
      </trkpt>
      <trkpt lat="49.3339" lon="1.00892">
        <ele>128.548</ele>
        <time>2012-06-24T10:41:52.422Z</time>
      </trkpt>
      <trkpt lat="49.33401" lon="1.00901">
        <ele>130.353</ele>
        <time>2012-06-24T10:41:57.070Z</time>
      </trkpt>
      <trkpt lat="49.3341" lon="1.00909">
        <ele>133.198</ele>
        <time>2012-06-24T10:42:00.819Z</time>
      </trkpt>
      <trkpt lat="49.3341" lon="1.00909">
        <ele>135.511</ele>
        <time>2012-06-24T10:42:00.819Z</time>
      </trkpt>
      <trkpt lat="49.3341" lon="1.00909">
        <ele>136.439</ele>
        <time>2012-06-24T10:42:04.819Z</time>
      </trkpt>
      <trkpt lat="49.33423" lon="1.00915">
        <ele>136.387</ele>
        <time>2012-06-24T10:42:04.819Z</time>
      </trkpt>
      <trkpt lat="49.33434" lon="1.0092">
        <ele>135.594</ele>
        <time>2012-06-24T10:42:09.988Z</time>
      </trkpt>
      <trkpt lat="49.33444" lon="1.00926">
        <ele>134.329</ele>
        <time>2012-06-24T10:42:13.738Z</time>
      </trkpt>
      <trkpt lat="49.33455" lon="1.00934">
        <ele>133.265</ele>
        <time>2012-06-24T10:42:17.608Z</time>
      </trkpt>
      <trkpt lat="49.33464" lon="1.00942">
        <ele>132.608</ele>
        <time>2012-06-24T10:42:20.668Z</time>
      </trkpt>
      <trkpt lat="49.33473" lon="1.00949">
        <ele>132.061</ele>
        <time>2012-06-24T10:42:23.460Z</time>
      </trkpt>
      <trkpt lat="49.33482" lon="1.00955">
        <ele>131.655</ele>
        <time>2012-06-24T10:42:26.408Z</time>
      </trkpt>
      <trkpt lat="49.33491" lon="1.00962">
        <ele>131.658</ele>
        <time>2012-06-24T10:42:29.814Z</time>
      </trkpt>
      <trkpt lat="49.33491" lon="1.00962">
        <ele>132.06</ele>
        <time>2012-06-24T10:42:30.822Z</time>
      </trkpt>
      <trkpt lat="49.33491" lon="1.00962">
        <ele>132.405</ele>
        <time>2012-06-24T10:42:36.822Z</time>
      </trkpt>
      <trkpt lat="49.33515" lon="1.00976">
        <ele>132.457</ele>
        <time>2012-06-24T10:42:36.822Z</time>
      </trkpt>
      <trkpt lat="49.33524" lon="1.00981">
        <ele>132.491</ele>
        <time>2012-06-24T10:42:41.932Z</time>
      </trkpt>
      <trkpt lat="49.33533" lon="1.00989">
        <ele>132.502</ele>
        <time>2012-06-24T10:42:45.921Z</time>
      </trkpt>
      <trkpt lat="49.33543" lon="1.00997">
        <ele>132.242</ele>
        <time>2012-06-24T10:42:49.239Z</time>
      </trkpt>
      <trkpt lat="49.33551" lon="1.01006">
        <ele>131.807</ele>
        <time>2012-06-24T10:42:51.656Z</time>
      </trkpt>
      <trkpt lat="49.33558" lon="1.01019">
        <ele>131.451</ele>
        <time>2012-06-24T10:42:54.431Z</time>
      </trkpt>
      <trkpt lat="49.33561" lon="1.01033">
        <ele>131.282</ele>
        <time>2012-06-24T10:42:57.361Z</time>
      </trkpt>
      <trkpt lat="49.33553" lon="1.01045">
        <ele>131.257</ele>
        <time>2012-06-24T10:43:01.477Z</time>
      </trkpt>
      <trkpt lat="49.33545" lon="1.01056">
        <ele>131.496</ele>
        <time>2012-06-24T10:43:06.514Z</time>
      </trkpt>
      <trkpt lat="49.33538" lon="1.01069">
        <ele>132.094</ele>
        <time>2012-06-24T10:43:10.629Z</time>
      </trkpt>
      <trkpt lat="49.33532" lon="1.01081">
        <ele>132.906</ele>
        <time>2012-06-24T10:43:13.815Z</time>
      </trkpt>
      <trkpt lat="49.33526" lon="1.01092">
        <ele>133.903</ele>
        <time>2012-06-24T10:43:16.545Z</time>
      </trkpt>
      <trkpt lat="49.33518" lon="1.01108">
        <ele>135.045</ele>
        <time>2012-06-24T10:43:20.254Z</time>
      </trkpt>
      <trkpt lat="49.33509" lon="1.01126">
        <ele>135.946</ele>
        <time>2012-06-24T10:43:24.182Z</time>
      </trkpt>
      <trkpt lat="49.33505" lon="1.01142">
        <ele>136.299</ele>
        <time>2012-06-24T10:43:27.172Z</time>
      </trkpt>
      <trkpt lat="49.33501" lon="1.01155">
        <ele>136.183</ele>
        <time>2012-06-24T10:43:29.730Z</time>
      </trkpt>
      <trkpt lat="49.33498" lon="1.01173">
        <ele>135.071</ele>
        <time>2012-06-24T10:43:33.142Z</time>
      </trkpt>
      <trkpt lat="49.33493" lon="1.01185">
        <ele>132.602</ele>
        <time>2012-06-24T10:43:36.077Z</time>
      </trkpt>
      <trkpt lat="49.33485" lon="1.01198">
        <ele>129.913</ele>
        <time>2012-06-24T10:43:40.260Z</time>
      </trkpt>
      <trkpt lat="49.33482" lon="1.01214">
        <ele>128.059</ele>
        <time>2012-06-24T10:43:44.818Z</time>
      </trkpt>
      <trkpt lat="49.33482" lon="1.01214">
        <ele>126.948</ele>
        <time>2012-06-24T10:43:47.806Z</time>
      </trkpt>
      <trkpt lat="49.33482" lon="1.01214">
        <ele>126.464</ele>
        <time>2012-06-24T10:43:53.816Z</time>
      </trkpt>
      <trkpt lat="49.33469" lon="1.01244">
        <ele>126.416</ele>
        <time>2012-06-24T10:43:53.816Z</time>
      </trkpt>
      <trkpt lat="49.33464" lon="1.01258">
        <ele>126.541</ele>
        <time>2012-06-24T10:43:58.559Z</time>
      </trkpt>
      <trkpt lat="49.3346" lon="1.01273">
        <ele>126.693</ele>
        <time>2012-06-24T10:44:03.149Z</time>
      </trkpt>
      <trkpt lat="49.33458" lon="1.01287">
        <ele>126.794</ele>
        <time>2012-06-24T10:44:06.842Z</time>
      </trkpt>
      <trkpt lat="49.33456" lon="1.01303">
        <ele>126.827</ele>
        <time>2012-06-24T10:44:10.637Z</time>
      </trkpt>
      <trkpt lat="49.33455" lon="1.01318">
        <ele>126.81</ele>
        <time>2012-06-24T10:44:14.213Z</time>
      </trkpt>
      <trkpt lat="49.33447" lon="1.01325">
        <ele>126.523</ele>
        <time>2012-06-24T10:44:17.913Z</time>
      </trkpt>
      <trkpt lat="49.33439" lon="1.01316">
        <ele>126.093</ele>
        <time>2012-06-24T10:44:23.185Z</time>
      </trkpt>
      <trkpt lat="49.33432" lon="1.01305">
        <ele>126.057</ele>
        <time>2012-06-24T10:44:29.277Z</time>
      </trkpt>
      <trkpt lat="49.33426" lon="1.01293">
        <ele>126.393</ele>
        <time>2012-06-24T10:44:34.865Z</time>
      </trkpt>
      <trkpt lat="49.33421" lon="1.01281">
        <ele>128.18</ele>
        <time>2012-06-24T10:44:38.803Z</time>
      </trkpt>
      <trkpt lat="49.33421" lon="1.01281">
        <ele>132.252</ele>
        <time>2012-06-24T10:44:40.800Z</time>
      </trkpt>
      <trkpt lat="49.33421" lon="1.01281">
        <ele>136.328</ele>
        <time>2012-06-24T10:44:49.805Z</time>
      </trkpt>
      <trkpt lat="49.3341" lon="1.01243">
        <ele>138.234</ele>
        <time>2012-06-24T10:44:49.805Z</time>
      </trkpt>
      <trkpt lat="49.33406" lon="1.01229">
        <ele>138.382</ele>
        <time>2012-06-24T10:44:53.565Z</time>
      </trkpt>
      <trkpt lat="49.33402" lon="1.01214">
        <ele>137.673</ele>
        <time>2012-06-24T10:44:57.542Z</time>
      </trkpt>
      <trkpt lat="49.33395" lon="1.01198">
        <ele>136.68</ele>
        <time>2012-06-24T10:45:01.938Z</time>
      </trkpt>
      <trkpt lat="49.33386" lon="1.01187">
        <ele>135.309</ele>
        <time>2012-06-24T10:45:05.983Z</time>
      </trkpt>
      <trkpt lat="49.33376" lon="1.01178">
        <ele>133.611</ele>
        <time>2012-06-24T10:45:09.384Z</time>
      </trkpt>
      <trkpt lat="49.33367" lon="1.01169">
        <ele>132.277</ele>
        <time>2012-06-24T10:45:12.780Z</time>
      </trkpt>
      <trkpt lat="49.33357" lon="1.01163">
        <ele>131.439</ele>
        <time>2012-06-24T10:45:16.011Z</time>
      </trkpt>
      <trkpt lat="49.33348" lon="1.01159">
        <ele>130.516</ele>
        <time>2012-06-24T10:45:18.884Z</time>
      </trkpt>
      <trkpt lat="49.33338" lon="1.01157">
        <ele>129.471</ele>
        <time>2012-06-24T10:45:21.923Z</time>
      </trkpt>
      <trkpt lat="49.33328" lon="1.01157">
        <ele>128.757</ele>
        <time>2012-06-24T10:45:24.614Z</time>
      </trkpt>
      <trkpt lat="49.3332" lon="1.01154">
        <ele>128.509</ele>
        <time>2012-06-24T10:45:27.212Z</time>
      </trkpt>
      <trkpt lat="49.33308" lon="1.01151">
        <ele>128.509</ele>
        <time>2012-06-24T10:45:30.503Z</time>
      </trkpt>
      <trkpt lat="49.33298" lon="1.01149">
        <ele>128.571</ele>
        <time>2012-06-24T10:45:33.448Z</time>
      </trkpt>
      <trkpt lat="49.33288" lon="1.01153">
        <ele>128.618</ele>
        <time>2012-06-24T10:45:36.515Z</time>
      </trkpt>
      <trkpt lat="49.33285" lon="1.01168">
        <ele>128.635</ele>
        <time>2012-06-24T10:45:39.753Z</time>
      </trkpt>
      <trkpt lat="49.33276" lon="1.0118">
        <ele>128.635</ele>
        <time>2012-06-24T10:45:43.295Z</time>
      </trkpt>
      <trkpt lat="49.33266" lon="1.01193">
        <ele>128.629</ele>
        <time>2012-06-24T10:45:46.721Z</time>
      </trkpt>
      <trkpt lat="49.33255" lon="1.01204">
        <ele>128.602</ele>
        <time>2012-06-24T10:45:49.977Z</time>
      </trkpt>
      <trkpt lat="49.33245" lon="1.01209">
        <ele>128.538</ele>
        <time>2012-06-24T10:45:52.512Z</time>
      </trkpt>
      <trkpt lat="49.33235" lon="1.01205">
        <ele>128.156</ele>
        <time>2012-06-24T10:45:55.331Z</time>
      </trkpt>
      <trkpt lat="49.33235" lon="1.01205">
        <ele>127.554</ele>
        <time>2012-06-24T10:45:53.793Z</time>
      </trkpt>
      <trkpt lat="49.33231" lon="1.01192">
        <ele>127.368</ele>
        <time>2012-06-24T10:45:58.464Z</time>
      </trkpt>
      <trkpt lat="49.33225" lon="1.01178">
        <ele>127.657</ele>
        <time>2012-06-24T10:46:01.736Z</time>
      </trkpt>
      <trkpt lat="49.3322" lon="1.01167">
        <ele>127.926</ele>
        <time>2012-06-24T10:46:04.661Z</time>
      </trkpt>
      <trkpt lat="49.33215" lon="1.01152">
        <ele>128.076</ele>
        <time>2012-06-24T10:46:07.804Z</time>
      </trkpt>
      <trkpt lat="49.33215" lon="1.01152">
        <ele>128.166</ele>
        <time>2012-06-24T10:46:20.801Z</time>
      </trkpt>
      <trkpt lat="49.33215" lon="1.01152">
        <ele>128.22</ele>
        <time>2012-06-24T10:50:46.801Z</time>
      </trkpt>
      <trkpt lat="49.33203" lon="1.01113">
        <ele>128.822</ele>
        <time>2012-06-24T10:50:46.801Z</time>
      </trkpt>
      <trkpt lat="49.33198" lon="1.01099">
        <ele>130.417</ele>
        <time>2012-06-24T10:50:52.009Z</time>
      </trkpt>
      <trkpt lat="49.33194" lon="1.01086">
        <ele>132.159</ele>
        <time>2012-06-24T10:50:55.714Z</time>
      </trkpt>
      <trkpt lat="49.33188" lon="1.01069">
        <ele>133.084</ele>
        <time>2012-06-24T10:50:59.404Z</time>
      </trkpt>
      <trkpt lat="49.33179" lon="1.01054">
        <ele>133.36</ele>
        <time>2012-06-24T10:51:02.548Z</time>
      </trkpt>
      <trkpt lat="49.33167" lon="1.01036">
        <ele>133.445</ele>
        <time>2012-06-24T10:51:05.764Z</time>
      </trkpt>
      <trkpt lat="49.33158" lon="1.01025">
        <ele>133.507</ele>
        <time>2012-06-24T10:51:07.709Z</time>
      </trkpt>
      <trkpt lat="49.33147" lon="1.01015">
        <ele>133.529</ele>
        <time>2012-06-24T10:51:09.926Z</time>
      </trkpt>
      <trkpt lat="49.33135" lon="1.01007">
        <ele>133.519</ele>
        <time>2012-06-24T10:51:12.301Z</time>
      </trkpt>
      <trkpt lat="49.33126" lon="1.01">
        <ele>132.935</ele>
        <time>2012-06-24T10:51:14.094Z</time>
      </trkpt>
      <trkpt lat="49.33113" lon="1.00981">
        <ele>131.359</ele>
        <time>2012-06-24T10:51:17.042Z</time>
      </trkpt>
      <trkpt lat="49.33103" lon="1.00972">
        <ele>129.57</ele>
        <time>2012-06-24T10:51:18.803Z</time>
      </trkpt>
      <trkpt lat="49.33103" lon="1.00972">
        <ele>128.523</ele>
        <time>2012-06-24T10:51:20.793Z</time>
      </trkpt>
      <trkpt lat="49.33103" lon="1.00972">
        <ele>128.202</ele>
        <time>2012-06-24T10:51:24.806Z</time>
      </trkpt>
      <trkpt lat="49.33083" lon="1.00953">
        <ele>128.241</ele>
        <time>2012-06-24T10:51:24.806Z</time>
      </trkpt>
      <trkpt lat="49.33077" lon="1.00941">
        <ele>128.505</ele>
        <time>2012-06-24T10:51:27.517Z</time>
      </trkpt>
      <trkpt lat="49.33071" lon="1.00923">
        <ele>128.818</ele>
        <time>2012-06-24T10:51:31.258Z</time>
      </trkpt>
      <trkpt lat="49.33067" lon="1.00907">
        <ele>128.852</ele>
        <time>2012-06-24T10:51:34.540Z</time>
      </trkpt>
      <trkpt lat="49.33061" lon="1.00894">
        <ele>128.627</ele>
        <time>2012-06-24T10:51:37.685Z</time>
      </trkpt>
      <trkpt lat="49.33057" lon="1.00876">
        <ele>128.123</ele>
        <time>2012-06-24T10:51:41.947Z</time>
      </trkpt>
      <trkpt lat="49.33055" lon="1.00862">
        <ele>127.116</ele>
        <time>2012-06-24T10:51:45.397Z</time>
      </trkpt>
      <trkpt lat="49.33051" lon="1.00847">
        <ele>125.677</ele>
        <time>2012-06-24T10:51:49.098Z</time>
      </trkpt>
      <trkpt lat="49.33046" lon="1.00832">
        <ele>123.936</ele>
        <time>2012-06-24T10:51:53.104Z</time>
      </trkpt>
      <trkpt lat="49.33039" lon="1.00818">
        <ele>122.216</ele>
        <time>2012-06-24T10:51:57.213Z</time>
      </trkpt>
      <trkpt lat="49.33032" lon="1.00805">
        <ele>121.236</ele>
        <time>2012-06-24T10:52:01.046Z</time>
      </trkpt>
      <trkpt lat="49.33024" lon="1.00792">
        <ele>121.187</ele>
        <time>2012-06-24T10:52:05.204Z</time>
      </trkpt>
      <trkpt lat="49.33017" lon="1.0078">
        <ele>121.719</ele>
        <time>2012-06-24T10:52:08.535Z</time>
      </trkpt>
      <trkpt lat="49.33009" lon="1.00768">
        <ele>122.736</ele>
        <time>2012-06-24T10:52:11.907Z</time>
      </trkpt>
      <trkpt lat="49.32998" lon="1.00762">
        <ele>124.02</ele>
        <time>2012-06-24T10:52:15.423Z</time>
      </trkpt>
      <trkpt lat="49.32987" lon="1.00758">
        <ele>124.961</ele>
        <time>2012-06-24T10:52:19.301Z</time>
      </trkpt>
      <trkpt lat="49.32977" lon="1.00755">
        <ele>125.303</ele>
        <time>2012-06-24T10:52:22.640Z</time>
      </trkpt>
      <trkpt lat="49.32969" lon="1.00749">
        <ele>124.893</ele>
        <time>2012-06-24T10:52:25.813Z</time>
      </trkpt>
      <trkpt lat="49.32961" lon="1.0074">
        <ele>123.506</ele>
        <time>2012-06-24T10:52:29.175Z</time>
      </trkpt>
      <trkpt lat="49.32954" lon="1.00728">
        <ele>121.731</ele>
        <time>2012-06-24T10:52:33.007Z</time>
      </trkpt>
      <trkpt lat="49.32948" lon="1.00714">
        <ele>120.548</ele>
        <time>2012-06-24T10:52:36.884Z</time>
      </trkpt>
      <trkpt lat="49.32945" lon="1.00698">
        <ele>120.164</ele>
        <time>2012-06-24T10:52:40.222Z</time>
      </trkpt>
      <trkpt lat="49.32937" lon="1.00686">
        <ele>120.348</ele>
        <time>2012-06-24T10:52:43.712Z</time>
      </trkpt>
      <trkpt lat="49.32927" lon="1.00678">
        <ele>120.92</ele>
        <time>2012-06-24T10:52:47.248Z</time>
      </trkpt>
      <trkpt lat="49.32918" lon="1.00669">
        <ele>121.917</ele>
        <time>2012-06-24T10:52:50.655Z</time>
      </trkpt>
      <trkpt lat="49.32913" lon="1.00655">
        <ele>123.218</ele>
        <time>2012-06-24T10:52:54.547Z</time>
      </trkpt>
      <trkpt lat="49.32905" lon="1.00628">
        <ele>124.259</ele>
        <time>2012-06-24T10:53:00.503Z</time>
      </trkpt>
      <trkpt lat="49.32897" lon="1.00611">
        <ele>124.966</ele>
        <time>2012-06-24T10:53:04.034Z</time>
      </trkpt>
      <trkpt lat="49.3289" lon="1.00597">
        <ele>125.832</ele>
        <time>2012-06-24T10:53:07.392Z</time>
      </trkpt>
      <trkpt lat="49.32886" lon="1.00581">
        <ele>126.65</ele>
        <time>2012-06-24T10:53:10.309Z</time>
      </trkpt>
      <trkpt lat="49.32884" lon="1.00567">
        <ele>126.538</ele>
        <time>2012-06-24T10:53:13.035Z</time>
      </trkpt>
      <trkpt lat="49.32887" lon="1.00548">
        <ele>125.32</ele>
        <time>2012-06-24T10:53:16.741Z</time>
      </trkpt>
      <trkpt lat="49.3289" lon="1.00532">
        <ele>123.885</ele>
        <time>2012-06-24T10:53:19.928Z</time>
      </trkpt>
      <trkpt lat="49.3289" lon="1.00517">
        <ele>122.83</ele>
        <time>2012-06-24T10:53:22.900Z</time>
      </trkpt>
      <trkpt lat="49.3289" lon="1.00499">
        <ele>121.8</ele>
        <time>2012-06-24T10:53:26.519Z</time>
      </trkpt>
      <trkpt lat="49.32887" lon="1.00484">
        <ele>119.685</ele>
        <time>2012-06-24T10:53:30.279Z</time>
      </trkpt>
      <trkpt lat="49.32879" lon="1.00474">
        <ele>115.775</ele>
        <time>2012-06-24T10:53:33.980Z</time>
      </trkpt>
      <trkpt lat="49.32872" lon="1.00461">
        <ele>111.404</ele>
        <time>2012-06-24T10:53:37.609Z</time>
      </trkpt>
      <trkpt lat="49.32868" lon="1.00442">
        <ele>108.377</ele>
        <time>2012-06-24T10:53:41.783Z</time>
      </trkpt>
      <trkpt lat="49.32865" lon="1.00427">
        <ele>106.878</ele>
        <time>2012-06-24T10:53:45.331Z</time>
      </trkpt>
      <trkpt lat="49.32857" lon="1.00416">
        <ele>106.045</ele>
        <time>2012-06-24T10:53:49.802Z</time>
      </trkpt>
      <trkpt lat="49.32848" lon="1.00409">
        <ele>104.941</ele>
        <time>2012-06-24T10:53:53.688Z</time>
      </trkpt>
      <trkpt lat="49.32838" lon="1.00402">
        <ele>103.453</ele>
        <time>2012-06-24T10:53:57.301Z</time>
      </trkpt>
      <trkpt lat="49.32828" lon="1.00393">
        <ele>102.146</ele>
        <time>2012-06-24T10:54:01.180Z</time>
      </trkpt>
      <trkpt lat="49.32815" lon="1.00388">
        <ele>101.182</ele>
        <time>2012-06-24T10:54:05.132Z</time>
      </trkpt>
      <trkpt lat="49.32806" lon="1.00387">
        <ele>100.297</ele>
        <time>2012-06-24T10:54:08.077Z</time>
      </trkpt>
      <trkpt lat="49.32796" lon="1.00386">
        <ele>99.209</ele>
        <time>2012-06-24T10:54:11.450Z</time>
      </trkpt>
      <trkpt lat="49.32786" lon="1.00386">
        <ele>98.035</ele>
        <time>2012-06-24T10:54:14.521Z</time>
      </trkpt>
      <trkpt lat="49.32775" lon="1.00387">
        <ele>97.17</ele>
        <time>2012-06-24T10:54:18.339Z</time>
      </trkpt>
      <trkpt lat="49.32765" lon="1.00392">
        <ele>96.474</ele>
        <time>2012-06-24T10:54:22.037Z</time>
      </trkpt>
      <trkpt lat="49.32753" lon="1.00394">
        <ele>95.603</ele>
        <time>2012-06-24T10:54:26.287Z</time>
      </trkpt>
      <trkpt lat="49.32744" lon="1.00398">
        <ele>94.494</ele>
        <time>2012-06-24T10:54:29.687Z</time>
      </trkpt>
      <trkpt lat="49.32734" lon="1.00398">
        <ele>93.287</ele>
        <time>2012-06-24T10:54:33.302Z</time>
      </trkpt>
      <trkpt lat="49.32722" lon="1.00401">
        <ele>91.934</ele>
        <time>2012-06-24T10:54:37.298Z</time>
      </trkpt>
      <trkpt lat="49.32712" lon="1.00406">
        <ele>90.415</ele>
        <time>2012-06-24T10:54:40.877Z</time>
      </trkpt>
      <trkpt lat="49.327" lon="1.00401">
        <ele>89.101</ele>
        <time>2012-06-24T10:54:45.307Z</time>
      </trkpt>
      <trkpt lat="49.32689" lon="1.00397">
        <ele>88.376</ele>
        <time>2012-06-24T10:54:49.044Z</time>
      </trkpt>
      <trkpt lat="49.3268" lon="1.00399">
        <ele>88.206</ele>
        <time>2012-06-24T10:54:52.462Z</time>
      </trkpt>
      <trkpt lat="49.32671" lon="1.00399">
        <ele>88.431</ele>
        <time>2012-06-24T10:54:56.074Z</time>
      </trkpt>
      <trkpt lat="49.32661" lon="1.004">
        <ele>88.887</ele>
        <time>2012-06-24T10:55:00.169Z</time>
      </trkpt>
      <trkpt lat="49.32652" lon="1.00398">
        <ele>89.668</ele>
        <time>2012-06-24T10:55:04.257Z</time>
      </trkpt>
      <trkpt lat="49.32642" lon="1.00392">
        <ele>90.714</ele>
        <time>2012-06-24T10:55:09.220Z</time>
      </trkpt>
      <trkpt lat="49.32635" lon="1.00381">
        <ele>91.66</ele>
        <time>2012-06-24T10:55:13.383Z</time>
      </trkpt>
      <trkpt lat="49.32627" lon="1.00371">
        <ele>92.362</ele>
        <time>2012-06-24T10:55:17.263Z</time>
      </trkpt>
      <trkpt lat="49.32616" lon="1.00362">
        <ele>92.847</ele>
        <time>2012-06-24T10:55:21.515Z</time>
      </trkpt>
      <trkpt lat="49.32607" lon="1.00359">
        <ele>93.082</ele>
        <time>2012-06-24T10:55:24.982Z</time>
      </trkpt>
      <trkpt lat="49.32607" lon="1.00359">
        <ele>93.112</ele>
        <time>2012-06-24T10:55:24.982Z</time>
      </trkpt>
      <trkpt lat="49.32597" lon="1.0036">
        <ele>92.993</ele>
        <time>2012-06-24T10:55:29.143Z</time>
      </trkpt>
      <trkpt lat="49.32588" lon="1.00369">
        <ele>92.689</ele>
        <time>2012-06-24T10:55:35.278Z</time>
      </trkpt>
      <trkpt lat="49.32588" lon="1.00369">
        <ele>92.28</ele>
        <time>2012-06-24T10:55:35.278Z</time>
      </trkpt>
      <trkpt lat="49.3258" lon="1.00378">
        <ele>91.765</ele>
        <time>2012-06-24T10:55:40.677Z</time>
      </trkpt>
      <trkpt lat="49.32575" lon="1.00389">
        <ele>90.769</ele>
        <time>2012-06-24T10:55:45.795Z</time>
      </trkpt>
      <trkpt lat="49.32575" lon="1.00389">
        <ele>89.336</ele>
        <time>2012-06-24T10:55:52.797Z</time>
      </trkpt>
      <trkpt lat="49.32575" lon="1.00389">
        <ele>88.209</ele>
        <time>2012-06-24T10:55:56.797Z</time>
      </trkpt>
      <trkpt lat="49.32575" lon="1.00389">
        <ele>87.942</ele>
        <time>2012-06-24T10:55:56.797Z</time>
      </trkpt>
      <trkpt lat="49.32568" lon="1.00403">
        <ele>88.382</ele>
        <time>2012-06-24T10:56:00.975Z</time>
      </trkpt>
      <trkpt lat="49.32563" lon="1.00414">
        <ele>88.803</ele>
        <time>2012-06-24T10:56:03.798Z</time>
      </trkpt>
      <trkpt lat="49.32563" lon="1.00414">
        <ele>88.785</ele>
        <time>2012-06-24T10:56:14.794Z</time>
      </trkpt>
      <trkpt lat="49.32563" lon="1.00414">
        <ele>88.65</ele>
        <time>2012-06-24T10:56:26.799Z</time>
      </trkpt>
      <trkpt lat="49.32558" lon="1.00428">
        <ele>88.636</ele>
        <time>2012-06-24T10:56:26.799Z</time>
      </trkpt>
      <trkpt lat="49.3255" lon="1.00441">
        <ele>88.577</ele>
        <time>2012-06-24T10:56:37.280Z</time>
      </trkpt>
      <trkpt lat="49.32543" lon="1.00451">
        <ele>88.184</ele>
        <time>2012-06-24T10:56:41.860Z</time>
      </trkpt>
      <trkpt lat="49.32536" lon="1.00463">
        <ele>87.523</ele>
        <time>2012-06-24T10:56:45.442Z</time>
      </trkpt>
      <trkpt lat="49.32527" lon="1.00471">
        <ele>87.006</ele>
        <time>2012-06-24T10:56:48.744Z</time>
      </trkpt>
      <trkpt lat="49.32517" lon="1.00477">
        <ele>86.758</ele>
        <time>2012-06-24T10:56:51.637Z</time>
      </trkpt>
      <trkpt lat="49.32507" lon="1.00488">
        <ele>86.507</ele>
        <time>2012-06-24T10:56:55.097Z</time>
      </trkpt>
      <trkpt lat="49.325" lon="1.00497">
        <ele>85.961</ele>
        <time>2012-06-24T10:56:58.801Z</time>
      </trkpt>
      <trkpt lat="49.32495" lon="1.00483">
        <ele>84.624</ele>
        <time>2012-06-24T10:57:03.166Z</time>
      </trkpt>
      <trkpt lat="49.3249" lon="1.00468">
        <ele>82.518</ele>
        <time>2012-06-24T10:57:08.220Z</time>
      </trkpt>
      <trkpt lat="49.32482" lon="1.00441">
        <ele>80.402</ele>
        <time>2012-06-24T10:57:12.912Z</time>
      </trkpt>
      <trkpt lat="49.32475" lon="1.00422">
        <ele>78.675</ele>
        <time>2012-06-24T10:57:15.711Z</time>
      </trkpt>
      <trkpt lat="49.32469" lon="1.00403">
        <ele>77.205</ele>
        <time>2012-06-24T10:57:18.368Z</time>
      </trkpt>
      <trkpt lat="49.32465" lon="1.0039">
        <ele>75.915</ele>
        <time>2012-06-24T10:57:20.250Z</time>
      </trkpt>
      <trkpt lat="49.32464" lon="1.00366">
        <ele>74.799</ele>
        <time>2012-06-24T10:57:23.456Z</time>
      </trkpt>
      <trkpt lat="49.32466" lon="1.00352">
        <ele>74.327</ele>
        <time>2012-06-24T10:57:25.397Z</time>
      </trkpt>
      <trkpt lat="49.32471" lon="1.00331">
        <ele>74.761</ele>
        <time>2012-06-24T10:57:28.234Z</time>
      </trkpt>
      <trkpt lat="49.32474" lon="1.00316">
        <ele>75.481</ele>
        <time>2012-06-24T10:57:30.294Z</time>
      </trkpt>
      <trkpt lat="49.32479" lon="1.00288">
        <ele>75.857</ele>
        <time>2012-06-24T10:57:33.865Z</time>
      </trkpt>
      <trkpt lat="49.32485" lon="1.00265">
        <ele>75.869</ele>
        <time>2012-06-24T10:57:37.281Z</time>
      </trkpt>
      <trkpt lat="49.32488" lon="1.00245">
        <ele>75.742</ele>
        <time>2012-06-24T10:57:40.408Z</time>
      </trkpt>
      <trkpt lat="49.32485" lon="1.00229">
        <ele>75.45</ele>
        <time>2012-06-24T10:57:43.361Z</time>
      </trkpt>
      <trkpt lat="49.32481" lon="1.00213">
        <ele>74.734</ele>
        <time>2012-06-24T10:57:47.010Z</time>
      </trkpt>
      <trkpt lat="49.3248" lon="1.00199">
        <ele>73.731</ele>
        <time>2012-06-24T10:57:50.274Z</time>
      </trkpt>
      <trkpt lat="49.32479" lon="1.00183">
        <ele>72.744</ele>
        <time>2012-06-24T10:57:54.594Z</time>
      </trkpt>
      <trkpt lat="49.32476" lon="1.0017">
        <ele>71.098</ele>
        <time>2012-06-24T10:57:59.501Z</time>
      </trkpt>
      <trkpt lat="49.32476" lon="1.00155">
        <ele>68.481</ele>
        <time>2012-06-24T10:58:04.691Z</time>
      </trkpt>
      <trkpt lat="49.32476" lon="1.0014">
        <ele>66.191</ele>
        <time>2012-06-24T10:58:09.110Z</time>
      </trkpt>
      <trkpt lat="49.32475" lon="1.00124">
        <ele>65.215</ele>
        <time>2012-06-24T10:58:12.757Z</time>
      </trkpt>
      <trkpt lat="49.32474" lon="1.00108">
        <ele>66.515</ele>
        <time>2012-06-24T10:58:15.980Z</time>
      </trkpt>
      <trkpt lat="49.3247" lon="1.00095">
        <ele>70.49</ele>
        <time>2012-06-24T10:58:18.400Z</time>
      </trkpt>
      <trkpt lat="49.32464" lon="1.00084">
        <ele>75.095</ele>
        <time>2012-06-24T10:58:20.693Z</time>
      </trkpt>
      <trkpt lat="49.32458" lon="1.00059">
        <ele>78.382</ele>
        <time>2012-06-24T10:58:24.748Z</time>
      </trkpt>
      <trkpt lat="49.32451" lon="1.0004">
        <ele>80.281</ele>
        <time>2012-06-24T10:58:28.263Z</time>
      </trkpt>
      <trkpt lat="49.32446" lon="1.00026">
        <ele>81.026</ele>
        <time>2012-06-24T10:58:30.788Z</time>
      </trkpt>
      <trkpt lat="49.32439" lon="1.00012">
        <ele>81.06</ele>
        <time>2012-06-24T10:58:33.667Z</time>
      </trkpt>
      <trkpt lat="49.32434" lon="0.99994">
        <ele>80.874</ele>
        <time>2012-06-24T10:58:36.727Z</time>
      </trkpt>
      <trkpt lat="49.32433" lon="0.9998">
        <ele>80.622</ele>
        <time>2012-06-24T10:58:38.995Z</time>
      </trkpt>
      <trkpt lat="49.32426" lon="0.99963">
        <ele>79.869</ele>
        <time>2012-06-24T10:58:42.299Z</time>
      </trkpt>
      <trkpt lat="49.3242" lon="0.99951">
        <ele>78.462</ele>
        <time>2012-06-24T10:58:44.823Z</time>
      </trkpt>
      <trkpt lat="49.32413" lon="0.99932">
        <ele>76.959</ele>
        <time>2012-06-24T10:58:48.044Z</time>
      </trkpt>
      <trkpt lat="49.32409" lon="0.99912">
        <ele>75.259</ele>
        <time>2012-06-24T10:58:51.236Z</time>
      </trkpt>
      <trkpt lat="49.32401" lon="0.99893">
        <ele>73.001</ele>
        <time>2012-06-24T10:58:54.296Z</time>
      </trkpt>
      <trkpt lat="49.32396" lon="0.99877">
        <ele>70.559</ele>
        <time>2012-06-24T10:58:56.681Z</time>
      </trkpt>
      <trkpt lat="49.32391" lon="0.99862">
        <ele>68.308</ele>
        <time>2012-06-24T10:58:58.810Z</time>
      </trkpt>
      <trkpt lat="49.32383" lon="0.99838">
        <ele>66.438</ele>
        <time>2012-06-24T10:59:02.478Z</time>
      </trkpt>
      <trkpt lat="49.32376" lon="0.9982">
        <ele>65.19</ele>
        <time>2012-06-24T10:59:05.619Z</time>
      </trkpt>
      <trkpt lat="49.32369" lon="0.99804">
        <ele>64.56</ele>
        <time>2012-06-24T10:59:08.536Z</time>
      </trkpt>
      <trkpt lat="49.32363" lon="0.9979">
        <ele>64.398</ele>
        <time>2012-06-24T10:59:11.143Z</time>
      </trkpt>
      <trkpt lat="49.32359" lon="0.99776">
        <ele>64.456</ele>
        <time>2012-06-24T10:59:13.672Z</time>
      </trkpt>
      <trkpt lat="49.32352" lon="0.99758">
        <ele>64.546</ele>
        <time>2012-06-24T10:59:17.260Z</time>
      </trkpt>
      <trkpt lat="49.32345" lon="0.99748">
        <ele>64.597</ele>
        <time>2012-06-24T10:59:19.845Z</time>
      </trkpt>
      <trkpt lat="49.32336" lon="0.99736">
        <ele>64.609</ele>
        <time>2012-06-24T10:59:23.322Z</time>
      </trkpt>
      <trkpt lat="49.32328" lon="0.99728">
        <ele>64.646</ele>
        <time>2012-06-24T10:59:25.935Z</time>
      </trkpt>
      <trkpt lat="49.3232" lon="0.99722">
        <ele>64.746</ele>
        <time>2012-06-24T10:59:28.536Z</time>
      </trkpt>
      <trkpt lat="49.3231" lon="0.9971">
        <ele>64.894</ele>
        <time>2012-06-24T10:59:31.892Z</time>
      </trkpt>
      <trkpt lat="49.323" lon="0.997">
        <ele>65.055</ele>
        <time>2012-06-24T10:59:34.422Z</time>
      </trkpt>
      <trkpt lat="49.3229" lon="0.99692">
        <ele>65.176</ele>
        <time>2012-06-24T10:59:37.043Z</time>
      </trkpt>
      <trkpt lat="49.32278" lon="0.99685">
        <ele>64.995</ele>
        <time>2012-06-24T10:59:39.835Z</time>
      </trkpt>
      <trkpt lat="49.32264" lon="0.99678">
        <ele>63.295</ele>
        <time>2012-06-24T10:59:45.384Z</time>
      </trkpt>
      <trkpt lat="49.32254" lon="0.99672">
        <ele>59.782</ele>
        <time>2012-06-24T10:59:49.859Z</time>
      </trkpt>
      <trkpt lat="49.32244" lon="0.99669">
        <ele>56.513</ele>
        <time>2012-06-24T10:59:54.345Z</time>
      </trkpt>
      <trkpt lat="49.32235" lon="0.9967">
        <ele>54.708</ele>
        <time>2012-06-24T11:00:05.763Z</time>
      </trkpt>
      <trkpt lat="49.32235" lon="0.99685">
        <ele>53.638</ele>
        <time>2012-06-24T11:00:21.118Z</time>
      </trkpt>
      <trkpt lat="49.32242" lon="0.99694">
        <ele>53.305</ele>
        <time>2012-06-24T11:00:35.313Z</time>
      </trkpt>
      <trkpt lat="49.3225" lon="0.99704">
        <ele>54.142</ele>
        <time>2012-06-24T11:00:42.568Z</time>
      </trkpt>
      <trkpt lat="49.32256" lon="0.99716">
        <ele>55.601</ele>
        <time>2012-06-24T11:00:48.723Z</time>
      </trkpt>
      <trkpt lat="49.32261" lon="0.99728">
        <ele>56.931</ele>
        <time>2012-06-24T11:00:56.742Z</time>
      </trkpt>
      <trkpt lat="49.32267" lon="0.99739">
        <ele>58.099</ele>
        <time>2012-06-24T11:01:04.799Z</time>
      </trkpt>
      <trkpt lat="49.32267" lon="0.99739">
        <ele>59.118</ele>
        <time>2012-06-24T11:01:05.798Z</time>
      </trkpt>
      <trkpt lat="49.32267" lon="0.99739">
        <ele>59.716</ele>
        <time>2012-06-24T11:01:18.797Z</time>
      </trkpt>
      <trkpt lat="49.3228" lon="0.99759">
        <ele>60.118</ele>
        <time>2012-06-24T11:01:18.797Z</time>
      </trkpt>
      <trkpt lat="49.32284" lon="0.99771">
        <ele>60.774</ele>
        <time>2012-06-24T11:01:26.799Z</time>
      </trkpt>
      <trkpt lat="49.32284" lon="0.99771">
        <ele>61.533</ele>
        <time>2012-06-24T11:01:38.796Z</time>
      </trkpt>
      <trkpt lat="49.32284" lon="0.99771">
        <ele>61.919</ele>
        <time>2012-06-24T11:03:40.803Z</time>
      </trkpt>
      <trkpt lat="49.32295" lon="0.99805">
        <ele>61.858</ele>
        <time>2012-06-24T11:03:40.803Z</time>
      </trkpt>
      <trkpt lat="49.32302" lon="0.99823">
        <ele>63.232</ele>
        <time>2012-06-24T11:03:50.316Z</time>
      </trkpt>
      <trkpt lat="49.32304" lon="0.99837">
        <ele>67.586</ele>
        <time>2012-06-24T11:03:55.233Z</time>
      </trkpt>
      <trkpt lat="49.32308" lon="0.9985">
        <ele>73.342</ele>
        <time>2012-06-24T11:04:00.493Z</time>
      </trkpt>
      <trkpt lat="49.32312" lon="0.99866">
        <ele>78.345</ele>
        <time>2012-06-24T11:04:06.962Z</time>
      </trkpt>
      <trkpt lat="49.32314" lon="0.9988">
        <ele>81.81</ele>
        <time>2012-06-24T11:04:11.923Z</time>
      </trkpt>
      <trkpt lat="49.32312" lon="0.99897">
        <ele>83.471</ele>
        <time>2012-06-24T11:04:17.784Z</time>
      </trkpt>
      <trkpt lat="49.32313" lon="0.99914">
        <ele>83.824</ele>
        <time>2012-06-24T11:04:22.804Z</time>
      </trkpt>
      <trkpt lat="49.32316" lon="0.99928">
        <ele>83.526</ele>
        <time>2012-06-24T11:04:26.695Z</time>
      </trkpt>
      <trkpt lat="49.32321" lon="0.9994">
        <ele>83.095</ele>
        <time>2012-06-24T11:04:30.876Z</time>
      </trkpt>
      <trkpt lat="49.32326" lon="0.99953">
        <ele>82.695</ele>
        <time>2012-06-24T11:04:35.574Z</time>
      </trkpt>
      <trkpt lat="49.32328" lon="0.99971">
        <ele>82.225</ele>
        <time>2012-06-24T11:04:41.900Z</time>
      </trkpt>
      <trkpt lat="49.32334" lon="0.99983">
        <ele>81.804</ele>
        <time>2012-06-24T11:04:47.017Z</time>
      </trkpt>
      <trkpt lat="49.3234" lon="0.99994">
        <ele>81.58</ele>
        <time>2012-06-24T11:04:52.492Z</time>
      </trkpt>
      <trkpt lat="49.32347" lon="1.00003">
        <ele>81.532</ele>
        <time>2012-06-24T11:04:58.459Z</time>
      </trkpt>
      <trkpt lat="49.32356" lon="1.00013">
        <ele>81.712</ele>
        <time>2012-06-24T11:05:05.536Z</time>
      </trkpt>
      <trkpt lat="49.32365" lon="1.0002">
        <ele>82.331</ele>
        <time>2012-06-24T11:05:10.192Z</time>
      </trkpt>
      <trkpt lat="49.32372" lon="1.00028">
        <ele>83.331</ele>
        <time>2012-06-24T11:05:14.651Z</time>
      </trkpt>
      <trkpt lat="49.3238" lon="1.00038">
        <ele>84.386</ele>
        <time>2012-06-24T11:05:19.425Z</time>
      </trkpt>
      <trkpt lat="49.32385" lon="1.00049">
        <ele>85.269</ele>
        <time>2012-06-24T11:05:24.261Z</time>
      </trkpt>
      <trkpt lat="49.32391" lon="1.00062">
        <ele>86.166</ele>
        <time>2012-06-24T11:05:28.987Z</time>
      </trkpt>
      <trkpt lat="49.32396" lon="1.0008">
        <ele>87.228</ele>
        <time>2012-06-24T11:05:33.725Z</time>
      </trkpt>
      <trkpt lat="49.32398" lon="1.00094">
        <ele>87.771</ele>
        <time>2012-06-24T11:05:37.058Z</time>
      </trkpt>
      <trkpt lat="49.32402" lon="1.00107">
        <ele>87.237</ele>
        <time>2012-06-24T11:05:40.487Z</time>
      </trkpt>
      <trkpt lat="49.32405" lon="1.00123">
        <ele>86.265</ele>
        <time>2012-06-24T11:05:44.909Z</time>
      </trkpt>
      <trkpt lat="49.32408" lon="1.00138">
        <ele>85.554</ele>
        <time>2012-06-24T11:05:49.548Z</time>
      </trkpt>
      <trkpt lat="49.32405" lon="1.00153">
        <ele>85.814</ele>
        <time>2012-06-24T11:05:55.126Z</time>
      </trkpt>
      <trkpt lat="49.32402" lon="1.00167">
        <ele>87.304</ele>
        <time>2012-06-24T11:06:00.875Z</time>
      </trkpt>
      <trkpt lat="49.32402" lon="1.00167">
        <ele>88.941</ele>
        <time>2012-06-24T11:06:00.875Z</time>
      </trkpt>
      <trkpt lat="49.32395" lon="1.00179">
        <ele>89.942</ele>
        <time>2012-06-24T11:06:05.851Z</time>
      </trkpt>
      <trkpt lat="49.32389" lon="1.00193">
        <ele>91.098</ele>
        <time>2012-06-24T11:06:12.146Z</time>
      </trkpt>
      <trkpt lat="49.32389" lon="1.00193">
        <ele>92.818</ele>
        <time>2012-06-24T11:06:12.146Z</time>
      </trkpt>
      <trkpt lat="49.32383" lon="1.00205">
        <ele>94.288</ele>
        <time>2012-06-24T11:06:17.980Z</time>
      </trkpt>
      <trkpt lat="49.32376" lon="1.00215">
        <ele>94.503</ele>
        <time>2012-06-24T11:06:23.798Z</time>
      </trkpt>
      <trkpt lat="49.32376" lon="1.00215">
        <ele>93.501</ele>
        <time>2012-06-24T11:06:37.803Z</time>
      </trkpt>
      <trkpt lat="49.32376" lon="1.00215">
        <ele>92.513</ele>
        <time>2012-06-24T11:07:04.799Z</time>
      </trkpt>
      <trkpt lat="49.3236" lon="1.00205">
        <ele>92.474</ele>
        <time>2012-06-24T11:07:04.799Z</time>
      </trkpt>
      <trkpt lat="49.32355" lon="1.00192">
        <ele>92.953</ele>
        <time>2012-06-24T11:07:16.343Z</time>
      </trkpt>
      <trkpt lat="49.32345" lon="1.00195">
        <ele>93.463</ele>
        <time>2012-06-24T11:07:25.858Z</time>
      </trkpt>
      <trkpt lat="49.32341" lon="1.00208">
        <ele>94.367</ele>
        <time>2012-06-24T11:07:33.092Z</time>
      </trkpt>
      <trkpt lat="49.32335" lon="1.00221">
        <ele>95.813</ele>
        <time>2012-06-24T11:07:38.127Z</time>
      </trkpt>
      <trkpt lat="49.32335" lon="1.00221">
        <ele>97.099</ele>
        <time>2012-06-24T11:07:38.127Z</time>
      </trkpt>
      <trkpt lat="49.32328" lon="1.00231">
        <ele>98.417</ele>
        <time>2012-06-24T11:07:42.269Z</time>
      </trkpt>
      <trkpt lat="49.32321" lon="1.0024">
        <ele>100.435</ele>
        <time>2012-06-24T11:07:47.288Z</time>
      </trkpt>
      <trkpt lat="49.32321" lon="1.0024">
        <ele>102.378</ele>
        <time>2012-06-24T11:07:47.288Z</time>
      </trkpt>
      <trkpt lat="49.32314" lon="1.00253">
        <ele>103.462</ele>
        <time>2012-06-24T11:07:54.447Z</time>
      </trkpt>
      <trkpt lat="49.32308" lon="1.00264">
        <ele>104.044</ele>
        <time>2012-06-24T11:07:59.800Z</time>
      </trkpt>
      <trkpt lat="49.32308" lon="1.00264">
        <ele>104.354</ele>
        <time>2012-06-24T11:08:01.803Z</time>
      </trkpt>
      <trkpt lat="49.32308" lon="1.00264">
        <ele>104.401</ele>
        <time>2012-06-24T11:08:07.803Z</time>
      </trkpt>
      <trkpt lat="49.3229" lon="1.00281">
        <ele>104.324</ele>
        <time>2012-06-24T11:08:07.803Z</time>
      </trkpt>
      <trkpt lat="49.32284" lon="1.00295">
        <ele>104.21</ele>
        <time>2012-06-24T11:08:12.726Z</time>
      </trkpt>
      <trkpt lat="49.32279" lon="1.00309">
        <ele>104.111</ele>
        <time>2012-06-24T11:08:17.016Z</time>
      </trkpt>
      <trkpt lat="49.32276" lon="1.00323">
        <ele>104.105</ele>
        <time>2012-06-24T11:08:21.054Z</time>
      </trkpt>
      <trkpt lat="49.32273" lon="1.00338">
        <ele>104.172</ele>
        <time>2012-06-24T11:08:24.898Z</time>
      </trkpt>
      <trkpt lat="49.32269" lon="1.00354">
        <ele>104.277</ele>
        <time>2012-06-24T11:08:28.942Z</time>
      </trkpt>
      <trkpt lat="49.32262" lon="1.00365">
        <ele>104.435</ele>
        <time>2012-06-24T11:08:32.628Z</time>
      </trkpt>
      <trkpt lat="49.32256" lon="1.00377">
        <ele>104.576</ele>
        <time>2012-06-24T11:08:36.086Z</time>
      </trkpt>
      <trkpt lat="49.32253" lon="1.00389">
        <ele>104.663</ele>
        <time>2012-06-24T11:08:39.272Z</time>
      </trkpt>
      <trkpt lat="49.32248" lon="1.00404">
        <ele>104.735</ele>
        <time>2012-06-24T11:08:42.994Z</time>
      </trkpt>
      <trkpt lat="49.32242" lon="1.00416">
        <ele>104.789</ele>
        <time>2012-06-24T11:08:46.922Z</time>
      </trkpt>
      <trkpt lat="49.32237" lon="1.00432">
        <ele>104.785</ele>
        <time>2012-06-24T11:08:50.802Z</time>
      </trkpt>
      <trkpt lat="49.32237" lon="1.00432">
        <ele>104.725</ele>
        <time>2012-06-24T11:08:54.803Z</time>
      </trkpt>
      <trkpt lat="49.32237" lon="1.00432">
        <ele>104.669</ele>
        <time>2012-06-24T11:09:02.803Z</time>
      </trkpt>
      <trkpt lat="49.32232" lon="1.00461">
        <ele>104.669</ele>
        <time>2012-06-24T11:09:02.803Z</time>
      </trkpt>
      <trkpt lat="49.32228" lon="1.00474">
        <ele>104.91</ele>
        <time>2012-06-24T11:09:09.806Z</time>
      </trkpt>
      <trkpt lat="49.32228" lon="1.00474">
        <ele>105.271</ele>
        <time>2012-06-24T11:09:10.806Z</time>
      </trkpt>
      <trkpt lat="49.32228" lon="1.00474">
        <ele>105.309</ele>
        <time>2012-06-24T11:09:14.803Z</time>
      </trkpt>
      <trkpt lat="49.32228" lon="1.00474">
        <ele>105.093</ele>
        <time>2012-06-24T11:09:14.803Z</time>
      </trkpt>
      <trkpt lat="49.32223" lon="1.00488">
        <ele>105.012</ele>
        <time>2012-06-24T11:09:17.799Z</time>
      </trkpt>
      <trkpt lat="49.32223" lon="1.00488">
        <ele>105.062</ele>
        <time>2012-06-24T11:09:26.802Z</time>
      </trkpt>
      <trkpt lat="49.32223" lon="1.00488">
        <ele>105.123</ele>
        <time>2012-06-24T11:09:44.806Z</time>
      </trkpt>
      <trkpt lat="49.32218" lon="1.00506">
        <ele>105.155</ele>
        <time>2012-06-24T11:09:44.806Z</time>
      </trkpt>
      <trkpt lat="49.32212" lon="1.00519">
        <ele>105.161</ele>
        <time>2012-06-24T11:09:56.318Z</time>
      </trkpt>
      <trkpt lat="49.32205" lon="1.00527">
        <ele>105.362</ele>
        <time>2012-06-24T11:10:02.517Z</time>
      </trkpt>
      <trkpt lat="49.32194" lon="1.00525">
        <ele>106.241</ele>
        <time>2012-06-24T11:10:08.171Z</time>
      </trkpt>
      <trkpt lat="49.32184" lon="1.00523">
        <ele>107.695</ele>
        <time>2012-06-24T11:10:13.403Z</time>
      </trkpt>
      <trkpt lat="49.32173" lon="1.00521">
        <ele>109.202</ele>
        <time>2012-06-24T11:10:18.190Z</time>
      </trkpt>
      <trkpt lat="49.32163" lon="1.00524">
        <ele>110.505</ele>
        <time>2012-06-24T11:10:22.172Z</time>
      </trkpt>
      <trkpt lat="49.32151" lon="1.00529">
        <ele>111.371</ele>
        <time>2012-06-24T11:10:26.576Z</time>
      </trkpt>
      <trkpt lat="49.3214" lon="1.00532">
        <ele>111.774</ele>
        <time>2012-06-24T11:10:30.808Z</time>
      </trkpt>
      <trkpt lat="49.32128" lon="1.00536">
        <ele>112.129</ele>
        <time>2012-06-24T11:10:35.466Z</time>
      </trkpt>
      <trkpt lat="49.32118" lon="1.00542">
        <ele>112.464</ele>
        <time>2012-06-24T11:10:39.110Z</time>
      </trkpt>
      <trkpt lat="49.32109" lon="1.00555">
        <ele>112.308</ele>
        <time>2012-06-24T11:10:43.344Z</time>
      </trkpt>
      <trkpt lat="49.32101" lon="1.00565">
        <ele>111.322</ele>
        <time>2012-06-24T11:10:47.468Z</time>
      </trkpt>
      <trkpt lat="49.32093" lon="1.00574">
        <ele>109.93</ele>
        <time>2012-06-24T11:10:51.647Z</time>
      </trkpt>
      <trkpt lat="49.32085" lon="1.00585">
        <ele>108.927</ele>
        <time>2012-06-24T11:10:57.003Z</time>
      </trkpt>
      <trkpt lat="49.32078" lon="1.00597">
        <ele>108.577</ele>
        <time>2012-06-24T11:11:02.493Z</time>
      </trkpt>
      <trkpt lat="49.32071" lon="1.00608">
        <ele>108.6</ele>
        <time>2012-06-24T11:11:08.377Z</time>
      </trkpt>
      <trkpt lat="49.32068" lon="1.00622">
        <ele>108.437</ele>
        <time>2012-06-24T11:11:14.907Z</time>
      </trkpt>
      <trkpt lat="49.32063" lon="1.00609">
        <ele>108.078</ele>
        <time>2012-06-24T11:11:21.528Z</time>
      </trkpt>
      <trkpt lat="49.32061" lon="1.00594">
        <ele>108.122</ele>
        <time>2012-06-24T11:11:34.784Z</time>
      </trkpt>
      <trkpt lat="49.32064" lon="1.0058">
        <ele>108.607</ele>
        <time>2012-06-24T11:11:46.802Z</time>
      </trkpt>
      <trkpt lat="49.32064" lon="1.0058">
        <ele>109.023</ele>
        <time>2012-06-24T11:12:01.808Z</time>
      </trkpt>
      <trkpt lat="49.32064" lon="1.0058">
        <ele>109.18</ele>
        <time>2012-06-24T11:12:11.802Z</time>
      </trkpt>
      <trkpt lat="49.32052" lon="1.00549">
        <ele>109.885</ele>
        <time>2012-06-24T11:12:11.802Z</time>
      </trkpt>
      <trkpt lat="49.32043" lon="1.0054">
        <ele>111.768</ele>
        <time>2012-06-24T11:12:19.481Z</time>
      </trkpt>
      <trkpt lat="49.32043" lon="1.0054">
        <ele>113.38</ele>
        <time>2012-06-24T11:12:19.481Z</time>
      </trkpt>
      <trkpt lat="49.32034" lon="1.00531">
        <ele>113.355</ele>
        <time>2012-06-24T11:12:25.889Z</time>
      </trkpt>
      <trkpt lat="49.32027" lon="1.00521">
        <ele>112.5</ele>
        <time>2012-06-24T11:12:32.136Z</time>
      </trkpt>
      <trkpt lat="49.32021" lon="1.0051">
        <ele>112.714</ele>
        <time>2012-06-24T11:12:38.861Z</time>
      </trkpt>
      <trkpt lat="49.32016" lon="1.00495">
        <ele>114.695</ele>
        <time>2012-06-24T11:12:47.110Z</time>
      </trkpt>
      <trkpt lat="49.32009" lon="1.00481">
        <ele>116.974</ele>
        <time>2012-06-24T11:12:53.676Z</time>
      </trkpt>
      <trkpt lat="49.32004" lon="1.0047">
        <ele>118.435</ele>
        <time>2012-06-24T11:12:58.622Z</time>
      </trkpt>
      <trkpt lat="49.31998" lon="1.00456">
        <ele>119.631</ele>
        <time>2012-06-24T11:13:04.129Z</time>
      </trkpt>
      <trkpt lat="49.31992" lon="1.00444">
        <ele>120.738</ele>
        <time>2012-06-24T11:13:08.921Z</time>
      </trkpt>
      <trkpt lat="49.31984" lon="1.00435">
        <ele>121.399</ele>
        <time>2012-06-24T11:13:13.558Z</time>
      </trkpt>
      <trkpt lat="49.31984" lon="1.00435">
        <ele>121.563</ele>
        <time>2012-06-24T11:13:13.558Z</time>
      </trkpt>
      <trkpt lat="49.31977" lon="1.00423">
        <ele>121.465</ele>
        <time>2012-06-24T11:13:17.870Z</time>
      </trkpt>
      <trkpt lat="49.3197" lon="1.00413">
        <ele>121.328</ele>
        <time>2012-06-24T11:13:22.759Z</time>
      </trkpt>
      <trkpt lat="49.31962" lon="1.00399">
        <ele>121.07</ele>
        <time>2012-06-24T11:13:28.143Z</time>
      </trkpt>
      <trkpt lat="49.31953" lon="1.0039">
        <ele>120.57</ele>
        <time>2012-06-24T11:13:32.004Z</time>
      </trkpt>
      <trkpt lat="49.31945" lon="1.00381">
        <ele>120.068</ele>
        <time>2012-06-24T11:13:35.372Z</time>
      </trkpt>
      <trkpt lat="49.31937" lon="1.00373">
        <ele>119.001</ele>
        <time>2012-06-24T11:13:38.290Z</time>
      </trkpt>
      <trkpt lat="49.31928" lon="1.00366">
        <ele>116.807</ele>
        <time>2012-06-24T11:13:41.645Z</time>
      </trkpt>
      <trkpt lat="49.31919" lon="1.0036">
        <ele>114.618</ele>
        <time>2012-06-24T11:13:45.450Z</time>
      </trkpt>
      <trkpt lat="49.31909" lon="1.00357">
        <ele>113.585</ele>
        <time>2012-06-24T11:13:49.945Z</time>
      </trkpt>
      <trkpt lat="49.31903" lon="1.00346">
        <ele>113.432</ele>
        <time>2012-06-24T11:13:54.443Z</time>
      </trkpt>
      <trkpt lat="49.31896" lon="1.00337">
        <ele>113.611</ele>
        <time>2012-06-24T11:13:58.967Z</time>
      </trkpt>
      <trkpt lat="49.31896" lon="1.00337">
        <ele>113.789</ele>
        <time>2012-06-24T11:13:58.967Z</time>
      </trkpt>
      <trkpt lat="49.31889" lon="1.00324">
        <ele>113.841</ele>
        <time>2012-06-24T11:14:04.605Z</time>
      </trkpt>
      <trkpt lat="49.31882" lon="1.00312">
        <ele>113.75</ele>
        <time>2012-06-24T11:14:09.486Z</time>
      </trkpt>
      <trkpt lat="49.31877" lon="1.00297">
        <ele>113.113</ele>
        <time>2012-06-24T11:14:14.607Z</time>
      </trkpt>
      <trkpt lat="49.3187" lon="1.00284">
        <ele>111.492</ele>
        <time>2012-06-24T11:14:19.745Z</time>
      </trkpt>
      <trkpt lat="49.31863" lon="1.00275">
        <ele>109.427</ele>
        <time>2012-06-24T11:14:24.309Z</time>
      </trkpt>
      <trkpt lat="49.31858" lon="1.0026">
        <ele>107.747</ele>
        <time>2012-06-24T11:14:30.803Z</time>
      </trkpt>
      <trkpt lat="49.31858" lon="1.0026">
        <ele>106.644</ele>
        <time>2012-06-24T11:14:36.801Z</time>
      </trkpt>
      <trkpt lat="49.31858" lon="1.0026">
        <ele>106.106</ele>
        <time>2012-06-24T11:14:41.801Z</time>
      </trkpt>
      <trkpt lat="49.31858" lon="1.0026">
        <ele>106.016</ele>
        <time>2012-06-24T11:14:41.801Z</time>
      </trkpt>
      <trkpt lat="49.31849" lon="1.00246">
        <ele>105.734</ele>
        <time>2012-06-24T11:14:50.863Z</time>
      </trkpt>
      <trkpt lat="49.31842" lon="1.00238">
        <ele>104.927</ele>
        <time>2012-06-24T11:14:56.532Z</time>
      </trkpt>
      <trkpt lat="49.31834" lon="1.0023">
        <ele>104.146</ele>
        <time>2012-06-24T11:15:05.245Z</time>
      </trkpt>
      <trkpt lat="49.31829" lon="1.00217">
        <ele>103.851</ele>
        <time>2012-06-24T11:15:14.208Z</time>
      </trkpt>
      <trkpt lat="49.31825" lon="1.00205">
        <ele>103.654</ele>
        <time>2012-06-24T11:15:25.806Z</time>
      </trkpt>
      <trkpt lat="49.31825" lon="1.00205">
        <ele>103.226</ele>
        <time>2012-06-24T11:15:29.810Z</time>
      </trkpt>
      <trkpt lat="49.31825" lon="1.00205">
        <ele>102.763</ele>
        <time>2012-06-24T11:15:37.801Z</time>
      </trkpt>
      <trkpt lat="49.31815" lon="1.00185">
        <ele>102.537</ele>
        <time>2012-06-24T11:15:37.801Z</time>
      </trkpt>
      <trkpt lat="49.31816" lon="1.00171">
        <ele>102.195</ele>
        <time>2012-06-24T11:15:44.969Z</time>
      </trkpt>
      <trkpt lat="49.31815" lon="1.00155">
        <ele>101.216</ele>
        <time>2012-06-24T11:15:52.121Z</time>
      </trkpt>
      <trkpt lat="49.31814" lon="1.00139">
        <ele>99.584</ele>
        <time>2012-06-24T11:15:58.310Z</time>
      </trkpt>
      <trkpt lat="49.3182" lon="1.00128">
        <ele>97.818</ele>
        <time>2012-06-24T11:16:04.150Z</time>
      </trkpt>
      <trkpt lat="49.31828" lon="1.00116">
        <ele>96.439</ele>
        <time>2012-06-24T11:16:09.804Z</time>
      </trkpt>
      <trkpt lat="49.31828" lon="1.00116">
        <ele>95.662</ele>
        <time>2012-06-24T11:16:15.801Z</time>
      </trkpt>
      <trkpt lat="49.31828" lon="1.00116">
        <ele>95.383</ele>
        <time>2012-06-24T11:16:22.806Z</time>
      </trkpt>
      <trkpt lat="49.31838" lon="1.00106">
        <ele>95.395</ele>
        <time>2012-06-24T11:16:22.806Z</time>
      </trkpt>
      <trkpt lat="49.31845" lon="1.00097">
        <ele>95.297</ele>
        <time>2012-06-24T11:16:29.428Z</time>
      </trkpt>
      <trkpt lat="49.31854" lon="1.00088">
        <ele>94.878</ele>
        <time>2012-06-24T11:16:36.221Z</time>
      </trkpt>
      <trkpt lat="49.31861" lon="1.00079">
        <ele>94.406</ele>
        <time>2012-06-24T11:16:42.266Z</time>
      </trkpt>
      <trkpt lat="49.31869" lon="1.00071">
        <ele>94.324</ele>
        <time>2012-06-24T11:16:51.033Z</time>
      </trkpt>
      <trkpt lat="49.31877" lon="1.0006">
        <ele>94.681</ele>
        <time>2012-06-24T11:17:02.763Z</time>
      </trkpt>
      <trkpt lat="49.31885" lon="1.00049">
        <ele>95.127</ele>
        <time>2012-06-24T11:17:12.855Z</time>
      </trkpt>
      <trkpt lat="49.31892" lon="1.00038">
        <ele>95.569</ele>
        <time>2012-06-24T11:17:19.061Z</time>
      </trkpt>
      <trkpt lat="49.319" lon="1.0003">
        <ele>96.178</ele>
        <time>2012-06-24T11:17:26.979Z</time>
      </trkpt>
      <trkpt lat="49.31909" lon="1.00033">
        <ele>96.819</ele>
        <time>2012-06-24T11:17:35.080Z</time>
      </trkpt>
      <trkpt lat="49.31916" lon="1.00022">
        <ele>97.3</ele>
        <time>2012-06-24T11:17:48.948Z</time>
      </trkpt>
      <trkpt lat="49.31921" lon="1.00009">
        <ele>97.647</ele>
        <time>2012-06-24T11:18:01.347Z</time>
      </trkpt>
      <trkpt lat="49.31928" lon="0.99997">
        <ele>97.909</ele>
        <time>2012-06-24T11:18:08.926Z</time>
      </trkpt>
      <trkpt lat="49.31935" lon="0.99989">
        <ele>98.102</ele>
        <time>2012-06-24T11:18:13.587Z</time>
      </trkpt>
      <trkpt lat="49.31943" lon="0.99978">
        <ele>98.207</ele>
        <time>2012-06-24T11:18:18.338Z</time>
      </trkpt>
      <trkpt lat="49.31949" lon="0.99964">
        <ele>98.231</ele>
        <time>2012-06-24T11:18:23.059Z</time>
      </trkpt>
      <trkpt lat="49.3195" lon="0.99949">
        <ele>98.208</ele>
        <time>2012-06-24T11:18:27.508Z</time>
      </trkpt>
      <trkpt lat="49.31955" lon="0.99935">
        <ele>97.997</ele>
        <time>2012-06-24T11:18:32.637Z</time>
      </trkpt>
      <trkpt lat="49.31965" lon="0.99933">
        <ele>97.316</ele>
        <time>2012-06-24T11:18:37.748Z</time>
      </trkpt>
      <trkpt lat="49.31977" lon="0.99931">
        <ele>96.325</ele>
        <time>2012-06-24T11:18:44.583Z</time>
      </trkpt>
      <trkpt lat="49.31985" lon="0.99936">
        <ele>95.581</ele>
        <time>2012-06-24T11:18:49.671Z</time>
      </trkpt>
      <trkpt lat="49.31993" lon="0.99946">
        <ele>95.079</ele>
        <time>2012-06-24T11:18:53.810Z</time>
      </trkpt>
      <trkpt lat="49.32003" lon="0.99943">
        <ele>94.499</ele>
        <time>2012-06-24T11:18:57.867Z</time>
      </trkpt>
      <trkpt lat="49.32011" lon="0.99937">
        <ele>94.368</ele>
        <time>2012-06-24T11:19:02.287Z</time>
      </trkpt>
      <trkpt lat="49.3202" lon="0.99933">
        <ele>95.179</ele>
        <time>2012-06-24T11:19:06.932Z</time>
      </trkpt>
      <trkpt lat="49.32027" lon="0.99923">
        <ele>96.719</ele>
        <time>2012-06-24T11:19:12.182Z</time>
      </trkpt>
      <trkpt lat="49.32029" lon="0.99906">
        <ele>98.941</ele>
        <time>2012-06-24T11:19:18.069Z</time>
      </trkpt>
      <trkpt lat="49.32033" lon="0.99893">
        <ele>101.547</ele>
        <time>2012-06-24T11:19:23.562Z</time>
      </trkpt>
      <trkpt lat="49.32039" lon="0.99883">
        <ele>103.788</ele>
        <time>2012-06-24T11:19:28.923Z</time>
      </trkpt>
      <trkpt lat="49.32052" lon="0.9988">
        <ele>105.314</ele>
        <time>2012-06-24T11:19:35.662Z</time>
      </trkpt>
      <trkpt lat="49.32062" lon="0.99876">
        <ele>106.065</ele>
        <time>2012-06-24T11:19:40.605Z</time>
      </trkpt>
      <trkpt lat="49.32068" lon="0.99861">
        <ele>105.953</ele>
        <time>2012-06-24T11:19:45.184Z</time>
      </trkpt>
      <trkpt lat="49.32065" lon="0.99848">
        <ele>104.661</ele>
        <time>2012-06-24T11:19:48.402Z</time>
      </trkpt>
      <trkpt lat="49.32054" lon="0.99844">
        <ele>102.443</ele>
        <time>2012-06-24T11:19:52.774Z</time>
      </trkpt>
      <trkpt lat="49.32043" lon="0.9984">
        <ele>100.472</ele>
        <time>2012-06-24T11:19:57.996Z</time>
      </trkpt>
      <trkpt lat="49.32032" lon="0.99838">
        <ele>99.439</ele>
        <time>2012-06-24T11:20:02.981Z</time>
      </trkpt>
      <trkpt lat="49.32023" lon="0.99836">
        <ele>99.026</ele>
        <time>2012-06-24T11:20:06.559Z</time>
      </trkpt>
      <trkpt lat="49.32011" lon="0.99838">
        <ele>98.711</ele>
        <time>2012-06-24T11:20:10.428Z</time>
      </trkpt>
      <trkpt lat="49.32009" lon="0.99824">
        <ele>98.163</ele>
        <time>2012-06-24T11:20:13.468Z</time>
      </trkpt>
      <trkpt lat="49.32012" lon="0.99811">
        <ele>97.483</ele>
        <time>2012-06-24T11:20:16.792Z</time>
      </trkpt>
      <trkpt lat="49.32003" lon="0.99801">
        <ele>96.7</ele>
        <time>2012-06-24T11:20:21.426Z</time>
      </trkpt>
      <trkpt lat="49.31995" lon="0.99794">
        <ele>95.768</ele>
        <time>2012-06-24T11:20:26.584Z</time>
      </trkpt>
      <trkpt lat="49.3199" lon="0.9978">
        <ele>95.021</ele>
        <time>2012-06-24T11:20:32.254Z</time>
      </trkpt>
      <trkpt lat="49.31994" lon="0.99766">
        <ele>94.582</ele>
        <time>2012-06-24T11:20:36.684Z</time>
      </trkpt>
      <trkpt lat="49.31983" lon="0.99765">
        <ele>93.978</ele>
        <time>2012-06-24T11:20:41.244Z</time>
      </trkpt>
      <trkpt lat="49.31971" lon="0.99762">
        <ele>93.164</ele>
        <time>2012-06-24T11:20:47.354Z</time>
      </trkpt>
      <trkpt lat="49.31961" lon="0.99755">
        <ele>92.567</ele>
        <time>2012-06-24T11:20:53.108Z</time>
      </trkpt>
      <trkpt lat="49.31952" lon="0.99749">
        <ele>92.321</ele>
        <time>2012-06-24T11:20:57.784Z</time>
      </trkpt>
      <trkpt lat="49.31945" lon="0.99736">
        <ele>92.265</ele>
        <time>2012-06-24T11:21:02.760Z</time>
      </trkpt>
      <trkpt lat="49.31946" lon="0.99722">
        <ele>91.961</ele>
        <time>2012-06-24T11:21:07.051Z</time>
      </trkpt>
      <trkpt lat="49.31943" lon="0.99698">
        <ele>91.002</ele>
        <time>2012-06-24T11:21:12.908Z</time>
      </trkpt>
      <trkpt lat="49.31934" lon="0.99697">
        <ele>89.55</ele>
        <time>2012-06-24T11:21:15.560Z</time>
      </trkpt>
      <trkpt lat="49.31925" lon="0.99705">
        <ele>87.635</ele>
        <time>2012-06-24T11:21:18.755Z</time>
      </trkpt>
      <trkpt lat="49.31914" lon="0.99704">
        <ele>85.372</ele>
        <time>2012-06-24T11:21:23.476Z</time>
      </trkpt>
      <trkpt lat="49.31908" lon="0.9969">
        <ele>83.588</ele>
        <time>2012-06-24T11:21:28.228Z</time>
      </trkpt>
      <trkpt lat="49.31903" lon="0.99678">
        <ele>82.653</ele>
        <time>2012-06-24T11:21:32.526Z</time>
      </trkpt>
      <trkpt lat="49.31893" lon="0.99683">
        <ele>82.204</ele>
        <time>2012-06-24T11:21:37.912Z</time>
      </trkpt>
      <trkpt lat="49.31881" lon="0.99685">
        <ele>82.209</ele>
        <time>2012-06-24T11:21:46.262Z</time>
      </trkpt>
      <trkpt lat="49.31871" lon="0.99682">
        <ele>82.66</ele>
        <time>2012-06-24T11:21:51.463Z</time>
      </trkpt>
      <trkpt lat="49.31861" lon="0.99674">
        <ele>83.158</ele>
        <time>2012-06-24T11:21:54.657Z</time>
      </trkpt>
      <trkpt lat="49.31853" lon="0.99667">
        <ele>83.22</ele>
        <time>2012-06-24T11:21:57.303Z</time>
      </trkpt>
      <trkpt lat="49.31844" lon="0.99673">
        <ele>82.525</ele>
        <time>2012-06-24T11:22:00.269Z</time>
      </trkpt>
      <trkpt lat="49.31851" lon="0.99659">
        <ele>81.285</ele>
        <time>2012-06-24T11:22:04.865Z</time>
      </trkpt>
      <trkpt lat="49.31859" lon="0.99644">
        <ele>80.117</ele>
        <time>2012-06-24T11:22:13.242Z</time>
      </trkpt>
      <trkpt lat="49.31864" lon="0.99628">
        <ele>79.268</ele>
        <time>2012-06-24T11:22:18.179Z</time>
      </trkpt>
      <trkpt lat="49.31872" lon="0.99615">
        <ele>78.234</ele>
        <time>2012-06-24T11:22:21.500Z</time>
      </trkpt>
      <trkpt lat="49.31879" lon="0.99601">
        <ele>76.201</ele>
        <time>2012-06-24T11:22:24.826Z</time>
      </trkpt>
      <trkpt lat="49.31888" lon="0.99593">
        <ele>73.275</ele>
        <time>2012-06-24T11:22:27.836Z</time>
      </trkpt>
      <trkpt lat="49.31897" lon="0.99587">
        <ele>70.28</ele>
        <time>2012-06-24T11:22:31.368Z</time>
      </trkpt>
      <trkpt lat="49.31905" lon="0.99579">
        <ele>67.592</ele>
        <time>2012-06-24T11:22:35.429Z</time>
      </trkpt>
      <trkpt lat="49.31914" lon="0.99577">
        <ele>65.573</ele>
        <time>2012-06-24T11:22:40.550Z</time>
      </trkpt>
      <trkpt lat="49.31924" lon="0.99577">
        <ele>64.62</ele>
        <time>2012-06-24T11:22:46.058Z</time>
      </trkpt>
      <trkpt lat="49.31934" lon="0.9958">
        <ele>64.485</ele>
        <time>2012-06-24T11:22:50.628Z</time>
      </trkpt>
      <trkpt lat="49.31943" lon="0.99582">
        <ele>64.846</ele>
        <time>2012-06-24T11:22:54.611Z</time>
      </trkpt>
      <trkpt lat="49.31953" lon="0.99588">
        <ele>65.315</ele>
        <time>2012-06-24T11:22:59.268Z</time>
      </trkpt>
      <trkpt lat="49.3196" lon="0.99594">
        <ele>65.412</ele>
        <time>2012-06-24T11:23:03.627Z</time>
      </trkpt>
      <trkpt lat="49.31969" lon="0.99598">
        <ele>65.297</ele>
        <time>2012-06-24T11:23:08.316Z</time>
      </trkpt>
      <trkpt lat="49.3198" lon="0.99598">
        <ele>65.41</ele>
        <time>2012-06-24T11:23:13.432Z</time>
      </trkpt>
      <trkpt lat="49.31975" lon="0.99585">
        <ele>64.99</ele>
        <time>2012-06-24T11:23:17.548Z</time>
      </trkpt>
      <trkpt lat="49.31967" lon="0.99572">
        <ele>63.398</ele>
        <time>2012-06-24T11:23:22.669Z</time>
      </trkpt>
      <trkpt lat="49.31961" lon="0.9956">
        <ele>60.682</ele>
        <time>2012-06-24T11:23:29.189Z</time>
      </trkpt>
      <trkpt lat="49.31955" lon="0.99549">
        <ele>56.9</ele>
        <time>2012-06-24T11:23:35.847Z</time>
      </trkpt>
      <trkpt lat="49.31948" lon="0.99537">
        <ele>52.43</ele>
        <time>2012-06-24T11:23:40.065Z</time>
      </trkpt>
      <trkpt lat="49.31935" lon="0.99523">
        <ele>48.291</ele>
        <time>2012-06-24T11:23:44.948Z</time>
      </trkpt>
      <trkpt lat="49.31922" lon="0.99518">
        <ele>45.425</ele>
        <time>2012-06-24T11:23:48.482Z</time>
      </trkpt>
      <trkpt lat="49.3191" lon="0.99515">
        <ele>43.958</ele>
        <time>2012-06-24T11:23:51.795Z</time>
      </trkpt>
      <trkpt lat="49.31895" lon="0.99513">
        <ele>42.847</ele>
        <time>2012-06-24T11:23:55.617Z</time>
      </trkpt>
      <trkpt lat="49.31882" lon="0.99516">
        <ele>41.348</ele>
        <time>2012-06-24T11:23:58.821Z</time>
      </trkpt>
      <trkpt lat="49.31867" lon="0.99523">
        <ele>39.556</ele>
        <time>2012-06-24T11:24:02.394Z</time>
      </trkpt>
      <trkpt lat="49.31855" lon="0.99529">
        <ele>38.305</ele>
        <time>2012-06-24T11:24:05.271Z</time>
      </trkpt>
      <trkpt lat="49.31845" lon="0.99535">
        <ele>38.241</ele>
        <time>2012-06-24T11:24:07.876Z</time>
      </trkpt>
      <trkpt lat="49.31832" lon="0.99548">
        <ele>38.85</ele>
        <time>2012-06-24T11:24:11.488Z</time>
      </trkpt>
      <trkpt lat="49.31824" lon="0.99556">
        <ele>39.326</ele>
        <time>2012-06-24T11:24:13.674Z</time>
      </trkpt>
      <trkpt lat="49.31813" lon="0.99572">
        <ele>39.511</ele>
        <time>2012-06-24T11:24:17.038Z</time>
      </trkpt>
      <trkpt lat="49.31804" lon="0.99582">
        <ele>39.514</ele>
        <time>2012-06-24T11:24:19.491Z</time>
      </trkpt>
      <trkpt lat="49.31796" lon="0.99594">
        <ele>39.464</ele>
        <time>2012-06-24T11:24:21.795Z</time>
      </trkpt>
      <trkpt lat="49.31783" lon="0.99608">
        <ele>39.408</ele>
        <time>2012-06-24T11:24:24.972Z</time>
      </trkpt>
      <trkpt lat="49.31775" lon="0.9962">
        <ele>39.099</ele>
        <time>2012-06-24T11:24:27.078Z</time>
      </trkpt>
      <trkpt lat="49.31764" lon="0.99636">
        <ele>38.385</ele>
        <time>2012-06-24T11:24:30.076Z</time>
      </trkpt>
      <trkpt lat="49.31755" lon="0.9965">
        <ele>37.612</ele>
        <time>2012-06-24T11:24:32.599Z</time>
      </trkpt>
      <trkpt lat="49.31749" lon="0.9967">
        <ele>37.141</ele>
        <time>2012-06-24T11:24:35.535Z</time>
      </trkpt>
      <trkpt lat="49.31749" lon="0.99686">
        <ele>36.828</ele>
        <time>2012-06-24T11:24:37.808Z</time>
      </trkpt>
      <trkpt lat="49.31749" lon="0.99686">
        <ele>36.471</ele>
        <time>2012-06-24T11:24:44.805Z</time>
      </trkpt>
      <trkpt lat="49.31749" lon="0.99686">
        <ele>36.203</ele>
        <time>2012-06-24T11:31:43.806Z</time>
      </trkpt>
      <trkpt lat="49.31761" lon="0.9971">
        <ele>36.246</ele>
        <time>2012-06-24T11:31:43.806Z</time>
      </trkpt>
      <trkpt lat="49.31768" lon="0.99721">
        <ele>36.497</ele>
        <time>2012-06-24T11:31:53.148Z</time>
      </trkpt>
      <trkpt lat="49.31776" lon="0.99729">
        <ele>36.722</ele>
        <time>2012-06-24T11:32:01.167Z</time>
      </trkpt>
      <trkpt lat="49.31783" lon="0.99738">
        <ele>36.82</ele>
        <time>2012-06-24T11:32:09.663Z</time>
      </trkpt>
      <trkpt lat="49.31788" lon="0.9975">
        <ele>37.291</ele>
        <time>2012-06-24T11:32:18.257Z</time>
      </trkpt>
      <trkpt lat="49.31797" lon="0.9976">
        <ele>39.002</ele>
        <time>2012-06-24T11:32:27.853Z</time>
      </trkpt>
      <trkpt lat="49.31806" lon="0.99769">
        <ele>41.658</ele>
        <time>2012-06-24T11:32:34.946Z</time>
      </trkpt>
      <trkpt lat="49.31812" lon="0.99781">
        <ele>44.206</ele>
        <time>2012-06-24T11:32:41.083Z</time>
      </trkpt>
      <trkpt lat="49.31819" lon="0.99793">
        <ele>46.161</ele>
        <time>2012-06-24T11:32:46.812Z</time>
      </trkpt>
      <trkpt lat="49.31819" lon="0.99793">
        <ele>47.3</ele>
        <time>2012-06-24T11:32:47.808Z</time>
      </trkpt>
      <trkpt lat="49.31819" lon="0.99793">
        <ele>47.6</ele>
        <time>2012-06-24T11:32:56.812Z</time>
      </trkpt>
      <trkpt lat="49.31825" lon="0.99812">
        <ele>47.501</ele>
        <time>2012-06-24T11:32:56.812Z</time>
      </trkpt>
      <trkpt lat="49.31825" lon="0.99826">
        <ele>47.714</ele>
        <time>2012-06-24T11:33:04.669Z</time>
      </trkpt>
      <trkpt lat="49.31817" lon="0.99837">
        <ele>48.595</ele>
        <time>2012-06-24T11:33:11.697Z</time>
      </trkpt>
      <trkpt lat="49.31811" lon="0.99849">
        <ele>49.569</ele>
        <time>2012-06-24T11:33:16.838Z</time>
      </trkpt>
      <trkpt lat="49.31807" lon="0.99861">
        <ele>50.943</ele>
        <time>2012-06-24T11:33:21.217Z</time>
      </trkpt>
      <trkpt lat="49.31804" lon="0.99876">
        <ele>53.69</ele>
        <time>2012-06-24T11:33:26.812Z</time>
      </trkpt>
      <trkpt lat="49.31804" lon="0.99876">
        <ele>56.888</ele>
        <time>2012-06-24T11:33:30.811Z</time>
      </trkpt>
      <trkpt lat="49.31804" lon="0.99876">
        <ele>58.85</ele>
        <time>2012-06-24T11:33:42.813Z</time>
      </trkpt>
      <trkpt lat="49.31803" lon="0.99908">
        <ele>59.543</ele>
        <time>2012-06-24T11:33:42.813Z</time>
      </trkpt>
      <trkpt lat="49.31804" lon="0.99924">
        <ele>59.615</ele>
        <time>2012-06-24T11:33:50.662Z</time>
      </trkpt>
      <trkpt lat="49.31802" lon="0.99939">
        <ele>59.305</ele>
        <time>2012-06-24T11:33:56.035Z</time>
      </trkpt>
      <trkpt lat="49.31798" lon="0.99951">
        <ele>58.82</ele>
        <time>2012-06-24T11:34:01.180Z</time>
      </trkpt>
      <trkpt lat="49.31794" lon="0.99965">
        <ele>58.487</ele>
        <time>2012-06-24T11:34:07.146Z</time>
      </trkpt>
      <trkpt lat="49.31789" lon="0.99978">
        <ele>58.454</ele>
        <time>2012-06-24T11:34:13.470Z</time>
      </trkpt>
      <trkpt lat="49.31785" lon="0.9999">
        <ele>58.84</ele>
        <time>2012-06-24T11:34:18.057Z</time>
      </trkpt>
      <trkpt lat="49.3178" lon="1.00003">
        <ele>59.404</ele>
        <time>2012-06-24T11:34:22.775Z</time>
      </trkpt>
      <trkpt lat="49.31777" lon="1.00016">
        <ele>60.086</ele>
        <time>2012-06-24T11:34:27.810Z</time>
      </trkpt>
      <trkpt lat="49.31777" lon="1.00016">
        <ele>61.111</ele>
        <time>2012-06-24T11:34:29.811Z</time>
      </trkpt>
      <trkpt lat="49.31777" lon="1.00016">
        <ele>61.922</ele>
        <time>2012-06-24T11:34:42.811Z</time>
      </trkpt>
      <trkpt lat="49.31767" lon="1.00045">
        <ele>62.073</ele>
        <time>2012-06-24T11:34:42.811Z</time>
      </trkpt>
      <trkpt lat="49.31763" lon="1.00057">
        <ele>62.259</ele>
        <time>2012-06-24T11:34:49.879Z</time>
      </trkpt>
      <trkpt lat="49.31758" lon="1.0007">
        <ele>62.804</ele>
        <time>2012-06-24T11:34:56.088Z</time>
      </trkpt>
      <trkpt lat="49.31752" lon="1.00082">
        <ele>63.838</ele>
        <time>2012-06-24T11:35:01.733Z</time>
      </trkpt>
      <trkpt lat="49.31748" lon="1.00095">
        <ele>65.882</ele>
        <time>2012-06-24T11:35:07.876Z</time>
      </trkpt>
      <trkpt lat="49.31744" lon="1.00108">
        <ele>68.612</ele>
        <time>2012-06-24T11:35:13.810Z</time>
      </trkpt>
      <trkpt lat="49.31744" lon="1.00108">
        <ele>70.805</ele>
        <time>2012-06-24T11:35:14.812Z</time>
      </trkpt>
      <trkpt lat="49.31744" lon="1.00108">
        <ele>71.836</ele>
        <time>2012-06-24T11:35:23.813Z</time>
      </trkpt>
      <trkpt lat="49.31735" lon="1.00138">
        <ele>72</ele>
        <time>2012-06-24T11:35:23.813Z</time>
      </trkpt>
      <trkpt lat="49.31737" lon="1.00155">
        <ele>71.842</ele>
        <time>2012-06-24T11:35:30.956Z</time>
      </trkpt>
      <trkpt lat="49.31739" lon="1.00171">
        <ele>71.547</ele>
        <time>2012-06-24T11:35:35.332Z</time>
      </trkpt>
      <trkpt lat="49.31745" lon="1.00185">
        <ele>70.838</ele>
        <time>2012-06-24T11:35:39.131Z</time>
      </trkpt>
      <trkpt lat="49.31754" lon="1.00189">
        <ele>69.287</ele>
        <time>2012-06-24T11:35:42.779Z</time>
      </trkpt>
      <trkpt lat="49.31762" lon="1.00196">
        <ele>67.234</ele>
        <time>2012-06-24T11:35:46.888Z</time>
      </trkpt>
      <trkpt lat="49.3177" lon="1.00205">
        <ele>65.709</ele>
        <time>2012-06-24T11:35:51.826Z</time>
      </trkpt>
      <trkpt lat="49.3178" lon="1.00211">
        <ele>65.147</ele>
        <time>2012-06-24T11:35:57.676Z</time>
      </trkpt>
      <trkpt lat="49.31787" lon="1.0022">
        <ele>65.209</ele>
        <time>2012-06-24T11:36:03.203Z</time>
      </trkpt>
      <trkpt lat="49.31789" lon="1.00233">
        <ele>65.696</ele>
        <time>2012-06-24T11:36:09.377Z</time>
      </trkpt>
      <trkpt lat="49.31795" lon="1.00249">
        <ele>66.49</ele>
        <time>2012-06-24T11:36:21.063Z</time>
      </trkpt>
      <trkpt lat="49.31803" lon="1.00259">
        <ele>67.686</ele>
        <time>2012-06-24T11:36:32.178Z</time>
      </trkpt>
      <trkpt lat="49.31808" lon="1.00272">
        <ele>69.289</ele>
        <time>2012-06-24T11:36:38.312Z</time>
      </trkpt>
      <trkpt lat="49.31811" lon="1.00286">
        <ele>70.64</ele>
        <time>2012-06-24T11:36:42.808Z</time>
      </trkpt>
      <trkpt lat="49.31811" lon="1.00286">
        <ele>71.166</ele>
        <time>2012-06-24T11:36:45.813Z</time>
      </trkpt>
      <trkpt lat="49.31811" lon="1.00286">
        <ele>71.14</ele>
        <time>2012-06-24T11:36:53.814Z</time>
      </trkpt>
      <trkpt lat="49.31825" lon="1.00305">
        <ele>70.969</ele>
        <time>2012-06-24T11:36:53.814Z</time>
      </trkpt>
      <trkpt lat="49.31825" lon="1.00305">
        <ele>70.856</ele>
        <time>2012-06-24T11:36:59.810Z</time>
      </trkpt>
      <trkpt lat="49.31825" lon="1.00305">
        <ele>70.818</ele>
        <time>2012-06-24T11:37:11.808Z</time>
      </trkpt>
      <trkpt lat="49.31848" lon="1.00318">
        <ele>70.8</ele>
        <time>2012-06-24T11:37:11.808Z</time>
      </trkpt>
      <trkpt lat="49.31857" lon="1.00314">
        <ele>70.781</ele>
        <time>2012-06-24T11:37:16.819Z</time>
      </trkpt>
      <trkpt lat="49.31857" lon="1.00314">
        <ele>70.773</ele>
        <time>2012-06-24T11:37:25.809Z</time>
      </trkpt>
      <trkpt lat="49.31857" lon="1.00314">
        <ele>70.761</ele>
        <time>2012-06-24T11:37:42.808Z</time>
      </trkpt>
      <trkpt lat="49.31862" lon="1.00332">
        <ele>70.746</ele>
        <time>2012-06-24T11:37:42.808Z</time>
      </trkpt>
      <trkpt lat="49.31855" lon="1.00345">
        <ele>70.747</ele>
        <time>2012-06-24T11:37:48.842Z</time>
      </trkpt>
      <trkpt lat="49.31854" lon="1.00359">
        <ele>70.862</ele>
        <time>2012-06-24T11:37:52.450Z</time>
      </trkpt>
      <trkpt lat="49.31858" lon="1.00375">
        <ele>71.107</ele>
        <time>2012-06-24T11:37:56.392Z</time>
      </trkpt>
      <trkpt lat="49.3186" lon="1.00391">
        <ele>71.452</ele>
        <time>2012-06-24T11:37:59.976Z</time>
      </trkpt>
      <trkpt lat="49.31867" lon="1.00401">
        <ele>72.146</ele>
        <time>2012-06-24T11:38:02.987Z</time>
      </trkpt>
      <trkpt lat="49.31875" lon="1.00414">
        <ele>73.212</ele>
        <time>2012-06-24T11:38:06.812Z</time>
      </trkpt>
      <trkpt lat="49.31875" lon="1.00414">
        <ele>74.011</ele>
        <time>2012-06-24T11:38:06.812Z</time>
      </trkpt>
      <trkpt lat="49.31875" lon="1.00414">
        <ele>74.171</ele>
        <time>2012-06-24T11:38:10.809Z</time>
      </trkpt>
      <trkpt lat="49.31885" lon="1.00423">
        <ele>73.903</ele>
        <time>2012-06-24T11:38:10.809Z</time>
      </trkpt>
      <trkpt lat="49.31894" lon="1.00426">
        <ele>73.499</ele>
        <time>2012-06-24T11:38:14.728Z</time>
      </trkpt>
      <trkpt lat="49.31906" lon="1.00433">
        <ele>73.271</ele>
        <time>2012-06-24T11:38:19.606Z</time>
      </trkpt>
      <trkpt lat="49.31906" lon="1.00433">
        <ele>73.296</ele>
        <time>2012-06-24T11:38:19.606Z</time>
      </trkpt>
      <trkpt lat="49.3191" lon="1.00448">
        <ele>73.322</ele>
        <time>2012-06-24T11:38:23.998Z</time>
      </trkpt>
      <trkpt lat="49.3191" lon="1.00464">
        <ele>73.36</ele>
        <time>2012-06-24T11:38:27.706Z</time>
      </trkpt>
      <trkpt lat="49.31906" lon="1.00479">
        <ele>73.815</ele>
        <time>2012-06-24T11:38:31.754Z</time>
      </trkpt>
      <trkpt lat="49.3191" lon="1.00495">
        <ele>74.703</ele>
        <time>2012-06-24T11:38:36.186Z</time>
      </trkpt>
      <trkpt lat="49.31915" lon="1.00509">
        <ele>75.485</ele>
        <time>2012-06-24T11:38:40.869Z</time>
      </trkpt>
      <trkpt lat="49.31924" lon="1.00508">
        <ele>75.474</ele>
        <time>2012-06-24T11:38:45.856Z</time>
      </trkpt>
      <trkpt lat="49.31933" lon="1.00512">
        <ele>73.953</ele>
        <time>2012-06-24T11:38:51.370Z</time>
      </trkpt>
      <trkpt lat="49.31943" lon="1.00513">
        <ele>71.194</ele>
        <time>2012-06-24T11:38:56.812Z</time>
      </trkpt>
      <trkpt lat="49.31943" lon="1.00513">
        <ele>68.768</ele>
        <time>2012-06-24T11:39:00.811Z</time>
      </trkpt>
      <trkpt lat="49.31943" lon="1.00513">
        <ele>67.654</ele>
        <time>2012-06-24T11:39:15.812Z</time>
      </trkpt>
      <trkpt lat="49.31956" lon="1.00538">
        <ele>67.583</ele>
        <time>2012-06-24T11:39:15.812Z</time>
      </trkpt>
      <trkpt lat="49.31965" lon="1.00533">
        <ele>68.01</ele>
        <time>2012-06-24T11:39:38.811Z</time>
      </trkpt>
      <trkpt lat="49.31965" lon="1.00533">
        <ele>68.47</ele>
        <time>2012-06-24T11:39:47.814Z</time>
      </trkpt>
      <trkpt lat="49.31965" lon="1.00533">
        <ele>68.717</ele>
        <time>2012-06-24T11:39:52.812Z</time>
      </trkpt>
      <trkpt lat="49.31969" lon="1.00549">
        <ele>69.108</ele>
        <time>2012-06-24T11:39:52.812Z</time>
      </trkpt>
      <trkpt lat="49.3197" lon="1.00564">
        <ele>70.595</ele>
        <time>2012-06-24T11:39:57.811Z</time>
      </trkpt>
      <trkpt lat="49.3197" lon="1.00564">
        <ele>73.127</ele>
        <time>2012-06-24T11:40:02.811Z</time>
      </trkpt>
      <trkpt lat="49.3197" lon="1.00564">
        <ele>74.874</ele>
        <time>2012-06-24T11:40:09.809Z</time>
      </trkpt>
      <trkpt lat="49.31965" lon="1.00582">
        <ele>74.527</ele>
        <time>2012-06-24T11:40:09.809Z</time>
      </trkpt>
      <trkpt lat="49.31966" lon="1.00597">
        <ele>72.939</ele>
        <time>2012-06-24T11:40:15.812Z</time>
      </trkpt>
      <trkpt lat="49.31966" lon="1.00597">
        <ele>71.817</ele>
        <time>2012-06-24T11:40:16.812Z</time>
      </trkpt>
      <trkpt lat="49.31966" lon="1.00597">
        <ele>71.677</ele>
        <time>2012-06-24T11:40:28.814Z</time>
      </trkpt>
      <trkpt lat="49.31979" lon="1.00614">
        <ele>71.823</ele>
        <time>2012-06-24T11:40:28.814Z</time>
      </trkpt>
      <trkpt lat="49.31988" lon="1.00613">
        <ele>71.972</ele>
        <time>2012-06-24T11:40:32.620Z</time>
      </trkpt>
      <trkpt lat="49.31999" lon="1.00611">
        <ele>72.33</ele>
        <time>2012-06-24T11:40:35.815Z</time>
      </trkpt>
      <trkpt lat="49.31999" lon="1.00611">
        <ele>72.712</ele>
        <time>2012-06-24T11:40:46.812Z</time>
      </trkpt>
      <trkpt lat="49.31999" lon="1.00611">
        <ele>72.897</ele>
        <time>2012-06-24T11:40:59.810Z</time>
      </trkpt>
      <trkpt lat="49.32012" lon="1.00632">
        <ele>72.896</ele>
        <time>2012-06-24T11:40:59.810Z</time>
      </trkpt>
      <trkpt lat="49.32012" lon="1.00632">
        <ele>72.809</ele>
        <time>2012-06-24T11:41:08.812Z</time>
      </trkpt>
      <trkpt lat="49.32012" lon="1.00632">
        <ele>72.749</ele>
        <time>2012-06-24T11:41:58.813Z</time>
      </trkpt>
      <trkpt lat="49.32015" lon="1.00663">
        <ele>72.718</ele>
        <time>2012-06-24T11:41:58.813Z</time>
      </trkpt>
      <trkpt lat="49.32015" lon="1.00679">
        <ele>72.622</ele>
        <time>2012-06-24T11:42:03.467Z</time>
      </trkpt>
      <trkpt lat="49.32023" lon="1.00688">
        <ele>71.535</ele>
        <time>2012-06-24T11:42:06.814Z</time>
      </trkpt>
      <trkpt lat="49.32023" lon="1.00688">
        <ele>69.001</ele>
        <time>2012-06-24T11:42:18.816Z</time>
      </trkpt>
      <trkpt lat="49.32023" lon="1.00688">
        <ele>66.945</ele>
        <time>2012-06-24T11:44:50.815Z</time>
      </trkpt>
      <trkpt lat="49.32044" lon="1.0071">
        <ele>66.507</ele>
        <time>2012-06-24T11:44:50.815Z</time>
      </trkpt>
      <trkpt lat="49.32049" lon="1.00725">
        <ele>66.235</ele>
        <time>2012-06-24T11:44:59.485Z</time>
      </trkpt>
      <trkpt lat="49.32053" lon="1.00741">
        <ele>65.334</ele>
        <time>2012-06-24T11:45:06.497Z</time>
      </trkpt>
      <trkpt lat="49.32056" lon="1.00754">
        <ele>64.445</ele>
        <time>2012-06-24T11:45:13.069Z</time>
      </trkpt>
      <trkpt lat="49.32064" lon="1.0076">
        <ele>64.074</ele>
        <time>2012-06-24T11:45:21.564Z</time>
      </trkpt>
      <trkpt lat="49.32074" lon="1.00761">
        <ele>64.203</ele>
        <time>2012-06-24T11:45:36.292Z</time>
      </trkpt>
      <trkpt lat="49.32083" lon="1.00756">
        <ele>64.463</ele>
        <time>2012-06-24T11:45:49.811Z</time>
      </trkpt>
      <trkpt lat="49.32083" lon="1.00756">
        <ele>64.621</ele>
        <time>2012-06-24T11:45:58.817Z</time>
      </trkpt>
      <trkpt lat="49.32083" lon="1.00756">
        <ele>64.656</ele>
        <time>2012-06-24T11:46:09.813Z</time>
      </trkpt>
      <trkpt lat="49.32104" lon="1.0073">
        <ele>64.808</ele>
        <time>2012-06-24T11:46:09.813Z</time>
      </trkpt>
      <trkpt lat="49.32113" lon="1.00721">
        <ele>66.053</ele>
        <time>2012-06-24T11:46:16.303Z</time>
      </trkpt>
      <trkpt lat="49.32122" lon="1.00713">
        <ele>68.699</ele>
        <time>2012-06-24T11:46:21.222Z</time>
      </trkpt>
      <trkpt lat="49.32132" lon="1.00706">
        <ele>71.282</ele>
        <time>2012-06-24T11:46:25.567Z</time>
      </trkpt>
      <trkpt lat="49.3214" lon="1.007">
        <ele>73.112</ele>
        <time>2012-06-24T11:46:29.698Z</time>
      </trkpt>
      <trkpt lat="49.32147" lon="1.0069">
        <ele>75.687</ele>
        <time>2012-06-24T11:46:36.214Z</time>
      </trkpt>
      <trkpt lat="49.32153" lon="1.00679">
        <ele>80.319</ele>
        <time>2012-06-24T11:46:43.990Z</time>
      </trkpt>
      <trkpt lat="49.32162" lon="1.00676">
        <ele>85.851</ele>
        <time>2012-06-24T11:46:53.044Z</time>
      </trkpt>
      <trkpt lat="49.3217" lon="1.00683">
        <ele>89.785</ele>
        <time>2012-06-24T11:47:02.894Z</time>
      </trkpt>
      <trkpt lat="49.32176" lon="1.00695">
        <ele>91.379</ele>
        <time>2012-06-24T11:47:14.566Z</time>
      </trkpt>
      <trkpt lat="49.3218" lon="1.00708">
        <ele>91.733</ele>
        <time>2012-06-24T11:47:25.309Z</time>
      </trkpt>
      <trkpt lat="49.32186" lon="1.0072">
        <ele>91.687</ele>
        <time>2012-06-24T11:47:34.618Z</time>
      </trkpt>
      <trkpt lat="49.32192" lon="1.0073">
        <ele>91.552</ele>
        <time>2012-06-24T11:47:42.822Z</time>
      </trkpt>
      <trkpt lat="49.32201" lon="1.00735">
        <ele>91.463</ele>
        <time>2012-06-24T11:47:52.727Z</time>
      </trkpt>
      <trkpt lat="49.32212" lon="1.0074">
        <ele>91.725</ele>
        <time>2012-06-24T11:48:05.423Z</time>
      </trkpt>
      <trkpt lat="49.32221" lon="1.00746">
        <ele>92.664</ele>
        <time>2012-06-24T11:48:13.283Z</time>
      </trkpt>
      <trkpt lat="49.32231" lon="1.00748">
        <ele>93.921</ele>
        <time>2012-06-24T11:48:18.562Z</time>
      </trkpt>
      <trkpt lat="49.3224" lon="1.00751">
        <ele>95.416</ele>
        <time>2012-06-24T11:48:23.464Z</time>
      </trkpt>
      <trkpt lat="49.3225" lon="1.00756">
        <ele>97.608</ele>
        <time>2012-06-24T11:48:27.815Z</time>
      </trkpt>
      <trkpt lat="49.32258" lon="1.00763">
        <ele>100.08</ele>
        <time>2012-06-24T11:48:30.967Z</time>
      </trkpt>
      <trkpt lat="49.32265" lon="1.00776">
        <ele>101.851</ele>
        <time>2012-06-24T11:48:35.353Z</time>
      </trkpt>
      <trkpt lat="49.32267" lon="1.00791">
        <ele>102.634</ele>
        <time>2012-06-24T11:48:39.901Z</time>
      </trkpt>
      <trkpt lat="49.32273" lon="1.00804">
        <ele>102.718</ele>
        <time>2012-06-24T11:48:45.592Z</time>
      </trkpt>
      <trkpt lat="49.32274" lon="1.00819">
        <ele>101.778</ele>
        <time>2012-06-24T11:48:53.599Z</time>
      </trkpt>
      <trkpt lat="49.32274" lon="1.00833">
        <ele>99.508</ele>
        <time>2012-06-24T11:49:02.690Z</time>
      </trkpt>
      <trkpt lat="49.32275" lon="1.00848">
        <ele>97.118</ele>
        <time>2012-06-24T11:49:13.127Z</time>
      </trkpt>
      <trkpt lat="49.32272" lon="1.00863">
        <ele>95.875</ele>
        <time>2012-06-24T11:49:22.529Z</time>
      </trkpt>
      <trkpt lat="49.32272" lon="1.00878">
        <ele>95.622</ele>
        <time>2012-06-24T11:49:30.464Z</time>
      </trkpt>
      <trkpt lat="49.32273" lon="1.00892">
        <ele>95.917</ele>
        <time>2012-06-24T11:49:38.831Z</time>
      </trkpt>
      <trkpt lat="49.32273" lon="1.00892">
        <ele>96.455</ele>
        <time>2012-06-24T11:49:40.827Z</time>
      </trkpt>
      <trkpt lat="49.32273" lon="1.00892">
        <ele>96.907</ele>
        <time>2012-06-24T11:50:00.818Z</time>
      </trkpt>
      <trkpt lat="49.3227" lon="1.00923">
        <ele>97.23</ele>
        <time>2012-06-24T11:50:00.818Z</time>
      </trkpt>
      <trkpt lat="49.32267" lon="1.00938">
        <ele>97.595</ele>
        <time>2012-06-24T11:50:09.220Z</time>
      </trkpt>
      <trkpt lat="49.32264" lon="1.00951">
        <ele>97.914</ele>
        <time>2012-06-24T11:50:15.822Z</time>
      </trkpt>
      <trkpt lat="49.32264" lon="1.00951">
        <ele>98.049</ele>
        <time>2012-06-24T11:50:20.832Z</time>
      </trkpt>
      <trkpt lat="49.32264" lon="1.00951">
        <ele>98.052</ele>
        <time>2012-06-24T11:50:27.832Z</time>
      </trkpt>
      <trkpt lat="49.32264" lon="1.00974">
        <ele>98.759</ele>
        <time>2012-06-24T11:50:27.832Z</time>
      </trkpt>
      <trkpt lat="49.32267" lon="1.0099">
        <ele>101.354</ele>
        <time>2012-06-24T11:50:35.695Z</time>
      </trkpt>
      <trkpt lat="49.32266" lon="1.01005">
        <ele>105.095</ele>
        <time>2012-06-24T11:50:41.768Z</time>
      </trkpt>
      <trkpt lat="49.32271" lon="1.01017">
        <ele>107.834</ele>
        <time>2012-06-24T11:50:47.764Z</time>
      </trkpt>
      <trkpt lat="49.32278" lon="1.01026">
        <ele>108.828</ele>
        <time>2012-06-24T11:50:54.549Z</time>
      </trkpt>
      <trkpt lat="49.3228" lon="1.0104">
        <ele>109.097</ele>
        <time>2012-06-24T11:51:02.151Z</time>
      </trkpt>
      <trkpt lat="49.32283" lon="1.01054">
        <ele>109.577</ele>
        <time>2012-06-24T11:51:10.878Z</time>
      </trkpt>
      <trkpt lat="49.32291" lon="1.01067">
        <ele>109.877</ele>
        <time>2012-06-24T11:51:17.940Z</time>
      </trkpt>
      <trkpt lat="49.32298" lon="1.01076">
        <ele>109.435</ele>
        <time>2012-06-24T11:51:22.000Z</time>
      </trkpt>
      <trkpt lat="49.32306" lon="1.01083">
        <ele>109.017</ele>
        <time>2012-06-24T11:51:25.482Z</time>
      </trkpt>
      <trkpt lat="49.32315" lon="1.01091">
        <ele>109.362</ele>
        <time>2012-06-24T11:51:29.541Z</time>
      </trkpt>
      <trkpt lat="49.32323" lon="1.01097">
        <ele>109.987</ele>
        <time>2012-06-24T11:51:33.740Z</time>
      </trkpt>
      <trkpt lat="49.32332" lon="1.01109">
        <ele>110.276</ele>
        <time>2012-06-24T11:51:39.952Z</time>
      </trkpt>
      <trkpt lat="49.32339" lon="1.01118">
        <ele>110.315</ele>
        <time>2012-06-24T11:51:45.586Z</time>
      </trkpt>
      <trkpt lat="49.32343" lon="1.01132">
        <ele>110.663</ele>
        <time>2012-06-24T11:51:51.429Z</time>
      </trkpt>
      <trkpt lat="49.3235" lon="1.01145">
        <ele>111.668</ele>
        <time>2012-06-24T11:51:56.737Z</time>
      </trkpt>
      <trkpt lat="49.32359" lon="1.01157">
        <ele>113.043</ele>
        <time>2012-06-24T11:52:02.169Z</time>
      </trkpt>
      <trkpt lat="49.32364" lon="1.0117">
        <ele>114.37</ele>
        <time>2012-06-24T11:52:06.691Z</time>
      </trkpt>
      <trkpt lat="49.32366" lon="1.01186">
        <ele>115.712</ele>
        <time>2012-06-24T11:52:12.160Z</time>
      </trkpt>
      <trkpt lat="49.3237" lon="1.01201">
        <ele>117.113</ele>
        <time>2012-06-24T11:52:18.065Z</time>
      </trkpt>
      <trkpt lat="49.32372" lon="1.01216">
        <ele>118.414</ele>
        <time>2012-06-24T11:52:23.544Z</time>
      </trkpt>
      <trkpt lat="49.3237" lon="1.01232">
        <ele>119.476</ele>
        <time>2012-06-24T11:52:28.785Z</time>
      </trkpt>
      <trkpt lat="49.32366" lon="1.01247">
        <ele>120.373</ele>
        <time>2012-06-24T11:52:34.074Z</time>
      </trkpt>
      <trkpt lat="49.3236" lon="1.01259">
        <ele>121.201</ele>
        <time>2012-06-24T11:52:38.581Z</time>
      </trkpt>
      <trkpt lat="49.32359" lon="1.01273">
        <ele>121.871</ele>
        <time>2012-06-24T11:52:43.198Z</time>
      </trkpt>
      <trkpt lat="49.3236" lon="1.01287">
        <ele>122.138</ele>
        <time>2012-06-24T11:52:47.982Z</time>
      </trkpt>
      <trkpt lat="49.3236" lon="1.01301">
        <ele>122.047</ele>
        <time>2012-06-24T11:52:52.677Z</time>
      </trkpt>
      <trkpt lat="49.32356" lon="1.01315">
        <ele>121.999</ele>
        <time>2012-06-24T11:52:57.774Z</time>
      </trkpt>
      <trkpt lat="49.32356" lon="1.0133">
        <ele>122.268</ele>
        <time>2012-06-24T11:53:02.950Z</time>
      </trkpt>
      <trkpt lat="49.32365" lon="1.01341">
        <ele>122.612</ele>
        <time>2012-06-24T11:53:09.286Z</time>
      </trkpt>
      <trkpt lat="49.32371" lon="1.01355">
        <ele>122.495</ele>
        <time>2012-06-24T11:53:14.822Z</time>
      </trkpt>
      <trkpt lat="49.32374" lon="1.01368">
        <ele>121.82</ele>
        <time>2012-06-24T11:53:19.071Z</time>
      </trkpt>
      <trkpt lat="49.32378" lon="1.01381">
        <ele>120.688</ele>
        <time>2012-06-24T11:53:23.615Z</time>
      </trkpt>
      <trkpt lat="49.32386" lon="1.01389">
        <ele>119.275</ele>
        <time>2012-06-24T11:53:28.732Z</time>
      </trkpt>
      <trkpt lat="49.32387" lon="1.01403">
        <ele>117.997</ele>
        <time>2012-06-24T11:53:34.325Z</time>
      </trkpt>
      <trkpt lat="49.32385" lon="1.01418">
        <ele>117.175</ele>
        <time>2012-06-24T11:53:40.798Z</time>
      </trkpt>
      <trkpt lat="49.32385" lon="1.01433">
        <ele>116.658</ele>
        <time>2012-06-24T11:53:47.599Z</time>
      </trkpt>
      <trkpt lat="49.32385" lon="1.01451">
        <ele>116.218</ele>
        <time>2012-06-24T11:53:53.668Z</time>
      </trkpt>
      <trkpt lat="49.32383" lon="1.01466">
        <ele>115.686</ele>
        <time>2012-06-24T11:53:58.629Z</time>
      </trkpt>
      <trkpt lat="49.32384" lon="1.01481">
        <ele>115.023</ele>
        <time>2012-06-24T11:54:02.697Z</time>
      </trkpt>
      <trkpt lat="49.32384" lon="1.01481">
        <ele>114.342</ele>
        <time>2012-06-24T11:54:02.697Z</time>
      </trkpt>
      <trkpt lat="49.32388" lon="1.01495">
        <ele>113.638</ele>
        <time>2012-06-24T11:54:06.794Z</time>
      </trkpt>
      <trkpt lat="49.32394" lon="1.01506">
        <ele>112.801</ele>
        <time>2012-06-24T11:54:11.891Z</time>
      </trkpt>
      <trkpt lat="49.32399" lon="1.01521">
        <ele>112.034</ele>
        <time>2012-06-24T11:54:17.144Z</time>
      </trkpt>
      <trkpt lat="49.32408" lon="1.01527">
        <ele>111.503</ele>
        <time>2012-06-24T11:54:21.843Z</time>
      </trkpt>
      <trkpt lat="49.32408" lon="1.01527">
        <ele>111.078</ele>
        <time>2012-06-24T11:54:21.843Z</time>
      </trkpt>
      <trkpt lat="49.32419" lon="1.01529">
        <ele>110.787</ele>
        <time>2012-06-24T11:54:27.410Z</time>
      </trkpt>
      <trkpt lat="49.32428" lon="1.01532">
        <ele>110.689</ele>
        <time>2012-06-24T11:54:32.571Z</time>
      </trkpt>
      <trkpt lat="49.32437" lon="1.01534">
        <ele>110.699</ele>
        <time>2012-06-24T11:54:37.160Z</time>
      </trkpt>
      <trkpt lat="49.32447" lon="1.01534">
        <ele>110.798</ele>
        <time>2012-06-24T11:54:42.399Z</time>
      </trkpt>
      <trkpt lat="49.32459" lon="1.01535">
        <ele>111.01</ele>
        <time>2012-06-24T11:54:49.828Z</time>
      </trkpt>
      <trkpt lat="49.32459" lon="1.01535">
        <ele>111.244</ele>
        <time>2012-06-24T11:55:00.817Z</time>
      </trkpt>
      <trkpt lat="49.32459" lon="1.01535">
        <ele>111.359</ele>
        <time>2012-06-24T11:55:05.831Z</time>
      </trkpt>
      <trkpt lat="49.32459" lon="1.01535">
        <ele>111.326</ele>
        <time>2012-06-24T11:55:05.831Z</time>
      </trkpt>
      <trkpt lat="49.3247" lon="1.01538">
        <ele>111.22</ele>
        <time>2012-06-24T11:55:15.546Z</time>
      </trkpt>
      <trkpt lat="49.32479" lon="1.01537">
        <ele>111.134</ele>
        <time>2012-06-24T11:55:23.645Z</time>
      </trkpt>
      <trkpt lat="49.32489" lon="1.01532">
        <ele>111.1</ele>
        <time>2012-06-24T11:55:30.818Z</time>
      </trkpt>
      <trkpt lat="49.32489" lon="1.01532">
        <ele>111.099</ele>
        <time>2012-06-24T11:55:44.817Z</time>
      </trkpt>
      <trkpt lat="49.32489" lon="1.01532">
        <ele>111.107</ele>
        <time>2012-06-24T11:56:24.820Z</time>
      </trkpt>
      <trkpt lat="49.32503" lon="1.01557">
        <ele>111.114</ele>
        <time>2012-06-24T11:56:24.820Z</time>
      </trkpt>
      <trkpt lat="49.32507" lon="1.0157">
        <ele>111.208</ele>
        <time>2012-06-24T11:56:30.852Z</time>
      </trkpt>
      <trkpt lat="49.32511" lon="1.01583">
        <ele>112.014</ele>
        <time>2012-06-24T11:56:35.211Z</time>
      </trkpt>
      <trkpt lat="49.32513" lon="1.01599">
        <ele>114.052</ele>
        <time>2012-06-24T11:56:39.507Z</time>
      </trkpt>
      <trkpt lat="49.32517" lon="1.01615">
        <ele>116.9</ele>
        <time>2012-06-24T11:56:43.793Z</time>
      </trkpt>
      <trkpt lat="49.3252" lon="1.0163">
        <ele>119.594</ele>
        <time>2012-06-24T11:56:47.247Z</time>
      </trkpt>
      <trkpt lat="49.32519" lon="1.01645">
        <ele>121.643</ele>
        <time>2012-06-24T11:56:50.688Z</time>
      </trkpt>
      <trkpt lat="49.32517" lon="1.01658">
        <ele>123.127</ele>
        <time>2012-06-24T11:56:53.858Z</time>
      </trkpt>
      <trkpt lat="49.32511" lon="1.01673">
        <ele>124.194</ele>
        <time>2012-06-24T11:56:57.826Z</time>
      </trkpt>
      <trkpt lat="49.32511" lon="1.01673">
        <ele>124.783</ele>
        <time>2012-06-24T11:56:57.826Z</time>
      </trkpt>
      <trkpt lat="49.32511" lon="1.01673">
        <ele>124.949</ele>
        <time>2012-06-24T11:57:01.837Z</time>
      </trkpt>
      <trkpt lat="49.32504" lon="1.01694">
        <ele>124.83</ele>
        <time>2012-06-24T11:57:01.837Z</time>
      </trkpt>
      <trkpt lat="49.32504" lon="1.01708">
        <ele>124.616</ele>
        <time>2012-06-24T11:57:05.926Z</time>
      </trkpt>
      <trkpt lat="49.32507" lon="1.01722">
        <ele>124.408</ele>
        <time>2012-06-24T11:57:10.163Z</time>
      </trkpt>
      <trkpt lat="49.32515" lon="1.01735">
        <ele>123.906</ele>
        <time>2012-06-24T11:57:15.370Z</time>
      </trkpt>
      <trkpt lat="49.32524" lon="1.01747">
        <ele>122.706</ele>
        <time>2012-06-24T11:57:19.903Z</time>
      </trkpt>
      <trkpt lat="49.32533" lon="1.01756">
        <ele>120.867</ele>
        <time>2012-06-24T11:57:23.751Z</time>
      </trkpt>
      <trkpt lat="49.32539" lon="1.01767">
        <ele>118.669</ele>
        <time>2012-06-24T11:57:26.785Z</time>
      </trkpt>
      <trkpt lat="49.32544" lon="1.01778">
        <ele>116.586</ele>
        <time>2012-06-24T11:57:29.906Z</time>
      </trkpt>
      <trkpt lat="49.32544" lon="1.01778">
        <ele>115.288</ele>
        <time>2012-06-24T11:57:29.906Z</time>
      </trkpt>
      <trkpt lat="49.32548" lon="1.01793">
        <ele>114.904</ele>
        <time>2012-06-24T11:57:33.579Z</time>
      </trkpt>
      <trkpt lat="49.32552" lon="1.01807">
        <ele>114.988</ele>
        <time>2012-06-24T11:57:37.159Z</time>
      </trkpt>
      <trkpt lat="49.32554" lon="1.01822">
        <ele>115.326</ele>
        <time>2012-06-24T11:57:41.141Z</time>
      </trkpt>
      <trkpt lat="49.32554" lon="1.01822">
        <ele>115.859</ele>
        <time>2012-06-24T11:57:41.141Z</time>
      </trkpt>
      <trkpt lat="49.32554" lon="1.01839">
        <ele>116.557</ele>
        <time>2012-06-24T11:57:45.815Z</time>
      </trkpt>
      <trkpt lat="49.32556" lon="1.01853">
        <ele>117.435</ele>
        <time>2012-06-24T11:57:49.682Z</time>
      </trkpt>
      <trkpt lat="49.32558" lon="1.01869">
        <ele>118.276</ele>
        <time>2012-06-24T11:57:54.303Z</time>
      </trkpt>
      <trkpt lat="49.32562" lon="1.01882">
        <ele>118.754</ele>
        <time>2012-06-24T11:57:59.695Z</time>
      </trkpt>
      <trkpt lat="49.32564" lon="1.01895">
        <ele>118.888</ele>
        <time>2012-06-24T11:58:05.595Z</time>
      </trkpt>
      <trkpt lat="49.32566" lon="1.01909">
        <ele>118.843</ele>
        <time>2012-06-24T11:58:11.451Z</time>
      </trkpt>
      <trkpt lat="49.32566" lon="1.01924">
        <ele>118.771</ele>
        <time>2012-06-24T11:58:17.829Z</time>
      </trkpt>
      <trkpt lat="49.32566" lon="1.01924">
        <ele>118.739</ele>
        <time>2012-06-24T11:58:24.827Z</time>
      </trkpt>
      <trkpt lat="49.32566" lon="1.01924">
        <ele>118.716</ele>
        <time>2012-06-24T11:58:41.835Z</time>
      </trkpt>
      <trkpt lat="49.32585" lon="1.01938">
        <ele>118.677</ele>
        <time>2012-06-24T11:58:41.835Z</time>
      </trkpt>
      <trkpt lat="49.32585" lon="1.01938">
        <ele>118.639</ele>
        <time>2012-06-24T11:58:51.833Z</time>
      </trkpt>
      <trkpt lat="49.32585" lon="1.01938">
        <ele>118.613</ele>
        <time>2012-06-24T11:58:58.830Z</time>
      </trkpt>
      <trkpt lat="49.32594" lon="1.01931">
        <ele>118.605</ele>
        <time>2012-06-24T11:58:58.830Z</time>
      </trkpt>
      <trkpt lat="49.32594" lon="1.01931">
        <ele>118.609</ele>
        <time>2012-06-24T11:59:04.831Z</time>
      </trkpt>
      <trkpt lat="49.32594" lon="1.01931">
        <ele>118.603</ele>
        <time>2012-06-24T11:59:15.823Z</time>
      </trkpt>
      <trkpt lat="49.32606" lon="1.01932">
        <ele>118.576</ele>
        <time>2012-06-24T11:59:15.823Z</time>
      </trkpt>
      <trkpt lat="49.32616" lon="1.01934">
        <ele>118.549</ele>
        <time>2012-06-24T11:59:23.700Z</time>
      </trkpt>
      <trkpt lat="49.32616" lon="1.01934">
        <ele>118.531</ele>
        <time>2012-06-24T11:59:23.700Z</time>
      </trkpt>
      <trkpt lat="49.32623" lon="1.01941">
        <ele>119.504</ele>
        <time>2012-06-24T11:59:27.512Z</time>
      </trkpt>
      <trkpt lat="49.32631" lon="1.01951">
        <ele>122.066</ele>
        <time>2012-06-24T11:59:33.707Z</time>
      </trkpt>
      <trkpt lat="49.32641" lon="1.01958">
        <ele>124.791</ele>
        <time>2012-06-24T11:59:40.174Z</time>
      </trkpt>
      <trkpt lat="49.32649" lon="1.01965">
        <ele>126.292</ele>
        <time>2012-06-24T11:59:45.834Z</time>
      </trkpt>
      <trkpt lat="49.32656" lon="1.01975">
        <ele>126.982</ele>
        <time>2012-06-24T11:59:50.785Z</time>
      </trkpt>
      <trkpt lat="49.32656" lon="1.01975">
        <ele>127.33</ele>
        <time>2012-06-24T11:59:50.785Z</time>
      </trkpt>
      <trkpt lat="49.32663" lon="1.01986">
        <ele>127.475</ele>
        <time>2012-06-24T11:59:55.662Z</time>
      </trkpt>
      <trkpt lat="49.32669" lon="1.01996">
        <ele>127.692</ele>
        <time>2012-06-24T11:59:59.588Z</time>
      </trkpt>
      <trkpt lat="49.32676" lon="1.02006">
        <ele>128.209</ele>
        <time>2012-06-24T12:00:03.638Z</time>
      </trkpt>
      <trkpt lat="49.32687" lon="1.0202">
        <ele>128.802</ele>
        <time>2012-06-24T12:00:08.568Z</time>
      </trkpt>
      <trkpt lat="49.32692" lon="1.02035">
        <ele>129.027</ele>
        <time>2012-06-24T12:00:12.103Z</time>
      </trkpt>
      <trkpt lat="49.32696" lon="1.0205">
        <ele>128.784</ele>
        <time>2012-06-24T12:00:15.492Z</time>
      </trkpt>
      <trkpt lat="49.32701" lon="1.02063">
        <ele>128.519</ele>
        <time>2012-06-24T12:00:18.398Z</time>
      </trkpt>
      <trkpt lat="49.32707" lon="1.02076">
        <ele>128.469</ele>
        <time>2012-06-24T12:00:21.976Z</time>
      </trkpt>
      <trkpt lat="49.32707" lon="1.02076">
        <ele>128.465</ele>
        <time>2012-06-24T12:00:21.976Z</time>
      </trkpt>
      <trkpt lat="49.32714" lon="1.02088">
        <ele>128.393</ele>
        <time>2012-06-24T12:00:25.724Z</time>
      </trkpt>
      <trkpt lat="49.3272" lon="1.02101">
        <ele>128.268</ele>
        <time>2012-06-24T12:00:29.526Z</time>
      </trkpt>
      <trkpt lat="49.32726" lon="1.02114">
        <ele>128.171</ele>
        <time>2012-06-24T12:00:32.839Z</time>
      </trkpt>
      <trkpt lat="49.32731" lon="1.02125">
        <ele>127.912</ele>
        <time>2012-06-24T12:00:35.707Z</time>
      </trkpt>
      <trkpt lat="49.32736" lon="1.02141">
        <ele>127.245</ele>
        <time>2012-06-24T12:00:39.342Z</time>
      </trkpt>
      <trkpt lat="49.32736" lon="1.02141">
        <ele>126.431</ele>
        <time>2012-06-24T12:00:38.820Z</time>
      </trkpt>
      <trkpt lat="49.32738" lon="1.02158">
        <ele>125.866</ele>
        <time>2012-06-24T12:00:44.018Z</time>
      </trkpt>
      <trkpt lat="49.32738" lon="1.02175">
        <ele>125.576</ele>
        <time>2012-06-24T12:00:47.747Z</time>
      </trkpt>
      <trkpt lat="49.32739" lon="1.02195">
        <ele>125.519</ele>
        <time>2012-06-24T12:00:51.784Z</time>
      </trkpt>
      <trkpt lat="49.32738" lon="1.02213">
        <ele>125.821</ele>
        <time>2012-06-24T12:00:55.055Z</time>
      </trkpt>
      <trkpt lat="49.32739" lon="1.02232">
        <ele>126.457</ele>
        <time>2012-06-24T12:00:58.402Z</time>
      </trkpt>
      <trkpt lat="49.32738" lon="1.02249">
        <ele>127.193</ele>
        <time>2012-06-24T12:01:01.635Z</time>
      </trkpt>
      <trkpt lat="49.3274" lon="1.02266">
        <ele>127.815</ele>
        <time>2012-06-24T12:01:05.282Z</time>
      </trkpt>
      <trkpt lat="49.32749" lon="1.0227">
        <ele>128.189</ele>
        <time>2012-06-24T12:01:09.135Z</time>
      </trkpt>
      <trkpt lat="49.32756" lon="1.02261">
        <ele>128.293</ele>
        <time>2012-06-24T12:01:14.260Z</time>
      </trkpt>
      <trkpt lat="49.32764" lon="1.02254">
        <ele>128.049</ele>
        <time>2012-06-24T12:01:19.402Z</time>
      </trkpt>
      <trkpt lat="49.32773" lon="1.02246">
        <ele>127.439</ele>
        <time>2012-06-24T12:01:23.578Z</time>
      </trkpt>
      <trkpt lat="49.32783" lon="1.02239">
        <ele>126.834</ele>
        <time>2012-06-24T12:01:27.521Z</time>
      </trkpt>
      <trkpt lat="49.32793" lon="1.02235">
        <ele>126.553</ele>
        <time>2012-06-24T12:01:31.042Z</time>
      </trkpt>
      <trkpt lat="49.32802" lon="1.02231">
        <ele>126.843</ele>
        <time>2012-06-24T12:01:33.884Z</time>
      </trkpt>
      <trkpt lat="49.32812" lon="1.02224">
        <ele>127.752</ele>
        <time>2012-06-24T12:01:37.208Z</time>
      </trkpt>
      <trkpt lat="49.3282" lon="1.02217">
        <ele>128.681</ele>
        <time>2012-06-24T12:01:40.205Z</time>
      </trkpt>
      <trkpt lat="49.32831" lon="1.02209">
        <ele>129.153</ele>
        <time>2012-06-24T12:01:44.122Z</time>
      </trkpt>
      <trkpt lat="49.32843" lon="1.02202">
        <ele>129.27</ele>
        <time>2012-06-24T12:01:47.933Z</time>
      </trkpt>
      <trkpt lat="49.32853" lon="1.02194">
        <ele>129.183</ele>
        <time>2012-06-24T12:01:51.243Z</time>
      </trkpt>
      <trkpt lat="49.32862" lon="1.02189">
        <ele>129.027</ele>
        <time>2012-06-24T12:01:54.206Z</time>
      </trkpt>
      <trkpt lat="49.32871" lon="1.02182">
        <ele>128.92</ele>
        <time>2012-06-24T12:01:57.181Z</time>
      </trkpt>
      <trkpt lat="49.32881" lon="1.02173">
        <ele>128.93</ele>
        <time>2012-06-24T12:02:00.405Z</time>
      </trkpt>
      <trkpt lat="49.32891" lon="1.02165">
        <ele>129.053</ele>
        <time>2012-06-24T12:02:03.632Z</time>
      </trkpt>
      <trkpt lat="49.32902" lon="1.02157">
        <ele>129.142</ele>
        <time>2012-06-24T12:02:06.847Z</time>
      </trkpt>
      <trkpt lat="49.32911" lon="1.02151">
        <ele>129.085</ele>
        <time>2012-06-24T12:02:09.653Z</time>
      </trkpt>
      <trkpt lat="49.32919" lon="1.02146">
        <ele>128.945</ele>
        <time>2012-06-24T12:02:12.450Z</time>
      </trkpt>
      <trkpt lat="49.32929" lon="1.02139">
        <ele>128.664</ele>
        <time>2012-06-24T12:02:15.849Z</time>
      </trkpt>
      <trkpt lat="49.32938" lon="1.02133">
        <ele>128.141</ele>
        <time>2012-06-24T12:02:18.923Z</time>
      </trkpt>
      <trkpt lat="49.32949" lon="1.02126">
        <ele>127.585</ele>
        <time>2012-06-24T12:02:22.785Z</time>
      </trkpt>
      <trkpt lat="49.32959" lon="1.02117">
        <ele>127.267</ele>
        <time>2012-06-24T12:02:26.593Z</time>
      </trkpt>
      <trkpt lat="49.32969" lon="1.02108">
        <ele>127.187</ele>
        <time>2012-06-24T12:02:30.569Z</time>
      </trkpt>
      <trkpt lat="49.32978" lon="1.02102">
        <ele>127.393</ele>
        <time>2012-06-24T12:02:33.681Z</time>
      </trkpt>
      <trkpt lat="49.32987" lon="1.02095">
        <ele>127.955</ele>
        <time>2012-06-24T12:02:37.350Z</time>
      </trkpt>
      <trkpt lat="49.32997" lon="1.02085">
        <ele>128.6</ele>
        <time>2012-06-24T12:02:41.296Z</time>
      </trkpt>
      <trkpt lat="49.33003" lon="1.02073">
        <ele>128.981</ele>
        <time>2012-06-24T12:02:44.870Z</time>
      </trkpt>
      <trkpt lat="49.33005" lon="1.02059">
        <ele>129.084</ele>
        <time>2012-06-24T12:02:48.250Z</time>
      </trkpt>
      <trkpt lat="49.33005" lon="1.02059">
        <ele>129.048</ele>
        <time>2012-06-24T12:02:48.250Z</time>
      </trkpt>
      <trkpt lat="49.33003" lon="1.02044">
        <ele>128.331</ele>
        <time>2012-06-24T12:02:52.436Z</time>
      </trkpt>
      <trkpt lat="49.32999" lon="1.0203">
        <ele>126.496</ele>
        <time>2012-06-24T12:02:56.539Z</time>
      </trkpt>
      <trkpt lat="49.32994" lon="1.02015">
        <ele>124.498</ele>
        <time>2012-06-24T12:03:00.978Z</time>
      </trkpt>
      <trkpt lat="49.3299" lon="1.02001">
        <ele>123.427</ele>
        <time>2012-06-24T12:03:04.515Z</time>
      </trkpt>
      <trkpt lat="49.32986" lon="1.01984">
        <ele>123.373</ele>
        <time>2012-06-24T12:03:08.522Z</time>
      </trkpt>
      <trkpt lat="49.32981" lon="1.01969">
        <ele>123.977</ele>
        <time>2012-06-24T12:03:11.999Z</time>
      </trkpt>
      <trkpt lat="49.32976" lon="1.01954">
        <ele>124.63</ele>
        <time>2012-06-24T12:03:15.803Z</time>
      </trkpt>
      <trkpt lat="49.32971" lon="1.01942">
        <ele>125.204</ele>
        <time>2012-06-24T12:03:19.421Z</time>
      </trkpt>
      <trkpt lat="49.32963" lon="1.01932">
        <ele>125.924</ele>
        <time>2012-06-24T12:03:24.994Z</time>
      </trkpt>
      <trkpt lat="49.32959" lon="1.01918">
        <ele>126.373</ele>
        <time>2012-06-24T12:03:30.835Z</time>
      </trkpt>
      <trkpt lat="49.32959" lon="1.01918">
        <ele>126.163</ele>
        <time>2012-06-24T12:03:31.823Z</time>
      </trkpt>
      <trkpt lat="49.32959" lon="1.01918">
        <ele>125.779</ele>
        <time>2012-06-24T12:03:37.832Z</time>
      </trkpt>
      <trkpt lat="49.32949" lon="1.01884">
        <ele>125.71</ele>
        <time>2012-06-24T12:03:37.832Z</time>
      </trkpt>
      <trkpt lat="49.32945" lon="1.01871">
        <ele>125.854</ele>
        <time>2012-06-24T12:03:42.286Z</time>
      </trkpt>
      <trkpt lat="49.32943" lon="1.01856">
        <ele>125.917</ele>
        <time>2012-06-24T12:03:47.071Z</time>
      </trkpt>
      <trkpt lat="49.32952" lon="1.0185">
        <ele>125.801</ele>
        <time>2012-06-24T12:03:52.025Z</time>
      </trkpt>
      <trkpt lat="49.32961" lon="1.01843">
        <ele>125.631</ele>
        <time>2012-06-24T12:03:57.263Z</time>
      </trkpt>
      <trkpt lat="49.32967" lon="1.01833">
        <ele>125.504</ele>
        <time>2012-06-24T12:04:02.530Z</time>
      </trkpt>
      <trkpt lat="49.32971" lon="1.01819">
        <ele>125.363</ele>
        <time>2012-06-24T12:04:08.838Z</time>
      </trkpt>
      <trkpt lat="49.32971" lon="1.01819">
        <ele>125.196</ele>
        <time>2012-06-24T12:04:19.817Z</time>
      </trkpt>
      <trkpt lat="49.32971" lon="1.01819">
        <ele>125.075</ele>
        <time>2012-06-24T12:06:23.833Z</time>
      </trkpt>
      <trkpt lat="49.32971" lon="1.01819">
        <ele>125.029</ele>
        <time>2012-06-24T12:06:23.833Z</time>
      </trkpt>
      <trkpt lat="49.32966" lon="1.01833">
        <ele>124.994</ele>
        <time>2012-06-24T12:06:30.839Z</time>
      </trkpt>
      <trkpt lat="49.32966" lon="1.01833">
        <ele>124.922</ele>
        <time>2012-06-24T12:06:57.818Z</time>
      </trkpt>
      <trkpt lat="49.32966" lon="1.01833">
        <ele>124.884</ele>
        <time>2012-06-24T12:06:57.818Z</time>
      </trkpt>
    </trkseg>
  </trk>
</gpx>